<?xml version="1.0" encoding="UTF-8" standalone="no" ?>
<gpx xmlns="http://www.topografix.com/GPX/1/1" xmlns:xsi="http://www.w3.org/2001/XMLSchema-instance" xsi:schemaLocation="http://www.topografix.com/GPX/1/1 http://www.topografix.com/GPX/1/1/gpx.xsd" version="1.1" creator="VisuGPX - https://www.visugpx.com">
  <metadata>
    <name>Plaines Baronnes</name>
    <desc><![CDATA[Parcours facile,un peu aventureux le long du petit ruisseau le "Fainéant" !!!]]></desc>
  </metadata>
  <trk>
    <name><![CDATA[Plaines Baronnes_1]]></name>
    <trkseg>
      <trkpt lat="43.19197" lon="5.65789">
        <ele>104</ele>
        <time>2019-11-13T08:16:12Z</time>
      </trkpt>
      <trkpt lat="43.19195" lon="5.65797">
        <ele>109</ele>
        <time>2019-11-13T08:20:38Z</time>
      </trkpt>
      <trkpt lat="43.19196" lon="5.65805">
        <ele>110</ele>
        <time>2019-11-13T08:20:44Z</time>
      </trkpt>
      <trkpt lat="43.19198" lon="5.65814">
        <ele>112</ele>
        <time>2019-11-13T08:20:50Z</time>
      </trkpt>
      <trkpt lat="43.19199" lon="5.65822">
        <ele>112</ele>
        <time>2019-11-13T08:20:56Z</time>
      </trkpt>
      <trkpt lat="43.19201" lon="5.6583">
        <ele>113</ele>
        <time>2019-11-13T08:21:02Z</time>
      </trkpt>
      <trkpt lat="43.19201" lon="5.65839">
        <ele>114</ele>
        <time>2019-11-13T08:21:08Z</time>
      </trkpt>
      <trkpt lat="43.19203" lon="5.65847">
        <ele>111</ele>
        <time>2019-11-13T08:21:14Z</time>
      </trkpt>
      <trkpt lat="43.19204" lon="5.65855">
        <ele>109</ele>
        <time>2019-11-13T08:21:20Z</time>
      </trkpt>
      <trkpt lat="43.19206" lon="5.65862">
        <ele>107</ele>
        <time>2019-11-13T08:21:26Z</time>
      </trkpt>
      <trkpt lat="43.19207" lon="5.65871">
        <ele>107</ele>
        <time>2019-11-13T08:21:32Z</time>
      </trkpt>
      <trkpt lat="43.19208" lon="5.65877">
        <ele>109</ele>
        <time>2019-11-13T08:21:36Z</time>
      </trkpt>
      <trkpt lat="43.19209" lon="5.65887">
        <ele>109</ele>
        <time>2019-11-13T08:21:42Z</time>
      </trkpt>
      <trkpt lat="43.19211" lon="5.65893">
        <ele>108</ele>
        <time>2019-11-13T08:21:46Z</time>
      </trkpt>
      <trkpt lat="43.19213" lon="5.65902">
        <ele>104</ele>
        <time>2019-11-13T08:21:52Z</time>
      </trkpt>
      <trkpt lat="43.19215" lon="5.6591">
        <ele>104</ele>
        <time>2019-11-13T08:21:58Z</time>
      </trkpt>
      <trkpt lat="43.19216" lon="5.65918">
        <ele>102</ele>
        <time>2019-11-13T08:22:04Z</time>
      </trkpt>
      <trkpt lat="43.19217" lon="5.65927">
        <ele>104</ele>
        <time>2019-11-13T08:22:10Z</time>
      </trkpt>
      <trkpt lat="43.19218" lon="5.65934">
        <ele>105</ele>
        <time>2019-11-13T08:22:14Z</time>
      </trkpt>
      <trkpt lat="43.1922" lon="5.65942">
        <ele>104</ele>
        <time>2019-11-13T08:22:20Z</time>
      </trkpt>
      <trkpt lat="43.19223" lon="5.65952">
        <ele>104</ele>
        <time>2019-11-13T08:22:26Z</time>
      </trkpt>
      <trkpt lat="43.19225" lon="5.65959">
        <ele>102</ele>
        <time>2019-11-13T08:22:32Z</time>
      </trkpt>
      <trkpt lat="43.19226" lon="5.65968">
        <ele>104</ele>
        <time>2019-11-13T08:22:38Z</time>
      </trkpt>
      <trkpt lat="43.19227" lon="5.65975">
        <ele>106</ele>
        <time>2019-11-13T08:22:48Z</time>
      </trkpt>
      <trkpt lat="43.19227" lon="5.65983">
        <ele>105</ele>
        <time>2019-11-13T08:22:56Z</time>
      </trkpt>
      <trkpt lat="43.1923" lon="5.65991">
        <ele>103</ele>
        <time>2019-11-13T08:23:04Z</time>
      </trkpt>
      <trkpt lat="43.19232" lon="5.65999">
        <ele>104</ele>
        <time>2019-11-13T08:23:10Z</time>
      </trkpt>
      <trkpt lat="43.19233" lon="5.66005">
        <ele>102</ele>
        <time>2019-11-13T08:23:16Z</time>
      </trkpt>
      <trkpt lat="43.19234" lon="5.66013">
        <ele>104</ele>
        <time>2019-11-13T08:23:22Z</time>
      </trkpt>
      <trkpt lat="43.19236" lon="5.66019">
        <ele>103</ele>
        <time>2019-11-13T08:23:26Z</time>
      </trkpt>
      <trkpt lat="43.19238" lon="5.66026">
        <ele>106</ele>
        <time>2019-11-13T08:23:30Z</time>
      </trkpt>
      <trkpt lat="43.19239" lon="5.66034">
        <ele>110</ele>
        <time>2019-11-13T08:23:36Z</time>
      </trkpt>
      <trkpt lat="43.19241" lon="5.66042">
        <ele>111</ele>
        <time>2019-11-13T08:23:42Z</time>
      </trkpt>
      <trkpt lat="43.19245" lon="5.66047">
        <ele>111</ele>
        <time>2019-11-13T08:23:46Z</time>
      </trkpt>
      <trkpt lat="43.1925" lon="5.66051">
        <ele>111</ele>
        <time>2019-11-13T08:23:52Z</time>
      </trkpt>
      <trkpt lat="43.19255" lon="5.66054">
        <ele>115</ele>
        <time>2019-11-13T08:23:58Z</time>
      </trkpt>
      <trkpt lat="43.19261" lon="5.66053">
        <ele>110</ele>
        <time>2019-11-13T08:24:04Z</time>
      </trkpt>
      <trkpt lat="43.19267" lon="5.66052">
        <ele>111</ele>
        <time>2019-11-13T08:24:10Z</time>
      </trkpt>
      <trkpt lat="43.19272" lon="5.66052">
        <ele>109</ele>
        <time>2019-11-13T08:24:14Z</time>
      </trkpt>
      <trkpt lat="43.19277" lon="5.66051">
        <ele>113</ele>
        <time>2019-11-13T08:24:20Z</time>
      </trkpt>
      <trkpt lat="43.19282" lon="5.66053">
        <ele>113</ele>
        <time>2019-11-13T08:24:26Z</time>
      </trkpt>
      <trkpt lat="43.19286" lon="5.66057">
        <ele>113</ele>
        <time>2019-11-13T08:24:32Z</time>
      </trkpt>
      <trkpt lat="43.19292" lon="5.6606">
        <ele>113</ele>
        <time>2019-11-13T08:24:38Z</time>
      </trkpt>
      <trkpt lat="43.19297" lon="5.66063">
        <ele>114</ele>
        <time>2019-11-13T08:24:44Z</time>
      </trkpt>
      <trkpt lat="43.19303" lon="5.66063">
        <ele>114</ele>
        <time>2019-11-13T08:24:50Z</time>
      </trkpt>
      <trkpt lat="43.19308" lon="5.66064">
        <ele>115</ele>
        <time>2019-11-13T08:24:54Z</time>
      </trkpt>
      <trkpt lat="43.19314" lon="5.66065">
        <ele>117</ele>
        <time>2019-11-13T08:25:00Z</time>
      </trkpt>
      <trkpt lat="43.19319" lon="5.66067">
        <ele>118</ele>
        <time>2019-11-13T08:25:06Z</time>
      </trkpt>
      <trkpt lat="43.19324" lon="5.66068">
        <ele>118</ele>
        <time>2019-11-13T08:25:12Z</time>
      </trkpt>
      <trkpt lat="43.1933" lon="5.66069">
        <ele>118</ele>
        <time>2019-11-13T08:25:18Z</time>
      </trkpt>
      <trkpt lat="43.19336" lon="5.66068">
        <ele>120</ele>
        <time>2019-11-13T08:25:26Z</time>
      </trkpt>
      <trkpt lat="43.19343" lon="5.66068">
        <ele>119</ele>
        <time>2019-11-13T08:25:32Z</time>
      </trkpt>
      <trkpt lat="43.19347" lon="5.66068">
        <ele>119</ele>
        <time>2019-11-13T08:25:36Z</time>
      </trkpt>
      <trkpt lat="43.19354" lon="5.66068">
        <ele>119</ele>
        <time>2019-11-13T08:25:42Z</time>
      </trkpt>
      <trkpt lat="43.1936" lon="5.66067">
        <ele>119</ele>
        <time>2019-11-13T08:25:48Z</time>
      </trkpt>
      <trkpt lat="43.19366" lon="5.66069">
        <ele>120</ele>
        <time>2019-11-13T08:25:54Z</time>
      </trkpt>
      <trkpt lat="43.19371" lon="5.66071">
        <ele>120</ele>
        <time>2019-11-13T08:26:00Z</time>
      </trkpt>
      <trkpt lat="43.19377" lon="5.66073">
        <ele>121</ele>
        <time>2019-11-13T08:26:06Z</time>
      </trkpt>
      <trkpt lat="43.19381" lon="5.66077">
        <ele>120</ele>
        <time>2019-11-13T08:26:12Z</time>
      </trkpt>
      <trkpt lat="43.19386" lon="5.66081">
        <ele>121</ele>
        <time>2019-11-13T08:26:18Z</time>
      </trkpt>
      <trkpt lat="43.19391" lon="5.66082">
        <ele>121</ele>
        <time>2019-11-13T08:26:24Z</time>
      </trkpt>
      <trkpt lat="43.19397" lon="5.66083">
        <ele>121</ele>
        <time>2019-11-13T08:26:30Z</time>
      </trkpt>
      <trkpt lat="43.19403" lon="5.66085">
        <ele>121</ele>
        <time>2019-11-13T08:26:36Z</time>
      </trkpt>
      <trkpt lat="43.19408" lon="5.66087">
        <ele>121</ele>
        <time>2019-11-13T08:26:42Z</time>
      </trkpt>
      <trkpt lat="43.19414" lon="5.66089">
        <ele>122</ele>
        <time>2019-11-13T08:26:48Z</time>
      </trkpt>
      <trkpt lat="43.1942" lon="5.66092">
        <ele>123</ele>
        <time>2019-11-13T08:26:54Z</time>
      </trkpt>
      <trkpt lat="43.19426" lon="5.66095">
        <ele>123</ele>
        <time>2019-11-13T08:27:00Z</time>
      </trkpt>
      <trkpt lat="43.19431" lon="5.66096">
        <ele>123</ele>
        <time>2019-11-13T08:27:06Z</time>
      </trkpt>
      <trkpt lat="43.19437" lon="5.66098">
        <ele>125</ele>
        <time>2019-11-13T08:27:12Z</time>
      </trkpt>
      <trkpt lat="43.19443" lon="5.66099">
        <ele>125</ele>
        <time>2019-11-13T08:27:18Z</time>
      </trkpt>
      <trkpt lat="43.19449" lon="5.66099">
        <ele>126</ele>
        <time>2019-11-13T08:27:24Z</time>
      </trkpt>
      <trkpt lat="43.19455" lon="5.661">
        <ele>127</ele>
        <time>2019-11-13T08:27:30Z</time>
      </trkpt>
      <trkpt lat="43.19461" lon="5.66103">
        <ele>126</ele>
        <time>2019-11-13T08:27:36Z</time>
      </trkpt>
      <trkpt lat="43.19466" lon="5.66105">
        <ele>128</ele>
        <time>2019-11-13T08:27:42Z</time>
      </trkpt>
      <trkpt lat="43.19472" lon="5.66108">
        <ele>127</ele>
        <time>2019-11-13T08:27:48Z</time>
      </trkpt>
      <trkpt lat="43.19478" lon="5.6611">
        <ele>129</ele>
        <time>2019-11-13T08:27:54Z</time>
      </trkpt>
      <trkpt lat="43.19483" lon="5.66111">
        <ele>129</ele>
        <time>2019-11-13T08:27:58Z</time>
      </trkpt>
      <trkpt lat="43.19489" lon="5.66115">
        <ele>129</ele>
        <time>2019-11-13T08:28:04Z</time>
      </trkpt>
      <trkpt lat="43.19495" lon="5.66117">
        <ele>130</ele>
        <time>2019-11-13T08:28:10Z</time>
      </trkpt>
      <trkpt lat="43.195" lon="5.66122">
        <ele>132</ele>
        <time>2019-11-13T08:28:16Z</time>
      </trkpt>
      <trkpt lat="43.19505" lon="5.66125">
        <ele>132</ele>
        <time>2019-11-13T08:28:22Z</time>
      </trkpt>
      <trkpt lat="43.1951" lon="5.66126">
        <ele>133</ele>
        <time>2019-11-13T08:28:28Z</time>
      </trkpt>
      <trkpt lat="43.19515" lon="5.66126">
        <ele>133</ele>
        <time>2019-11-13T08:28:34Z</time>
      </trkpt>
      <trkpt lat="43.19521" lon="5.66126">
        <ele>133</ele>
        <time>2019-11-13T08:28:40Z</time>
      </trkpt>
      <trkpt lat="43.19526" lon="5.66128">
        <ele>135</ele>
        <time>2019-11-13T08:28:46Z</time>
      </trkpt>
      <trkpt lat="43.19531" lon="5.66131">
        <ele>136</ele>
        <time>2019-11-13T08:28:52Z</time>
      </trkpt>
      <trkpt lat="43.19537" lon="5.66131">
        <ele>137</ele>
        <time>2019-11-13T08:28:58Z</time>
      </trkpt>
      <trkpt lat="43.19543" lon="5.66131">
        <ele>136</ele>
        <time>2019-11-13T08:29:04Z</time>
      </trkpt>
      <trkpt lat="43.19549" lon="5.66132">
        <ele>137</ele>
        <time>2019-11-13T08:29:10Z</time>
      </trkpt>
      <trkpt lat="43.19555" lon="5.66135">
        <ele>138</ele>
        <time>2019-11-13T08:29:16Z</time>
      </trkpt>
      <trkpt lat="43.19561" lon="5.66138">
        <ele>139</ele>
        <time>2019-11-13T08:29:22Z</time>
      </trkpt>
      <trkpt lat="43.19567" lon="5.6614">
        <ele>139</ele>
        <time>2019-11-13T08:29:28Z</time>
      </trkpt>
      <trkpt lat="43.19571" lon="5.66142">
        <ele>139</ele>
        <time>2019-11-13T08:29:34Z</time>
      </trkpt>
      <trkpt lat="43.19576" lon="5.66143">
        <ele>139</ele>
        <time>2019-11-13T08:29:40Z</time>
      </trkpt>
      <trkpt lat="43.19582" lon="5.66145">
        <ele>140</ele>
        <time>2019-11-13T08:29:46Z</time>
      </trkpt>
      <trkpt lat="43.19589" lon="5.66146">
        <ele>141</ele>
        <time>2019-11-13T08:29:52Z</time>
      </trkpt>
      <trkpt lat="43.19595" lon="5.66147">
        <ele>143</ele>
        <time>2019-11-13T08:29:58Z</time>
      </trkpt>
      <trkpt lat="43.19601" lon="5.66149">
        <ele>142</ele>
        <time>2019-11-13T08:30:04Z</time>
      </trkpt>
      <trkpt lat="43.19606" lon="5.66153">
        <ele>142</ele>
        <time>2019-11-13T08:30:10Z</time>
      </trkpt>
      <trkpt lat="43.19611" lon="5.66157">
        <ele>143</ele>
        <time>2019-11-13T08:30:16Z</time>
      </trkpt>
      <trkpt lat="43.19616" lon="5.6616">
        <ele>144</ele>
        <time>2019-11-13T08:30:20Z</time>
      </trkpt>
      <trkpt lat="43.1962" lon="5.66162">
        <ele>144</ele>
        <time>2019-11-13T08:30:24Z</time>
      </trkpt>
      <trkpt lat="43.19625" lon="5.66165">
        <ele>144</ele>
        <time>2019-11-13T08:30:30Z</time>
      </trkpt>
      <trkpt lat="43.1963" lon="5.66172">
        <ele>145</ele>
        <time>2019-11-13T08:30:36Z</time>
      </trkpt>
      <trkpt lat="43.19633" lon="5.66177">
        <ele>146</ele>
        <time>2019-11-13T08:30:40Z</time>
      </trkpt>
      <trkpt lat="43.19637" lon="5.66182">
        <ele>146</ele>
        <time>2019-11-13T08:30:46Z</time>
      </trkpt>
      <trkpt lat="43.19642" lon="5.66185">
        <ele>148</ele>
        <time>2019-11-13T08:30:52Z</time>
      </trkpt>
      <trkpt lat="43.19648" lon="5.66184">
        <ele>148</ele>
        <time>2019-11-13T08:30:58Z</time>
      </trkpt>
      <trkpt lat="43.19653" lon="5.66183">
        <ele>147</ele>
        <time>2019-11-13T08:31:02Z</time>
      </trkpt>
      <trkpt lat="43.19659" lon="5.66183">
        <ele>148</ele>
        <time>2019-11-13T08:31:08Z</time>
      </trkpt>
      <trkpt lat="43.19664" lon="5.66184">
        <ele>149</ele>
        <time>2019-11-13T08:31:14Z</time>
      </trkpt>
      <trkpt lat="43.1967" lon="5.66184">
        <ele>148</ele>
        <time>2019-11-13T08:31:20Z</time>
      </trkpt>
      <trkpt lat="43.19675" lon="5.66183">
        <ele>149</ele>
        <time>2019-11-13T08:31:26Z</time>
      </trkpt>
      <trkpt lat="43.19681" lon="5.66183">
        <ele>149</ele>
        <time>2019-11-13T08:31:32Z</time>
      </trkpt>
      <trkpt lat="43.19687" lon="5.66182">
        <ele>150</ele>
        <time>2019-11-13T08:31:38Z</time>
      </trkpt>
      <trkpt lat="43.19692" lon="5.66181">
        <ele>151</ele>
        <time>2019-11-13T08:31:44Z</time>
      </trkpt>
      <trkpt lat="43.19697" lon="5.66182">
        <ele>152</ele>
        <time>2019-11-13T08:31:50Z</time>
      </trkpt>
      <trkpt lat="43.19702" lon="5.66183">
        <ele>151</ele>
        <time>2019-11-13T08:31:56Z</time>
      </trkpt>
      <trkpt lat="43.19708" lon="5.66183">
        <ele>152</ele>
        <time>2019-11-13T08:32:02Z</time>
      </trkpt>
      <trkpt lat="43.19713" lon="5.66182">
        <ele>153</ele>
        <time>2019-11-13T08:32:08Z</time>
      </trkpt>
      <trkpt lat="43.19719" lon="5.66183">
        <ele>153</ele>
        <time>2019-11-13T08:32:14Z</time>
      </trkpt>
      <trkpt lat="43.19724" lon="5.66187">
        <ele>155</ele>
        <time>2019-11-13T08:32:20Z</time>
      </trkpt>
      <trkpt lat="43.1973" lon="5.66193">
        <ele>155</ele>
        <time>2019-11-13T08:32:26Z</time>
      </trkpt>
      <trkpt lat="43.19734" lon="5.66199">
        <ele>155</ele>
        <time>2019-11-13T08:32:32Z</time>
      </trkpt>
      <trkpt lat="43.19739" lon="5.66204">
        <ele>155</ele>
        <time>2019-11-13T08:32:38Z</time>
      </trkpt>
      <trkpt lat="43.19744" lon="5.66208">
        <ele>156</ele>
        <time>2019-11-13T08:32:44Z</time>
      </trkpt>
      <trkpt lat="43.19749" lon="5.66211">
        <ele>157</ele>
        <time>2019-11-13T08:32:50Z</time>
      </trkpt>
      <trkpt lat="43.19755" lon="5.66213">
        <ele>158</ele>
        <time>2019-11-13T08:32:56Z</time>
      </trkpt>
      <trkpt lat="43.1976" lon="5.66217">
        <ele>161</ele>
        <time>2019-11-13T08:33:04Z</time>
      </trkpt>
      <trkpt lat="43.19765" lon="5.6622">
        <ele>162</ele>
        <time>2019-11-13T08:33:10Z</time>
      </trkpt>
      <trkpt lat="43.19771" lon="5.66221">
        <ele>162</ele>
        <time>2019-11-13T08:33:16Z</time>
      </trkpt>
      <trkpt lat="43.19777" lon="5.66223">
        <ele>162</ele>
        <time>2019-11-13T08:33:22Z</time>
      </trkpt>
      <trkpt lat="43.19782" lon="5.66226">
        <ele>162</ele>
        <time>2019-11-13T08:33:28Z</time>
      </trkpt>
      <trkpt lat="43.19787" lon="5.66229">
        <ele>163</ele>
        <time>2019-11-13T08:33:34Z</time>
      </trkpt>
      <trkpt lat="43.19793" lon="5.6623">
        <ele>163</ele>
        <time>2019-11-13T08:33:40Z</time>
      </trkpt>
      <trkpt lat="43.19798" lon="5.66231">
        <ele>163</ele>
        <time>2019-11-13T08:33:46Z</time>
      </trkpt>
      <trkpt lat="43.19804" lon="5.66231">
        <ele>163</ele>
        <time>2019-11-13T08:33:52Z</time>
      </trkpt>
      <trkpt lat="43.19809" lon="5.66231">
        <ele>163</ele>
        <time>2019-11-13T08:33:58Z</time>
      </trkpt>
      <trkpt lat="43.19815" lon="5.66232">
        <ele>164</ele>
        <time>2019-11-13T08:34:04Z</time>
      </trkpt>
      <trkpt lat="43.19821" lon="5.66235">
        <ele>165</ele>
        <time>2019-11-13T08:34:10Z</time>
      </trkpt>
      <trkpt lat="43.19826" lon="5.66239">
        <ele>166</ele>
        <time>2019-11-13T08:34:16Z</time>
      </trkpt>
      <trkpt lat="43.19832" lon="5.66241">
        <ele>166</ele>
        <time>2019-11-13T08:34:22Z</time>
      </trkpt>
      <trkpt lat="43.19838" lon="5.6624">
        <ele>166</ele>
        <time>2019-11-13T08:34:28Z</time>
      </trkpt>
      <trkpt lat="43.19844" lon="5.66239">
        <ele>167</ele>
        <time>2019-11-13T08:34:34Z</time>
      </trkpt>
      <trkpt lat="43.19849" lon="5.66238">
        <ele>169</ele>
        <time>2019-11-13T08:34:40Z</time>
      </trkpt>
      <trkpt lat="43.19855" lon="5.66241">
        <ele>169</ele>
        <time>2019-11-13T08:34:46Z</time>
      </trkpt>
      <trkpt lat="43.19861" lon="5.66242">
        <ele>170</ele>
        <time>2019-11-13T08:34:52Z</time>
      </trkpt>
      <trkpt lat="43.19866" lon="5.66243">
        <ele>170</ele>
        <time>2019-11-13T08:34:58Z</time>
      </trkpt>
      <trkpt lat="43.19872" lon="5.66243">
        <ele>171</ele>
        <time>2019-11-13T08:35:04Z</time>
      </trkpt>
      <trkpt lat="43.19878" lon="5.66243">
        <ele>171</ele>
        <time>2019-11-13T08:35:10Z</time>
      </trkpt>
      <trkpt lat="43.19883" lon="5.66244">
        <ele>171</ele>
        <time>2019-11-13T08:35:16Z</time>
      </trkpt>
      <trkpt lat="43.19889" lon="5.66242">
        <ele>171</ele>
        <time>2019-11-13T08:35:22Z</time>
      </trkpt>
      <trkpt lat="43.19894" lon="5.66242">
        <ele>173</ele>
        <time>2019-11-13T08:35:28Z</time>
      </trkpt>
      <trkpt lat="43.199" lon="5.66241">
        <ele>174</ele>
        <time>2019-11-13T08:35:34Z</time>
      </trkpt>
      <trkpt lat="43.19905" lon="5.6624">
        <ele>174</ele>
        <time>2019-11-13T08:35:38Z</time>
      </trkpt>
      <trkpt lat="43.1991" lon="5.6624">
        <ele>175</ele>
        <time>2019-11-13T08:35:44Z</time>
      </trkpt>
      <trkpt lat="43.19915" lon="5.66242">
        <ele>174</ele>
        <time>2019-11-13T08:35:50Z</time>
      </trkpt>
      <trkpt lat="43.19921" lon="5.66242">
        <ele>175</ele>
        <time>2019-11-13T08:35:56Z</time>
      </trkpt>
      <trkpt lat="43.19926" lon="5.66241">
        <ele>175</ele>
        <time>2019-11-13T08:36:02Z</time>
      </trkpt>
      <trkpt lat="43.19933" lon="5.6624">
        <ele>175</ele>
        <time>2019-11-13T08:36:08Z</time>
      </trkpt>
      <trkpt lat="43.19938" lon="5.66241">
        <ele>176</ele>
        <time>2019-11-13T08:36:14Z</time>
      </trkpt>
      <trkpt lat="43.19943" lon="5.66243">
        <ele>176</ele>
        <time>2019-11-13T08:36:20Z</time>
      </trkpt>
      <trkpt lat="43.19949" lon="5.66246">
        <ele>177</ele>
        <time>2019-11-13T08:36:26Z</time>
      </trkpt>
      <trkpt lat="43.19954" lon="5.66248">
        <ele>178</ele>
        <time>2019-11-13T08:36:32Z</time>
      </trkpt>
      <trkpt lat="43.19959" lon="5.66251">
        <ele>178</ele>
        <time>2019-11-13T08:36:38Z</time>
      </trkpt>
      <trkpt lat="43.19964" lon="5.66253">
        <ele>180</ele>
        <time>2019-11-13T08:37:12Z</time>
      </trkpt>
      <trkpt lat="43.19967" lon="5.66258">
        <ele>182</ele>
        <time>2019-11-13T08:38:04Z</time>
      </trkpt>
      <trkpt lat="43.1997" lon="5.66263">
        <ele>182</ele>
        <time>2019-11-13T08:38:10Z</time>
      </trkpt>
      <trkpt lat="43.19974" lon="5.66266">
        <ele>183</ele>
        <time>2019-11-13T08:38:20Z</time>
      </trkpt>
      <trkpt lat="43.19979" lon="5.66266">
        <ele>184</ele>
        <time>2019-11-13T08:38:28Z</time>
      </trkpt>
      <trkpt lat="43.19984" lon="5.66269">
        <ele>184</ele>
        <time>2019-11-13T08:38:38Z</time>
      </trkpt>
      <trkpt lat="43.19988" lon="5.66272">
        <ele>185</ele>
        <time>2019-11-13T08:38:46Z</time>
      </trkpt>
      <trkpt lat="43.19994" lon="5.66274">
        <ele>185</ele>
        <time>2019-11-13T08:39:02Z</time>
      </trkpt>
      <trkpt lat="43.2" lon="5.66275">
        <ele>184</ele>
        <time>2019-11-13T08:39:10Z</time>
      </trkpt>
      <trkpt lat="43.20005" lon="5.66276">
        <ele>184</ele>
        <time>2019-11-13T08:39:16Z</time>
      </trkpt>
      <trkpt lat="43.2001" lon="5.66278">
        <ele>186</ele>
        <time>2019-11-13T08:39:22Z</time>
      </trkpt>
      <trkpt lat="43.20015" lon="5.66281">
        <ele>186</ele>
        <time>2019-11-13T08:39:28Z</time>
      </trkpt>
      <trkpt lat="43.20019" lon="5.66284">
        <ele>186</ele>
        <time>2019-11-13T08:39:34Z</time>
      </trkpt>
      <trkpt lat="43.20024" lon="5.66287">
        <ele>187</ele>
        <time>2019-11-13T08:39:40Z</time>
      </trkpt>
      <trkpt lat="43.20028" lon="5.66289">
        <ele>188</ele>
        <time>2019-11-13T08:39:46Z</time>
      </trkpt>
      <trkpt lat="43.20033" lon="5.66291">
        <ele>189</ele>
        <time>2019-11-13T08:39:52Z</time>
      </trkpt>
      <trkpt lat="43.20038" lon="5.66294">
        <ele>188</ele>
        <time>2019-11-13T08:40:00Z</time>
      </trkpt>
      <trkpt lat="43.20042" lon="5.66298">
        <ele>190</ele>
        <time>2019-11-13T08:40:08Z</time>
      </trkpt>
      <trkpt lat="43.20047" lon="5.66301">
        <ele>191</ele>
        <time>2019-11-13T08:40:16Z</time>
      </trkpt>
      <trkpt lat="43.20053" lon="5.66303">
        <ele>191</ele>
        <time>2019-11-13T08:40:22Z</time>
      </trkpt>
      <trkpt lat="43.20057" lon="5.66307">
        <ele>192</ele>
        <time>2019-11-13T08:40:28Z</time>
      </trkpt>
      <trkpt lat="43.20063" lon="5.6631">
        <ele>191</ele>
        <time>2019-11-13T08:40:34Z</time>
      </trkpt>
      <trkpt lat="43.20068" lon="5.66312">
        <ele>192</ele>
        <time>2019-11-13T08:40:40Z</time>
      </trkpt>
      <trkpt lat="43.20074" lon="5.66313">
        <ele>194</ele>
        <time>2019-11-13T08:40:46Z</time>
      </trkpt>
      <trkpt lat="43.20079" lon="5.66314">
        <ele>194</ele>
        <time>2019-11-13T08:40:52Z</time>
      </trkpt>
      <trkpt lat="43.20084" lon="5.66314">
        <ele>195</ele>
        <time>2019-11-13T08:40:58Z</time>
      </trkpt>
      <trkpt lat="43.2009" lon="5.66315">
        <ele>196</ele>
        <time>2019-11-13T08:41:04Z</time>
      </trkpt>
      <trkpt lat="43.20096" lon="5.66313">
        <ele>196</ele>
        <time>2019-11-13T08:41:10Z</time>
      </trkpt>
      <trkpt lat="43.20101" lon="5.66312">
        <ele>195</ele>
        <time>2019-11-13T08:41:16Z</time>
      </trkpt>
      <trkpt lat="43.20106" lon="5.66312">
        <ele>197</ele>
        <time>2019-11-13T08:41:22Z</time>
      </trkpt>
      <trkpt lat="43.20112" lon="5.66312">
        <ele>198</ele>
        <time>2019-11-13T08:41:28Z</time>
      </trkpt>
      <trkpt lat="43.20117" lon="5.66313">
        <ele>198</ele>
        <time>2019-11-13T08:41:34Z</time>
      </trkpt>
      <trkpt lat="43.20122" lon="5.66315">
        <ele>197</ele>
        <time>2019-11-13T08:41:40Z</time>
      </trkpt>
      <trkpt lat="43.20126" lon="5.66318">
        <ele>198</ele>
        <time>2019-11-13T08:45:26Z</time>
      </trkpt>
      <trkpt lat="43.2013" lon="5.6632">
        <ele>199</ele>
        <time>2019-11-13T08:45:30Z</time>
      </trkpt>
      <trkpt lat="43.20136" lon="5.66322">
        <ele>200</ele>
        <time>2019-11-13T08:45:36Z</time>
      </trkpt>
      <trkpt lat="43.20142" lon="5.66325">
        <ele>202</ele>
        <time>2019-11-13T08:45:42Z</time>
      </trkpt>
      <trkpt lat="43.20149" lon="5.66326">
        <ele>202</ele>
        <time>2019-11-13T08:45:48Z</time>
      </trkpt>
      <trkpt lat="43.20155" lon="5.66328">
        <ele>202</ele>
        <time>2019-11-13T08:45:54Z</time>
      </trkpt>
      <trkpt lat="43.20161" lon="5.6633">
        <ele>203</ele>
        <time>2019-11-13T08:46:00Z</time>
      </trkpt>
      <trkpt lat="43.20167" lon="5.66331">
        <ele>204</ele>
        <time>2019-11-13T08:46:06Z</time>
      </trkpt>
      <trkpt lat="43.20172" lon="5.66333">
        <ele>204</ele>
        <time>2019-11-13T08:46:12Z</time>
      </trkpt>
      <trkpt lat="43.20177" lon="5.66333">
        <ele>205</ele>
        <time>2019-11-13T08:46:18Z</time>
      </trkpt>
      <trkpt lat="43.20183" lon="5.66335">
        <ele>205</ele>
        <time>2019-11-13T08:46:24Z</time>
      </trkpt>
      <trkpt lat="43.20187" lon="5.66336">
        <ele>206</ele>
        <time>2019-11-13T08:46:28Z</time>
      </trkpt>
      <trkpt lat="43.20193" lon="5.66336">
        <ele>205</ele>
        <time>2019-11-13T08:46:34Z</time>
      </trkpt>
      <trkpt lat="43.20199" lon="5.66336">
        <ele>207</ele>
        <time>2019-11-13T08:46:40Z</time>
      </trkpt>
      <trkpt lat="43.20205" lon="5.66336">
        <ele>207</ele>
        <time>2019-11-13T08:46:46Z</time>
      </trkpt>
      <trkpt lat="43.20209" lon="5.66338">
        <ele>208</ele>
        <time>2019-11-13T08:46:52Z</time>
      </trkpt>
      <trkpt lat="43.20215" lon="5.66339">
        <ele>209</ele>
        <time>2019-11-13T08:46:58Z</time>
      </trkpt>
      <trkpt lat="43.2022" lon="5.66341">
        <ele>209</ele>
        <time>2019-11-13T08:47:02Z</time>
      </trkpt>
      <trkpt lat="43.20226" lon="5.66343">
        <ele>210</ele>
        <time>2019-11-13T08:47:08Z</time>
      </trkpt>
      <trkpt lat="43.2023" lon="5.66347">
        <ele>210</ele>
        <time>2019-11-13T08:47:14Z</time>
      </trkpt>
      <trkpt lat="43.20234" lon="5.66353">
        <ele>211</ele>
        <time>2019-11-13T08:47:20Z</time>
      </trkpt>
      <trkpt lat="43.20239" lon="5.66357">
        <ele>213</ele>
        <time>2019-11-13T08:47:26Z</time>
      </trkpt>
      <trkpt lat="43.20245" lon="5.66358">
        <ele>214</ele>
        <time>2019-11-13T08:47:32Z</time>
      </trkpt>
      <trkpt lat="43.2025" lon="5.66357">
        <ele>213</ele>
        <time>2019-11-13T08:47:36Z</time>
      </trkpt>
      <trkpt lat="43.20256" lon="5.66358">
        <ele>213</ele>
        <time>2019-11-13T08:47:44Z</time>
      </trkpt>
      <trkpt lat="43.2026" lon="5.66359">
        <ele>214</ele>
        <time>2019-11-13T08:47:50Z</time>
      </trkpt>
      <trkpt lat="43.20265" lon="5.66361">
        <ele>215</ele>
        <time>2019-11-13T08:47:56Z</time>
      </trkpt>
      <trkpt lat="43.20271" lon="5.66363">
        <ele>215</ele>
        <time>2019-11-13T08:48:02Z</time>
      </trkpt>
      <trkpt lat="43.20275" lon="5.66366">
        <ele>216</ele>
        <time>2019-11-13T08:48:08Z</time>
      </trkpt>
      <trkpt lat="43.20279" lon="5.66369">
        <ele>217</ele>
        <time>2019-11-13T08:48:14Z</time>
      </trkpt>
      <trkpt lat="43.20283" lon="5.66372">
        <ele>217</ele>
        <time>2019-11-13T08:48:20Z</time>
      </trkpt>
      <trkpt lat="43.20287" lon="5.66376">
        <ele>217</ele>
        <time>2019-11-13T08:48:26Z</time>
      </trkpt>
      <trkpt lat="43.20292" lon="5.66379">
        <ele>218</ele>
        <time>2019-11-13T08:48:32Z</time>
      </trkpt>
      <trkpt lat="43.20298" lon="5.6638">
        <ele>218</ele>
        <time>2019-11-13T08:48:38Z</time>
      </trkpt>
      <trkpt lat="43.20305" lon="5.6638">
        <ele>219</ele>
        <time>2019-11-13T08:48:44Z</time>
      </trkpt>
      <trkpt lat="43.20311" lon="5.66382">
        <ele>220</ele>
        <time>2019-11-13T08:48:50Z</time>
      </trkpt>
      <trkpt lat="43.20313" lon="5.66388">
        <ele>220</ele>
        <time>2019-11-13T08:48:56Z</time>
      </trkpt>
      <trkpt lat="43.20317" lon="5.66394">
        <ele>221</ele>
        <time>2019-11-13T08:49:02Z</time>
      </trkpt>
      <trkpt lat="43.20321" lon="5.66399">
        <ele>222</ele>
        <time>2019-11-13T08:49:08Z</time>
      </trkpt>
      <trkpt lat="43.20326" lon="5.66402">
        <ele>221</ele>
        <time>2019-11-13T08:49:14Z</time>
      </trkpt>
      <trkpt lat="43.20331" lon="5.66406">
        <ele>223</ele>
        <time>2019-11-13T08:49:20Z</time>
      </trkpt>
      <trkpt lat="43.20335" lon="5.66412">
        <ele>221</ele>
        <time>2019-11-13T08:49:26Z</time>
      </trkpt>
      <trkpt lat="43.20338" lon="5.66419">
        <ele>223</ele>
        <time>2019-11-13T08:49:32Z</time>
      </trkpt>
      <trkpt lat="43.20342" lon="5.66425">
        <ele>224</ele>
        <time>2019-11-13T08:49:36Z</time>
      </trkpt>
      <trkpt lat="43.20344" lon="5.6643">
        <ele>223</ele>
        <time>2019-11-13T08:49:40Z</time>
      </trkpt>
      <trkpt lat="43.20347" lon="5.66438">
        <ele>225</ele>
        <time>2019-11-13T08:49:46Z</time>
      </trkpt>
      <trkpt lat="43.2035" lon="5.66444">
        <ele>225</ele>
        <time>2019-11-13T08:49:52Z</time>
      </trkpt>
      <trkpt lat="43.20355" lon="5.66446">
        <ele>225</ele>
        <time>2019-11-13T08:49:58Z</time>
      </trkpt>
      <trkpt lat="43.2036" lon="5.66448">
        <ele>225</ele>
        <time>2019-11-13T08:50:06Z</time>
      </trkpt>
      <trkpt lat="43.20366" lon="5.66446">
        <ele>227</ele>
        <time>2019-11-13T08:50:12Z</time>
      </trkpt>
      <trkpt lat="43.20371" lon="5.66444">
        <ele>228</ele>
        <time>2019-11-13T08:50:18Z</time>
      </trkpt>
      <trkpt lat="43.20377" lon="5.66445">
        <ele>227</ele>
        <time>2019-11-13T08:50:24Z</time>
      </trkpt>
      <trkpt lat="43.20375" lon="5.66451">
        <ele>227</ele>
        <time>2019-11-13T08:50:54Z</time>
      </trkpt>
      <trkpt lat="43.20368" lon="5.66453">
        <ele>228</ele>
        <time>2019-11-13T08:51:02Z</time>
      </trkpt>
      <trkpt lat="43.20364" lon="5.66456">
        <ele>224</ele>
        <time>2019-11-13T08:51:08Z</time>
      </trkpt>
      <trkpt lat="43.2036" lon="5.6646">
        <ele>224</ele>
        <time>2019-11-13T08:51:14Z</time>
      </trkpt>
      <trkpt lat="43.20355" lon="5.66463">
        <ele>224</ele>
        <time>2019-11-13T08:51:20Z</time>
      </trkpt>
      <trkpt lat="43.20351" lon="5.66466">
        <ele>223</ele>
        <time>2019-11-13T08:51:26Z</time>
      </trkpt>
      <trkpt lat="43.20346" lon="5.6647">
        <ele>223</ele>
        <time>2019-11-13T08:51:32Z</time>
      </trkpt>
      <trkpt lat="43.20343" lon="5.66475">
        <ele>224</ele>
        <time>2019-11-13T08:51:38Z</time>
      </trkpt>
      <trkpt lat="43.20339" lon="5.66481">
        <ele>224</ele>
        <time>2019-11-13T08:51:44Z</time>
      </trkpt>
      <trkpt lat="43.20336" lon="5.66487">
        <ele>224</ele>
        <time>2019-11-13T08:51:50Z</time>
      </trkpt>
      <trkpt lat="43.20334" lon="5.66494">
        <ele>225</ele>
        <time>2019-11-13T08:51:56Z</time>
      </trkpt>
      <trkpt lat="43.20334" lon="5.66502">
        <ele>224</ele>
        <time>2019-11-13T08:52:02Z</time>
      </trkpt>
      <trkpt lat="43.20334" lon="5.66512">
        <ele>225</ele>
        <time>2019-11-13T08:52:08Z</time>
      </trkpt>
      <trkpt lat="43.20335" lon="5.66518">
        <ele>224</ele>
        <time>2019-11-13T08:52:12Z</time>
      </trkpt>
      <trkpt lat="43.20335" lon="5.66527">
        <ele>223</ele>
        <time>2019-11-13T08:52:18Z</time>
      </trkpt>
      <trkpt lat="43.20336" lon="5.66535">
        <ele>224</ele>
        <time>2019-11-13T08:52:24Z</time>
      </trkpt>
      <trkpt lat="43.20337" lon="5.66543">
        <ele>225</ele>
        <time>2019-11-13T08:52:30Z</time>
      </trkpt>
      <trkpt lat="43.20337" lon="5.66549">
        <ele>223</ele>
        <time>2019-11-13T08:52:36Z</time>
      </trkpt>
      <trkpt lat="43.20338" lon="5.66556">
        <ele>223</ele>
        <time>2019-11-13T08:52:44Z</time>
      </trkpt>
      <trkpt lat="43.2034" lon="5.66564">
        <ele>226</ele>
        <time>2019-11-13T08:52:52Z</time>
      </trkpt>
      <trkpt lat="43.20342" lon="5.66571">
        <ele>225</ele>
        <time>2019-11-13T08:53:00Z</time>
      </trkpt>
      <trkpt lat="43.20343" lon="5.66578">
        <ele>226</ele>
        <time>2019-11-13T08:53:08Z</time>
      </trkpt>
      <trkpt lat="43.20346" lon="5.66585">
        <ele>228</ele>
        <time>2019-11-13T08:53:16Z</time>
      </trkpt>
      <trkpt lat="43.20349" lon="5.66591">
        <ele>226</ele>
        <time>2019-11-13T08:53:24Z</time>
      </trkpt>
      <trkpt lat="43.20351" lon="5.66598">
        <ele>228</ele>
        <time>2019-11-13T08:53:36Z</time>
      </trkpt>
      <trkpt lat="43.2035" lon="5.66606">
        <ele>227</ele>
        <time>2019-11-13T08:53:46Z</time>
      </trkpt>
      <trkpt lat="43.2035" lon="5.66613">
        <ele>230</ele>
        <time>2019-11-13T08:53:52Z</time>
      </trkpt>
      <trkpt lat="43.2035" lon="5.6662">
        <ele>228</ele>
        <time>2019-11-13T08:53:58Z</time>
      </trkpt>
      <trkpt lat="43.2035" lon="5.66626">
        <ele>227</ele>
        <time>2019-11-13T08:54:04Z</time>
      </trkpt>
      <trkpt lat="43.20349" lon="5.66634">
        <ele>226</ele>
        <time>2019-11-13T08:54:12Z</time>
      </trkpt>
      <trkpt lat="43.2035" lon="5.66642">
        <ele>225</ele>
        <time>2019-11-13T08:54:20Z</time>
      </trkpt>
      <trkpt lat="43.20352" lon="5.66649">
        <ele>223</ele>
        <time>2019-11-13T08:54:26Z</time>
      </trkpt>
      <trkpt lat="43.20352" lon="5.66656">
        <ele>225</ele>
        <time>2019-11-13T08:54:42Z</time>
      </trkpt>
      <trkpt lat="43.20351" lon="5.66662">
        <ele>227</ele>
        <time>2019-11-13T08:55:10Z</time>
      </trkpt>
      <trkpt lat="43.20354" lon="5.66668">
        <ele>229</ele>
        <time>2019-11-13T08:58:02Z</time>
      </trkpt>
      <trkpt lat="43.20354" lon="5.66674">
        <ele>227</ele>
        <time>2019-11-13T08:58:14Z</time>
      </trkpt>
      <trkpt lat="43.20356" lon="5.6668">
        <ele>228</ele>
        <time>2019-11-13T08:58:22Z</time>
      </trkpt>
      <trkpt lat="43.20357" lon="5.66686">
        <ele>225</ele>
        <time>2019-11-13T08:58:32Z</time>
      </trkpt>
      <trkpt lat="43.2036" lon="5.66691">
        <ele>223</ele>
        <time>2019-11-13T08:58:40Z</time>
      </trkpt>
      <trkpt lat="43.20361" lon="5.66697">
        <ele>224</ele>
        <time>2019-11-13T08:58:46Z</time>
      </trkpt>
      <trkpt lat="43.20362" lon="5.66705">
        <ele>225</ele>
        <time>2019-11-13T08:58:52Z</time>
      </trkpt>
      <trkpt lat="43.20362" lon="5.66714">
        <ele>224</ele>
        <time>2019-11-13T08:58:58Z</time>
      </trkpt>
      <trkpt lat="43.20362" lon="5.66721">
        <ele>224</ele>
        <time>2019-11-13T08:59:04Z</time>
      </trkpt>
      <trkpt lat="43.2036" lon="5.66728">
        <ele>223</ele>
        <time>2019-11-13T08:59:12Z</time>
      </trkpt>
      <trkpt lat="43.20358" lon="5.66736">
        <ele>225</ele>
        <time>2019-11-13T08:59:18Z</time>
      </trkpt>
      <trkpt lat="43.20357" lon="5.66744">
        <ele>224</ele>
        <time>2019-11-13T08:59:24Z</time>
      </trkpt>
      <trkpt lat="43.20361" lon="5.6675">
        <ele>224</ele>
        <time>2019-11-13T08:59:30Z</time>
      </trkpt>
      <trkpt lat="43.20367" lon="5.66752">
        <ele>223</ele>
        <time>2019-11-13T08:59:36Z</time>
      </trkpt>
      <trkpt lat="43.20372" lon="5.66756">
        <ele>222</ele>
        <time>2019-11-13T08:59:42Z</time>
      </trkpt>
      <trkpt lat="43.20377" lon="5.66758">
        <ele>223</ele>
        <time>2019-11-13T08:59:46Z</time>
      </trkpt>
      <trkpt lat="43.20381" lon="5.66761">
        <ele>223</ele>
        <time>2019-11-13T08:59:50Z</time>
      </trkpt>
      <trkpt lat="43.20386" lon="5.66765">
        <ele>223</ele>
        <time>2019-11-13T08:59:56Z</time>
      </trkpt>
      <trkpt lat="43.20391" lon="5.6677">
        <ele>223</ele>
        <time>2019-11-13T09:00:02Z</time>
      </trkpt>
      <trkpt lat="43.20395" lon="5.66775">
        <ele>223</ele>
        <time>2019-11-13T09:00:08Z</time>
      </trkpt>
      <trkpt lat="43.20399" lon="5.6678">
        <ele>223</ele>
        <time>2019-11-13T09:00:14Z</time>
      </trkpt>
      <trkpt lat="43.20403" lon="5.66784">
        <ele>223</ele>
        <time>2019-11-13T09:00:18Z</time>
      </trkpt>
      <trkpt lat="43.20408" lon="5.66789">
        <ele>222</ele>
        <time>2019-11-13T09:00:24Z</time>
      </trkpt>
      <trkpt lat="43.20413" lon="5.66795">
        <ele>222</ele>
        <time>2019-11-13T09:00:30Z</time>
      </trkpt>
      <trkpt lat="43.20418" lon="5.66799">
        <ele>225</ele>
        <time>2019-11-13T09:00:36Z</time>
      </trkpt>
      <trkpt lat="43.20424" lon="5.66802">
        <ele>226</ele>
        <time>2019-11-13T09:00:42Z</time>
      </trkpt>
      <trkpt lat="43.2043" lon="5.66805">
        <ele>225</ele>
        <time>2019-11-13T09:00:48Z</time>
      </trkpt>
      <trkpt lat="43.20435" lon="5.66809">
        <ele>226</ele>
        <time>2019-11-13T09:00:54Z</time>
      </trkpt>
      <trkpt lat="43.2044" lon="5.66812">
        <ele>227</ele>
        <time>2019-11-13T09:01:00Z</time>
      </trkpt>
      <trkpt lat="43.20447" lon="5.66813">
        <ele>227</ele>
        <time>2019-11-13T09:01:06Z</time>
      </trkpt>
      <trkpt lat="43.20452" lon="5.66815">
        <ele>227</ele>
        <time>2019-11-13T09:01:12Z</time>
      </trkpt>
      <trkpt lat="43.20457" lon="5.66818">
        <ele>228</ele>
        <time>2019-11-13T09:01:18Z</time>
      </trkpt>
      <trkpt lat="43.20463" lon="5.66822">
        <ele>229</ele>
        <time>2019-11-13T09:01:26Z</time>
      </trkpt>
      <trkpt lat="43.20469" lon="5.66824">
        <ele>228</ele>
        <time>2019-11-13T09:01:32Z</time>
      </trkpt>
      <trkpt lat="43.20474" lon="5.66824">
        <ele>231</ele>
        <time>2019-11-13T09:01:36Z</time>
      </trkpt>
      <trkpt lat="43.2048" lon="5.66824">
        <ele>230</ele>
        <time>2019-11-13T09:01:40Z</time>
      </trkpt>
      <trkpt lat="43.20485" lon="5.66824">
        <ele>228</ele>
        <time>2019-11-13T09:01:44Z</time>
      </trkpt>
      <trkpt lat="43.20492" lon="5.66827">
        <ele>229</ele>
        <time>2019-11-13T09:01:50Z</time>
      </trkpt>
      <trkpt lat="43.20497" lon="5.66831">
        <ele>229</ele>
        <time>2019-11-13T09:01:56Z</time>
      </trkpt>
      <trkpt lat="43.20499" lon="5.66838">
        <ele>228</ele>
        <time>2019-11-13T09:02:02Z</time>
      </trkpt>
      <trkpt lat="43.20502" lon="5.66845">
        <ele>230</ele>
        <time>2019-11-13T09:02:08Z</time>
      </trkpt>
      <trkpt lat="43.20505" lon="5.66852">
        <ele>229</ele>
        <time>2019-11-13T09:02:14Z</time>
      </trkpt>
      <trkpt lat="43.20507" lon="5.6686">
        <ele>232</ele>
        <time>2019-11-13T09:02:20Z</time>
      </trkpt>
      <trkpt lat="43.20505" lon="5.66867">
        <ele>236</ele>
        <time>2019-11-13T09:02:24Z</time>
      </trkpt>
      <trkpt lat="43.20504" lon="5.66873">
        <ele>236</ele>
        <time>2019-11-13T09:02:28Z</time>
      </trkpt>
      <trkpt lat="43.20504" lon="5.66882">
        <ele>235</ele>
        <time>2019-11-13T09:02:34Z</time>
      </trkpt>
      <trkpt lat="43.20504" lon="5.66888">
        <ele>234</ele>
        <time>2019-11-13T09:02:38Z</time>
      </trkpt>
      <trkpt lat="43.20503" lon="5.66895">
        <ele>232</ele>
        <time>2019-11-13T09:02:42Z</time>
      </trkpt>
      <trkpt lat="43.20503" lon="5.66903">
        <ele>232</ele>
        <time>2019-11-13T09:02:48Z</time>
      </trkpt>
      <trkpt lat="43.20505" lon="5.66911">
        <ele>232</ele>
        <time>2019-11-13T09:02:54Z</time>
      </trkpt>
      <trkpt lat="43.20506" lon="5.66918">
        <ele>233</ele>
        <time>2019-11-13T09:03:00Z</time>
      </trkpt>
      <trkpt lat="43.20507" lon="5.66925">
        <ele>236</ele>
        <time>2019-11-13T09:03:06Z</time>
      </trkpt>
      <trkpt lat="43.20507" lon="5.66931">
        <ele>236</ele>
        <time>2019-11-13T09:03:10Z</time>
      </trkpt>
      <trkpt lat="43.20506" lon="5.66937">
        <ele>237</ele>
        <time>2019-11-13T09:03:14Z</time>
      </trkpt>
      <trkpt lat="43.20506" lon="5.66946">
        <ele>238</ele>
        <time>2019-11-13T09:03:20Z</time>
      </trkpt>
      <trkpt lat="43.20506" lon="5.66955">
        <ele>236</ele>
        <time>2019-11-13T09:03:26Z</time>
      </trkpt>
      <trkpt lat="43.20505" lon="5.66964">
        <ele>236</ele>
        <time>2019-11-13T09:03:32Z</time>
      </trkpt>
      <trkpt lat="43.20506" lon="5.6697">
        <ele>234</ele>
        <time>2019-11-13T09:03:36Z</time>
      </trkpt>
      <trkpt lat="43.20506" lon="5.66979">
        <ele>233</ele>
        <time>2019-11-13T09:03:42Z</time>
      </trkpt>
      <trkpt lat="43.20505" lon="5.66989">
        <ele>234</ele>
        <time>2019-11-13T09:03:48Z</time>
      </trkpt>
      <trkpt lat="43.20504" lon="5.66995">
        <ele>233</ele>
        <time>2019-11-13T09:03:52Z</time>
      </trkpt>
      <trkpt lat="43.20502" lon="5.67001">
        <ele>232</ele>
        <time>2019-11-13T09:03:56Z</time>
      </trkpt>
      <trkpt lat="43.20502" lon="5.67008">
        <ele>229</ele>
        <time>2019-11-13T09:04:02Z</time>
      </trkpt>
      <trkpt lat="43.20502" lon="5.67016">
        <ele>231</ele>
        <time>2019-11-13T09:04:08Z</time>
      </trkpt>
      <trkpt lat="43.20501" lon="5.67022">
        <ele>232</ele>
        <time>2019-11-13T09:04:12Z</time>
      </trkpt>
      <trkpt lat="43.20501" lon="5.67029">
        <ele>232</ele>
        <time>2019-11-13T09:04:16Z</time>
      </trkpt>
      <trkpt lat="43.20502" lon="5.67035">
        <ele>233</ele>
        <time>2019-11-13T09:04:20Z</time>
      </trkpt>
      <trkpt lat="43.20505" lon="5.67043">
        <ele>232</ele>
        <time>2019-11-13T09:04:26Z</time>
      </trkpt>
      <trkpt lat="43.20508" lon="5.6705">
        <ele>230</ele>
        <time>2019-11-13T09:04:32Z</time>
      </trkpt>
      <trkpt lat="43.20512" lon="5.67055">
        <ele>231</ele>
        <time>2019-11-13T09:04:36Z</time>
      </trkpt>
      <trkpt lat="43.20513" lon="5.67062">
        <ele>232</ele>
        <time>2019-11-13T09:04:40Z</time>
      </trkpt>
      <trkpt lat="43.20517" lon="5.67068">
        <ele>233</ele>
        <time>2019-11-13T09:04:44Z</time>
      </trkpt>
      <trkpt lat="43.20521" lon="5.67072">
        <ele>233</ele>
        <time>2019-11-13T09:04:48Z</time>
      </trkpt>
      <trkpt lat="43.20523" lon="5.67078">
        <ele>232</ele>
        <time>2019-11-13T09:04:52Z</time>
      </trkpt>
      <trkpt lat="43.20521" lon="5.67085">
        <ele>210</ele>
        <time>2019-11-13T09:04:56Z</time>
      </trkpt>
      <trkpt lat="43.20519" lon="5.67091">
        <ele>225</ele>
        <time>2019-11-13T09:05:00Z</time>
      </trkpt>
      <trkpt lat="43.20517" lon="5.67097">
        <ele>226</ele>
        <time>2019-11-13T09:05:04Z</time>
      </trkpt>
      <trkpt lat="43.20513" lon="5.67103">
        <ele>229</ele>
        <time>2019-11-13T09:05:08Z</time>
      </trkpt>
      <trkpt lat="43.2051" lon="5.67107">
        <ele>231</ele>
        <time>2019-11-13T09:05:12Z</time>
      </trkpt>
      <trkpt lat="43.20507" lon="5.67112">
        <ele>230</ele>
        <time>2019-11-13T09:05:18Z</time>
      </trkpt>
      <trkpt lat="43.20504" lon="5.67119">
        <ele>232</ele>
        <time>2019-11-13T09:05:24Z</time>
      </trkpt>
      <trkpt lat="43.20502" lon="5.67126">
        <ele>227</ele>
        <time>2019-11-13T09:05:32Z</time>
      </trkpt>
      <trkpt lat="43.205" lon="5.67132">
        <ele>225</ele>
        <time>2019-11-13T09:05:38Z</time>
      </trkpt>
      <trkpt lat="43.20496" lon="5.67139">
        <ele>227</ele>
        <time>2019-11-13T09:05:46Z</time>
      </trkpt>
      <trkpt lat="43.20492" lon="5.67144">
        <ele>228</ele>
        <time>2019-11-13T09:05:50Z</time>
      </trkpt>
      <trkpt lat="43.20487" lon="5.67148">
        <ele>229</ele>
        <time>2019-11-13T09:05:54Z</time>
      </trkpt>
      <trkpt lat="43.20483" lon="5.67152">
        <ele>229</ele>
        <time>2019-11-13T09:05:58Z</time>
      </trkpt>
      <trkpt lat="43.20479" lon="5.67155">
        <ele>227</ele>
        <time>2019-11-13T09:06:02Z</time>
      </trkpt>
      <trkpt lat="43.20474" lon="5.67159">
        <ele>228</ele>
        <time>2019-11-13T09:06:08Z</time>
      </trkpt>
      <trkpt lat="43.20469" lon="5.67165">
        <ele>227</ele>
        <time>2019-11-13T09:06:14Z</time>
      </trkpt>
      <trkpt lat="43.20464" lon="5.67169">
        <ele>225</ele>
        <time>2019-11-13T09:06:20Z</time>
      </trkpt>
      <trkpt lat="43.20458" lon="5.67175">
        <ele>230</ele>
        <time>2019-11-13T09:06:26Z</time>
      </trkpt>
      <trkpt lat="43.20455" lon="5.67179">
        <ele>230</ele>
        <time>2019-11-13T09:06:30Z</time>
      </trkpt>
      <trkpt lat="43.20451" lon="5.67182">
        <ele>229</ele>
        <time>2019-11-13T09:06:34Z</time>
      </trkpt>
      <trkpt lat="43.20445" lon="5.67183">
        <ele>229</ele>
        <time>2019-11-13T09:06:40Z</time>
      </trkpt>
      <trkpt lat="43.2044" lon="5.67185">
        <ele>228</ele>
        <time>2019-11-13T09:06:44Z</time>
      </trkpt>
      <trkpt lat="43.20435" lon="5.6719">
        <ele>227</ele>
        <time>2019-11-13T09:06:50Z</time>
      </trkpt>
      <trkpt lat="43.20429" lon="5.67194">
        <ele>228</ele>
        <time>2019-11-13T09:06:56Z</time>
      </trkpt>
      <trkpt lat="43.20424" lon="5.67196">
        <ele>227</ele>
        <time>2019-11-13T09:07:02Z</time>
      </trkpt>
      <trkpt lat="43.20422" lon="5.67204">
        <ele>225</ele>
        <time>2019-11-13T09:07:10Z</time>
      </trkpt>
      <trkpt lat="43.20421" lon="5.67211">
        <ele>225</ele>
        <time>2019-11-13T09:07:14Z</time>
      </trkpt>
      <trkpt lat="43.20421" lon="5.67219">
        <ele>226</ele>
        <time>2019-11-13T09:07:18Z</time>
      </trkpt>
      <trkpt lat="43.20421" lon="5.67226">
        <ele>226</ele>
        <time>2019-11-13T09:07:22Z</time>
      </trkpt>
      <trkpt lat="43.20421" lon="5.67232">
        <ele>227</ele>
        <time>2019-11-13T09:07:26Z</time>
      </trkpt>
      <trkpt lat="43.20421" lon="5.67241">
        <ele>227</ele>
        <time>2019-11-13T09:07:32Z</time>
      </trkpt>
      <trkpt lat="43.20421" lon="5.67249">
        <ele>227</ele>
        <time>2019-11-13T09:07:38Z</time>
      </trkpt>
      <trkpt lat="43.20421" lon="5.67256">
        <ele>228</ele>
        <time>2019-11-13T09:07:44Z</time>
      </trkpt>
      <trkpt lat="43.2042" lon="5.67264">
        <ele>228</ele>
        <time>2019-11-13T09:07:50Z</time>
      </trkpt>
      <trkpt lat="43.20419" lon="5.6727">
        <ele>228</ele>
        <time>2019-11-13T09:07:54Z</time>
      </trkpt>
      <trkpt lat="43.20419" lon="5.67277">
        <ele>229</ele>
        <time>2019-11-13T09:07:58Z</time>
      </trkpt>
      <trkpt lat="43.2042" lon="5.67285">
        <ele>232</ele>
        <time>2019-11-13T09:08:04Z</time>
      </trkpt>
      <trkpt lat="43.20421" lon="5.67293">
        <ele>234</ele>
        <time>2019-11-13T09:08:10Z</time>
      </trkpt>
      <trkpt lat="43.20422" lon="5.67301">
        <ele>233</ele>
        <time>2019-11-13T09:08:16Z</time>
      </trkpt>
      <trkpt lat="43.20423" lon="5.67309">
        <ele>234</ele>
        <time>2019-11-13T09:08:22Z</time>
      </trkpt>
      <trkpt lat="43.20423" lon="5.67318">
        <ele>235</ele>
        <time>2019-11-13T09:08:28Z</time>
      </trkpt>
      <trkpt lat="43.20424" lon="5.67326">
        <ele>234</ele>
        <time>2019-11-13T09:08:34Z</time>
      </trkpt>
      <trkpt lat="43.20425" lon="5.67333">
        <ele>235</ele>
        <time>2019-11-13T09:08:40Z</time>
      </trkpt>
      <trkpt lat="43.20426" lon="5.6734">
        <ele>237</ele>
        <time>2019-11-13T09:08:48Z</time>
      </trkpt>
      <trkpt lat="43.20425" lon="5.67346">
        <ele>233</ele>
        <time>2019-11-13T09:10:30Z</time>
      </trkpt>
      <trkpt lat="43.20429" lon="5.67349">
        <ele>234</ele>
        <time>2019-11-13T09:12:26Z</time>
      </trkpt>
      <trkpt lat="43.20434" lon="5.67348">
        <ele>235</ele>
        <time>2019-11-13T09:12:36Z</time>
      </trkpt>
      <trkpt lat="43.20439" lon="5.67343">
        <ele>237</ele>
        <time>2019-11-13T09:12:44Z</time>
      </trkpt>
      <trkpt lat="43.2044" lon="5.67336">
        <ele>238</ele>
        <time>2019-11-13T09:12:52Z</time>
      </trkpt>
      <trkpt lat="43.20443" lon="5.67329">
        <ele>239</ele>
        <time>2019-11-13T09:13:00Z</time>
      </trkpt>
      <trkpt lat="43.20444" lon="5.67323">
        <ele>239</ele>
        <time>2019-11-13T09:13:08Z</time>
      </trkpt>
      <trkpt lat="43.20447" lon="5.67315">
        <ele>239</ele>
        <time>2019-11-13T09:13:16Z</time>
      </trkpt>
      <trkpt lat="43.2045" lon="5.67309">
        <ele>240</ele>
        <time>2019-11-13T09:13:24Z</time>
      </trkpt>
      <trkpt lat="43.20453" lon="5.67304">
        <ele>240</ele>
        <time>2019-11-13T09:13:30Z</time>
      </trkpt>
      <trkpt lat="43.20457" lon="5.67299">
        <ele>239</ele>
        <time>2019-11-13T09:13:38Z</time>
      </trkpt>
      <trkpt lat="43.20461" lon="5.67295">
        <ele>240</ele>
        <time>2019-11-13T09:13:44Z</time>
      </trkpt>
      <trkpt lat="43.20465" lon="5.67289">
        <ele>241</ele>
        <time>2019-11-13T09:13:50Z</time>
      </trkpt>
      <trkpt lat="43.20469" lon="5.67284">
        <ele>241</ele>
        <time>2019-11-13T09:13:56Z</time>
      </trkpt>
      <trkpt lat="43.20474" lon="5.67281">
        <ele>242</ele>
        <time>2019-11-13T09:14:02Z</time>
      </trkpt>
      <trkpt lat="43.20477" lon="5.67277">
        <ele>243</ele>
        <time>2019-11-13T09:14:08Z</time>
      </trkpt>
      <trkpt lat="43.20483" lon="5.67274">
        <ele>243</ele>
        <time>2019-11-13T09:14:14Z</time>
      </trkpt>
      <trkpt lat="43.20487" lon="5.67272">
        <ele>243</ele>
        <time>2019-11-13T09:14:20Z</time>
      </trkpt>
      <trkpt lat="43.20493" lon="5.67271">
        <ele>244</ele>
        <time>2019-11-13T09:14:26Z</time>
      </trkpt>
      <trkpt lat="43.20498" lon="5.67269">
        <ele>246</ele>
        <time>2019-11-13T09:14:32Z</time>
      </trkpt>
      <trkpt lat="43.20503" lon="5.67267">
        <ele>247</ele>
        <time>2019-11-13T09:14:38Z</time>
      </trkpt>
      <trkpt lat="43.20509" lon="5.67264">
        <ele>248</ele>
        <time>2019-11-13T09:14:44Z</time>
      </trkpt>
      <trkpt lat="43.20513" lon="5.67261">
        <ele>249</ele>
        <time>2019-11-13T09:14:50Z</time>
      </trkpt>
      <trkpt lat="43.20517" lon="5.67258">
        <ele>249</ele>
        <time>2019-11-13T09:14:56Z</time>
      </trkpt>
      <trkpt lat="43.20522" lon="5.67254">
        <ele>251</ele>
        <time>2019-11-13T09:15:02Z</time>
      </trkpt>
      <trkpt lat="43.20527" lon="5.67251">
        <ele>251</ele>
        <time>2019-11-13T09:15:08Z</time>
      </trkpt>
      <trkpt lat="43.20532" lon="5.6725">
        <ele>251</ele>
        <time>2019-11-13T09:15:14Z</time>
      </trkpt>
      <trkpt lat="43.20537" lon="5.67249">
        <ele>250</ele>
        <time>2019-11-13T09:15:20Z</time>
      </trkpt>
      <trkpt lat="43.20543" lon="5.67249">
        <ele>252</ele>
        <time>2019-11-13T09:15:26Z</time>
      </trkpt>
      <trkpt lat="43.20548" lon="5.6725">
        <ele>252</ele>
        <time>2019-11-13T09:15:32Z</time>
      </trkpt>
      <trkpt lat="43.20554" lon="5.67252">
        <ele>254</ele>
        <time>2019-11-13T09:15:38Z</time>
      </trkpt>
      <trkpt lat="43.20558" lon="5.67254">
        <ele>255</ele>
        <time>2019-11-13T09:15:44Z</time>
      </trkpt>
      <trkpt lat="43.20563" lon="5.67254">
        <ele>255</ele>
        <time>2019-11-13T09:15:50Z</time>
      </trkpt>
      <trkpt lat="43.20568" lon="5.67255">
        <ele>254</ele>
        <time>2019-11-13T09:15:56Z</time>
      </trkpt>
      <trkpt lat="43.20572" lon="5.67258">
        <ele>253</ele>
        <time>2019-11-13T09:16:02Z</time>
      </trkpt>
      <trkpt lat="43.20578" lon="5.67259">
        <ele>256</ele>
        <time>2019-11-13T09:16:10Z</time>
      </trkpt>
      <trkpt lat="43.20583" lon="5.67258">
        <ele>256</ele>
        <time>2019-11-13T09:16:16Z</time>
      </trkpt>
      <trkpt lat="43.20588" lon="5.67259">
        <ele>255</ele>
        <time>2019-11-13T09:16:24Z</time>
      </trkpt>
      <trkpt lat="43.20593" lon="5.6726">
        <ele>256</ele>
        <time>2019-11-13T09:16:30Z</time>
      </trkpt>
      <trkpt lat="43.20598" lon="5.6726">
        <ele>257</ele>
        <time>2019-11-13T09:16:36Z</time>
      </trkpt>
      <trkpt lat="43.20603" lon="5.6726">
        <ele>259</ele>
        <time>2019-11-13T09:16:44Z</time>
      </trkpt>
      <trkpt lat="43.20608" lon="5.67257">
        <ele>260</ele>
        <time>2019-11-13T09:16:52Z</time>
      </trkpt>
      <trkpt lat="43.20614" lon="5.67257">
        <ele>262</ele>
        <time>2019-11-13T09:17:00Z</time>
      </trkpt>
      <trkpt lat="43.20619" lon="5.67256">
        <ele>263</ele>
        <time>2019-11-13T09:17:06Z</time>
      </trkpt>
      <trkpt lat="43.20623" lon="5.67254">
        <ele>263</ele>
        <time>2019-11-13T09:17:16Z</time>
      </trkpt>
      <trkpt lat="43.20629" lon="5.67254">
        <ele>265</ele>
        <time>2019-11-13T09:17:24Z</time>
      </trkpt>
      <trkpt lat="43.20634" lon="5.67252">
        <ele>265</ele>
        <time>2019-11-13T09:17:32Z</time>
      </trkpt>
      <trkpt lat="43.20638" lon="5.67249">
        <ele>267</ele>
        <time>2019-11-13T09:17:40Z</time>
      </trkpt>
      <trkpt lat="43.20642" lon="5.67245">
        <ele>268</ele>
        <time>2019-11-13T09:17:48Z</time>
      </trkpt>
      <trkpt lat="43.20647" lon="5.67242">
        <ele>270</ele>
        <time>2019-11-13T09:17:56Z</time>
      </trkpt>
      <trkpt lat="43.20651" lon="5.67239">
        <ele>271</ele>
        <time>2019-11-13T09:18:04Z</time>
      </trkpt>
      <trkpt lat="43.20657" lon="5.67238">
        <ele>272</ele>
        <time>2019-11-13T09:18:10Z</time>
      </trkpt>
      <trkpt lat="43.20664" lon="5.6724">
        <ele>273</ele>
        <time>2019-11-13T09:18:16Z</time>
      </trkpt>
      <trkpt lat="43.20668" lon="5.67241">
        <ele>274</ele>
        <time>2019-11-13T09:18:22Z</time>
      </trkpt>
      <trkpt lat="43.20674" lon="5.6724">
        <ele>275</ele>
        <time>2019-11-13T09:18:28Z</time>
      </trkpt>
      <trkpt lat="43.2068" lon="5.67239">
        <ele>276</ele>
        <time>2019-11-13T09:18:34Z</time>
      </trkpt>
      <trkpt lat="43.20685" lon="5.67237">
        <ele>276</ele>
        <time>2019-11-13T09:18:40Z</time>
      </trkpt>
      <trkpt lat="43.20689" lon="5.67234">
        <ele>277</ele>
        <time>2019-11-13T09:18:46Z</time>
      </trkpt>
      <trkpt lat="43.20694" lon="5.67231">
        <ele>278</ele>
        <time>2019-11-13T09:18:52Z</time>
      </trkpt>
      <trkpt lat="43.20699" lon="5.67229">
        <ele>279</ele>
        <time>2019-11-13T09:19:00Z</time>
      </trkpt>
      <trkpt lat="43.20703" lon="5.67225">
        <ele>278</ele>
        <time>2019-11-13T09:19:06Z</time>
      </trkpt>
      <trkpt lat="43.20708" lon="5.67222">
        <ele>278</ele>
        <time>2019-11-13T09:19:12Z</time>
      </trkpt>
      <trkpt lat="43.20713" lon="5.67219">
        <ele>279</ele>
        <time>2019-11-13T09:19:18Z</time>
      </trkpt>
      <trkpt lat="43.20718" lon="5.67216">
        <ele>280</ele>
        <time>2019-11-13T09:19:24Z</time>
      </trkpt>
      <trkpt lat="43.20723" lon="5.67214">
        <ele>280</ele>
        <time>2019-11-13T09:19:30Z</time>
      </trkpt>
      <trkpt lat="43.20727" lon="5.67211">
        <ele>280</ele>
        <time>2019-11-13T09:19:36Z</time>
      </trkpt>
      <trkpt lat="43.20732" lon="5.67207">
        <ele>283</ele>
        <time>2019-11-13T09:19:42Z</time>
      </trkpt>
      <trkpt lat="43.20737" lon="5.67203">
        <ele>283</ele>
        <time>2019-11-13T09:19:48Z</time>
      </trkpt>
      <trkpt lat="43.20741" lon="5.67197">
        <ele>284</ele>
        <time>2019-11-13T09:19:54Z</time>
      </trkpt>
      <trkpt lat="43.20745" lon="5.67192">
        <ele>283</ele>
        <time>2019-11-13T09:20:00Z</time>
      </trkpt>
      <trkpt lat="43.20749" lon="5.67186">
        <ele>284</ele>
        <time>2019-11-13T09:20:06Z</time>
      </trkpt>
      <trkpt lat="43.20752" lon="5.67182">
        <ele>283</ele>
        <time>2019-11-13T09:20:12Z</time>
      </trkpt>
      <trkpt lat="43.20757" lon="5.6718">
        <ele>284</ele>
        <time>2019-11-13T09:20:18Z</time>
      </trkpt>
      <trkpt lat="43.20762" lon="5.67178">
        <ele>285</ele>
        <time>2019-11-13T09:20:24Z</time>
      </trkpt>
      <trkpt lat="43.20767" lon="5.67177">
        <ele>285</ele>
        <time>2019-11-13T09:21:22Z</time>
      </trkpt>
      <trkpt lat="43.20772" lon="5.67175">
        <ele>284</ele>
        <time>2019-11-13T09:21:32Z</time>
      </trkpt>
      <trkpt lat="43.20777" lon="5.67173">
        <ele>284</ele>
        <time>2019-11-13T09:21:40Z</time>
      </trkpt>
      <trkpt lat="43.20781" lon="5.67169">
        <ele>285</ele>
        <time>2019-11-13T09:21:46Z</time>
      </trkpt>
      <trkpt lat="43.20785" lon="5.67166">
        <ele>287</ele>
        <time>2019-11-13T09:21:54Z</time>
      </trkpt>
      <trkpt lat="43.20789" lon="5.67162">
        <ele>287</ele>
        <time>2019-11-13T09:22:00Z</time>
      </trkpt>
      <trkpt lat="43.20794" lon="5.67159">
        <ele>287</ele>
        <time>2019-11-13T09:22:08Z</time>
      </trkpt>
      <trkpt lat="43.20798" lon="5.67157">
        <ele>286</ele>
        <time>2019-11-13T09:22:16Z</time>
      </trkpt>
      <trkpt lat="43.20803" lon="5.67155">
        <ele>287</ele>
        <time>2019-11-13T09:22:22Z</time>
      </trkpt>
      <trkpt lat="43.20807" lon="5.67152">
        <ele>288</ele>
        <time>2019-11-13T09:22:28Z</time>
      </trkpt>
      <trkpt lat="43.20813" lon="5.6715">
        <ele>289</ele>
        <time>2019-11-13T09:22:34Z</time>
      </trkpt>
      <trkpt lat="43.20818" lon="5.67149">
        <ele>290</ele>
        <time>2019-11-13T09:22:40Z</time>
      </trkpt>
      <trkpt lat="43.20824" lon="5.67146">
        <ele>291</ele>
        <time>2019-11-13T09:22:48Z</time>
      </trkpt>
      <trkpt lat="43.20828" lon="5.67143">
        <ele>291</ele>
        <time>2019-11-13T09:22:54Z</time>
      </trkpt>
      <trkpt lat="43.20833" lon="5.67142">
        <ele>291</ele>
        <time>2019-11-13T09:23:00Z</time>
      </trkpt>
      <trkpt lat="43.20839" lon="5.67141">
        <ele>293</ele>
        <time>2019-11-13T09:23:06Z</time>
      </trkpt>
      <trkpt lat="43.20843" lon="5.67139">
        <ele>293</ele>
        <time>2019-11-13T09:23:12Z</time>
      </trkpt>
      <trkpt lat="43.20847" lon="5.67135">
        <ele>294</ele>
        <time>2019-11-13T09:23:18Z</time>
      </trkpt>
      <trkpt lat="43.20852" lon="5.67131">
        <ele>294</ele>
        <time>2019-11-13T09:23:26Z</time>
      </trkpt>
      <trkpt lat="43.20857" lon="5.67129">
        <ele>297</ele>
        <time>2019-11-13T09:23:34Z</time>
      </trkpt>
      <trkpt lat="43.20862" lon="5.67129">
        <ele>296</ele>
        <time>2019-11-13T09:23:40Z</time>
      </trkpt>
      <trkpt lat="43.20866" lon="5.67134">
        <ele>295</ele>
        <time>2019-11-13T09:23:46Z</time>
      </trkpt>
      <trkpt lat="43.2087" lon="5.67134">
        <ele>295</ele>
        <time>2019-11-13T09:23:50Z</time>
      </trkpt>
      <trkpt lat="43.20876" lon="5.67137">
        <ele>295</ele>
        <time>2019-11-13T09:23:58Z</time>
      </trkpt>
      <trkpt lat="43.20881" lon="5.67137">
        <ele>295</ele>
        <time>2019-11-13T09:24:02Z</time>
      </trkpt>
      <trkpt lat="43.20887" lon="5.67139">
        <ele>295</ele>
        <time>2019-11-13T09:24:06Z</time>
      </trkpt>
      <trkpt lat="43.20891" lon="5.67144">
        <ele>298</ele>
        <time>2019-11-13T09:24:12Z</time>
      </trkpt>
      <trkpt lat="43.20897" lon="5.67146">
        <ele>299</ele>
        <time>2019-11-13T09:24:18Z</time>
      </trkpt>
      <trkpt lat="43.20902" lon="5.67148">
        <ele>298</ele>
        <time>2019-11-13T09:24:24Z</time>
      </trkpt>
      <trkpt lat="43.20907" lon="5.6715">
        <ele>302</ele>
        <time>2019-11-13T09:24:30Z</time>
      </trkpt>
      <trkpt lat="43.20912" lon="5.6715">
        <ele>301</ele>
        <time>2019-11-13T09:24:36Z</time>
      </trkpt>
      <trkpt lat="43.20918" lon="5.67152">
        <ele>302</ele>
        <time>2019-11-13T09:24:44Z</time>
      </trkpt>
      <trkpt lat="43.20922" lon="5.67155">
        <ele>303</ele>
        <time>2019-11-13T09:24:50Z</time>
      </trkpt>
      <trkpt lat="43.20926" lon="5.67157">
        <ele>304</ele>
        <time>2019-11-13T09:24:58Z</time>
      </trkpt>
      <trkpt lat="43.20931" lon="5.6716">
        <ele>305</ele>
        <time>2019-11-13T09:25:10Z</time>
      </trkpt>
      <trkpt lat="43.20936" lon="5.67162">
        <ele>305</ele>
        <time>2019-11-13T09:25:18Z</time>
      </trkpt>
      <trkpt lat="43.20941" lon="5.67163">
        <ele>306</ele>
        <time>2019-11-13T09:25:26Z</time>
      </trkpt>
      <trkpt lat="43.20947" lon="5.67165">
        <ele>307</ele>
        <time>2019-11-13T09:25:36Z</time>
      </trkpt>
      <trkpt lat="43.20952" lon="5.67167">
        <ele>307</ele>
        <time>2019-11-13T09:25:44Z</time>
      </trkpt>
      <trkpt lat="43.20956" lon="5.6717">
        <ele>307</ele>
        <time>2019-11-13T09:25:54Z</time>
      </trkpt>
      <trkpt lat="43.20961" lon="5.67174">
        <ele>307</ele>
        <time>2019-11-13T09:26:02Z</time>
      </trkpt>
      <trkpt lat="43.20963" lon="5.6718">
        <ele>308</ele>
        <time>2019-11-13T09:26:10Z</time>
      </trkpt>
      <trkpt lat="43.20969" lon="5.67184">
        <ele>310</ele>
        <time>2019-11-13T09:26:18Z</time>
      </trkpt>
      <trkpt lat="43.20973" lon="5.67187">
        <ele>310</ele>
        <time>2019-11-13T09:26:24Z</time>
      </trkpt>
      <trkpt lat="43.20978" lon="5.67193">
        <ele>310</ele>
        <time>2019-11-13T09:26:32Z</time>
      </trkpt>
      <trkpt lat="43.20981" lon="5.67198">
        <ele>313</ele>
        <time>2019-11-13T09:26:38Z</time>
      </trkpt>
      <trkpt lat="43.20986" lon="5.67202">
        <ele>314</ele>
        <time>2019-11-13T09:26:44Z</time>
      </trkpt>
      <trkpt lat="43.2099" lon="5.67207">
        <ele>314</ele>
        <time>2019-11-13T09:26:50Z</time>
      </trkpt>
      <trkpt lat="43.2099" lon="5.67213">
        <ele>315</ele>
        <time>2019-11-13T09:26:56Z</time>
      </trkpt>
      <trkpt lat="43.20996" lon="5.67216">
        <ele>317</ele>
        <time>2019-11-13T09:27:04Z</time>
      </trkpt>
      <trkpt lat="43.21" lon="5.67219">
        <ele>318</ele>
        <time>2019-11-13T09:27:10Z</time>
      </trkpt>
      <trkpt lat="43.21005" lon="5.67221">
        <ele>320</ele>
        <time>2019-11-13T09:27:16Z</time>
      </trkpt>
      <trkpt lat="43.21009" lon="5.67226">
        <ele>321</ele>
        <time>2019-11-13T09:27:22Z</time>
      </trkpt>
      <trkpt lat="43.21012" lon="5.67232">
        <ele>320</ele>
        <time>2019-11-13T09:27:30Z</time>
      </trkpt>
      <trkpt lat="43.21016" lon="5.67237">
        <ele>320</ele>
        <time>2019-11-13T09:27:38Z</time>
      </trkpt>
      <trkpt lat="43.2102" lon="5.67241">
        <ele>320</ele>
        <time>2019-11-13T09:27:44Z</time>
      </trkpt>
      <trkpt lat="43.21024" lon="5.67245">
        <ele>321</ele>
        <time>2019-11-13T09:27:50Z</time>
      </trkpt>
      <trkpt lat="43.21029" lon="5.6725">
        <ele>321</ele>
        <time>2019-11-13T09:27:58Z</time>
      </trkpt>
      <trkpt lat="43.21035" lon="5.67253">
        <ele>323</ele>
        <time>2019-11-13T09:28:04Z</time>
      </trkpt>
      <trkpt lat="43.21041" lon="5.67253">
        <ele>325</ele>
        <time>2019-11-13T09:28:08Z</time>
      </trkpt>
      <trkpt lat="43.21047" lon="5.67257">
        <ele>324</ele>
        <time>2019-11-13T09:28:14Z</time>
      </trkpt>
      <trkpt lat="43.21052" lon="5.67259">
        <ele>323</ele>
        <time>2019-11-13T09:28:20Z</time>
      </trkpt>
      <trkpt lat="43.21056" lon="5.67261">
        <ele>324</ele>
        <time>2019-11-13T09:28:24Z</time>
      </trkpt>
      <trkpt lat="43.21062" lon="5.67263">
        <ele>326</ele>
        <time>2019-11-13T09:28:30Z</time>
      </trkpt>
      <trkpt lat="43.21068" lon="5.67265">
        <ele>326</ele>
        <time>2019-11-13T09:28:36Z</time>
      </trkpt>
      <trkpt lat="43.21074" lon="5.67268">
        <ele>329</ele>
        <time>2019-11-13T09:28:42Z</time>
      </trkpt>
      <trkpt lat="43.2108" lon="5.6727">
        <ele>329</ele>
        <time>2019-11-13T09:28:48Z</time>
      </trkpt>
      <trkpt lat="43.21085" lon="5.67273">
        <ele>328</ele>
        <time>2019-11-13T09:28:54Z</time>
      </trkpt>
      <trkpt lat="43.21091" lon="5.67273">
        <ele>329</ele>
        <time>2019-11-13T09:28:58Z</time>
      </trkpt>
      <trkpt lat="43.21096" lon="5.67271">
        <ele>327</ele>
        <time>2019-11-13T09:29:04Z</time>
      </trkpt>
      <trkpt lat="43.21101" lon="5.67269">
        <ele>328</ele>
        <time>2019-11-13T09:29:12Z</time>
      </trkpt>
      <trkpt lat="43.21106" lon="5.67268">
        <ele>328</ele>
        <time>2019-11-13T09:29:18Z</time>
      </trkpt>
      <trkpt lat="43.21111" lon="5.67266">
        <ele>329</ele>
        <time>2019-11-13T09:29:24Z</time>
      </trkpt>
      <trkpt lat="43.21116" lon="5.67265">
        <ele>329</ele>
        <time>2019-11-13T09:29:30Z</time>
      </trkpt>
      <trkpt lat="43.21122" lon="5.67264">
        <ele>329</ele>
        <time>2019-11-13T09:29:36Z</time>
      </trkpt>
      <trkpt lat="43.21128" lon="5.67262">
        <ele>330</ele>
        <time>2019-11-13T09:29:42Z</time>
      </trkpt>
      <trkpt lat="43.21133" lon="5.6726">
        <ele>330</ele>
        <time>2019-11-13T09:29:54Z</time>
      </trkpt>
      <trkpt lat="43.21137" lon="5.6726">
        <ele>330</ele>
        <time>2019-11-13T09:29:58Z</time>
      </trkpt>
      <trkpt lat="43.21143" lon="5.67261">
        <ele>331</ele>
        <time>2019-11-13T09:30:04Z</time>
      </trkpt>
      <trkpt lat="43.21148" lon="5.67262">
        <ele>330</ele>
        <time>2019-11-13T09:30:12Z</time>
      </trkpt>
      <trkpt lat="43.21153" lon="5.67261">
        <ele>330</ele>
        <time>2019-11-13T09:30:18Z</time>
      </trkpt>
      <trkpt lat="43.21159" lon="5.6726">
        <ele>331</ele>
        <time>2019-11-13T09:30:24Z</time>
      </trkpt>
      <trkpt lat="43.21164" lon="5.67259">
        <ele>332</ele>
        <time>2019-11-13T09:30:28Z</time>
      </trkpt>
      <trkpt lat="43.21169" lon="5.67258">
        <ele>332</ele>
        <time>2019-11-13T09:30:32Z</time>
      </trkpt>
      <trkpt lat="43.21174" lon="5.67257">
        <ele>333</ele>
        <time>2019-11-13T09:30:36Z</time>
      </trkpt>
      <trkpt lat="43.2118" lon="5.67258">
        <ele>333</ele>
        <time>2019-11-13T09:30:42Z</time>
      </trkpt>
      <trkpt lat="43.21185" lon="5.67256">
        <ele>334</ele>
        <time>2019-11-13T09:30:48Z</time>
      </trkpt>
      <trkpt lat="43.2119" lon="5.67254">
        <ele>334</ele>
        <time>2019-11-13T09:30:54Z</time>
      </trkpt>
      <trkpt lat="43.21195" lon="5.67253">
        <ele>334</ele>
        <time>2019-11-13T09:31:00Z</time>
      </trkpt>
      <trkpt lat="43.21202" lon="5.67254">
        <ele>336</ele>
        <time>2019-11-13T09:31:06Z</time>
      </trkpt>
      <trkpt lat="43.21206" lon="5.67255">
        <ele>335</ele>
        <time>2019-11-13T09:31:10Z</time>
      </trkpt>
      <trkpt lat="43.21211" lon="5.67255">
        <ele>333</ele>
        <time>2019-11-13T09:31:16Z</time>
      </trkpt>
      <trkpt lat="43.21216" lon="5.67254">
        <ele>332</ele>
        <time>2019-11-13T09:31:22Z</time>
      </trkpt>
      <trkpt lat="43.21223" lon="5.67253">
        <ele>334</ele>
        <time>2019-11-13T09:31:28Z</time>
      </trkpt>
      <trkpt lat="43.21229" lon="5.67251">
        <ele>332</ele>
        <time>2019-11-13T09:31:36Z</time>
      </trkpt>
      <trkpt lat="43.21234" lon="5.67251">
        <ele>332</ele>
        <time>2019-11-13T09:31:42Z</time>
      </trkpt>
      <trkpt lat="43.2124" lon="5.6725">
        <ele>333</ele>
        <time>2019-11-13T09:31:48Z</time>
      </trkpt>
      <trkpt lat="43.21245" lon="5.67249">
        <ele>332</ele>
        <time>2019-11-13T09:31:54Z</time>
      </trkpt>
      <trkpt lat="43.2125" lon="5.67245">
        <ele>333</ele>
        <time>2019-11-13T09:32:00Z</time>
      </trkpt>
      <trkpt lat="43.21255" lon="5.67242">
        <ele>335</ele>
        <time>2019-11-13T09:32:06Z</time>
      </trkpt>
      <trkpt lat="43.21259" lon="5.67239">
        <ele>336</ele>
        <time>2019-11-13T09:32:12Z</time>
      </trkpt>
      <trkpt lat="43.21265" lon="5.67237">
        <ele>337</ele>
        <time>2019-11-13T09:32:18Z</time>
      </trkpt>
      <trkpt lat="43.21271" lon="5.67238">
        <ele>338</ele>
        <time>2019-11-13T09:32:24Z</time>
      </trkpt>
      <trkpt lat="43.21276" lon="5.67237">
        <ele>337</ele>
        <time>2019-11-13T09:32:30Z</time>
      </trkpt>
      <trkpt lat="43.21281" lon="5.67234">
        <ele>336</ele>
        <time>2019-11-13T09:32:36Z</time>
      </trkpt>
      <trkpt lat="43.21287" lon="5.67234">
        <ele>337</ele>
        <time>2019-11-13T09:32:42Z</time>
      </trkpt>
      <trkpt lat="43.21292" lon="5.67236">
        <ele>337</ele>
        <time>2019-11-13T09:32:48Z</time>
      </trkpt>
      <trkpt lat="43.21298" lon="5.67239">
        <ele>339</ele>
        <time>2019-11-13T09:32:54Z</time>
      </trkpt>
      <trkpt lat="43.21304" lon="5.67238">
        <ele>338</ele>
        <time>2019-11-13T09:33:00Z</time>
      </trkpt>
      <trkpt lat="43.2131" lon="5.67237">
        <ele>338</ele>
        <time>2019-11-13T09:33:06Z</time>
      </trkpt>
      <trkpt lat="43.21315" lon="5.67234">
        <ele>336</ele>
        <time>2019-11-13T09:33:14Z</time>
      </trkpt>
      <trkpt lat="43.21321" lon="5.6723">
        <ele>338</ele>
        <time>2019-11-13T09:33:22Z</time>
      </trkpt>
      <trkpt lat="43.21327" lon="5.67227">
        <ele>341</ele>
        <time>2019-11-13T09:33:28Z</time>
      </trkpt>
      <trkpt lat="43.21332" lon="5.67226">
        <ele>341</ele>
        <time>2019-11-13T09:33:34Z</time>
      </trkpt>
      <trkpt lat="43.21337" lon="5.67225">
        <ele>341</ele>
        <time>2019-11-13T09:33:40Z</time>
      </trkpt>
      <trkpt lat="43.21343" lon="5.67224">
        <ele>344</ele>
        <time>2019-11-13T09:33:48Z</time>
      </trkpt>
      <trkpt lat="43.21349" lon="5.67221">
        <ele>345</ele>
        <time>2019-11-13T09:33:56Z</time>
      </trkpt>
      <trkpt lat="43.21354" lon="5.67218">
        <ele>346</ele>
        <time>2019-11-13T09:34:02Z</time>
      </trkpt>
      <trkpt lat="43.21359" lon="5.67217">
        <ele>347</ele>
        <time>2019-11-13T09:34:08Z</time>
      </trkpt>
      <trkpt lat="43.21363" lon="5.67216">
        <ele>346</ele>
        <time>2019-11-13T09:34:14Z</time>
      </trkpt>
      <trkpt lat="43.21369" lon="5.67215">
        <ele>348</ele>
        <time>2019-11-13T09:34:20Z</time>
      </trkpt>
      <trkpt lat="43.21374" lon="5.67214">
        <ele>347</ele>
        <time>2019-11-13T09:34:26Z</time>
      </trkpt>
      <trkpt lat="43.21379" lon="5.67212">
        <ele>348</ele>
        <time>2019-11-13T09:34:32Z</time>
      </trkpt>
      <trkpt lat="43.21384" lon="5.6721">
        <ele>349</ele>
        <time>2019-11-13T09:34:38Z</time>
      </trkpt>
      <trkpt lat="43.21389" lon="5.67207">
        <ele>350</ele>
        <time>2019-11-13T09:34:44Z</time>
      </trkpt>
      <trkpt lat="43.21394" lon="5.67206">
        <ele>350</ele>
        <time>2019-11-13T09:34:48Z</time>
      </trkpt>
      <trkpt lat="43.21399" lon="5.67206">
        <ele>349</ele>
        <time>2019-11-13T09:34:54Z</time>
      </trkpt>
      <trkpt lat="43.21404" lon="5.67208">
        <ele>347</ele>
        <time>2019-11-13T09:35:02Z</time>
      </trkpt>
      <trkpt lat="43.2141" lon="5.67207">
        <ele>348</ele>
        <time>2019-11-13T09:35:08Z</time>
      </trkpt>
      <trkpt lat="43.21415" lon="5.67207">
        <ele>349</ele>
        <time>2019-11-13T09:35:14Z</time>
      </trkpt>
      <trkpt lat="43.2142" lon="5.67206">
        <ele>350</ele>
        <time>2019-11-13T09:35:20Z</time>
      </trkpt>
      <trkpt lat="43.21427" lon="5.67204">
        <ele>352</ele>
        <time>2019-11-13T09:35:28Z</time>
      </trkpt>
      <trkpt lat="43.21431" lon="5.67202">
        <ele>352</ele>
        <time>2019-11-13T09:35:34Z</time>
      </trkpt>
      <trkpt lat="43.21436" lon="5.67199">
        <ele>353</ele>
        <time>2019-11-13T09:35:40Z</time>
      </trkpt>
      <trkpt lat="43.21441" lon="5.67197">
        <ele>352</ele>
        <time>2019-11-13T09:35:46Z</time>
      </trkpt>
      <trkpt lat="43.21446" lon="5.67195">
        <ele>352</ele>
        <time>2019-11-13T09:35:54Z</time>
      </trkpt>
      <trkpt lat="43.21451" lon="5.67194">
        <ele>354</ele>
        <time>2019-11-13T09:36:00Z</time>
      </trkpt>
      <trkpt lat="43.21456" lon="5.67193">
        <ele>355</ele>
        <time>2019-11-13T09:36:04Z</time>
      </trkpt>
      <trkpt lat="43.21462" lon="5.67193">
        <ele>356</ele>
        <time>2019-11-13T09:36:10Z</time>
      </trkpt>
      <trkpt lat="43.21468" lon="5.67192">
        <ele>355</ele>
        <time>2019-11-13T09:36:18Z</time>
      </trkpt>
      <trkpt lat="43.21472" lon="5.67191">
        <ele>355</ele>
        <time>2019-11-13T09:36:24Z</time>
      </trkpt>
      <trkpt lat="43.21478" lon="5.67191">
        <ele>357</ele>
        <time>2019-11-13T09:36:30Z</time>
      </trkpt>
      <trkpt lat="43.21483" lon="5.67191">
        <ele>356</ele>
        <time>2019-11-13T09:36:36Z</time>
      </trkpt>
      <trkpt lat="43.21488" lon="5.67191">
        <ele>356</ele>
        <time>2019-11-13T09:36:42Z</time>
      </trkpt>
      <trkpt lat="43.21493" lon="5.67191">
        <ele>359</ele>
        <time>2019-11-13T09:36:48Z</time>
      </trkpt>
      <trkpt lat="43.21499" lon="5.67191">
        <ele>360</ele>
        <time>2019-11-13T09:36:54Z</time>
      </trkpt>
      <trkpt lat="43.21505" lon="5.67191">
        <ele>358</ele>
        <time>2019-11-13T09:37:00Z</time>
      </trkpt>
      <trkpt lat="43.2151" lon="5.6719">
        <ele>359</ele>
        <time>2019-11-13T09:37:06Z</time>
      </trkpt>
      <trkpt lat="43.21514" lon="5.67189">
        <ele>358</ele>
        <time>2019-11-13T09:37:12Z</time>
      </trkpt>
      <trkpt lat="43.21519" lon="5.67187">
        <ele>359</ele>
        <time>2019-11-13T09:37:18Z</time>
      </trkpt>
      <trkpt lat="43.21525" lon="5.67186">
        <ele>361</ele>
        <time>2019-11-13T09:37:24Z</time>
      </trkpt>
      <trkpt lat="43.2153" lon="5.67183">
        <ele>360</ele>
        <time>2019-11-13T09:37:30Z</time>
      </trkpt>
      <trkpt lat="43.21535" lon="5.6718">
        <ele>362</ele>
        <time>2019-11-13T09:37:36Z</time>
      </trkpt>
      <trkpt lat="43.21541" lon="5.67178">
        <ele>363</ele>
        <time>2019-11-13T09:37:42Z</time>
      </trkpt>
      <trkpt lat="43.21546" lon="5.67177">
        <ele>363</ele>
        <time>2019-11-13T09:37:48Z</time>
      </trkpt>
      <trkpt lat="43.21551" lon="5.67176">
        <ele>362</ele>
        <time>2019-11-13T09:37:56Z</time>
      </trkpt>
      <trkpt lat="43.21555" lon="5.67174">
        <ele>365</ele>
        <time>2019-11-13T09:40:10Z</time>
      </trkpt>
      <trkpt lat="43.21561" lon="5.67175">
        <ele>365</ele>
        <time>2019-11-13T09:40:30Z</time>
      </trkpt>
      <trkpt lat="43.21565" lon="5.67175">
        <ele>364</ele>
        <time>2019-11-13T09:40:34Z</time>
      </trkpt>
      <trkpt lat="43.21571" lon="5.67174">
        <ele>365</ele>
        <time>2019-11-13T09:40:40Z</time>
      </trkpt>
      <trkpt lat="43.21576" lon="5.67175">
        <ele>365</ele>
        <time>2019-11-13T09:40:46Z</time>
      </trkpt>
      <trkpt lat="43.21582" lon="5.67173">
        <ele>365</ele>
        <time>2019-11-13T09:40:54Z</time>
      </trkpt>
      <trkpt lat="43.21587" lon="5.67172">
        <ele>365</ele>
        <time>2019-11-13T09:41:00Z</time>
      </trkpt>
      <trkpt lat="43.21593" lon="5.67172">
        <ele>365</ele>
        <time>2019-11-13T09:41:08Z</time>
      </trkpt>
      <trkpt lat="43.21597" lon="5.67173">
        <ele>365</ele>
        <time>2019-11-13T09:41:14Z</time>
      </trkpt>
      <trkpt lat="43.21602" lon="5.67174">
        <ele>365</ele>
        <time>2019-11-13T09:41:20Z</time>
      </trkpt>
      <trkpt lat="43.21607" lon="5.67175">
        <ele>365</ele>
        <time>2019-11-13T09:41:26Z</time>
      </trkpt>
      <trkpt lat="43.21613" lon="5.67175">
        <ele>365</ele>
        <time>2019-11-13T09:41:32Z</time>
      </trkpt>
      <trkpt lat="43.21619" lon="5.67177">
        <ele>367</ele>
        <time>2019-11-13T09:41:38Z</time>
      </trkpt>
      <trkpt lat="43.21624" lon="5.67177">
        <ele>368</ele>
        <time>2019-11-13T09:41:42Z</time>
      </trkpt>
      <trkpt lat="43.21629" lon="5.67178">
        <ele>367</ele>
        <time>2019-11-13T09:41:48Z</time>
      </trkpt>
      <trkpt lat="43.21635" lon="5.67176">
        <ele>367</ele>
        <time>2019-11-13T09:41:54Z</time>
      </trkpt>
      <trkpt lat="43.21642" lon="5.67173">
        <ele>372</ele>
        <time>2019-11-13T09:42:00Z</time>
      </trkpt>
      <trkpt lat="43.21648" lon="5.67171">
        <ele>373</ele>
        <time>2019-11-13T09:42:06Z</time>
      </trkpt>
      <trkpt lat="43.21654" lon="5.67169">
        <ele>373</ele>
        <time>2019-11-13T09:42:12Z</time>
      </trkpt>
      <trkpt lat="43.21659" lon="5.67167">
        <ele>373</ele>
        <time>2019-11-13T09:42:18Z</time>
      </trkpt>
      <trkpt lat="43.21666" lon="5.67167">
        <ele>371</ele>
        <time>2019-11-13T09:42:24Z</time>
      </trkpt>
      <trkpt lat="43.2167" lon="5.67166">
        <ele>372</ele>
        <time>2019-11-13T09:42:28Z</time>
      </trkpt>
      <trkpt lat="43.21676" lon="5.67165">
        <ele>373</ele>
        <time>2019-11-13T09:42:34Z</time>
      </trkpt>
      <trkpt lat="43.21682" lon="5.67165">
        <ele>374</ele>
        <time>2019-11-13T09:42:40Z</time>
      </trkpt>
      <trkpt lat="43.21688" lon="5.67164">
        <ele>374</ele>
        <time>2019-11-13T09:42:46Z</time>
      </trkpt>
      <trkpt lat="43.21693" lon="5.67163">
        <ele>374</ele>
        <time>2019-11-13T09:42:52Z</time>
      </trkpt>
      <trkpt lat="43.21699" lon="5.6716">
        <ele>375</ele>
        <time>2019-11-13T09:43:00Z</time>
      </trkpt>
      <trkpt lat="43.21704" lon="5.67159">
        <ele>376</ele>
        <time>2019-11-13T09:43:06Z</time>
      </trkpt>
      <trkpt lat="43.21709" lon="5.67161">
        <ele>374</ele>
        <time>2019-11-13T09:43:12Z</time>
      </trkpt>
      <trkpt lat="43.21715" lon="5.67159">
        <ele>374</ele>
        <time>2019-11-13T09:43:18Z</time>
      </trkpt>
      <trkpt lat="43.21719" lon="5.67157">
        <ele>375</ele>
        <time>2019-11-13T09:43:24Z</time>
      </trkpt>
      <trkpt lat="43.21723" lon="5.67154">
        <ele>376</ele>
        <time>2019-11-13T09:43:30Z</time>
      </trkpt>
      <trkpt lat="43.21729" lon="5.67152">
        <ele>377</ele>
        <time>2019-11-13T09:43:36Z</time>
      </trkpt>
      <trkpt lat="43.21734" lon="5.67151">
        <ele>377</ele>
        <time>2019-11-13T09:43:44Z</time>
      </trkpt>
      <trkpt lat="43.2174" lon="5.67151">
        <ele>378</ele>
        <time>2019-11-13T09:43:52Z</time>
      </trkpt>
      <trkpt lat="43.21745" lon="5.6715">
        <ele>379</ele>
        <time>2019-11-13T09:44:04Z</time>
      </trkpt>
      <trkpt lat="43.2175" lon="5.67148">
        <ele>380</ele>
        <time>2019-11-13T09:44:12Z</time>
      </trkpt>
      <trkpt lat="43.21755" lon="5.67146">
        <ele>381</ele>
        <time>2019-11-13T09:44:18Z</time>
      </trkpt>
      <trkpt lat="43.21759" lon="5.67151">
        <ele>383</ele>
        <time>2019-11-13T09:44:38Z</time>
      </trkpt>
      <trkpt lat="43.21761" lon="5.67158">
        <ele>383</ele>
        <time>2019-11-13T09:44:56Z</time>
      </trkpt>
      <trkpt lat="43.21762" lon="5.67164">
        <ele>382</ele>
        <time>2019-11-13T09:45:04Z</time>
      </trkpt>
      <trkpt lat="43.21766" lon="5.67171">
        <ele>381</ele>
        <time>2019-11-13T09:45:10Z</time>
      </trkpt>
      <trkpt lat="43.21768" lon="5.67178">
        <ele>382</ele>
        <time>2019-11-13T09:45:16Z</time>
      </trkpt>
      <trkpt lat="43.21773" lon="5.67185">
        <ele>382</ele>
        <time>2019-11-13T09:45:24Z</time>
      </trkpt>
      <trkpt lat="43.21775" lon="5.67192">
        <ele>382</ele>
        <time>2019-11-13T09:45:30Z</time>
      </trkpt>
      <trkpt lat="43.21778" lon="5.67198">
        <ele>379</ele>
        <time>2019-11-13T09:45:36Z</time>
      </trkpt>
      <trkpt lat="43.21781" lon="5.67206">
        <ele>380</ele>
        <time>2019-11-13T09:45:42Z</time>
      </trkpt>
      <trkpt lat="43.21785" lon="5.67212">
        <ele>380</ele>
        <time>2019-11-13T09:45:48Z</time>
      </trkpt>
      <trkpt lat="43.21789" lon="5.67219">
        <ele>381</ele>
        <time>2019-11-13T09:45:54Z</time>
      </trkpt>
      <trkpt lat="43.21792" lon="5.67225">
        <ele>382</ele>
        <time>2019-11-13T09:46:00Z</time>
      </trkpt>
      <trkpt lat="43.21797" lon="5.67231">
        <ele>385</ele>
        <time>2019-11-13T09:46:06Z</time>
      </trkpt>
      <trkpt lat="43.218" lon="5.67236">
        <ele>385</ele>
        <time>2019-11-13T09:46:12Z</time>
      </trkpt>
      <trkpt lat="43.21804" lon="5.67242">
        <ele>387</ele>
        <time>2019-11-13T09:46:18Z</time>
      </trkpt>
      <trkpt lat="43.21808" lon="5.67247">
        <ele>386</ele>
        <time>2019-11-13T09:46:24Z</time>
      </trkpt>
      <trkpt lat="43.21812" lon="5.67251">
        <ele>387</ele>
        <time>2019-11-13T09:46:30Z</time>
      </trkpt>
      <trkpt lat="43.21814" lon="5.67258">
        <ele>386</ele>
        <time>2019-11-13T09:46:38Z</time>
      </trkpt>
      <trkpt lat="43.21818" lon="5.67263">
        <ele>387</ele>
        <time>2019-11-13T09:46:44Z</time>
      </trkpt>
      <trkpt lat="43.2182" lon="5.67268">
        <ele>385</ele>
        <time>2019-11-13T09:46:50Z</time>
      </trkpt>
      <trkpt lat="43.21824" lon="5.67274">
        <ele>385</ele>
        <time>2019-11-13T09:46:56Z</time>
      </trkpt>
      <trkpt lat="43.21829" lon="5.6728">
        <ele>386</ele>
        <time>2019-11-13T09:47:02Z</time>
      </trkpt>
      <trkpt lat="43.21834" lon="5.67284">
        <ele>390</ele>
        <time>2019-11-13T09:47:08Z</time>
      </trkpt>
      <trkpt lat="43.21839" lon="5.67288">
        <ele>391</ele>
        <time>2019-11-13T09:47:14Z</time>
      </trkpt>
      <trkpt lat="43.21843" lon="5.67293">
        <ele>390</ele>
        <time>2019-11-13T09:47:22Z</time>
      </trkpt>
      <trkpt lat="43.21847" lon="5.67298">
        <ele>391</ele>
        <time>2019-11-13T09:47:28Z</time>
      </trkpt>
      <trkpt lat="43.21851" lon="5.67304">
        <ele>391</ele>
        <time>2019-11-13T09:47:36Z</time>
      </trkpt>
      <trkpt lat="43.21854" lon="5.67308">
        <ele>392</ele>
        <time>2019-11-13T09:47:42Z</time>
      </trkpt>
      <trkpt lat="43.21859" lon="5.6731">
        <ele>393</ele>
        <time>2019-11-13T09:47:46Z</time>
      </trkpt>
      <trkpt lat="43.21864" lon="5.67314">
        <ele>395</ele>
        <time>2019-11-13T09:47:52Z</time>
      </trkpt>
      <trkpt lat="43.21869" lon="5.67317">
        <ele>393</ele>
        <time>2019-11-13T09:47:58Z</time>
      </trkpt>
      <trkpt lat="43.21873" lon="5.67321">
        <ele>392</ele>
        <time>2019-11-13T09:48:06Z</time>
      </trkpt>
      <trkpt lat="43.21877" lon="5.67326">
        <ele>394</ele>
        <time>2019-11-13T09:48:12Z</time>
      </trkpt>
      <trkpt lat="43.21881" lon="5.67328">
        <ele>396</ele>
        <time>2019-11-13T09:48:18Z</time>
      </trkpt>
      <trkpt lat="43.21887" lon="5.67329">
        <ele>396</ele>
        <time>2019-11-13T09:48:26Z</time>
      </trkpt>
      <trkpt lat="43.21892" lon="5.67329">
        <ele>397</ele>
        <time>2019-11-13T09:48:32Z</time>
      </trkpt>
      <trkpt lat="43.21897" lon="5.6733">
        <ele>399</ele>
        <time>2019-11-13T09:48:36Z</time>
      </trkpt>
      <trkpt lat="43.21902" lon="5.67329">
        <ele>399</ele>
        <time>2019-11-13T09:48:42Z</time>
      </trkpt>
      <trkpt lat="43.21908" lon="5.67326">
        <ele>400</ele>
        <time>2019-11-13T09:48:50Z</time>
      </trkpt>
      <trkpt lat="43.21912" lon="5.67322">
        <ele>401</ele>
        <time>2019-11-13T09:48:56Z</time>
      </trkpt>
      <trkpt lat="43.21918" lon="5.67321">
        <ele>402</ele>
        <time>2019-11-13T09:49:02Z</time>
      </trkpt>
      <trkpt lat="43.21923" lon="5.6732">
        <ele>403</ele>
        <time>2019-11-13T09:49:08Z</time>
      </trkpt>
      <trkpt lat="43.21928" lon="5.67319">
        <ele>402</ele>
        <time>2019-11-13T09:49:26Z</time>
      </trkpt>
      <trkpt lat="43.21933" lon="5.67318">
        <ele>402</ele>
        <time>2019-11-13T09:49:34Z</time>
      </trkpt>
      <trkpt lat="43.21938" lon="5.67315">
        <ele>405</ele>
        <time>2019-11-13T09:49:48Z</time>
      </trkpt>
      <trkpt lat="43.21942" lon="5.67311">
        <ele>406</ele>
        <time>2019-11-13T09:50:14Z</time>
      </trkpt>
      <trkpt lat="43.21948" lon="5.6731">
        <ele>406</ele>
        <time>2019-11-13T09:50:22Z</time>
      </trkpt>
      <trkpt lat="43.2195" lon="5.67305">
        <ele>408</ele>
        <time>2019-11-13T09:50:32Z</time>
      </trkpt>
      <trkpt lat="43.21947" lon="5.673">
        <ele>408</ele>
        <time>2019-11-13T09:50:46Z</time>
      </trkpt>
      <trkpt lat="43.21948" lon="5.67294">
        <ele>410</ele>
        <time>2019-11-13T09:50:56Z</time>
      </trkpt>
      <trkpt lat="43.21951" lon="5.673">
        <ele>409</ele>
        <time>2019-11-13T09:53:10Z</time>
      </trkpt>
      <trkpt lat="43.21952" lon="5.67306">
        <ele>405</ele>
        <time>2019-11-13T09:53:38Z</time>
      </trkpt>
      <trkpt lat="43.21952" lon="5.67299">
        <ele>407</ele>
        <time>2019-11-13T09:57:58Z</time>
      </trkpt>
      <trkpt lat="43.21948" lon="5.67303">
        <ele>407</ele>
        <time>2019-11-13T09:59:02Z</time>
      </trkpt>
      <trkpt lat="43.21953" lon="5.67303">
        <ele>408</ele>
        <time>2019-11-13T10:00:30Z</time>
      </trkpt>
      <trkpt lat="43.21947" lon="5.67301">
        <ele>408</ele>
        <time>2019-11-13T10:02:52Z</time>
      </trkpt>
      <trkpt lat="43.21946" lon="5.67294">
        <ele>407</ele>
        <time>2019-11-13T10:02:58Z</time>
      </trkpt>
      <trkpt lat="43.21949" lon="5.6729">
        <ele>408</ele>
        <time>2019-11-13T10:03:04Z</time>
      </trkpt>
      <trkpt lat="43.21954" lon="5.67285">
        <ele>408</ele>
        <time>2019-11-13T10:03:12Z</time>
      </trkpt>
      <trkpt lat="43.21959" lon="5.67284">
        <ele>409</ele>
        <time>2019-11-13T10:03:18Z</time>
      </trkpt>
      <trkpt lat="43.21965" lon="5.67285">
        <ele>411</ele>
        <time>2019-11-13T10:03:24Z</time>
      </trkpt>
      <trkpt lat="43.21971" lon="5.67283">
        <ele>413</ele>
        <time>2019-11-13T10:03:32Z</time>
      </trkpt>
      <trkpt lat="43.21976" lon="5.67283">
        <ele>412</ele>
        <time>2019-11-13T10:03:38Z</time>
      </trkpt>
      <trkpt lat="43.21981" lon="5.67283">
        <ele>413</ele>
        <time>2019-11-13T10:03:44Z</time>
      </trkpt>
      <trkpt lat="43.21987" lon="5.67284">
        <ele>413</ele>
        <time>2019-11-13T10:03:50Z</time>
      </trkpt>
      <trkpt lat="43.21993" lon="5.67287">
        <ele>414</ele>
        <time>2019-11-13T10:03:56Z</time>
      </trkpt>
      <trkpt lat="43.21997" lon="5.6729">
        <ele>413</ele>
        <time>2019-11-13T10:04:00Z</time>
      </trkpt>
      <trkpt lat="43.22003" lon="5.67294">
        <ele>413</ele>
        <time>2019-11-13T10:04:06Z</time>
      </trkpt>
      <trkpt lat="43.22009" lon="5.67297">
        <ele>411</ele>
        <time>2019-11-13T10:04:12Z</time>
      </trkpt>
      <trkpt lat="43.22013" lon="5.67301">
        <ele>411</ele>
        <time>2019-11-13T10:04:16Z</time>
      </trkpt>
      <trkpt lat="43.22016" lon="5.67305">
        <ele>412</ele>
        <time>2019-11-13T10:04:20Z</time>
      </trkpt>
      <trkpt lat="43.2202" lon="5.67309">
        <ele>412</ele>
        <time>2019-11-13T10:04:24Z</time>
      </trkpt>
      <trkpt lat="43.22026" lon="5.67314">
        <ele>413</ele>
        <time>2019-11-13T10:04:30Z</time>
      </trkpt>
      <trkpt lat="43.2203" lon="5.67318">
        <ele>412</ele>
        <time>2019-11-13T10:04:34Z</time>
      </trkpt>
      <trkpt lat="43.22035" lon="5.67323">
        <ele>411</ele>
        <time>2019-11-13T10:04:40Z</time>
      </trkpt>
      <trkpt lat="43.22039" lon="5.67329">
        <ele>412</ele>
        <time>2019-11-13T10:04:46Z</time>
      </trkpt>
      <trkpt lat="43.22042" lon="5.67336">
        <ele>412</ele>
        <time>2019-11-13T10:04:50Z</time>
      </trkpt>
      <trkpt lat="43.22044" lon="5.67344">
        <ele>410</ele>
        <time>2019-11-13T10:04:56Z</time>
      </trkpt>
      <trkpt lat="43.22045" lon="5.6735">
        <ele>411</ele>
        <time>2019-11-13T10:05:00Z</time>
      </trkpt>
      <trkpt lat="43.22046" lon="5.67357">
        <ele>411</ele>
        <time>2019-11-13T10:05:04Z</time>
      </trkpt>
      <trkpt lat="43.22047" lon="5.67364">
        <ele>411</ele>
        <time>2019-11-13T10:05:08Z</time>
      </trkpt>
      <trkpt lat="43.2205" lon="5.6737">
        <ele>412</ele>
        <time>2019-11-13T10:05:12Z</time>
      </trkpt>
      <trkpt lat="43.22051" lon="5.67377">
        <ele>412</ele>
        <time>2019-11-13T10:05:16Z</time>
      </trkpt>
      <trkpt lat="43.22053" lon="5.67383">
        <ele>412</ele>
        <time>2019-11-13T10:05:20Z</time>
      </trkpt>
      <trkpt lat="43.22055" lon="5.67389">
        <ele>412</ele>
        <time>2019-11-13T10:05:24Z</time>
      </trkpt>
      <trkpt lat="43.22055" lon="5.67398">
        <ele>411</ele>
        <time>2019-11-13T10:05:30Z</time>
      </trkpt>
      <trkpt lat="43.22057" lon="5.67406">
        <ele>410</ele>
        <time>2019-11-13T10:05:36Z</time>
      </trkpt>
      <trkpt lat="43.22058" lon="5.67415">
        <ele>411</ele>
        <time>2019-11-13T10:05:42Z</time>
      </trkpt>
      <trkpt lat="43.22062" lon="5.67422">
        <ele>411</ele>
        <time>2019-11-13T10:05:48Z</time>
      </trkpt>
      <trkpt lat="43.22067" lon="5.67424">
        <ele>410</ele>
        <time>2019-11-13T10:05:54Z</time>
      </trkpt>
      <trkpt lat="43.22072" lon="5.67421">
        <ele>410</ele>
        <time>2019-11-13T10:05:58Z</time>
      </trkpt>
      <trkpt lat="43.22077" lon="5.67416">
        <ele>411</ele>
        <time>2019-11-13T10:06:04Z</time>
      </trkpt>
      <trkpt lat="43.2208" lon="5.67408">
        <ele>411</ele>
        <time>2019-11-13T10:06:10Z</time>
      </trkpt>
      <trkpt lat="43.22081" lon="5.67402">
        <ele>412</ele>
        <time>2019-11-13T10:06:14Z</time>
      </trkpt>
      <trkpt lat="43.22081" lon="5.67395">
        <ele>415</ele>
        <time>2019-11-13T10:06:18Z</time>
      </trkpt>
      <trkpt lat="43.22084" lon="5.67389">
        <ele>415</ele>
        <time>2019-11-13T10:06:24Z</time>
      </trkpt>
      <trkpt lat="43.22089" lon="5.67384">
        <ele>414</ele>
        <time>2019-11-13T10:06:30Z</time>
      </trkpt>
      <trkpt lat="43.22093" lon="5.67381">
        <ele>415</ele>
        <time>2019-11-13T10:06:36Z</time>
      </trkpt>
      <trkpt lat="43.22098" lon="5.67376">
        <ele>416</ele>
        <time>2019-11-13T10:06:44Z</time>
      </trkpt>
      <trkpt lat="43.221" lon="5.67369">
        <ele>419</ele>
        <time>2019-11-13T10:06:56Z</time>
      </trkpt>
      <trkpt lat="43.22104" lon="5.67365">
        <ele>421</ele>
        <time>2019-11-13T10:07:02Z</time>
      </trkpt>
      <trkpt lat="43.22108" lon="5.6736">
        <ele>421</ele>
        <time>2019-11-13T10:07:08Z</time>
      </trkpt>
      <trkpt lat="43.22113" lon="5.67357">
        <ele>423</ele>
        <time>2019-11-13T10:07:14Z</time>
      </trkpt>
      <trkpt lat="43.22118" lon="5.67355">
        <ele>423</ele>
        <time>2019-11-13T10:07:20Z</time>
      </trkpt>
      <trkpt lat="43.22122" lon="5.67352">
        <ele>426</ele>
        <time>2019-11-13T10:07:24Z</time>
      </trkpt>
      <trkpt lat="43.22126" lon="5.67347">
        <ele>426</ele>
        <time>2019-11-13T10:07:30Z</time>
      </trkpt>
      <trkpt lat="43.2213" lon="5.67342">
        <ele>427</ele>
        <time>2019-11-13T10:07:36Z</time>
      </trkpt>
      <trkpt lat="43.22135" lon="5.6734">
        <ele>426</ele>
        <time>2019-11-13T10:07:42Z</time>
      </trkpt>
      <trkpt lat="43.2214" lon="5.67337">
        <ele>424</ele>
        <time>2019-11-13T10:07:48Z</time>
      </trkpt>
      <trkpt lat="43.22145" lon="5.67333">
        <ele>422</ele>
        <time>2019-11-13T10:07:54Z</time>
      </trkpt>
      <trkpt lat="43.2215" lon="5.67332">
        <ele>422</ele>
        <time>2019-11-13T10:08:00Z</time>
      </trkpt>
      <trkpt lat="43.22154" lon="5.67328">
        <ele>422</ele>
        <time>2019-11-13T10:08:06Z</time>
      </trkpt>
      <trkpt lat="43.22159" lon="5.67325">
        <ele>421</ele>
        <time>2019-11-13T10:08:12Z</time>
      </trkpt>
      <trkpt lat="43.22163" lon="5.67321">
        <ele>422</ele>
        <time>2019-11-13T10:08:18Z</time>
      </trkpt>
      <trkpt lat="43.22168" lon="5.67317">
        <ele>422</ele>
        <time>2019-11-13T10:08:24Z</time>
      </trkpt>
      <trkpt lat="43.22173" lon="5.67311">
        <ele>424</ele>
        <time>2019-11-13T10:08:30Z</time>
      </trkpt>
      <trkpt lat="43.22177" lon="5.67307">
        <ele>427</ele>
        <time>2019-11-13T10:08:34Z</time>
      </trkpt>
      <trkpt lat="43.22181" lon="5.67304">
        <ele>428</ele>
        <time>2019-11-13T10:08:38Z</time>
      </trkpt>
      <trkpt lat="43.22186" lon="5.67301">
        <ele>429</ele>
        <time>2019-11-13T10:08:44Z</time>
      </trkpt>
      <trkpt lat="43.22192" lon="5.67298">
        <ele>427</ele>
        <time>2019-11-13T10:08:50Z</time>
      </trkpt>
      <trkpt lat="43.22197" lon="5.67298">
        <ele>425</ele>
        <time>2019-11-13T10:08:54Z</time>
      </trkpt>
      <trkpt lat="43.22202" lon="5.67296">
        <ele>426</ele>
        <time>2019-11-13T10:09:00Z</time>
      </trkpt>
      <trkpt lat="43.22207" lon="5.67294">
        <ele>425</ele>
        <time>2019-11-13T10:09:06Z</time>
      </trkpt>
      <trkpt lat="43.22212" lon="5.67294">
        <ele>423</ele>
        <time>2019-11-13T10:09:10Z</time>
      </trkpt>
      <trkpt lat="43.22217" lon="5.67293">
        <ele>425</ele>
        <time>2019-11-13T10:09:16Z</time>
      </trkpt>
      <trkpt lat="43.22222" lon="5.67289">
        <ele>425</ele>
        <time>2019-11-13T10:09:22Z</time>
      </trkpt>
      <trkpt lat="43.22228" lon="5.67285">
        <ele>425</ele>
        <time>2019-11-13T10:09:26Z</time>
      </trkpt>
      <trkpt lat="43.22233" lon="5.6728">
        <ele>426</ele>
        <time>2019-11-13T10:09:32Z</time>
      </trkpt>
      <trkpt lat="43.22237" lon="5.67277">
        <ele>427</ele>
        <time>2019-11-13T10:09:36Z</time>
      </trkpt>
      <trkpt lat="43.22242" lon="5.67274">
        <ele>426</ele>
        <time>2019-11-13T10:09:42Z</time>
      </trkpt>
      <trkpt lat="43.22246" lon="5.6727">
        <ele>426</ele>
        <time>2019-11-13T10:09:48Z</time>
      </trkpt>
      <trkpt lat="43.2225" lon="5.67266">
        <ele>425</ele>
        <time>2019-11-13T10:09:54Z</time>
      </trkpt>
      <trkpt lat="43.22256" lon="5.67262">
        <ele>427</ele>
        <time>2019-11-13T10:10:00Z</time>
      </trkpt>
      <trkpt lat="43.2226" lon="5.67257">
        <ele>429</ele>
        <time>2019-11-13T10:10:06Z</time>
      </trkpt>
      <trkpt lat="43.22264" lon="5.67251">
        <ele>430</ele>
        <time>2019-11-13T10:10:12Z</time>
      </trkpt>
      <trkpt lat="43.22269" lon="5.67245">
        <ele>429</ele>
        <time>2019-11-13T10:10:18Z</time>
      </trkpt>
      <trkpt lat="43.22273" lon="5.67239">
        <ele>428</ele>
        <time>2019-11-13T10:10:24Z</time>
      </trkpt>
      <trkpt lat="43.22277" lon="5.67233">
        <ele>430</ele>
        <time>2019-11-13T10:10:30Z</time>
      </trkpt>
      <trkpt lat="43.22283" lon="5.6723">
        <ele>429</ele>
        <time>2019-11-13T10:10:38Z</time>
      </trkpt>
      <trkpt lat="43.22287" lon="5.67225">
        <ele>429</ele>
        <time>2019-11-13T10:10:44Z</time>
      </trkpt>
      <trkpt lat="43.22292" lon="5.67222">
        <ele>428</ele>
        <time>2019-11-13T10:10:50Z</time>
      </trkpt>
      <trkpt lat="43.22297" lon="5.67217">
        <ele>430</ele>
        <time>2019-11-13T10:10:56Z</time>
      </trkpt>
      <trkpt lat="43.22301" lon="5.67214">
        <ele>430</ele>
        <time>2019-11-13T10:11:02Z</time>
      </trkpt>
      <trkpt lat="43.22305" lon="5.67209">
        <ele>434</ele>
        <time>2019-11-13T10:11:10Z</time>
      </trkpt>
      <trkpt lat="43.2231" lon="5.67203">
        <ele>436</ele>
        <time>2019-11-13T10:11:16Z</time>
      </trkpt>
      <trkpt lat="43.22313" lon="5.67198">
        <ele>438</ele>
        <time>2019-11-13T10:11:22Z</time>
      </trkpt>
      <trkpt lat="43.22316" lon="5.67193">
        <ele>437</ele>
        <time>2019-11-13T10:11:28Z</time>
      </trkpt>
      <trkpt lat="43.22321" lon="5.67188">
        <ele>436</ele>
        <time>2019-11-13T10:11:34Z</time>
      </trkpt>
      <trkpt lat="43.22325" lon="5.67183">
        <ele>437</ele>
        <time>2019-11-13T10:11:40Z</time>
      </trkpt>
      <trkpt lat="43.22329" lon="5.67178">
        <ele>436</ele>
        <time>2019-11-13T10:11:48Z</time>
      </trkpt>
      <trkpt lat="43.22334" lon="5.67176">
        <ele>436</ele>
        <time>2019-11-13T10:11:54Z</time>
      </trkpt>
      <trkpt lat="43.2234" lon="5.67173">
        <ele>437</ele>
        <time>2019-11-13T10:12:00Z</time>
      </trkpt>
      <trkpt lat="43.22345" lon="5.67169">
        <ele>438</ele>
        <time>2019-11-13T10:12:06Z</time>
      </trkpt>
      <trkpt lat="43.2235" lon="5.67163">
        <ele>439</ele>
        <time>2019-11-13T10:12:12Z</time>
      </trkpt>
      <trkpt lat="43.22354" lon="5.67161">
        <ele>438</ele>
        <time>2019-11-13T10:12:18Z</time>
      </trkpt>
      <trkpt lat="43.22359" lon="5.67159">
        <ele>440</ele>
        <time>2019-11-13T10:12:24Z</time>
      </trkpt>
      <trkpt lat="43.22364" lon="5.67157">
        <ele>441</ele>
        <time>2019-11-13T10:12:30Z</time>
      </trkpt>
      <trkpt lat="43.22368" lon="5.67155">
        <ele>442</ele>
        <time>2019-11-13T10:12:36Z</time>
      </trkpt>
      <trkpt lat="43.22372" lon="5.67151">
        <ele>442</ele>
        <time>2019-11-13T10:12:42Z</time>
      </trkpt>
      <trkpt lat="43.22377" lon="5.67148">
        <ele>441</ele>
        <time>2019-11-13T10:12:48Z</time>
      </trkpt>
      <trkpt lat="43.22382" lon="5.67145">
        <ele>441</ele>
        <time>2019-11-13T10:12:54Z</time>
      </trkpt>
      <trkpt lat="43.22386" lon="5.67142">
        <ele>441</ele>
        <time>2019-11-13T10:13:00Z</time>
      </trkpt>
      <trkpt lat="43.22391" lon="5.67139">
        <ele>442</ele>
        <time>2019-11-13T10:13:06Z</time>
      </trkpt>
      <trkpt lat="43.22396" lon="5.67137">
        <ele>443</ele>
        <time>2019-11-13T10:13:12Z</time>
      </trkpt>
      <trkpt lat="43.224" lon="5.67131">
        <ele>443</ele>
        <time>2019-11-13T10:13:18Z</time>
      </trkpt>
      <trkpt lat="43.22403" lon="5.67127">
        <ele>442</ele>
        <time>2019-11-13T10:13:24Z</time>
      </trkpt>
      <trkpt lat="43.22408" lon="5.67122">
        <ele>443</ele>
        <time>2019-11-13T10:13:30Z</time>
      </trkpt>
      <trkpt lat="43.22412" lon="5.67116">
        <ele>444</ele>
        <time>2019-11-13T10:13:36Z</time>
      </trkpt>
      <trkpt lat="43.22417" lon="5.67112">
        <ele>445</ele>
        <time>2019-11-13T10:13:42Z</time>
      </trkpt>
      <trkpt lat="43.22421" lon="5.67108">
        <ele>443</ele>
        <time>2019-11-13T10:13:48Z</time>
      </trkpt>
      <trkpt lat="43.22426" lon="5.67104">
        <ele>444</ele>
        <time>2019-11-13T10:13:54Z</time>
      </trkpt>
      <trkpt lat="43.2243" lon="5.67099">
        <ele>446</ele>
        <time>2019-11-13T10:14:00Z</time>
      </trkpt>
      <trkpt lat="43.22433" lon="5.67094">
        <ele>446</ele>
        <time>2019-11-13T10:14:06Z</time>
      </trkpt>
      <trkpt lat="43.22438" lon="5.67089">
        <ele>446</ele>
        <time>2019-11-13T10:14:12Z</time>
      </trkpt>
      <trkpt lat="43.22443" lon="5.67084">
        <ele>447</ele>
        <time>2019-11-13T10:14:18Z</time>
      </trkpt>
      <trkpt lat="43.22447" lon="5.67078">
        <ele>450</ele>
        <time>2019-11-13T10:14:24Z</time>
      </trkpt>
      <trkpt lat="43.22451" lon="5.67071">
        <ele>450</ele>
        <time>2019-11-13T10:14:30Z</time>
      </trkpt>
      <trkpt lat="43.22455" lon="5.67066">
        <ele>448</ele>
        <time>2019-11-13T10:14:36Z</time>
      </trkpt>
      <trkpt lat="43.22459" lon="5.67061">
        <ele>449</ele>
        <time>2019-11-13T10:14:42Z</time>
      </trkpt>
      <trkpt lat="43.22463" lon="5.67056">
        <ele>448</ele>
        <time>2019-11-13T10:14:50Z</time>
      </trkpt>
      <trkpt lat="43.22466" lon="5.6705">
        <ele>448</ele>
        <time>2019-11-13T10:14:56Z</time>
      </trkpt>
      <trkpt lat="43.2247" lon="5.67044">
        <ele>447</ele>
        <time>2019-11-13T10:15:02Z</time>
      </trkpt>
      <trkpt lat="43.22475" lon="5.67039">
        <ele>449</ele>
        <time>2019-11-13T10:15:08Z</time>
      </trkpt>
      <trkpt lat="43.22479" lon="5.67033">
        <ele>452</ele>
        <time>2019-11-13T10:15:12Z</time>
      </trkpt>
      <trkpt lat="43.22484" lon="5.67028">
        <ele>452</ele>
        <time>2019-11-13T10:15:18Z</time>
      </trkpt>
      <trkpt lat="43.22488" lon="5.67023">
        <ele>452</ele>
        <time>2019-11-13T10:15:24Z</time>
      </trkpt>
      <trkpt lat="43.22491" lon="5.67017">
        <ele>453</ele>
        <time>2019-11-13T10:15:30Z</time>
      </trkpt>
      <trkpt lat="43.22495" lon="5.67012">
        <ele>454</ele>
        <time>2019-11-13T10:15:36Z</time>
      </trkpt>
      <trkpt lat="43.225" lon="5.67007">
        <ele>455</ele>
        <time>2019-11-13T10:15:42Z</time>
      </trkpt>
      <trkpt lat="43.22503" lon="5.67002">
        <ele>455</ele>
        <time>2019-11-13T10:15:48Z</time>
      </trkpt>
      <trkpt lat="43.22507" lon="5.66996">
        <ele>455</ele>
        <time>2019-11-13T10:15:54Z</time>
      </trkpt>
      <trkpt lat="43.22511" lon="5.66989">
        <ele>455</ele>
        <time>2019-11-13T10:16:00Z</time>
      </trkpt>
      <trkpt lat="43.22514" lon="5.66982">
        <ele>456</ele>
        <time>2019-11-13T10:16:06Z</time>
      </trkpt>
      <trkpt lat="43.22518" lon="5.66978">
        <ele>458</ele>
        <time>2019-11-13T10:16:12Z</time>
      </trkpt>
      <trkpt lat="43.22522" lon="5.66973">
        <ele>459</ele>
        <time>2019-11-13T10:16:18Z</time>
      </trkpt>
      <trkpt lat="43.22525" lon="5.66965">
        <ele>460</ele>
        <time>2019-11-13T10:16:24Z</time>
      </trkpt>
      <trkpt lat="43.22529" lon="5.6696">
        <ele>460</ele>
        <time>2019-11-13T10:16:30Z</time>
      </trkpt>
      <trkpt lat="43.22532" lon="5.66955">
        <ele>463</ele>
        <time>2019-11-13T10:16:34Z</time>
      </trkpt>
      <trkpt lat="43.22538" lon="5.66951">
        <ele>463</ele>
        <time>2019-11-13T10:16:40Z</time>
      </trkpt>
      <trkpt lat="43.22542" lon="5.66948">
        <ele>462</ele>
        <time>2019-11-13T10:16:46Z</time>
      </trkpt>
      <trkpt lat="43.22548" lon="5.66944">
        <ele>461</ele>
        <time>2019-11-13T10:16:52Z</time>
      </trkpt>
      <trkpt lat="43.22551" lon="5.66939">
        <ele>463</ele>
        <time>2019-11-13T10:16:58Z</time>
      </trkpt>
      <trkpt lat="43.22556" lon="5.66937">
        <ele>461</ele>
        <time>2019-11-13T10:17:02Z</time>
      </trkpt>
      <trkpt lat="43.22561" lon="5.66934">
        <ele>461</ele>
        <time>2019-11-13T10:17:06Z</time>
      </trkpt>
      <trkpt lat="43.22566" lon="5.66931">
        <ele>463</ele>
        <time>2019-11-13T10:17:12Z</time>
      </trkpt>
      <trkpt lat="43.22571" lon="5.66927">
        <ele>464</ele>
        <time>2019-11-13T10:17:18Z</time>
      </trkpt>
      <trkpt lat="43.22576" lon="5.66925">
        <ele>463</ele>
        <time>2019-11-13T10:17:24Z</time>
      </trkpt>
      <trkpt lat="43.22582" lon="5.66923">
        <ele>462</ele>
        <time>2019-11-13T10:17:32Z</time>
      </trkpt>
      <trkpt lat="43.22587" lon="5.66918">
        <ele>461</ele>
        <time>2019-11-13T10:17:38Z</time>
      </trkpt>
      <trkpt lat="43.22593" lon="5.66916">
        <ele>460</ele>
        <time>2019-11-13T10:17:44Z</time>
      </trkpt>
      <trkpt lat="43.22599" lon="5.66912">
        <ele>460</ele>
        <time>2019-11-13T10:17:50Z</time>
      </trkpt>
      <trkpt lat="43.22602" lon="5.66908">
        <ele>462</ele>
        <time>2019-11-13T10:17:54Z</time>
      </trkpt>
      <trkpt lat="43.22607" lon="5.66902">
        <ele>465</ele>
        <time>2019-11-13T10:18:00Z</time>
      </trkpt>
      <trkpt lat="43.22612" lon="5.66897">
        <ele>467</ele>
        <time>2019-11-13T10:18:06Z</time>
      </trkpt>
      <trkpt lat="43.22618" lon="5.66893">
        <ele>468</ele>
        <time>2019-11-13T10:18:12Z</time>
      </trkpt>
      <trkpt lat="43.22622" lon="5.6689">
        <ele>467</ele>
        <time>2019-11-13T10:18:18Z</time>
      </trkpt>
      <trkpt lat="43.22627" lon="5.66887">
        <ele>470</ele>
        <time>2019-11-13T10:18:24Z</time>
      </trkpt>
      <trkpt lat="43.2263" lon="5.66881">
        <ele>469</ele>
        <time>2019-11-13T10:18:30Z</time>
      </trkpt>
      <trkpt lat="43.22634" lon="5.66877">
        <ele>472</ele>
        <time>2019-11-13T10:18:36Z</time>
      </trkpt>
      <trkpt lat="43.22639" lon="5.66874">
        <ele>472</ele>
        <time>2019-11-13T10:18:42Z</time>
      </trkpt>
      <trkpt lat="43.22644" lon="5.66872">
        <ele>470</ele>
        <time>2019-11-13T10:18:50Z</time>
      </trkpt>
      <trkpt lat="43.2265" lon="5.66868">
        <ele>471</ele>
        <time>2019-11-13T10:18:56Z</time>
      </trkpt>
      <trkpt lat="43.22654" lon="5.66862">
        <ele>471</ele>
        <time>2019-11-13T10:19:02Z</time>
      </trkpt>
      <trkpt lat="43.2266" lon="5.66858">
        <ele>474</ele>
        <time>2019-11-13T10:19:08Z</time>
      </trkpt>
      <trkpt lat="43.22665" lon="5.66855">
        <ele>472</ele>
        <time>2019-11-13T10:19:14Z</time>
      </trkpt>
      <trkpt lat="43.22671" lon="5.66853">
        <ele>473</ele>
        <time>2019-11-13T10:19:20Z</time>
      </trkpt>
      <trkpt lat="43.22676" lon="5.66849">
        <ele>474</ele>
        <time>2019-11-13T10:19:26Z</time>
      </trkpt>
      <trkpt lat="43.22681" lon="5.66845">
        <ele>473</ele>
        <time>2019-11-13T10:19:32Z</time>
      </trkpt>
      <trkpt lat="43.22684" lon="5.6684">
        <ele>473</ele>
        <time>2019-11-13T10:19:38Z</time>
      </trkpt>
      <trkpt lat="43.22687" lon="5.66836">
        <ele>472</ele>
        <time>2019-11-13T10:19:42Z</time>
      </trkpt>
      <trkpt lat="43.22691" lon="5.66831">
        <ele>475</ele>
        <time>2019-11-13T10:19:48Z</time>
      </trkpt>
      <trkpt lat="43.22695" lon="5.66829">
        <ele>476</ele>
        <time>2019-11-13T10:19:54Z</time>
      </trkpt>
      <trkpt lat="43.22699" lon="5.66826">
        <ele>476</ele>
        <time>2019-11-13T10:20:00Z</time>
      </trkpt>
      <trkpt lat="43.22704" lon="5.66824">
        <ele>479</ele>
        <time>2019-11-13T10:20:06Z</time>
      </trkpt>
      <trkpt lat="43.22708" lon="5.66819">
        <ele>480</ele>
        <time>2019-11-13T10:20:12Z</time>
      </trkpt>
      <trkpt lat="43.22714" lon="5.66815">
        <ele>479</ele>
        <time>2019-11-13T10:20:18Z</time>
      </trkpt>
      <trkpt lat="43.22718" lon="5.66812">
        <ele>479</ele>
        <time>2019-11-13T10:20:24Z</time>
      </trkpt>
      <trkpt lat="43.22724" lon="5.66809">
        <ele>479</ele>
        <time>2019-11-13T10:20:30Z</time>
      </trkpt>
      <trkpt lat="43.2273" lon="5.66808">
        <ele>478</ele>
        <time>2019-11-13T10:20:36Z</time>
      </trkpt>
      <trkpt lat="43.22734" lon="5.66811">
        <ele>478</ele>
        <time>2019-11-13T10:20:42Z</time>
      </trkpt>
      <trkpt lat="43.22738" lon="5.66816">
        <ele>479</ele>
        <time>2019-11-13T10:20:50Z</time>
      </trkpt>
      <trkpt lat="43.22742" lon="5.66822">
        <ele>478</ele>
        <time>2019-11-13T10:20:54Z</time>
      </trkpt>
      <trkpt lat="43.22744" lon="5.66828">
        <ele>478</ele>
        <time>2019-11-13T10:20:58Z</time>
      </trkpt>
      <trkpt lat="43.22747" lon="5.66835">
        <ele>478</ele>
        <time>2019-11-13T10:21:04Z</time>
      </trkpt>
      <trkpt lat="43.22747" lon="5.66843">
        <ele>477</ele>
        <time>2019-11-13T10:21:10Z</time>
      </trkpt>
      <trkpt lat="43.22746" lon="5.66849">
        <ele>476</ele>
        <time>2019-11-13T10:21:14Z</time>
      </trkpt>
      <trkpt lat="43.22745" lon="5.66858">
        <ele>476</ele>
        <time>2019-11-13T10:21:20Z</time>
      </trkpt>
      <trkpt lat="43.22745" lon="5.66865">
        <ele>477</ele>
        <time>2019-11-13T10:21:26Z</time>
      </trkpt>
      <trkpt lat="43.22746" lon="5.66873">
        <ele>477</ele>
        <time>2019-11-13T10:21:30Z</time>
      </trkpt>
      <trkpt lat="43.22745" lon="5.66879">
        <ele>477</ele>
        <time>2019-11-13T10:21:34Z</time>
      </trkpt>
      <trkpt lat="43.22745" lon="5.66886">
        <ele>477</ele>
        <time>2019-11-13T10:21:38Z</time>
      </trkpt>
      <trkpt lat="43.22745" lon="5.66892">
        <ele>477</ele>
        <time>2019-11-13T10:21:42Z</time>
      </trkpt>
      <trkpt lat="43.22744" lon="5.66902">
        <ele>479</ele>
        <time>2019-11-13T10:21:48Z</time>
      </trkpt>
      <trkpt lat="43.22744" lon="5.66909">
        <ele>478</ele>
        <time>2019-11-13T10:21:52Z</time>
      </trkpt>
      <trkpt lat="43.22743" lon="5.66918">
        <ele>478</ele>
        <time>2019-11-13T10:21:58Z</time>
      </trkpt>
      <trkpt lat="43.22743" lon="5.66924">
        <ele>478</ele>
        <time>2019-11-13T10:22:04Z</time>
      </trkpt>
      <trkpt lat="43.22744" lon="5.6693">
        <ele>477</ele>
        <time>2019-11-13T10:22:56Z</time>
      </trkpt>
      <trkpt lat="43.22746" lon="5.66938">
        <ele>479</ele>
        <time>2019-11-13T10:23:36Z</time>
      </trkpt>
      <trkpt lat="43.22749" lon="5.66943">
        <ele>478</ele>
        <time>2019-11-13T10:23:42Z</time>
      </trkpt>
      <trkpt lat="43.22753" lon="5.66949">
        <ele>478</ele>
        <time>2019-11-13T10:23:48Z</time>
      </trkpt>
      <trkpt lat="43.22756" lon="5.66954">
        <ele>478</ele>
        <time>2019-11-13T10:23:52Z</time>
      </trkpt>
      <trkpt lat="43.22759" lon="5.66959">
        <ele>480</ele>
        <time>2019-11-13T10:23:56Z</time>
      </trkpt>
      <trkpt lat="43.22762" lon="5.66966">
        <ele>480</ele>
        <time>2019-11-13T10:24:02Z</time>
      </trkpt>
      <trkpt lat="43.22767" lon="5.66972">
        <ele>481</ele>
        <time>2019-11-13T10:24:08Z</time>
      </trkpt>
      <trkpt lat="43.22771" lon="5.66977">
        <ele>481</ele>
        <time>2019-11-13T10:24:14Z</time>
      </trkpt>
      <trkpt lat="43.22776" lon="5.66981">
        <ele>482</ele>
        <time>2019-11-13T10:24:20Z</time>
      </trkpt>
      <trkpt lat="43.2278" lon="5.66987">
        <ele>484</ele>
        <time>2019-11-13T10:24:26Z</time>
      </trkpt>
      <trkpt lat="43.22784" lon="5.66993">
        <ele>484</ele>
        <time>2019-11-13T10:24:32Z</time>
      </trkpt>
      <trkpt lat="43.22787" lon="5.66997">
        <ele>484</ele>
        <time>2019-11-13T10:24:36Z</time>
      </trkpt>
      <trkpt lat="43.2279" lon="5.67002">
        <ele>484</ele>
        <time>2019-11-13T10:24:40Z</time>
      </trkpt>
      <trkpt lat="43.22793" lon="5.67007">
        <ele>484</ele>
        <time>2019-11-13T10:24:44Z</time>
      </trkpt>
      <trkpt lat="43.22796" lon="5.67013">
        <ele>483</ele>
        <time>2019-11-13T10:24:50Z</time>
      </trkpt>
      <trkpt lat="43.22799" lon="5.67018">
        <ele>482</ele>
        <time>2019-11-13T10:24:56Z</time>
      </trkpt>
      <trkpt lat="43.22804" lon="5.67022">
        <ele>482</ele>
        <time>2019-11-13T10:25:02Z</time>
      </trkpt>
      <trkpt lat="43.22809" lon="5.67025">
        <ele>482</ele>
        <time>2019-11-13T10:25:08Z</time>
      </trkpt>
      <trkpt lat="43.22813" lon="5.67028">
        <ele>484</ele>
        <time>2019-11-13T10:25:18Z</time>
      </trkpt>
      <trkpt lat="43.22813" lon="5.67034">
        <ele>484</ele>
        <time>2019-11-13T10:28:26Z</time>
      </trkpt>
      <trkpt lat="43.22814" lon="5.67041">
        <ele>483</ele>
        <time>2019-11-13T10:28:32Z</time>
      </trkpt>
      <trkpt lat="43.22813" lon="5.67049">
        <ele>482</ele>
        <time>2019-11-13T10:28:38Z</time>
      </trkpt>
      <trkpt lat="43.22809" lon="5.67056">
        <ele>479</ele>
        <time>2019-11-13T10:28:44Z</time>
      </trkpt>
      <trkpt lat="43.22806" lon="5.67063">
        <ele>478</ele>
        <time>2019-11-13T10:28:50Z</time>
      </trkpt>
      <trkpt lat="43.22802" lon="5.6707">
        <ele>477</ele>
        <time>2019-11-13T10:28:56Z</time>
      </trkpt>
      <trkpt lat="43.22799" lon="5.67078">
        <ele>479</ele>
        <time>2019-11-13T10:29:02Z</time>
      </trkpt>
      <trkpt lat="43.22795" lon="5.67085">
        <ele>478</ele>
        <time>2019-11-13T10:29:08Z</time>
      </trkpt>
      <trkpt lat="43.22792" lon="5.67092">
        <ele>478</ele>
        <time>2019-11-13T10:29:14Z</time>
      </trkpt>
      <trkpt lat="43.22788" lon="5.67098">
        <ele>478</ele>
        <time>2019-11-13T10:29:20Z</time>
      </trkpt>
      <trkpt lat="43.22784" lon="5.67105">
        <ele>477</ele>
        <time>2019-11-13T10:29:26Z</time>
      </trkpt>
      <trkpt lat="43.22781" lon="5.67112">
        <ele>479</ele>
        <time>2019-11-13T10:29:32Z</time>
      </trkpt>
      <trkpt lat="43.22778" lon="5.67117">
        <ele>478</ele>
        <time>2019-11-13T10:29:36Z</time>
      </trkpt>
      <trkpt lat="43.22775" lon="5.67123">
        <ele>478</ele>
        <time>2019-11-13T10:29:42Z</time>
      </trkpt>
      <trkpt lat="43.22771" lon="5.6713">
        <ele>479</ele>
        <time>2019-11-13T10:29:48Z</time>
      </trkpt>
      <trkpt lat="43.22769" lon="5.67138">
        <ele>481</ele>
        <time>2019-11-13T10:29:54Z</time>
      </trkpt>
      <trkpt lat="43.22768" lon="5.67145">
        <ele>481</ele>
        <time>2019-11-13T10:29:58Z</time>
      </trkpt>
      <trkpt lat="43.22767" lon="5.67151">
        <ele>481</ele>
        <time>2019-11-13T10:30:02Z</time>
      </trkpt>
      <trkpt lat="43.22764" lon="5.67159">
        <ele>480</ele>
        <time>2019-11-13T10:30:08Z</time>
      </trkpt>
      <trkpt lat="43.22764" lon="5.67168">
        <ele>481</ele>
        <time>2019-11-13T10:30:14Z</time>
      </trkpt>
      <trkpt lat="43.22763" lon="5.67176">
        <ele>480</ele>
        <time>2019-11-13T10:30:20Z</time>
      </trkpt>
      <trkpt lat="43.22763" lon="5.67184">
        <ele>481</ele>
        <time>2019-11-13T10:30:26Z</time>
      </trkpt>
      <trkpt lat="43.22763" lon="5.67192">
        <ele>481</ele>
        <time>2019-11-13T10:30:32Z</time>
      </trkpt>
      <trkpt lat="43.22765" lon="5.67198">
        <ele>480</ele>
        <time>2019-11-13T10:30:36Z</time>
      </trkpt>
      <trkpt lat="43.22766" lon="5.67206">
        <ele>481</ele>
        <time>2019-11-13T10:30:42Z</time>
      </trkpt>
      <trkpt lat="43.22767" lon="5.67213">
        <ele>481</ele>
        <time>2019-11-13T10:30:48Z</time>
      </trkpt>
      <trkpt lat="43.22768" lon="5.6722">
        <ele>482</ele>
        <time>2019-11-13T10:30:54Z</time>
      </trkpt>
      <trkpt lat="43.22771" lon="5.67227">
        <ele>482</ele>
        <time>2019-11-13T10:31:00Z</time>
      </trkpt>
      <trkpt lat="43.22771" lon="5.67235">
        <ele>482</ele>
        <time>2019-11-13T10:31:06Z</time>
      </trkpt>
      <trkpt lat="43.22773" lon="5.67241">
        <ele>483</ele>
        <time>2019-11-13T10:31:12Z</time>
      </trkpt>
      <trkpt lat="43.22774" lon="5.67247">
        <ele>487</ele>
        <time>2019-11-13T10:31:18Z</time>
      </trkpt>
      <trkpt lat="43.22776" lon="5.67255">
        <ele>486</ele>
        <time>2019-11-13T10:31:24Z</time>
      </trkpt>
      <trkpt lat="43.22779" lon="5.67263">
        <ele>484</ele>
        <time>2019-11-13T10:31:30Z</time>
      </trkpt>
      <trkpt lat="43.2278" lon="5.67272">
        <ele>485</ele>
        <time>2019-11-13T10:31:36Z</time>
      </trkpt>
      <trkpt lat="43.22781" lon="5.6728">
        <ele>486</ele>
        <time>2019-11-13T10:31:42Z</time>
      </trkpt>
      <trkpt lat="43.22781" lon="5.67287">
        <ele>486</ele>
        <time>2019-11-13T10:31:48Z</time>
      </trkpt>
      <trkpt lat="43.22782" lon="5.67295">
        <ele>486</ele>
        <time>2019-11-13T10:31:54Z</time>
      </trkpt>
      <trkpt lat="43.22784" lon="5.67303">
        <ele>486</ele>
        <time>2019-11-13T10:32:00Z</time>
      </trkpt>
      <trkpt lat="43.22787" lon="5.67312">
        <ele>487</ele>
        <time>2019-11-13T10:32:06Z</time>
      </trkpt>
      <trkpt lat="43.22789" lon="5.67319">
        <ele>487</ele>
        <time>2019-11-13T10:32:11Z</time>
      </trkpt>
      <trkpt lat="43.2279" lon="5.67327">
        <ele>487</ele>
        <time>2019-11-13T10:32:17Z</time>
      </trkpt>
      <trkpt lat="43.22791" lon="5.67334">
        <ele>486</ele>
        <time>2019-11-13T10:32:23Z</time>
      </trkpt>
      <trkpt lat="43.22792" lon="5.67342">
        <ele>487</ele>
        <time>2019-11-13T10:32:29Z</time>
      </trkpt>
      <trkpt lat="43.22793" lon="5.67348">
        <ele>487</ele>
        <time>2019-11-13T10:32:33Z</time>
      </trkpt>
      <trkpt lat="43.22794" lon="5.67354">
        <ele>488</ele>
        <time>2019-11-13T10:32:37Z</time>
      </trkpt>
      <trkpt lat="43.22795" lon="5.67363">
        <ele>486</ele>
        <time>2019-11-13T10:32:43Z</time>
      </trkpt>
      <trkpt lat="43.22797" lon="5.67369">
        <ele>484</ele>
        <time>2019-11-13T10:32:49Z</time>
      </trkpt>
      <trkpt lat="43.22799" lon="5.67377">
        <ele>486</ele>
        <time>2019-11-13T10:32:55Z</time>
      </trkpt>
      <trkpt lat="43.22802" lon="5.67385">
        <ele>484</ele>
        <time>2019-11-13T10:33:01Z</time>
      </trkpt>
      <trkpt lat="43.22803" lon="5.67394">
        <ele>483</ele>
        <time>2019-11-13T10:33:07Z</time>
      </trkpt>
      <trkpt lat="43.22806" lon="5.67402">
        <ele>485</ele>
        <time>2019-11-13T10:33:13Z</time>
      </trkpt>
      <trkpt lat="43.22808" lon="5.67408">
        <ele>486</ele>
        <time>2019-11-13T10:33:17Z</time>
      </trkpt>
      <trkpt lat="43.22811" lon="5.67417">
        <ele>486</ele>
        <time>2019-11-13T10:33:23Z</time>
      </trkpt>
      <trkpt lat="43.22814" lon="5.67424">
        <ele>485</ele>
        <time>2019-11-13T10:33:29Z</time>
      </trkpt>
      <trkpt lat="43.22815" lon="5.67431">
        <ele>485</ele>
        <time>2019-11-13T10:33:35Z</time>
      </trkpt>
      <trkpt lat="43.22813" lon="5.67437">
        <ele>485</ele>
        <time>2019-11-13T10:33:59Z</time>
      </trkpt>
      <trkpt lat="43.22811" lon="5.67443">
        <ele>486</ele>
        <time>2019-11-13T10:34:49Z</time>
      </trkpt>
      <trkpt lat="43.22807" lon="5.67447">
        <ele>485</ele>
        <time>2019-11-13T10:34:55Z</time>
      </trkpt>
      <trkpt lat="43.22803" lon="5.67451">
        <ele>485</ele>
        <time>2019-11-13T10:35:01Z</time>
      </trkpt>
      <trkpt lat="43.22799" lon="5.67457">
        <ele>483</ele>
        <time>2019-11-13T10:35:07Z</time>
      </trkpt>
      <trkpt lat="43.22796" lon="5.67463">
        <ele>483</ele>
        <time>2019-11-13T10:35:11Z</time>
      </trkpt>
      <trkpt lat="43.22792" lon="5.6747">
        <ele>483</ele>
        <time>2019-11-13T10:35:17Z</time>
      </trkpt>
      <trkpt lat="43.22787" lon="5.67473">
        <ele>483</ele>
        <time>2019-11-13T10:35:21Z</time>
      </trkpt>
      <trkpt lat="43.22781" lon="5.67477">
        <ele>482</ele>
        <time>2019-11-13T10:35:27Z</time>
      </trkpt>
      <trkpt lat="43.22775" lon="5.67482">
        <ele>483</ele>
        <time>2019-11-13T10:35:33Z</time>
      </trkpt>
      <trkpt lat="43.22771" lon="5.67486">
        <ele>483</ele>
        <time>2019-11-13T10:35:37Z</time>
      </trkpt>
      <trkpt lat="43.22768" lon="5.6749">
        <ele>483</ele>
        <time>2019-11-13T10:35:41Z</time>
      </trkpt>
      <trkpt lat="43.22764" lon="5.67495">
        <ele>483</ele>
        <time>2019-11-13T10:35:45Z</time>
      </trkpt>
      <trkpt lat="43.2276" lon="5.675">
        <ele>482</ele>
        <time>2019-11-13T10:35:49Z</time>
      </trkpt>
      <trkpt lat="43.22756" lon="5.67506">
        <ele>481</ele>
        <time>2019-11-13T10:35:55Z</time>
      </trkpt>
      <trkpt lat="43.22751" lon="5.67512">
        <ele>479</ele>
        <time>2019-11-13T10:36:01Z</time>
      </trkpt>
      <trkpt lat="43.22747" lon="5.67517">
        <ele>480</ele>
        <time>2019-11-13T10:36:05Z</time>
      </trkpt>
      <trkpt lat="43.22744" lon="5.67521">
        <ele>479</ele>
        <time>2019-11-13T10:36:09Z</time>
      </trkpt>
      <trkpt lat="43.22739" lon="5.67527">
        <ele>480</ele>
        <time>2019-11-13T10:36:15Z</time>
      </trkpt>
      <trkpt lat="43.22736" lon="5.67532">
        <ele>481</ele>
        <time>2019-11-13T10:36:19Z</time>
      </trkpt>
      <trkpt lat="43.22733" lon="5.67537">
        <ele>480</ele>
        <time>2019-11-13T10:36:23Z</time>
      </trkpt>
      <trkpt lat="43.2273" lon="5.67543">
        <ele>479</ele>
        <time>2019-11-13T10:36:29Z</time>
      </trkpt>
      <trkpt lat="43.22725" lon="5.67548">
        <ele>480</ele>
        <time>2019-11-13T10:36:35Z</time>
      </trkpt>
      <trkpt lat="43.2272" lon="5.67554">
        <ele>483</ele>
        <time>2019-11-13T10:36:41Z</time>
      </trkpt>
      <trkpt lat="43.22717" lon="5.6756">
        <ele>481</ele>
        <time>2019-11-13T10:36:47Z</time>
      </trkpt>
      <trkpt lat="43.22712" lon="5.67565">
        <ele>479</ele>
        <time>2019-11-13T10:36:53Z</time>
      </trkpt>
      <trkpt lat="43.22708" lon="5.67568">
        <ele>478</ele>
        <time>2019-11-13T10:36:59Z</time>
      </trkpt>
      <trkpt lat="43.22703" lon="5.67573">
        <ele>477</ele>
        <time>2019-11-13T10:37:05Z</time>
      </trkpt>
      <trkpt lat="43.227" lon="5.67577">
        <ele>476</ele>
        <time>2019-11-13T10:37:09Z</time>
      </trkpt>
      <trkpt lat="43.22695" lon="5.67582">
        <ele>478</ele>
        <time>2019-11-13T10:37:15Z</time>
      </trkpt>
      <trkpt lat="43.22691" lon="5.67589">
        <ele>477</ele>
        <time>2019-11-13T10:37:21Z</time>
      </trkpt>
      <trkpt lat="43.22689" lon="5.67595">
        <ele>477</ele>
        <time>2019-11-13T10:37:25Z</time>
      </trkpt>
      <trkpt lat="43.22685" lon="5.676">
        <ele>477</ele>
        <time>2019-11-13T10:37:29Z</time>
      </trkpt>
      <trkpt lat="43.22682" lon="5.67605">
        <ele>477</ele>
        <time>2019-11-13T10:37:33Z</time>
      </trkpt>
      <trkpt lat="43.22678" lon="5.6761">
        <ele>475</ele>
        <time>2019-11-13T10:37:39Z</time>
      </trkpt>
      <trkpt lat="43.22674" lon="5.67613">
        <ele>474</ele>
        <time>2019-11-13T10:37:45Z</time>
      </trkpt>
      <trkpt lat="43.2267" lon="5.67617">
        <ele>474</ele>
        <time>2019-11-13T10:37:51Z</time>
      </trkpt>
      <trkpt lat="43.22666" lon="5.67623">
        <ele>473</ele>
        <time>2019-11-13T10:37:57Z</time>
      </trkpt>
      <trkpt lat="43.22662" lon="5.67628">
        <ele>471</ele>
        <time>2019-11-13T10:38:03Z</time>
      </trkpt>
      <trkpt lat="43.22658" lon="5.67634">
        <ele>472</ele>
        <time>2019-11-13T10:38:09Z</time>
      </trkpt>
      <trkpt lat="43.22656" lon="5.67641">
        <ele>473</ele>
        <time>2019-11-13T10:38:15Z</time>
      </trkpt>
      <trkpt lat="43.22654" lon="5.67646">
        <ele>472</ele>
        <time>2019-11-13T10:38:19Z</time>
      </trkpt>
      <trkpt lat="43.2265" lon="5.67653">
        <ele>468</ele>
        <time>2019-11-13T10:38:25Z</time>
      </trkpt>
      <trkpt lat="43.22647" lon="5.67658">
        <ele>469</ele>
        <time>2019-11-13T10:38:31Z</time>
      </trkpt>
      <trkpt lat="43.22643" lon="5.67663">
        <ele>471</ele>
        <time>2019-11-13T10:38:37Z</time>
      </trkpt>
      <trkpt lat="43.22639" lon="5.67668">
        <ele>470</ele>
        <time>2019-11-13T10:38:43Z</time>
      </trkpt>
      <trkpt lat="43.22636" lon="5.67674">
        <ele>469</ele>
        <time>2019-11-13T10:38:49Z</time>
      </trkpt>
      <trkpt lat="43.22633" lon="5.67679">
        <ele>467</ele>
        <time>2019-11-13T10:38:55Z</time>
      </trkpt>
      <trkpt lat="43.2263" lon="5.67686">
        <ele>466</ele>
        <time>2019-11-13T10:39:01Z</time>
      </trkpt>
      <trkpt lat="43.22627" lon="5.67691">
        <ele>466</ele>
        <time>2019-11-13T10:39:07Z</time>
      </trkpt>
      <trkpt lat="43.22626" lon="5.67698">
        <ele>466</ele>
        <time>2019-11-13T10:39:13Z</time>
      </trkpt>
      <trkpt lat="43.22624" lon="5.67705">
        <ele>467</ele>
        <time>2019-11-13T10:39:19Z</time>
      </trkpt>
      <trkpt lat="43.22622" lon="5.67712">
        <ele>467</ele>
        <time>2019-11-13T10:39:25Z</time>
      </trkpt>
      <trkpt lat="43.22619" lon="5.67718">
        <ele>464</ele>
        <time>2019-11-13T10:39:33Z</time>
      </trkpt>
      <trkpt lat="43.22615" lon="5.67723">
        <ele>464</ele>
        <time>2019-11-13T10:39:45Z</time>
      </trkpt>
      <trkpt lat="43.22611" lon="5.67726">
        <ele>463</ele>
        <time>2019-11-13T10:39:57Z</time>
      </trkpt>
      <trkpt lat="43.22606" lon="5.67728">
        <ele>460</ele>
        <time>2019-11-13T10:40:05Z</time>
      </trkpt>
      <trkpt lat="43.22602" lon="5.67733">
        <ele>460</ele>
        <time>2019-11-13T10:40:11Z</time>
      </trkpt>
      <trkpt lat="43.22598" lon="5.67739">
        <ele>460</ele>
        <time>2019-11-13T10:40:17Z</time>
      </trkpt>
      <trkpt lat="43.22594" lon="5.67745">
        <ele>459</ele>
        <time>2019-11-13T10:40:23Z</time>
      </trkpt>
      <trkpt lat="43.22591" lon="5.67751">
        <ele>458</ele>
        <time>2019-11-13T10:40:29Z</time>
      </trkpt>
      <trkpt lat="43.22588" lon="5.67757">
        <ele>455</ele>
        <time>2019-11-13T10:40:37Z</time>
      </trkpt>
      <trkpt lat="43.22584" lon="5.67762">
        <ele>455</ele>
        <time>2019-11-13T10:40:47Z</time>
      </trkpt>
      <trkpt lat="43.2258" lon="5.67768">
        <ele>457</ele>
        <time>2019-11-13T10:40:55Z</time>
      </trkpt>
      <trkpt lat="43.22577" lon="5.67774">
        <ele>455</ele>
        <time>2019-11-13T10:41:03Z</time>
      </trkpt>
      <trkpt lat="43.22574" lon="5.67781">
        <ele>458</ele>
        <time>2019-11-13T10:41:09Z</time>
      </trkpt>
      <trkpt lat="43.22571" lon="5.67788">
        <ele>454</ele>
        <time>2019-11-13T10:41:17Z</time>
      </trkpt>
      <trkpt lat="43.22568" lon="5.67793">
        <ele>452</ele>
        <time>2019-11-13T10:41:23Z</time>
      </trkpt>
      <trkpt lat="43.22565" lon="5.67798">
        <ele>450</ele>
        <time>2019-11-13T10:41:31Z</time>
      </trkpt>
      <trkpt lat="43.22562" lon="5.67805">
        <ele>449</ele>
        <time>2019-11-13T10:41:37Z</time>
      </trkpt>
      <trkpt lat="43.2256" lon="5.67811">
        <ele>448</ele>
        <time>2019-11-13T10:41:43Z</time>
      </trkpt>
      <trkpt lat="43.22557" lon="5.67817">
        <ele>447</ele>
        <time>2019-11-13T10:41:49Z</time>
      </trkpt>
      <trkpt lat="43.22553" lon="5.67821">
        <ele>446</ele>
        <time>2019-11-13T10:41:57Z</time>
      </trkpt>
      <trkpt lat="43.22549" lon="5.67828">
        <ele>445</ele>
        <time>2019-11-13T10:42:05Z</time>
      </trkpt>
      <trkpt lat="43.22546" lon="5.67832">
        <ele>446</ele>
        <time>2019-11-13T10:42:11Z</time>
      </trkpt>
      <trkpt lat="43.22542" lon="5.67836">
        <ele>446</ele>
        <time>2019-11-13T10:42:17Z</time>
      </trkpt>
      <trkpt lat="43.22538" lon="5.67841">
        <ele>445</ele>
        <time>2019-11-13T10:42:25Z</time>
      </trkpt>
      <trkpt lat="43.22534" lon="5.67847">
        <ele>447</ele>
        <time>2019-11-13T10:42:33Z</time>
      </trkpt>
      <trkpt lat="43.2253" lon="5.6785">
        <ele>446</ele>
        <time>2019-11-13T10:42:39Z</time>
      </trkpt>
      <trkpt lat="43.22526" lon="5.67854">
        <ele>446</ele>
        <time>2019-11-13T10:42:47Z</time>
      </trkpt>
      <trkpt lat="43.22523" lon="5.67859">
        <ele>443</ele>
        <time>2019-11-13T10:42:55Z</time>
      </trkpt>
      <trkpt lat="43.22518" lon="5.67864">
        <ele>443</ele>
        <time>2019-11-13T10:43:03Z</time>
      </trkpt>
      <trkpt lat="43.22514" lon="5.6787">
        <ele>444</ele>
        <time>2019-11-13T10:43:09Z</time>
      </trkpt>
      <trkpt lat="43.22511" lon="5.67875">
        <ele>443</ele>
        <time>2019-11-13T10:43:15Z</time>
      </trkpt>
      <trkpt lat="43.22508" lon="5.67881">
        <ele>441</ele>
        <time>2019-11-13T10:43:23Z</time>
      </trkpt>
      <trkpt lat="43.22505" lon="5.67887">
        <ele>439</ele>
        <time>2019-11-13T10:43:31Z</time>
      </trkpt>
      <trkpt lat="43.22501" lon="5.67891">
        <ele>439</ele>
        <time>2019-11-13T10:43:37Z</time>
      </trkpt>
      <trkpt lat="43.22497" lon="5.67894">
        <ele>437</ele>
        <time>2019-11-13T10:43:43Z</time>
      </trkpt>
      <trkpt lat="43.22492" lon="5.67896">
        <ele>436</ele>
        <time>2019-11-13T10:43:49Z</time>
      </trkpt>
      <trkpt lat="43.22488" lon="5.67899">
        <ele>435</ele>
        <time>2019-11-13T10:43:55Z</time>
      </trkpt>
      <trkpt lat="43.22484" lon="5.67904">
        <ele>433</ele>
        <time>2019-11-13T10:44:03Z</time>
      </trkpt>
      <trkpt lat="43.22481" lon="5.6791">
        <ele>432</ele>
        <time>2019-11-13T10:44:09Z</time>
      </trkpt>
      <trkpt lat="43.22477" lon="5.67914">
        <ele>430</ele>
        <time>2019-11-13T10:44:15Z</time>
      </trkpt>
      <trkpt lat="43.22473" lon="5.67916">
        <ele>432</ele>
        <time>2019-11-13T10:44:21Z</time>
      </trkpt>
      <trkpt lat="43.22468" lon="5.67921">
        <ele>433</ele>
        <time>2019-11-13T10:44:27Z</time>
      </trkpt>
      <trkpt lat="43.22464" lon="5.67925">
        <ele>433</ele>
        <time>2019-11-13T10:44:31Z</time>
      </trkpt>
      <trkpt lat="43.2246" lon="5.6793">
        <ele>433</ele>
        <time>2019-11-13T10:44:37Z</time>
      </trkpt>
      <trkpt lat="43.22455" lon="5.67934">
        <ele>433</ele>
        <time>2019-11-13T10:44:43Z</time>
      </trkpt>
      <trkpt lat="43.22452" lon="5.67938">
        <ele>433</ele>
        <time>2019-11-13T10:44:47Z</time>
      </trkpt>
      <trkpt lat="43.22447" lon="5.67943">
        <ele>433</ele>
        <time>2019-11-13T10:44:53Z</time>
      </trkpt>
      <trkpt lat="43.22443" lon="5.67947">
        <ele>432</ele>
        <time>2019-11-13T10:44:59Z</time>
      </trkpt>
      <trkpt lat="43.22438" lon="5.6795">
        <ele>430</ele>
        <time>2019-11-13T10:45:05Z</time>
      </trkpt>
      <trkpt lat="43.22433" lon="5.67953">
        <ele>429</ele>
        <time>2019-11-13T10:45:11Z</time>
      </trkpt>
      <trkpt lat="43.22428" lon="5.67957">
        <ele>429</ele>
        <time>2019-11-13T10:45:17Z</time>
      </trkpt>
      <trkpt lat="43.22424" lon="5.67962">
        <ele>430</ele>
        <time>2019-11-13T10:45:23Z</time>
      </trkpt>
      <trkpt lat="43.2242" lon="5.67966">
        <ele>430</ele>
        <time>2019-11-13T10:45:29Z</time>
      </trkpt>
      <trkpt lat="43.22416" lon="5.67971">
        <ele>430</ele>
        <time>2019-11-13T10:45:37Z</time>
      </trkpt>
      <trkpt lat="43.22413" lon="5.67975">
        <ele>429</ele>
        <time>2019-11-13T10:45:45Z</time>
      </trkpt>
      <trkpt lat="43.22409" lon="5.67978">
        <ele>428</ele>
        <time>2019-11-13T10:45:51Z</time>
      </trkpt>
      <trkpt lat="43.22405" lon="5.67983">
        <ele>427</ele>
        <time>2019-11-13T10:45:59Z</time>
      </trkpt>
      <trkpt lat="43.22401" lon="5.67986">
        <ele>426</ele>
        <time>2019-11-13T10:46:09Z</time>
      </trkpt>
      <trkpt lat="43.22397" lon="5.67991">
        <ele>426</ele>
        <time>2019-11-13T10:46:17Z</time>
      </trkpt>
      <trkpt lat="43.22392" lon="5.67994">
        <ele>425</ele>
        <time>2019-11-13T10:46:25Z</time>
      </trkpt>
      <trkpt lat="43.22388" lon="5.67998">
        <ele>424</ele>
        <time>2019-11-13T10:46:31Z</time>
      </trkpt>
      <trkpt lat="43.22384" lon="5.68002">
        <ele>423</ele>
        <time>2019-11-13T10:46:37Z</time>
      </trkpt>
      <trkpt lat="43.2238" lon="5.68006">
        <ele>422</ele>
        <time>2019-11-13T10:46:45Z</time>
      </trkpt>
      <trkpt lat="43.22376" lon="5.68009">
        <ele>421</ele>
        <time>2019-11-13T10:46:53Z</time>
      </trkpt>
      <trkpt lat="43.22372" lon="5.68013">
        <ele>420</ele>
        <time>2019-11-13T10:46:59Z</time>
      </trkpt>
      <trkpt lat="43.22369" lon="5.68016">
        <ele>420</ele>
        <time>2019-11-13T10:47:05Z</time>
      </trkpt>
      <trkpt lat="43.22364" lon="5.68021">
        <ele>419</ele>
        <time>2019-11-13T10:47:13Z</time>
      </trkpt>
      <trkpt lat="43.2236" lon="5.68024">
        <ele>418</ele>
        <time>2019-11-13T10:47:21Z</time>
      </trkpt>
      <trkpt lat="43.22355" lon="5.68028">
        <ele>417</ele>
        <time>2019-11-13T10:47:31Z</time>
      </trkpt>
      <trkpt lat="43.22351" lon="5.68031">
        <ele>417</ele>
        <time>2019-11-13T10:47:37Z</time>
      </trkpt>
      <trkpt lat="43.22346" lon="5.68035">
        <ele>417</ele>
        <time>2019-11-13T10:47:43Z</time>
      </trkpt>
      <trkpt lat="43.22342" lon="5.68039">
        <ele>417</ele>
        <time>2019-11-13T10:47:49Z</time>
      </trkpt>
      <trkpt lat="43.22338" lon="5.68043">
        <ele>417</ele>
        <time>2019-11-13T10:47:55Z</time>
      </trkpt>
      <trkpt lat="43.22334" lon="5.68045">
        <ele>416</ele>
        <time>2019-11-13T10:48:01Z</time>
      </trkpt>
      <trkpt lat="43.22329" lon="5.68049">
        <ele>415</ele>
        <time>2019-11-13T10:48:07Z</time>
      </trkpt>
      <trkpt lat="43.22325" lon="5.68053">
        <ele>415</ele>
        <time>2019-11-13T10:48:13Z</time>
      </trkpt>
      <trkpt lat="43.22321" lon="5.68057">
        <ele>415</ele>
        <time>2019-11-13T10:48:19Z</time>
      </trkpt>
      <trkpt lat="43.22317" lon="5.68062">
        <ele>413</ele>
        <time>2019-11-13T10:48:25Z</time>
      </trkpt>
      <trkpt lat="43.22314" lon="5.68067">
        <ele>411</ele>
        <time>2019-11-13T10:48:33Z</time>
      </trkpt>
      <trkpt lat="43.22311" lon="5.68072">
        <ele>410</ele>
        <time>2019-11-13T10:48:39Z</time>
      </trkpt>
      <trkpt lat="43.22306" lon="5.68075">
        <ele>408</ele>
        <time>2019-11-13T10:48:47Z</time>
      </trkpt>
      <trkpt lat="43.22302" lon="5.68078">
        <ele>407</ele>
        <time>2019-11-13T10:48:53Z</time>
      </trkpt>
      <trkpt lat="43.22298" lon="5.68083">
        <ele>407</ele>
        <time>2019-11-13T10:49:01Z</time>
      </trkpt>
      <trkpt lat="43.22294" lon="5.68088">
        <ele>405</ele>
        <time>2019-11-13T10:49:07Z</time>
      </trkpt>
      <trkpt lat="43.22289" lon="5.6809">
        <ele>403</ele>
        <time>2019-11-13T10:49:15Z</time>
      </trkpt>
      <trkpt lat="43.22285" lon="5.68095">
        <ele>403</ele>
        <time>2019-11-13T10:49:23Z</time>
      </trkpt>
      <trkpt lat="43.2228" lon="5.68099">
        <ele>404</ele>
        <time>2019-11-13T10:49:29Z</time>
      </trkpt>
      <trkpt lat="43.22275" lon="5.68104">
        <ele>405</ele>
        <time>2019-11-13T10:49:35Z</time>
      </trkpt>
      <trkpt lat="43.22272" lon="5.68108">
        <ele>401</ele>
        <time>2019-11-13T10:49:41Z</time>
      </trkpt>
      <trkpt lat="43.22266" lon="5.68111">
        <ele>399</ele>
        <time>2019-11-13T10:49:49Z</time>
      </trkpt>
      <trkpt lat="43.22262" lon="5.68115">
        <ele>398</ele>
        <time>2019-11-13T10:49:57Z</time>
      </trkpt>
      <trkpt lat="43.22257" lon="5.68118">
        <ele>397</ele>
        <time>2019-11-13T10:50:11Z</time>
      </trkpt>
      <trkpt lat="43.22253" lon="5.68121">
        <ele>395</ele>
        <time>2019-11-13T10:50:21Z</time>
      </trkpt>
      <trkpt lat="43.22248" lon="5.68124">
        <ele>394</ele>
        <time>2019-11-13T10:50:29Z</time>
      </trkpt>
      <trkpt lat="43.22243" lon="5.68125">
        <ele>392</ele>
        <time>2019-11-13T10:50:37Z</time>
      </trkpt>
      <trkpt lat="43.22239" lon="5.68127">
        <ele>391</ele>
        <time>2019-11-13T10:50:49Z</time>
      </trkpt>
      <trkpt lat="43.22234" lon="5.68129">
        <ele>389</ele>
        <time>2019-11-13T10:50:59Z</time>
      </trkpt>
      <trkpt lat="43.22229" lon="5.68132">
        <ele>387</ele>
        <time>2019-11-13T10:51:15Z</time>
      </trkpt>
      <trkpt lat="43.22224" lon="5.68133">
        <ele>385</ele>
        <time>2019-11-13T10:51:25Z</time>
      </trkpt>
      <trkpt lat="43.2222" lon="5.68134">
        <ele>382</ele>
        <time>2019-11-13T10:51:43Z</time>
      </trkpt>
      <trkpt lat="43.22215" lon="5.68135">
        <ele>380</ele>
        <time>2019-11-13T10:51:55Z</time>
      </trkpt>
      <trkpt lat="43.2221" lon="5.68137">
        <ele>382</ele>
        <time>2019-11-13T10:52:07Z</time>
      </trkpt>
      <trkpt lat="43.22205" lon="5.68137">
        <ele>377</ele>
        <time>2019-11-13T10:52:21Z</time>
      </trkpt>
      <trkpt lat="43.222" lon="5.68138">
        <ele>374</ele>
        <time>2019-11-13T10:52:39Z</time>
      </trkpt>
      <trkpt lat="43.22196" lon="5.68136">
        <ele>373</ele>
        <time>2019-11-13T10:52:55Z</time>
      </trkpt>
      <trkpt lat="43.22191" lon="5.68138">
        <ele>372</ele>
        <time>2019-11-13T10:53:37Z</time>
      </trkpt>
      <trkpt lat="43.22193" lon="5.68144">
        <ele>372</ele>
        <time>2019-11-13T10:53:47Z</time>
      </trkpt>
      <trkpt lat="43.22194" lon="5.68151">
        <ele>372</ele>
        <time>2019-11-13T10:53:55Z</time>
      </trkpt>
      <trkpt lat="43.22198" lon="5.68156">
        <ele>373</ele>
        <time>2019-11-13T10:54:09Z</time>
      </trkpt>
      <trkpt lat="43.22202" lon="5.68161">
        <ele>372</ele>
        <time>2019-11-13T10:54:15Z</time>
      </trkpt>
      <trkpt lat="43.22197" lon="5.68158">
        <ele>372</ele>
        <time>2019-11-13T10:54:31Z</time>
      </trkpt>
      <trkpt lat="43.22192" lon="5.68154">
        <ele>372</ele>
        <time>2019-11-13T10:54:37Z</time>
      </trkpt>
      <trkpt lat="43.22197" lon="5.68159">
        <ele>375</ele>
        <time>2019-11-13T10:55:07Z</time>
      </trkpt>
      <trkpt lat="43.22201" lon="5.68165">
        <ele>373</ele>
        <time>2019-11-13T10:55:15Z</time>
      </trkpt>
      <trkpt lat="43.22203" lon="5.68171">
        <ele>371</ele>
        <time>2019-11-13T10:55:25Z</time>
      </trkpt>
      <trkpt lat="43.22206" lon="5.68177">
        <ele>370</ele>
        <time>2019-11-13T10:55:31Z</time>
      </trkpt>
      <trkpt lat="43.2221" lon="5.68179">
        <ele>370</ele>
        <time>2019-11-13T10:55:39Z</time>
      </trkpt>
      <trkpt lat="43.22215" lon="5.68181">
        <ele>371</ele>
        <time>2019-11-13T10:55:47Z</time>
      </trkpt>
      <trkpt lat="43.22219" lon="5.68184">
        <ele>372</ele>
        <time>2019-11-13T10:55:55Z</time>
      </trkpt>
      <trkpt lat="43.22223" lon="5.68188">
        <ele>370</ele>
        <time>2019-11-13T10:56:03Z</time>
      </trkpt>
      <trkpt lat="43.22225" lon="5.68195">
        <ele>369</ele>
        <time>2019-11-13T10:56:13Z</time>
      </trkpt>
      <trkpt lat="43.22223" lon="5.68202">
        <ele>366</ele>
        <time>2019-11-13T10:56:23Z</time>
      </trkpt>
      <trkpt lat="43.22221" lon="5.68208">
        <ele>365</ele>
        <time>2019-11-13T10:56:33Z</time>
      </trkpt>
      <trkpt lat="43.22221" lon="5.68215">
        <ele>365</ele>
        <time>2019-11-13T10:56:41Z</time>
      </trkpt>
      <trkpt lat="43.22222" lon="5.68222">
        <ele>363</ele>
        <time>2019-11-13T10:56:51Z</time>
      </trkpt>
      <trkpt lat="43.22227" lon="5.68224">
        <ele>363</ele>
        <time>2019-11-13T10:57:01Z</time>
      </trkpt>
      <trkpt lat="43.22233" lon="5.68228">
        <ele>363</ele>
        <time>2019-11-13T10:57:07Z</time>
      </trkpt>
      <trkpt lat="43.22238" lon="5.68234">
        <ele>363</ele>
        <time>2019-11-13T10:57:13Z</time>
      </trkpt>
      <trkpt lat="43.22242" lon="5.68236">
        <ele>364</ele>
        <time>2019-11-13T10:57:25Z</time>
      </trkpt>
      <trkpt lat="43.22248" lon="5.68237">
        <ele>364</ele>
        <time>2019-11-13T10:57:33Z</time>
      </trkpt>
      <trkpt lat="43.22253" lon="5.68236">
        <ele>362</ele>
        <time>2019-11-13T10:57:39Z</time>
      </trkpt>
      <trkpt lat="43.22258" lon="5.68234">
        <ele>365</ele>
        <time>2019-11-13T10:57:57Z</time>
      </trkpt>
      <trkpt lat="43.22262" lon="5.68228">
        <ele>364</ele>
        <time>2019-11-13T10:58:03Z</time>
      </trkpt>
      <trkpt lat="43.22266" lon="5.68223">
        <ele>364</ele>
        <time>2019-11-13T10:58:07Z</time>
      </trkpt>
      <trkpt lat="43.2227" lon="5.68219">
        <ele>365</ele>
        <time>2019-11-13T10:58:13Z</time>
      </trkpt>
      <trkpt lat="43.22266" lon="5.68224">
        <ele>368</ele>
        <time>2019-11-13T10:58:31Z</time>
      </trkpt>
      <trkpt lat="43.22262" lon="5.68228">
        <ele>367</ele>
        <time>2019-11-13T10:58:37Z</time>
      </trkpt>
      <trkpt lat="43.22258" lon="5.68233">
        <ele>366</ele>
        <time>2019-11-13T10:58:43Z</time>
      </trkpt>
      <trkpt lat="43.22252" lon="5.68234">
        <ele>365</ele>
        <time>2019-11-13T10:58:49Z</time>
      </trkpt>
      <trkpt lat="43.22246" lon="5.68235">
        <ele>364</ele>
        <time>2019-11-13T10:58:55Z</time>
      </trkpt>
      <trkpt lat="43.22241" lon="5.68234">
        <ele>363</ele>
        <time>2019-11-13T10:58:59Z</time>
      </trkpt>
      <trkpt lat="43.22245" lon="5.6824">
        <ele>361</ele>
        <time>2019-11-13T10:59:15Z</time>
      </trkpt>
      <trkpt lat="43.22243" lon="5.68233">
        <ele>363</ele>
        <time>2019-11-13T11:00:41Z</time>
      </trkpt>
      <trkpt lat="43.22241" lon="5.68239">
        <ele>361</ele>
        <time>2019-11-13T11:01:39Z</time>
      </trkpt>
      <trkpt lat="43.22238" lon="5.68233">
        <ele>361</ele>
        <time>2019-11-13T11:04:25Z</time>
      </trkpt>
      <trkpt lat="43.22235" lon="5.68227">
        <ele>360</ele>
        <time>2019-11-13T11:04:35Z</time>
      </trkpt>
      <trkpt lat="43.2223" lon="5.68225">
        <ele>361</ele>
        <time>2019-11-13T11:04:41Z</time>
      </trkpt>
      <trkpt lat="43.22225" lon="5.68223">
        <ele>359</ele>
        <time>2019-11-13T11:04:49Z</time>
      </trkpt>
      <trkpt lat="43.2222" lon="5.68223">
        <ele>358</ele>
        <time>2019-11-13T11:04:57Z</time>
      </trkpt>
      <trkpt lat="43.22216" lon="5.68218">
        <ele>352</ele>
        <time>2019-11-13T11:05:09Z</time>
      </trkpt>
      <trkpt lat="43.22211" lon="5.68215">
        <ele>351</ele>
        <time>2019-11-13T11:05:15Z</time>
      </trkpt>
      <trkpt lat="43.22205" lon="5.68212">
        <ele>352</ele>
        <time>2019-11-13T11:05:21Z</time>
      </trkpt>
      <trkpt lat="43.222" lon="5.68208">
        <ele>353</ele>
        <time>2019-11-13T11:05:27Z</time>
      </trkpt>
      <trkpt lat="43.22195" lon="5.68206">
        <ele>357</ele>
        <time>2019-11-13T11:05:33Z</time>
      </trkpt>
      <trkpt lat="43.2219" lon="5.68204">
        <ele>357</ele>
        <time>2019-11-13T11:05:39Z</time>
      </trkpt>
      <trkpt lat="43.22185" lon="5.68201">
        <ele>358</ele>
        <time>2019-11-13T11:05:45Z</time>
      </trkpt>
      <trkpt lat="43.2218" lon="5.68197">
        <ele>351</ele>
        <time>2019-11-13T11:05:53Z</time>
      </trkpt>
      <trkpt lat="43.22175" lon="5.68198">
        <ele>351</ele>
        <time>2019-11-13T11:05:59Z</time>
      </trkpt>
      <trkpt lat="43.2217" lon="5.68196">
        <ele>350</ele>
        <time>2019-11-13T11:06:05Z</time>
      </trkpt>
      <trkpt lat="43.22165" lon="5.68192">
        <ele>348</ele>
        <time>2019-11-13T11:06:13Z</time>
      </trkpt>
      <trkpt lat="43.22161" lon="5.68191">
        <ele>349</ele>
        <time>2019-11-13T11:06:19Z</time>
      </trkpt>
      <trkpt lat="43.22156" lon="5.68189">
        <ele>348</ele>
        <time>2019-11-13T11:06:25Z</time>
      </trkpt>
      <trkpt lat="43.22152" lon="5.68185">
        <ele>347</ele>
        <time>2019-11-13T11:06:31Z</time>
      </trkpt>
      <trkpt lat="43.22147" lon="5.68184">
        <ele>346</ele>
        <time>2019-11-13T11:06:39Z</time>
      </trkpt>
      <trkpt lat="43.22142" lon="5.68182">
        <ele>346</ele>
        <time>2019-11-13T11:06:45Z</time>
      </trkpt>
      <trkpt lat="43.22137" lon="5.68179">
        <ele>346</ele>
        <time>2019-11-13T11:06:53Z</time>
      </trkpt>
      <trkpt lat="43.22133" lon="5.68176">
        <ele>351</ele>
        <time>2019-11-13T11:07:25Z</time>
      </trkpt>
      <trkpt lat="43.22129" lon="5.68175">
        <ele>349</ele>
        <time>2019-11-13T11:07:37Z</time>
      </trkpt>
      <trkpt lat="43.22124" lon="5.68175">
        <ele>347</ele>
        <time>2019-11-13T11:07:47Z</time>
      </trkpt>
      <trkpt lat="43.22119" lon="5.68173">
        <ele>345</ele>
        <time>2019-11-13T11:08:15Z</time>
      </trkpt>
      <trkpt lat="43.22114" lon="5.68171">
        <ele>346</ele>
        <time>2019-11-13T11:08:31Z</time>
      </trkpt>
      <trkpt lat="43.2211" lon="5.68169">
        <ele>343</ele>
        <time>2019-11-13T11:08:53Z</time>
      </trkpt>
      <trkpt lat="43.22106" lon="5.68166">
        <ele>343</ele>
        <time>2019-11-13T11:09:21Z</time>
      </trkpt>
      <trkpt lat="43.22104" lon="5.6816">
        <ele>339</ele>
        <time>2019-11-13T11:10:05Z</time>
      </trkpt>
      <trkpt lat="43.22104" lon="5.68153">
        <ele>337</ele>
        <time>2019-11-13T11:10:11Z</time>
      </trkpt>
      <trkpt lat="43.22106" lon="5.68147">
        <ele>333</ele>
        <time>2019-11-13T11:10:17Z</time>
      </trkpt>
      <trkpt lat="43.22108" lon="5.6814">
        <ele>333</ele>
        <time>2019-11-13T11:10:25Z</time>
      </trkpt>
      <trkpt lat="43.22107" lon="5.68133">
        <ele>333</ele>
        <time>2019-11-13T11:10:33Z</time>
      </trkpt>
      <trkpt lat="43.22109" lon="5.68126">
        <ele>334</ele>
        <time>2019-11-13T11:10:39Z</time>
      </trkpt>
      <trkpt lat="43.22109" lon="5.68119">
        <ele>334</ele>
        <time>2019-11-13T11:10:57Z</time>
      </trkpt>
      <trkpt lat="43.22106" lon="5.68114">
        <ele>332</ele>
        <time>2019-11-13T11:12:41Z</time>
      </trkpt>
      <trkpt lat="43.22101" lon="5.68117">
        <ele>331</ele>
        <time>2019-11-13T11:12:59Z</time>
      </trkpt>
      <trkpt lat="43.221" lon="5.68123">
        <ele>332</ele>
        <time>2019-11-13T11:13:25Z</time>
      </trkpt>
      <trkpt lat="43.22097" lon="5.68129">
        <ele>334</ele>
        <time>2019-11-13T11:13:33Z</time>
      </trkpt>
      <trkpt lat="43.22094" lon="5.68135">
        <ele>331</ele>
        <time>2019-11-13T11:13:45Z</time>
      </trkpt>
      <trkpt lat="43.22092" lon="5.68141">
        <ele>331</ele>
        <time>2019-11-13T11:13:53Z</time>
      </trkpt>
      <trkpt lat="43.2209" lon="5.68147">
        <ele>334</ele>
        <time>2019-11-13T11:13:59Z</time>
      </trkpt>
      <trkpt lat="43.2209" lon="5.68154">
        <ele>332</ele>
        <time>2019-11-13T11:14:13Z</time>
      </trkpt>
      <trkpt lat="43.2209" lon="5.6816">
        <ele>329</ele>
        <time>2019-11-13T11:14:29Z</time>
      </trkpt>
      <trkpt lat="43.22086" lon="5.68166">
        <ele>330</ele>
        <time>2019-11-13T11:15:07Z</time>
      </trkpt>
      <trkpt lat="43.22083" lon="5.68171">
        <ele>333</ele>
        <time>2019-11-13T11:15:25Z</time>
      </trkpt>
      <trkpt lat="43.22083" lon="5.68177">
        <ele>334</ele>
        <time>2019-11-13T11:15:37Z</time>
      </trkpt>
      <trkpt lat="43.22084" lon="5.68184">
        <ele>331</ele>
        <time>2019-11-13T11:15:53Z</time>
      </trkpt>
      <trkpt lat="43.22087" lon="5.68189">
        <ele>330</ele>
        <time>2019-11-13T11:16:01Z</time>
      </trkpt>
      <trkpt lat="43.22092" lon="5.68192">
        <ele>328</ele>
        <time>2019-11-13T11:16:07Z</time>
      </trkpt>
      <trkpt lat="43.22094" lon="5.68199">
        <ele>326</ele>
        <time>2019-11-13T11:16:19Z</time>
      </trkpt>
      <trkpt lat="43.22096" lon="5.68205">
        <ele>325</ele>
        <time>2019-11-13T11:16:37Z</time>
      </trkpt>
      <trkpt lat="43.22098" lon="5.6821">
        <ele>326</ele>
        <time>2019-11-13T11:17:03Z</time>
      </trkpt>
      <trkpt lat="43.22102" lon="5.68215">
        <ele>325</ele>
        <time>2019-11-13T11:17:35Z</time>
      </trkpt>
      <trkpt lat="43.22106" lon="5.68216">
        <ele>324</ele>
        <time>2019-11-13T11:18:05Z</time>
      </trkpt>
      <trkpt lat="43.22106" lon="5.68223">
        <ele>324</ele>
        <time>2019-11-13T11:18:17Z</time>
      </trkpt>
      <trkpt lat="43.2211" lon="5.68228">
        <ele>323</ele>
        <time>2019-11-13T11:18:31Z</time>
      </trkpt>
      <trkpt lat="43.22114" lon="5.68231">
        <ele>319</ele>
        <time>2019-11-13T11:18:41Z</time>
      </trkpt>
      <trkpt lat="43.22118" lon="5.68235">
        <ele>320</ele>
        <time>2019-11-13T11:19:17Z</time>
      </trkpt>
      <trkpt lat="43.22118" lon="5.68241">
        <ele>320</ele>
        <time>2019-11-13T11:19:25Z</time>
      </trkpt>
      <trkpt lat="43.22123" lon="5.68243">
        <ele>322</ele>
        <time>2019-11-13T11:19:47Z</time>
      </trkpt>
      <trkpt lat="43.22126" lon="5.68248">
        <ele>322</ele>
        <time>2019-11-13T11:19:59Z</time>
      </trkpt>
      <trkpt lat="43.22129" lon="5.68252">
        <ele>322</ele>
        <time>2019-11-13T11:20:07Z</time>
      </trkpt>
      <trkpt lat="43.22136" lon="5.68254">
        <ele>319</ele>
        <time>2019-11-13T11:20:43Z</time>
      </trkpt>
      <trkpt lat="43.22141" lon="5.68257">
        <ele>315</ele>
        <time>2019-11-13T11:20:47Z</time>
      </trkpt>
      <trkpt lat="43.22144" lon="5.68261">
        <ele>311</ele>
        <time>2019-11-13T11:20:53Z</time>
      </trkpt>
      <trkpt lat="43.22148" lon="5.68265">
        <ele>316</ele>
        <time>2019-11-13T11:21:03Z</time>
      </trkpt>
      <trkpt lat="43.22152" lon="5.6827">
        <ele>312</ele>
        <time>2019-11-13T11:21:27Z</time>
      </trkpt>
      <trkpt lat="43.22154" lon="5.68276">
        <ele>312</ele>
        <time>2019-11-13T11:21:35Z</time>
      </trkpt>
      <trkpt lat="43.22157" lon="5.68282">
        <ele>314</ele>
        <time>2019-11-13T11:21:41Z</time>
      </trkpt>
      <trkpt lat="43.2216" lon="5.68288">
        <ele>315</ele>
        <time>2019-11-13T11:22:01Z</time>
      </trkpt>
      <trkpt lat="43.22165" lon="5.6829">
        <ele>316</ele>
        <time>2019-11-13T11:22:09Z</time>
      </trkpt>
      <trkpt lat="43.2217" lon="5.68289">
        <ele>317</ele>
        <time>2019-11-13T11:22:19Z</time>
      </trkpt>
      <trkpt lat="43.22173" lon="5.68294">
        <ele>315</ele>
        <time>2019-11-13T11:22:25Z</time>
      </trkpt>
      <trkpt lat="43.22176" lon="5.68301">
        <ele>312</ele>
        <time>2019-11-13T11:22:33Z</time>
      </trkpt>
      <trkpt lat="43.22176" lon="5.6831">
        <ele>313</ele>
        <time>2019-11-13T11:22:39Z</time>
      </trkpt>
      <trkpt lat="43.22177" lon="5.68316">
        <ele>314</ele>
        <time>2019-11-13T11:22:47Z</time>
      </trkpt>
      <trkpt lat="43.22179" lon="5.68322">
        <ele>314</ele>
        <time>2019-11-13T11:22:55Z</time>
      </trkpt>
      <trkpt lat="43.22181" lon="5.68329">
        <ele>312</ele>
        <time>2019-11-13T11:23:19Z</time>
      </trkpt>
      <trkpt lat="43.22184" lon="5.68334">
        <ele>308</ele>
        <time>2019-11-13T11:23:29Z</time>
      </trkpt>
      <trkpt lat="43.22188" lon="5.68337">
        <ele>305</ele>
        <time>2019-11-13T11:23:35Z</time>
      </trkpt>
      <trkpt lat="43.22189" lon="5.68343">
        <ele>302</ele>
        <time>2019-11-13T11:23:43Z</time>
      </trkpt>
      <trkpt lat="43.22187" lon="5.6835">
        <ele>304</ele>
        <time>2019-11-13T11:23:55Z</time>
      </trkpt>
      <trkpt lat="43.22189" lon="5.68357">
        <ele>304</ele>
        <time>2019-11-13T11:24:01Z</time>
      </trkpt>
      <trkpt lat="43.22189" lon="5.68364">
        <ele>305</ele>
        <time>2019-11-13T11:24:09Z</time>
      </trkpt>
      <trkpt lat="43.2219" lon="5.68371">
        <ele>304</ele>
        <time>2019-11-13T11:24:15Z</time>
      </trkpt>
      <trkpt lat="43.22191" lon="5.68378">
        <ele>304</ele>
        <time>2019-11-13T11:24:21Z</time>
      </trkpt>
      <trkpt lat="43.22192" lon="5.68385">
        <ele>302</ele>
        <time>2019-11-13T11:24:29Z</time>
      </trkpt>
      <trkpt lat="43.22193" lon="5.68392">
        <ele>301</ele>
        <time>2019-11-13T11:24:37Z</time>
      </trkpt>
      <trkpt lat="43.22193" lon="5.68399">
        <ele>300</ele>
        <time>2019-11-13T11:24:45Z</time>
      </trkpt>
      <trkpt lat="43.22191" lon="5.68407">
        <ele>302</ele>
        <time>2019-11-13T11:24:57Z</time>
      </trkpt>
      <trkpt lat="43.22188" lon="5.68412">
        <ele>300</ele>
        <time>2019-11-13T11:25:05Z</time>
      </trkpt>
      <trkpt lat="43.22185" lon="5.68417">
        <ele>300</ele>
        <time>2019-11-13T11:25:11Z</time>
      </trkpt>
      <trkpt lat="43.2218" lon="5.68422">
        <ele>302</ele>
        <time>2019-11-13T11:25:17Z</time>
      </trkpt>
      <trkpt lat="43.22177" lon="5.68428">
        <ele>303</ele>
        <time>2019-11-13T11:25:25Z</time>
      </trkpt>
      <trkpt lat="43.22173" lon="5.68432">
        <ele>303</ele>
        <time>2019-11-13T11:25:33Z</time>
      </trkpt>
      <trkpt lat="43.22168" lon="5.68437">
        <ele>299</ele>
        <time>2019-11-13T11:25:41Z</time>
      </trkpt>
      <trkpt lat="43.22162" lon="5.68444">
        <ele>298</ele>
        <time>2019-11-13T11:25:47Z</time>
      </trkpt>
      <trkpt lat="43.22158" lon="5.68448">
        <ele>297</ele>
        <time>2019-11-13T11:25:51Z</time>
      </trkpt>
      <trkpt lat="43.22154" lon="5.68453">
        <ele>297</ele>
        <time>2019-11-13T11:25:57Z</time>
      </trkpt>
      <trkpt lat="43.22148" lon="5.68458">
        <ele>299</ele>
        <time>2019-11-13T11:26:03Z</time>
      </trkpt>
      <trkpt lat="43.22144" lon="5.68462">
        <ele>301</ele>
        <time>2019-11-13T11:26:07Z</time>
      </trkpt>
      <trkpt lat="43.2214" lon="5.68466">
        <ele>301</ele>
        <time>2019-11-13T11:26:11Z</time>
      </trkpt>
      <trkpt lat="43.22137" lon="5.68473">
        <ele>307</ele>
        <time>2019-11-13T11:26:17Z</time>
      </trkpt>
      <trkpt lat="43.22136" lon="5.6848">
        <ele>302</ele>
        <time>2019-11-13T11:26:37Z</time>
      </trkpt>
      <trkpt lat="43.2214" lon="5.68473">
        <ele>307</ele>
        <time>2019-11-13T11:28:17Z</time>
      </trkpt>
      <trkpt lat="43.22143" lon="5.68469">
        <ele>311</ele>
        <time>2019-11-13T11:28:21Z</time>
      </trkpt>
      <trkpt lat="43.22148" lon="5.68463">
        <ele>311</ele>
        <time>2019-11-13T11:28:27Z</time>
      </trkpt>
      <trkpt lat="43.22154" lon="5.68458">
        <ele>313</ele>
        <time>2019-11-13T11:28:33Z</time>
      </trkpt>
      <trkpt lat="43.22159" lon="5.68455">
        <ele>313</ele>
        <time>2019-11-13T11:28:41Z</time>
      </trkpt>
      <trkpt lat="43.22163" lon="5.6845">
        <ele>315</ele>
        <time>2019-11-13T11:28:45Z</time>
      </trkpt>
      <trkpt lat="43.22167" lon="5.68444">
        <ele>313</ele>
        <time>2019-11-13T11:28:51Z</time>
      </trkpt>
      <trkpt lat="43.22171" lon="5.6844">
        <ele>315</ele>
        <time>2019-11-13T11:28:59Z</time>
      </trkpt>
      <trkpt lat="43.22176" lon="5.68434">
        <ele>311</ele>
        <time>2019-11-13T11:29:05Z</time>
      </trkpt>
      <trkpt lat="43.22178" lon="5.68428">
        <ele>311</ele>
        <time>2019-11-13T11:29:13Z</time>
      </trkpt>
      <trkpt lat="43.22174" lon="5.68433">
        <ele>306</ele>
        <time>2019-11-13T11:29:59Z</time>
      </trkpt>
      <trkpt lat="43.2217" lon="5.68437">
        <ele>303</ele>
        <time>2019-11-13T11:30:07Z</time>
      </trkpt>
      <trkpt lat="43.22165" lon="5.68442">
        <ele>300</ele>
        <time>2019-11-13T11:30:17Z</time>
      </trkpt>
      <trkpt lat="43.22162" lon="5.68447">
        <ele>297</ele>
        <time>2019-11-13T11:30:25Z</time>
      </trkpt>
      <trkpt lat="43.22158" lon="5.68451">
        <ele>299</ele>
        <time>2019-11-13T11:30:31Z</time>
      </trkpt>
      <trkpt lat="43.22153" lon="5.68455">
        <ele>300</ele>
        <time>2019-11-13T11:30:39Z</time>
      </trkpt>
      <trkpt lat="43.22148" lon="5.68459">
        <ele>300</ele>
        <time>2019-11-13T11:30:45Z</time>
      </trkpt>
      <trkpt lat="43.22144" lon="5.68464">
        <ele>300</ele>
        <time>2019-11-13T11:30:51Z</time>
      </trkpt>
      <trkpt lat="43.2214" lon="5.68467">
        <ele>301</ele>
        <time>2019-11-13T11:30:55Z</time>
      </trkpt>
      <trkpt lat="43.22137" lon="5.68472">
        <ele>306</ele>
        <time>2019-11-13T11:31:11Z</time>
      </trkpt>
      <trkpt lat="43.2214" lon="5.68466">
        <ele>309</ele>
        <time>2019-11-13T11:32:01Z</time>
      </trkpt>
      <trkpt lat="43.22142" lon="5.68459">
        <ele>310</ele>
        <time>2019-11-13T11:32:17Z</time>
      </trkpt>
      <trkpt lat="43.22144" lon="5.68453">
        <ele>311</ele>
        <time>2019-11-13T11:32:21Z</time>
      </trkpt>
      <trkpt lat="43.22147" lon="5.68447">
        <ele>311</ele>
        <time>2019-11-13T11:32:27Z</time>
      </trkpt>
      <trkpt lat="43.22147" lon="5.6844">
        <ele>310</ele>
        <time>2019-11-13T11:32:33Z</time>
      </trkpt>
      <trkpt lat="43.22147" lon="5.68433">
        <ele>312</ele>
        <time>2019-11-13T11:32:41Z</time>
      </trkpt>
      <trkpt lat="43.22148" lon="5.68427">
        <ele>316</ele>
        <time>2019-11-13T11:32:49Z</time>
      </trkpt>
      <trkpt lat="43.22149" lon="5.6842">
        <ele>315</ele>
        <time>2019-11-13T11:32:57Z</time>
      </trkpt>
      <trkpt lat="43.22151" lon="5.68413">
        <ele>314</ele>
        <time>2019-11-13T11:33:07Z</time>
      </trkpt>
      <trkpt lat="43.22153" lon="5.68407">
        <ele>316</ele>
        <time>2019-11-13T11:33:15Z</time>
      </trkpt>
      <trkpt lat="43.22154" lon="5.684">
        <ele>318</ele>
        <time>2019-11-13T11:33:23Z</time>
      </trkpt>
      <trkpt lat="43.22156" lon="5.68393">
        <ele>321</ele>
        <time>2019-11-13T11:33:31Z</time>
      </trkpt>
      <trkpt lat="43.22158" lon="5.68386">
        <ele>326</ele>
        <time>2019-11-13T11:33:43Z</time>
      </trkpt>
      <trkpt lat="43.22158" lon="5.68379">
        <ele>323</ele>
        <time>2019-11-13T11:33:51Z</time>
      </trkpt>
      <trkpt lat="43.22156" lon="5.68373">
        <ele>328</ele>
        <time>2019-11-13T11:33:57Z</time>
      </trkpt>
      <trkpt lat="43.22152" lon="5.68369">
        <ele>327</ele>
        <time>2019-11-13T11:34:03Z</time>
      </trkpt>
      <trkpt lat="43.22149" lon="5.68364">
        <ele>329</ele>
        <time>2019-11-13T11:34:11Z</time>
      </trkpt>
      <trkpt lat="43.22147" lon="5.68358">
        <ele>331</ele>
        <time>2019-11-13T11:34:19Z</time>
      </trkpt>
      <trkpt lat="43.22143" lon="5.68352">
        <ele>331</ele>
        <time>2019-11-13T11:34:29Z</time>
      </trkpt>
      <trkpt lat="43.2214" lon="5.68347">
        <ele>332</ele>
        <time>2019-11-13T11:34:37Z</time>
      </trkpt>
      <trkpt lat="43.22137" lon="5.6834">
        <ele>336</ele>
        <time>2019-11-13T11:34:45Z</time>
      </trkpt>
      <trkpt lat="43.22134" lon="5.68336">
        <ele>337</ele>
        <time>2019-11-13T11:34:51Z</time>
      </trkpt>
      <trkpt lat="43.22131" lon="5.68331">
        <ele>337</ele>
        <time>2019-11-13T11:34:57Z</time>
      </trkpt>
      <trkpt lat="43.22127" lon="5.68325">
        <ele>337</ele>
        <time>2019-11-13T11:35:05Z</time>
      </trkpt>
      <trkpt lat="43.22123" lon="5.6832">
        <ele>339</ele>
        <time>2019-11-13T11:35:11Z</time>
      </trkpt>
      <trkpt lat="43.22119" lon="5.68315">
        <ele>343</ele>
        <time>2019-11-13T11:35:19Z</time>
      </trkpt>
      <trkpt lat="43.22115" lon="5.6831">
        <ele>343</ele>
        <time>2019-11-13T11:35:27Z</time>
      </trkpt>
      <trkpt lat="43.22111" lon="5.68306">
        <ele>343</ele>
        <time>2019-11-13T11:35:35Z</time>
      </trkpt>
      <trkpt lat="43.22106" lon="5.68303">
        <ele>345</ele>
        <time>2019-11-13T11:35:43Z</time>
      </trkpt>
      <trkpt lat="43.22101" lon="5.683">
        <ele>347</ele>
        <time>2019-11-13T11:35:51Z</time>
      </trkpt>
      <trkpt lat="43.22096" lon="5.68299">
        <ele>349</ele>
        <time>2019-11-13T11:36:01Z</time>
      </trkpt>
      <trkpt lat="43.22091" lon="5.68296">
        <ele>349</ele>
        <time>2019-11-13T11:36:07Z</time>
      </trkpt>
      <trkpt lat="43.22087" lon="5.68292">
        <ele>351</ele>
        <time>2019-11-13T11:36:15Z</time>
      </trkpt>
      <trkpt lat="43.22084" lon="5.68286">
        <ele>354</ele>
        <time>2019-11-13T11:36:21Z</time>
      </trkpt>
      <trkpt lat="43.22079" lon="5.68282">
        <ele>355</ele>
        <time>2019-11-13T11:36:27Z</time>
      </trkpt>
      <trkpt lat="43.22074" lon="5.68278">
        <ele>355</ele>
        <time>2019-11-13T11:36:33Z</time>
      </trkpt>
      <trkpt lat="43.22069" lon="5.68274">
        <ele>354</ele>
        <time>2019-11-13T11:36:41Z</time>
      </trkpt>
      <trkpt lat="43.22065" lon="5.68271">
        <ele>358</ele>
        <time>2019-11-13T11:36:49Z</time>
      </trkpt>
      <trkpt lat="43.22065" lon="5.68278">
        <ele>358</ele>
        <time>2019-11-13T11:36:57Z</time>
      </trkpt>
      <trkpt lat="43.22068" lon="5.68284">
        <ele>360</ele>
        <time>2019-11-13T11:37:03Z</time>
      </trkpt>
      <trkpt lat="43.22071" lon="5.68291">
        <ele>360</ele>
        <time>2019-11-13T11:37:09Z</time>
      </trkpt>
      <trkpt lat="43.22073" lon="5.68297">
        <ele>361</ele>
        <time>2019-11-13T11:37:15Z</time>
      </trkpt>
      <trkpt lat="43.22075" lon="5.68303">
        <ele>362</ele>
        <time>2019-11-13T11:37:21Z</time>
      </trkpt>
      <trkpt lat="43.22077" lon="5.6831">
        <ele>363</ele>
        <time>2019-11-13T11:37:27Z</time>
      </trkpt>
      <trkpt lat="43.22078" lon="5.68317">
        <ele>361</ele>
        <time>2019-11-13T11:37:33Z</time>
      </trkpt>
      <trkpt lat="43.2208" lon="5.68323">
        <ele>360</ele>
        <time>2019-11-13T11:37:39Z</time>
      </trkpt>
      <trkpt lat="43.22082" lon="5.68331">
        <ele>362</ele>
        <time>2019-11-13T11:37:45Z</time>
      </trkpt>
      <trkpt lat="43.22083" lon="5.68338">
        <ele>362</ele>
        <time>2019-11-13T11:37:51Z</time>
      </trkpt>
      <trkpt lat="43.22084" lon="5.68345">
        <ele>364</ele>
        <time>2019-11-13T11:37:57Z</time>
      </trkpt>
      <trkpt lat="43.22086" lon="5.68353">
        <ele>363</ele>
        <time>2019-11-13T11:38:03Z</time>
      </trkpt>
      <trkpt lat="43.22085" lon="5.68362">
        <ele>362</ele>
        <time>2019-11-13T11:38:09Z</time>
      </trkpt>
      <trkpt lat="43.22082" lon="5.68366">
        <ele>361</ele>
        <time>2019-11-13T11:38:17Z</time>
      </trkpt>
      <trkpt lat="43.22079" lon="5.68359">
        <ele>363</ele>
        <time>2019-11-13T11:38:25Z</time>
      </trkpt>
      <trkpt lat="43.22077" lon="5.68353">
        <ele>364</ele>
        <time>2019-11-13T11:38:31Z</time>
      </trkpt>
      <trkpt lat="43.22073" lon="5.68348">
        <ele>364</ele>
        <time>2019-11-13T11:38:39Z</time>
      </trkpt>
      <trkpt lat="43.2207" lon="5.68342">
        <ele>366</ele>
        <time>2019-11-13T11:38:45Z</time>
      </trkpt>
      <trkpt lat="43.22067" lon="5.68337">
        <ele>368</ele>
        <time>2019-11-13T11:38:51Z</time>
      </trkpt>
      <trkpt lat="43.22063" lon="5.68333">
        <ele>369</ele>
        <time>2019-11-13T11:38:57Z</time>
      </trkpt>
      <trkpt lat="43.2206" lon="5.68329">
        <ele>370</ele>
        <time>2019-11-13T11:39:03Z</time>
      </trkpt>
      <trkpt lat="43.22055" lon="5.68324">
        <ele>370</ele>
        <time>2019-11-13T11:39:11Z</time>
      </trkpt>
      <trkpt lat="43.22052" lon="5.68318">
        <ele>371</ele>
        <time>2019-11-13T11:39:19Z</time>
      </trkpt>
      <trkpt lat="43.22048" lon="5.68314">
        <ele>372</ele>
        <time>2019-11-13T11:39:25Z</time>
      </trkpt>
      <trkpt lat="43.22043" lon="5.6831">
        <ele>373</ele>
        <time>2019-11-13T11:39:33Z</time>
      </trkpt>
      <trkpt lat="43.22039" lon="5.68306">
        <ele>374</ele>
        <time>2019-11-13T11:39:39Z</time>
      </trkpt>
      <trkpt lat="43.22034" lon="5.68303">
        <ele>374</ele>
        <time>2019-11-13T11:39:47Z</time>
      </trkpt>
      <trkpt lat="43.2203" lon="5.683">
        <ele>373</ele>
        <time>2019-11-13T11:39:55Z</time>
      </trkpt>
      <trkpt lat="43.22026" lon="5.68296">
        <ele>374</ele>
        <time>2019-11-13T11:40:01Z</time>
      </trkpt>
      <trkpt lat="43.2202" lon="5.68291">
        <ele>370</ele>
        <time>2019-11-13T11:40:07Z</time>
      </trkpt>
      <trkpt lat="43.22015" lon="5.68289">
        <ele>369</ele>
        <time>2019-11-13T11:40:13Z</time>
      </trkpt>
      <trkpt lat="43.22011" lon="5.68284">
        <ele>373</ele>
        <time>2019-11-13T11:40:21Z</time>
      </trkpt>
      <trkpt lat="43.22007" lon="5.6828">
        <ele>375</ele>
        <time>2019-11-13T11:40:27Z</time>
      </trkpt>
      <trkpt lat="43.22003" lon="5.68276">
        <ele>377</ele>
        <time>2019-11-13T11:40:33Z</time>
      </trkpt>
      <trkpt lat="43.21999" lon="5.68271">
        <ele>379</ele>
        <time>2019-11-13T11:40:39Z</time>
      </trkpt>
      <trkpt lat="43.21993" lon="5.6827">
        <ele>380</ele>
        <time>2019-11-13T11:40:47Z</time>
      </trkpt>
      <trkpt lat="43.21988" lon="5.68272">
        <ele>383</ele>
        <time>2019-11-13T11:40:53Z</time>
      </trkpt>
      <trkpt lat="43.21984" lon="5.68273">
        <ele>383</ele>
        <time>2019-11-13T11:40:59Z</time>
      </trkpt>
      <trkpt lat="43.21979" lon="5.68275">
        <ele>384</ele>
        <time>2019-11-13T11:41:05Z</time>
      </trkpt>
      <trkpt lat="43.21974" lon="5.68276">
        <ele>385</ele>
        <time>2019-11-13T11:41:17Z</time>
      </trkpt>
      <trkpt lat="43.21971" lon="5.68272">
        <ele>386</ele>
        <time>2019-11-13T11:41:31Z</time>
      </trkpt>
      <trkpt lat="43.21965" lon="5.68273">
        <ele>386</ele>
        <time>2019-11-13T11:46:33Z</time>
      </trkpt>
      <trkpt lat="43.2196" lon="5.6827">
        <ele>386</ele>
        <time>2019-11-13T11:46:41Z</time>
      </trkpt>
      <trkpt lat="43.21956" lon="5.68267">
        <ele>384</ele>
        <time>2019-11-13T11:46:59Z</time>
      </trkpt>
      <trkpt lat="43.21951" lon="5.68264">
        <ele>384</ele>
        <time>2019-11-13T11:47:39Z</time>
      </trkpt>
      <trkpt lat="43.21946" lon="5.68264">
        <ele>383</ele>
        <time>2019-11-13T11:47:49Z</time>
      </trkpt>
      <trkpt lat="43.21941" lon="5.68263">
        <ele>383</ele>
        <time>2019-11-13T11:47:57Z</time>
      </trkpt>
      <trkpt lat="43.21937" lon="5.68262">
        <ele>385</ele>
        <time>2019-11-13T11:48:27Z</time>
      </trkpt>
      <trkpt lat="43.21932" lon="5.68259">
        <ele>385</ele>
        <time>2019-11-13T11:48:39Z</time>
      </trkpt>
      <trkpt lat="43.21927" lon="5.68257">
        <ele>387</ele>
        <time>2019-11-13T11:49:15Z</time>
      </trkpt>
      <trkpt lat="43.21923" lon="5.68254">
        <ele>386</ele>
        <time>2019-11-13T11:49:41Z</time>
      </trkpt>
      <trkpt lat="43.21919" lon="5.68249">
        <ele>386</ele>
        <time>2019-11-13T11:49:51Z</time>
      </trkpt>
      <trkpt lat="43.21915" lon="5.68245">
        <ele>385</ele>
        <time>2019-11-13T11:49:57Z</time>
      </trkpt>
      <trkpt lat="43.2191" lon="5.68241">
        <ele>384</ele>
        <time>2019-11-13T11:50:03Z</time>
      </trkpt>
      <trkpt lat="43.21906" lon="5.68238">
        <ele>383</ele>
        <time>2019-11-13T11:50:11Z</time>
      </trkpt>
      <trkpt lat="43.21902" lon="5.68233">
        <ele>382</ele>
        <time>2019-11-13T11:50:17Z</time>
      </trkpt>
      <trkpt lat="43.21899" lon="5.6823">
        <ele>383</ele>
        <time>2019-11-13T11:50:23Z</time>
      </trkpt>
      <trkpt lat="43.21894" lon="5.68224">
        <ele>382</ele>
        <time>2019-11-13T11:50:29Z</time>
      </trkpt>
      <trkpt lat="43.21889" lon="5.68218">
        <ele>382</ele>
        <time>2019-11-13T11:50:35Z</time>
      </trkpt>
      <trkpt lat="43.21885" lon="5.68213">
        <ele>383</ele>
        <time>2019-11-13T11:50:41Z</time>
      </trkpt>
      <trkpt lat="43.21884" lon="5.68207">
        <ele>383</ele>
        <time>2019-11-13T11:50:49Z</time>
      </trkpt>
      <trkpt lat="43.21881" lon="5.68201">
        <ele>382</ele>
        <time>2019-11-13T11:50:59Z</time>
      </trkpt>
      <trkpt lat="43.21878" lon="5.68192">
        <ele>381</ele>
        <time>2019-11-13T11:51:07Z</time>
      </trkpt>
      <trkpt lat="43.21877" lon="5.68186">
        <ele>382</ele>
        <time>2019-11-13T11:51:13Z</time>
      </trkpt>
      <trkpt lat="43.21873" lon="5.68184">
        <ele>381</ele>
        <time>2019-11-13T11:51:43Z</time>
      </trkpt>
      <trkpt lat="43.21868" lon="5.68182">
        <ele>381</ele>
        <time>2019-11-13T11:51:57Z</time>
      </trkpt>
      <trkpt lat="43.21865" lon="5.68187">
        <ele>382</ele>
        <time>2019-11-13T11:52:07Z</time>
      </trkpt>
      <trkpt lat="43.2186" lon="5.68186">
        <ele>381</ele>
        <time>2019-11-13T11:52:23Z</time>
      </trkpt>
      <trkpt lat="43.21857" lon="5.68191">
        <ele>377</ele>
        <time>2019-11-13T11:54:59Z</time>
      </trkpt>
      <trkpt lat="43.21859" lon="5.68185">
        <ele>373</ele>
        <time>2019-11-13T11:56:17Z</time>
      </trkpt>
      <trkpt lat="43.21854" lon="5.68187">
        <ele>381</ele>
        <time>2019-11-13T12:17:29Z</time>
      </trkpt>
      <trkpt lat="43.2185" lon="5.68188">
        <ele>380</ele>
        <time>2019-11-13T12:49:07Z</time>
      </trkpt>
      <trkpt lat="43.21845" lon="5.68188">
        <ele>377</ele>
        <time>2019-11-13T12:49:21Z</time>
      </trkpt>
      <trkpt lat="43.21841" lon="5.68191">
        <ele>378</ele>
        <time>2019-11-13T12:49:29Z</time>
      </trkpt>
      <trkpt lat="43.21836" lon="5.68188">
        <ele>376</ele>
        <time>2019-11-13T12:49:37Z</time>
      </trkpt>
      <trkpt lat="43.21831" lon="5.6819">
        <ele>378</ele>
        <time>2019-11-13T12:49:53Z</time>
      </trkpt>
      <trkpt lat="43.21828" lon="5.68195">
        <ele>374</ele>
        <time>2019-11-13T12:50:03Z</time>
      </trkpt>
      <trkpt lat="43.21825" lon="5.68201">
        <ele>376</ele>
        <time>2019-11-13T12:50:29Z</time>
      </trkpt>
      <trkpt lat="43.2182" lon="5.68204">
        <ele>374</ele>
        <time>2019-11-13T12:50:45Z</time>
      </trkpt>
      <trkpt lat="43.21814" lon="5.68203">
        <ele>373</ele>
        <time>2019-11-13T12:50:55Z</time>
      </trkpt>
      <trkpt lat="43.21811" lon="5.68197">
        <ele>372</ele>
        <time>2019-11-13T12:51:25Z</time>
      </trkpt>
      <trkpt lat="43.21808" lon="5.68192">
        <ele>374</ele>
        <time>2019-11-13T12:51:31Z</time>
      </trkpt>
      <trkpt lat="43.21806" lon="5.68185">
        <ele>372</ele>
        <time>2019-11-13T12:51:39Z</time>
      </trkpt>
      <trkpt lat="43.21804" lon="5.68178">
        <ele>371</ele>
        <time>2019-11-13T12:51:51Z</time>
      </trkpt>
      <trkpt lat="43.21802" lon="5.68172">
        <ele>370</ele>
        <time>2019-11-13T12:51:57Z</time>
      </trkpt>
      <trkpt lat="43.218" lon="5.68166">
        <ele>367</ele>
        <time>2019-11-13T12:52:05Z</time>
      </trkpt>
      <trkpt lat="43.218" lon="5.68159">
        <ele>367</ele>
        <time>2019-11-13T12:52:21Z</time>
      </trkpt>
      <trkpt lat="43.21797" lon="5.68153">
        <ele>368</ele>
        <time>2019-11-13T12:52:27Z</time>
      </trkpt>
      <trkpt lat="43.21795" lon="5.68146">
        <ele>363</ele>
        <time>2019-11-13T12:52:35Z</time>
      </trkpt>
      <trkpt lat="43.21792" lon="5.68141">
        <ele>361</ele>
        <time>2019-11-13T12:52:45Z</time>
      </trkpt>
      <trkpt lat="43.21789" lon="5.68135">
        <ele>361</ele>
        <time>2019-11-13T12:52:51Z</time>
      </trkpt>
      <trkpt lat="43.21786" lon="5.68129">
        <ele>362</ele>
        <time>2019-11-13T12:52:57Z</time>
      </trkpt>
      <trkpt lat="43.21782" lon="5.68125">
        <ele>363</ele>
        <time>2019-11-13T12:53:01Z</time>
      </trkpt>
      <trkpt lat="43.21781" lon="5.68119">
        <ele>361</ele>
        <time>2019-11-13T12:53:07Z</time>
      </trkpt>
      <trkpt lat="43.21779" lon="5.68113">
        <ele>363</ele>
        <time>2019-11-13T12:53:11Z</time>
      </trkpt>
      <trkpt lat="43.21778" lon="5.68106">
        <ele>363</ele>
        <time>2019-11-13T12:53:17Z</time>
      </trkpt>
      <trkpt lat="43.21778" lon="5.68098">
        <ele>362</ele>
        <time>2019-11-13T12:53:27Z</time>
      </trkpt>
      <trkpt lat="43.21776" lon="5.6809">
        <ele>361</ele>
        <time>2019-11-13T12:53:35Z</time>
      </trkpt>
      <trkpt lat="43.21775" lon="5.68083">
        <ele>360</ele>
        <time>2019-11-13T12:53:41Z</time>
      </trkpt>
      <trkpt lat="43.21774" lon="5.68074">
        <ele>362</ele>
        <time>2019-11-13T12:53:47Z</time>
      </trkpt>
      <trkpt lat="43.21773" lon="5.68068">
        <ele>364</ele>
        <time>2019-11-13T12:53:51Z</time>
      </trkpt>
      <trkpt lat="43.21771" lon="5.68062">
        <ele>365</ele>
        <time>2019-11-13T12:53:55Z</time>
      </trkpt>
      <trkpt lat="43.2177" lon="5.68055">
        <ele>365</ele>
        <time>2019-11-13T12:54:01Z</time>
      </trkpt>
      <trkpt lat="43.2177" lon="5.68048">
        <ele>364</ele>
        <time>2019-11-13T12:54:07Z</time>
      </trkpt>
      <trkpt lat="43.21771" lon="5.68041">
        <ele>364</ele>
        <time>2019-11-13T12:54:13Z</time>
      </trkpt>
      <trkpt lat="43.2177" lon="5.68034">
        <ele>365</ele>
        <time>2019-11-13T12:54:19Z</time>
      </trkpt>
      <trkpt lat="43.21769" lon="5.68026">
        <ele>368</ele>
        <time>2019-11-13T12:54:25Z</time>
      </trkpt>
      <trkpt lat="43.21768" lon="5.68017">
        <ele>370</ele>
        <time>2019-11-13T12:54:31Z</time>
      </trkpt>
      <trkpt lat="43.2177" lon="5.6801">
        <ele>367</ele>
        <time>2019-11-13T12:54:37Z</time>
      </trkpt>
      <trkpt lat="43.21769" lon="5.68004">
        <ele>368</ele>
        <time>2019-11-13T12:54:43Z</time>
      </trkpt>
      <trkpt lat="43.21769" lon="5.67996">
        <ele>366</ele>
        <time>2019-11-13T12:54:49Z</time>
      </trkpt>
      <trkpt lat="43.21769" lon="5.67989">
        <ele>367</ele>
        <time>2019-11-13T12:54:55Z</time>
      </trkpt>
      <trkpt lat="43.21769" lon="5.67983">
        <ele>367</ele>
        <time>2019-11-13T12:55:01Z</time>
      </trkpt>
      <trkpt lat="43.2177" lon="5.67976">
        <ele>366</ele>
        <time>2019-11-13T12:58:05Z</time>
      </trkpt>
      <trkpt lat="43.21767" lon="5.67969">
        <ele>364</ele>
        <time>2019-11-13T12:58:13Z</time>
      </trkpt>
      <trkpt lat="43.21762" lon="5.67964">
        <ele>365</ele>
        <time>2019-11-13T12:58:19Z</time>
      </trkpt>
      <trkpt lat="43.21757" lon="5.67961">
        <ele>362</ele>
        <time>2019-11-13T12:58:27Z</time>
      </trkpt>
      <trkpt lat="43.21752" lon="5.67961">
        <ele>360</ele>
        <time>2019-11-13T12:58:35Z</time>
      </trkpt>
      <trkpt lat="43.21746" lon="5.6796">
        <ele>359</ele>
        <time>2019-11-13T12:58:43Z</time>
      </trkpt>
      <trkpt lat="43.2174" lon="5.67964">
        <ele>359</ele>
        <time>2019-11-13T12:58:49Z</time>
      </trkpt>
      <trkpt lat="43.21734" lon="5.67968">
        <ele>360</ele>
        <time>2019-11-13T12:58:57Z</time>
      </trkpt>
      <trkpt lat="43.2173" lon="5.6797">
        <ele>359</ele>
        <time>2019-11-13T12:59:03Z</time>
      </trkpt>
      <trkpt lat="43.21725" lon="5.67972">
        <ele>357</ele>
        <time>2019-11-13T12:59:09Z</time>
      </trkpt>
      <trkpt lat="43.2172" lon="5.67976">
        <ele>358</ele>
        <time>2019-11-13T12:59:17Z</time>
      </trkpt>
      <trkpt lat="43.21716" lon="5.6798">
        <ele>358</ele>
        <time>2019-11-13T12:59:23Z</time>
      </trkpt>
      <trkpt lat="43.21712" lon="5.67985">
        <ele>359</ele>
        <time>2019-11-13T12:59:29Z</time>
      </trkpt>
      <trkpt lat="43.21706" lon="5.67988">
        <ele>362</ele>
        <time>2019-11-13T12:59:35Z</time>
      </trkpt>
      <trkpt lat="43.21701" lon="5.67989">
        <ele>366</ele>
        <time>2019-11-13T12:59:41Z</time>
      </trkpt>
      <trkpt lat="43.21696" lon="5.67991">
        <ele>366</ele>
        <time>2019-11-13T12:59:45Z</time>
      </trkpt>
      <trkpt lat="43.21691" lon="5.67994">
        <ele>363</ele>
        <time>2019-11-13T12:59:51Z</time>
      </trkpt>
      <trkpt lat="43.21685" lon="5.67994">
        <ele>361</ele>
        <time>2019-11-13T12:59:57Z</time>
      </trkpt>
      <trkpt lat="43.21681" lon="5.67994">
        <ele>359</ele>
        <time>2019-11-13T13:00:03Z</time>
      </trkpt>
      <trkpt lat="43.21677" lon="5.67997">
        <ele>360</ele>
        <time>2019-11-13T13:00:07Z</time>
      </trkpt>
      <trkpt lat="43.21671" lon="5.67999">
        <ele>355</ele>
        <time>2019-11-13T13:00:15Z</time>
      </trkpt>
      <trkpt lat="43.21666" lon="5.68002">
        <ele>354</ele>
        <time>2019-11-13T13:00:21Z</time>
      </trkpt>
      <trkpt lat="43.21661" lon="5.68003">
        <ele>354</ele>
        <time>2019-11-13T13:00:27Z</time>
      </trkpt>
      <trkpt lat="43.21656" lon="5.68006">
        <ele>355</ele>
        <time>2019-11-13T13:00:33Z</time>
      </trkpt>
      <trkpt lat="43.2165" lon="5.68008">
        <ele>356</ele>
        <time>2019-11-13T13:00:39Z</time>
      </trkpt>
      <trkpt lat="43.21646" lon="5.68011">
        <ele>356</ele>
        <time>2019-11-13T13:00:45Z</time>
      </trkpt>
      <trkpt lat="43.21641" lon="5.68014">
        <ele>355</ele>
        <time>2019-11-13T13:00:51Z</time>
      </trkpt>
      <trkpt lat="43.21636" lon="5.68015">
        <ele>354</ele>
        <time>2019-11-13T13:00:57Z</time>
      </trkpt>
      <trkpt lat="43.21631" lon="5.68017">
        <ele>355</ele>
        <time>2019-11-13T13:01:13Z</time>
      </trkpt>
      <trkpt lat="43.21627" lon="5.68021">
        <ele>356</ele>
        <time>2019-11-13T13:01:49Z</time>
      </trkpt>
      <trkpt lat="43.21624" lon="5.68027">
        <ele>355</ele>
        <time>2019-11-13T13:01:57Z</time>
      </trkpt>
      <trkpt lat="43.21621" lon="5.68034">
        <ele>356</ele>
        <time>2019-11-13T13:02:05Z</time>
      </trkpt>
      <trkpt lat="43.21619" lon="5.6804">
        <ele>354</ele>
        <time>2019-11-13T13:02:13Z</time>
      </trkpt>
      <trkpt lat="43.21616" lon="5.68046">
        <ele>352</ele>
        <time>2019-11-13T13:02:19Z</time>
      </trkpt>
      <trkpt lat="43.21612" lon="5.68051">
        <ele>349</ele>
        <time>2019-11-13T13:02:27Z</time>
      </trkpt>
      <trkpt lat="43.21609" lon="5.68056">
        <ele>350</ele>
        <time>2019-11-13T13:02:33Z</time>
      </trkpt>
      <trkpt lat="43.21604" lon="5.68061">
        <ele>351</ele>
        <time>2019-11-13T13:02:39Z</time>
      </trkpt>
      <trkpt lat="43.216" lon="5.68068">
        <ele>351</ele>
        <time>2019-11-13T13:02:45Z</time>
      </trkpt>
      <trkpt lat="43.21596" lon="5.68074">
        <ele>350</ele>
        <time>2019-11-13T13:02:53Z</time>
      </trkpt>
      <trkpt lat="43.21592" lon="5.68078">
        <ele>349</ele>
        <time>2019-11-13T13:02:59Z</time>
      </trkpt>
      <trkpt lat="43.21587" lon="5.68084">
        <ele>349</ele>
        <time>2019-11-13T13:03:05Z</time>
      </trkpt>
      <trkpt lat="43.21583" lon="5.68089">
        <ele>350</ele>
        <time>2019-11-13T13:03:11Z</time>
      </trkpt>
      <trkpt lat="43.21579" lon="5.68094">
        <ele>350</ele>
        <time>2019-11-13T13:03:19Z</time>
      </trkpt>
      <trkpt lat="43.21577" lon="5.68099">
        <ele>349</ele>
        <time>2019-11-13T13:03:25Z</time>
      </trkpt>
      <trkpt lat="43.21574" lon="5.68104">
        <ele>348</ele>
        <time>2019-11-13T13:03:31Z</time>
      </trkpt>
      <trkpt lat="43.21569" lon="5.6811">
        <ele>349</ele>
        <time>2019-11-13T13:03:37Z</time>
      </trkpt>
      <trkpt lat="43.21566" lon="5.68115">
        <ele>350</ele>
        <time>2019-11-13T13:03:43Z</time>
      </trkpt>
      <trkpt lat="43.21562" lon="5.6812">
        <ele>348</ele>
        <time>2019-11-13T13:03:49Z</time>
      </trkpt>
      <trkpt lat="43.21561" lon="5.68127">
        <ele>344</ele>
        <time>2019-11-13T13:03:57Z</time>
      </trkpt>
      <trkpt lat="43.21565" lon="5.68132">
        <ele>343</ele>
        <time>2019-11-13T13:04:09Z</time>
      </trkpt>
      <trkpt lat="43.21567" lon="5.68138">
        <ele>342</ele>
        <time>2019-11-13T13:04:17Z</time>
      </trkpt>
      <trkpt lat="43.21568" lon="5.68145">
        <ele>342</ele>
        <time>2019-11-13T13:04:23Z</time>
      </trkpt>
      <trkpt lat="43.21568" lon="5.68153">
        <ele>342</ele>
        <time>2019-11-13T13:04:29Z</time>
      </trkpt>
      <trkpt lat="43.21569" lon="5.68162">
        <ele>343</ele>
        <time>2019-11-13T13:04:35Z</time>
      </trkpt>
      <trkpt lat="43.21571" lon="5.68168">
        <ele>341</ele>
        <time>2019-11-13T13:04:43Z</time>
      </trkpt>
      <trkpt lat="43.21569" lon="5.68176">
        <ele>340</ele>
        <time>2019-11-13T13:04:51Z</time>
      </trkpt>
      <trkpt lat="43.21566" lon="5.68183">
        <ele>339</ele>
        <time>2019-11-13T13:04:59Z</time>
      </trkpt>
      <trkpt lat="43.21562" lon="5.68189">
        <ele>339</ele>
        <time>2019-11-13T13:05:07Z</time>
      </trkpt>
      <trkpt lat="43.21559" lon="5.68194">
        <ele>337</ele>
        <time>2019-11-13T13:05:13Z</time>
      </trkpt>
      <trkpt lat="43.21557" lon="5.68202">
        <ele>335</ele>
        <time>2019-11-13T13:05:21Z</time>
      </trkpt>
      <trkpt lat="43.21554" lon="5.68209">
        <ele>337</ele>
        <time>2019-11-13T13:05:27Z</time>
      </trkpt>
      <trkpt lat="43.21549" lon="5.68213">
        <ele>338</ele>
        <time>2019-11-13T13:05:33Z</time>
      </trkpt>
      <trkpt lat="43.21545" lon="5.68218">
        <ele>336</ele>
        <time>2019-11-13T13:05:39Z</time>
      </trkpt>
      <trkpt lat="43.21541" lon="5.68224">
        <ele>333</ele>
        <time>2019-11-13T13:05:47Z</time>
      </trkpt>
      <trkpt lat="43.21537" lon="5.68228">
        <ele>330</ele>
        <time>2019-11-13T13:05:53Z</time>
      </trkpt>
      <trkpt lat="43.21534" lon="5.68234">
        <ele>328</ele>
        <time>2019-11-13T13:06:01Z</time>
      </trkpt>
      <trkpt lat="43.2153" lon="5.68238">
        <ele>330</ele>
        <time>2019-11-13T13:06:05Z</time>
      </trkpt>
      <trkpt lat="43.21526" lon="5.68243">
        <ele>329</ele>
        <time>2019-11-13T13:06:11Z</time>
      </trkpt>
      <trkpt lat="43.21521" lon="5.68245">
        <ele>327</ele>
        <time>2019-11-13T13:06:17Z</time>
      </trkpt>
      <trkpt lat="43.21516" lon="5.6825">
        <ele>329</ele>
        <time>2019-11-13T13:06:23Z</time>
      </trkpt>
      <trkpt lat="43.2151" lon="5.68253">
        <ele>327</ele>
        <time>2019-11-13T13:06:31Z</time>
      </trkpt>
      <trkpt lat="43.21506" lon="5.68257">
        <ele>328</ele>
        <time>2019-11-13T13:06:37Z</time>
      </trkpt>
      <trkpt lat="43.21502" lon="5.68261">
        <ele>325</ele>
        <time>2019-11-13T13:06:43Z</time>
      </trkpt>
      <trkpt lat="43.21497" lon="5.68265">
        <ele>326</ele>
        <time>2019-11-13T13:06:49Z</time>
      </trkpt>
      <trkpt lat="43.21493" lon="5.6827">
        <ele>327</ele>
        <time>2019-11-13T13:06:55Z</time>
      </trkpt>
      <trkpt lat="43.21489" lon="5.68273">
        <ele>324</ele>
        <time>2019-11-13T13:07:01Z</time>
      </trkpt>
      <trkpt lat="43.21484" lon="5.68269">
        <ele>327</ele>
        <time>2019-11-13T13:07:11Z</time>
      </trkpt>
      <trkpt lat="43.21482" lon="5.68277">
        <ele>333</ele>
        <time>2019-11-13T13:07:47Z</time>
      </trkpt>
      <trkpt lat="43.21483" lon="5.68284">
        <ele>330</ele>
        <time>2019-11-13T13:07:57Z</time>
      </trkpt>
      <trkpt lat="43.2148" lon="5.68289">
        <ele>324</ele>
        <time>2019-11-13T13:08:15Z</time>
      </trkpt>
      <trkpt lat="43.21476" lon="5.68294">
        <ele>324</ele>
        <time>2019-11-13T13:08:21Z</time>
      </trkpt>
      <trkpt lat="43.21472" lon="5.68298">
        <ele>326</ele>
        <time>2019-11-13T13:08:27Z</time>
      </trkpt>
      <trkpt lat="43.21469" lon="5.68303">
        <ele>325</ele>
        <time>2019-11-13T13:08:33Z</time>
      </trkpt>
      <trkpt lat="43.21465" lon="5.68307">
        <ele>324</ele>
        <time>2019-11-13T13:08:39Z</time>
      </trkpt>
      <trkpt lat="43.2146" lon="5.68312">
        <ele>321</ele>
        <time>2019-11-13T13:08:45Z</time>
      </trkpt>
      <trkpt lat="43.21456" lon="5.68316">
        <ele>320</ele>
        <time>2019-11-13T13:08:53Z</time>
      </trkpt>
      <trkpt lat="43.21453" lon="5.68321">
        <ele>319</ele>
        <time>2019-11-13T13:08:59Z</time>
      </trkpt>
      <trkpt lat="43.21449" lon="5.68326">
        <ele>319</ele>
        <time>2019-11-13T13:09:05Z</time>
      </trkpt>
      <trkpt lat="43.21446" lon="5.6833">
        <ele>318</ele>
        <time>2019-11-13T13:09:11Z</time>
      </trkpt>
      <trkpt lat="43.21442" lon="5.68335">
        <ele>315</ele>
        <time>2019-11-13T13:09:17Z</time>
      </trkpt>
      <trkpt lat="43.21438" lon="5.6834">
        <ele>315</ele>
        <time>2019-11-13T13:09:23Z</time>
      </trkpt>
      <trkpt lat="43.21433" lon="5.68344">
        <ele>316</ele>
        <time>2019-11-13T13:09:29Z</time>
      </trkpt>
      <trkpt lat="43.21429" lon="5.6835">
        <ele>316</ele>
        <time>2019-11-13T13:09:35Z</time>
      </trkpt>
      <trkpt lat="43.21425" lon="5.68353">
        <ele>315</ele>
        <time>2019-11-13T13:09:41Z</time>
      </trkpt>
      <trkpt lat="43.21422" lon="5.68358">
        <ele>313</ele>
        <time>2019-11-13T13:09:49Z</time>
      </trkpt>
      <trkpt lat="43.21418" lon="5.68364">
        <ele>311</ele>
        <time>2019-11-13T13:09:57Z</time>
      </trkpt>
      <trkpt lat="43.21414" lon="5.6837">
        <ele>312</ele>
        <time>2019-11-13T13:10:03Z</time>
      </trkpt>
      <trkpt lat="43.2141" lon="5.68375">
        <ele>311</ele>
        <time>2019-11-13T13:10:09Z</time>
      </trkpt>
      <trkpt lat="43.21404" lon="5.68382">
        <ele>313</ele>
        <time>2019-11-13T13:10:17Z</time>
      </trkpt>
      <trkpt lat="43.21401" lon="5.68387">
        <ele>310</ele>
        <time>2019-11-13T13:10:23Z</time>
      </trkpt>
      <trkpt lat="43.21397" lon="5.68391">
        <ele>310</ele>
        <time>2019-11-13T13:10:29Z</time>
      </trkpt>
      <trkpt lat="43.21392" lon="5.68395">
        <ele>310</ele>
        <time>2019-11-13T13:10:35Z</time>
      </trkpt>
      <trkpt lat="43.21388" lon="5.684">
        <ele>308</ele>
        <time>2019-11-13T13:10:41Z</time>
      </trkpt>
      <trkpt lat="43.21385" lon="5.68403">
        <ele>306</ele>
        <time>2019-11-13T13:10:47Z</time>
      </trkpt>
      <trkpt lat="43.21381" lon="5.68408">
        <ele>305</ele>
        <time>2019-11-13T13:10:53Z</time>
      </trkpt>
      <trkpt lat="43.21378" lon="5.68413">
        <ele>305</ele>
        <time>2019-11-13T13:10:57Z</time>
      </trkpt>
      <trkpt lat="43.21374" lon="5.68418">
        <ele>303</ele>
        <time>2019-11-13T13:11:03Z</time>
      </trkpt>
      <trkpt lat="43.2137" lon="5.68422">
        <ele>302</ele>
        <time>2019-11-13T13:11:09Z</time>
      </trkpt>
      <trkpt lat="43.21367" lon="5.68427">
        <ele>302</ele>
        <time>2019-11-13T13:11:15Z</time>
      </trkpt>
      <trkpt lat="43.21363" lon="5.68432">
        <ele>301</ele>
        <time>2019-11-13T13:11:21Z</time>
      </trkpt>
      <trkpt lat="43.2136" lon="5.68437">
        <ele>296</ele>
        <time>2019-11-13T13:11:29Z</time>
      </trkpt>
      <trkpt lat="43.21356" lon="5.68442">
        <ele>299</ele>
        <time>2019-11-13T13:11:35Z</time>
      </trkpt>
      <trkpt lat="43.21353" lon="5.68447">
        <ele>300</ele>
        <time>2019-11-13T13:11:39Z</time>
      </trkpt>
      <trkpt lat="43.21349" lon="5.68454">
        <ele>303</ele>
        <time>2019-11-13T13:11:43Z</time>
      </trkpt>
      <trkpt lat="43.21347" lon="5.6846">
        <ele>300</ele>
        <time>2019-11-13T13:11:49Z</time>
      </trkpt>
      <trkpt lat="43.21343" lon="5.68465">
        <ele>300</ele>
        <time>2019-11-13T13:11:55Z</time>
      </trkpt>
      <trkpt lat="43.21339" lon="5.68468">
        <ele>297</ele>
        <time>2019-11-13T13:12:01Z</time>
      </trkpt>
      <trkpt lat="43.21335" lon="5.68473">
        <ele>296</ele>
        <time>2019-11-13T13:12:15Z</time>
      </trkpt>
      <trkpt lat="43.21332" lon="5.68477">
        <ele>298</ele>
        <time>2019-11-13T13:12:35Z</time>
      </trkpt>
      <trkpt lat="43.2133" lon="5.68483">
        <ele>294</ele>
        <time>2019-11-13T13:12:43Z</time>
      </trkpt>
      <trkpt lat="43.21326" lon="5.6849">
        <ele>291</ele>
        <time>2019-11-13T13:12:51Z</time>
      </trkpt>
      <trkpt lat="43.21322" lon="5.68497">
        <ele>294</ele>
        <time>2019-11-13T13:12:57Z</time>
      </trkpt>
      <trkpt lat="43.21319" lon="5.68501">
        <ele>292</ele>
        <time>2019-11-13T13:13:03Z</time>
      </trkpt>
      <trkpt lat="43.21315" lon="5.68507">
        <ele>290</ele>
        <time>2019-11-13T13:13:09Z</time>
      </trkpt>
      <trkpt lat="43.21312" lon="5.68512">
        <ele>286</ele>
        <time>2019-11-13T13:13:17Z</time>
      </trkpt>
      <trkpt lat="43.21308" lon="5.68519">
        <ele>287</ele>
        <time>2019-11-13T13:13:23Z</time>
      </trkpt>
      <trkpt lat="43.21304" lon="5.68524">
        <ele>286</ele>
        <time>2019-11-13T13:13:29Z</time>
      </trkpt>
      <trkpt lat="43.213" lon="5.68531">
        <ele>285</ele>
        <time>2019-11-13T13:13:35Z</time>
      </trkpt>
      <trkpt lat="43.21297" lon="5.68537">
        <ele>286</ele>
        <time>2019-11-13T13:13:41Z</time>
      </trkpt>
      <trkpt lat="43.21293" lon="5.68543">
        <ele>286</ele>
        <time>2019-11-13T13:13:47Z</time>
      </trkpt>
      <trkpt lat="43.21288" lon="5.68549">
        <ele>285</ele>
        <time>2019-11-13T13:13:53Z</time>
      </trkpt>
      <trkpt lat="43.21285" lon="5.68556">
        <ele>284</ele>
        <time>2019-11-13T13:13:59Z</time>
      </trkpt>
      <trkpt lat="43.21282" lon="5.68562">
        <ele>282</ele>
        <time>2019-11-13T13:14:05Z</time>
      </trkpt>
      <trkpt lat="43.21277" lon="5.68568">
        <ele>281</ele>
        <time>2019-11-13T13:14:11Z</time>
      </trkpt>
      <trkpt lat="43.21273" lon="5.68572">
        <ele>282</ele>
        <time>2019-11-13T13:14:15Z</time>
      </trkpt>
      <trkpt lat="43.2127" lon="5.68577">
        <ele>283</ele>
        <time>2019-11-13T13:14:19Z</time>
      </trkpt>
      <trkpt lat="43.21266" lon="5.68581">
        <ele>283</ele>
        <time>2019-11-13T13:14:23Z</time>
      </trkpt>
      <trkpt lat="43.21263" lon="5.68586">
        <ele>284</ele>
        <time>2019-11-13T13:14:27Z</time>
      </trkpt>
      <trkpt lat="43.2126" lon="5.68591">
        <ele>285</ele>
        <time>2019-11-13T13:14:31Z</time>
      </trkpt>
      <trkpt lat="43.21257" lon="5.68596">
        <ele>284</ele>
        <time>2019-11-13T13:14:37Z</time>
      </trkpt>
      <trkpt lat="43.21254" lon="5.68601">
        <ele>280</ele>
        <time>2019-11-13T13:14:43Z</time>
      </trkpt>
      <trkpt lat="43.2125" lon="5.68607">
        <ele>280</ele>
        <time>2019-11-13T13:14:49Z</time>
      </trkpt>
      <trkpt lat="43.21246" lon="5.68613">
        <ele>278</ele>
        <time>2019-11-13T13:14:55Z</time>
      </trkpt>
      <trkpt lat="43.21242" lon="5.68619">
        <ele>277</ele>
        <time>2019-11-13T13:15:01Z</time>
      </trkpt>
      <trkpt lat="43.21239" lon="5.68625">
        <ele>276</ele>
        <time>2019-11-13T13:15:07Z</time>
      </trkpt>
      <trkpt lat="43.21235" lon="5.68632">
        <ele>276</ele>
        <time>2019-11-13T13:15:13Z</time>
      </trkpt>
      <trkpt lat="43.21231" lon="5.68639">
        <ele>277</ele>
        <time>2019-11-13T13:15:19Z</time>
      </trkpt>
      <trkpt lat="43.21228" lon="5.68643">
        <ele>277</ele>
        <time>2019-11-13T13:15:23Z</time>
      </trkpt>
      <trkpt lat="43.21223" lon="5.68649">
        <ele>277</ele>
        <time>2019-11-13T13:15:29Z</time>
      </trkpt>
      <trkpt lat="43.21218" lon="5.68655">
        <ele>275</ele>
        <time>2019-11-13T13:15:35Z</time>
      </trkpt>
      <trkpt lat="43.21215" lon="5.68661">
        <ele>274</ele>
        <time>2019-11-13T13:15:41Z</time>
      </trkpt>
      <trkpt lat="43.21213" lon="5.68667">
        <ele>272</ele>
        <time>2019-11-13T13:15:47Z</time>
      </trkpt>
      <trkpt lat="43.21209" lon="5.6867">
        <ele>271</ele>
        <time>2019-11-13T13:15:53Z</time>
      </trkpt>
      <trkpt lat="43.21206" lon="5.68675">
        <ele>270</ele>
        <time>2019-11-13T13:15:59Z</time>
      </trkpt>
      <trkpt lat="43.21204" lon="5.68684">
        <ele>270</ele>
        <time>2019-11-13T13:16:07Z</time>
      </trkpt>
      <trkpt lat="43.21201" lon="5.68689">
        <ele>270</ele>
        <time>2019-11-13T13:16:11Z</time>
      </trkpt>
      <trkpt lat="43.21198" lon="5.68694">
        <ele>270</ele>
        <time>2019-11-13T13:16:15Z</time>
      </trkpt>
      <trkpt lat="43.21195" lon="5.68699">
        <ele>270</ele>
        <time>2019-11-13T13:16:19Z</time>
      </trkpt>
      <trkpt lat="43.21192" lon="5.68705">
        <ele>269</ele>
        <time>2019-11-13T13:16:23Z</time>
      </trkpt>
      <trkpt lat="43.21189" lon="5.6871">
        <ele>268</ele>
        <time>2019-11-13T13:16:29Z</time>
      </trkpt>
      <trkpt lat="43.21185" lon="5.68716">
        <ele>269</ele>
        <time>2019-11-13T13:16:35Z</time>
      </trkpt>
      <trkpt lat="43.21182" lon="5.68722">
        <ele>268</ele>
        <time>2019-11-13T13:16:41Z</time>
      </trkpt>
      <trkpt lat="43.21179" lon="5.68727">
        <ele>263</ele>
        <time>2019-11-13T13:16:47Z</time>
      </trkpt>
      <trkpt lat="43.21177" lon="5.68734">
        <ele>261</ele>
        <time>2019-11-13T13:16:53Z</time>
      </trkpt>
      <trkpt lat="43.21174" lon="5.6874">
        <ele>259</ele>
        <time>2019-11-13T13:16:59Z</time>
      </trkpt>
      <trkpt lat="43.2117" lon="5.68745">
        <ele>258</ele>
        <time>2019-11-13T13:17:05Z</time>
      </trkpt>
      <trkpt lat="43.21166" lon="5.68752">
        <ele>259</ele>
        <time>2019-11-13T13:17:11Z</time>
      </trkpt>
      <trkpt lat="43.21161" lon="5.68757">
        <ele>258</ele>
        <time>2019-11-13T13:17:17Z</time>
      </trkpt>
      <trkpt lat="43.21157" lon="5.68763">
        <ele>257</ele>
        <time>2019-11-13T13:17:23Z</time>
      </trkpt>
      <trkpt lat="43.21153" lon="5.68768">
        <ele>256</ele>
        <time>2019-11-13T13:17:29Z</time>
      </trkpt>
      <trkpt lat="43.21149" lon="5.68775">
        <ele>257</ele>
        <time>2019-11-13T13:17:35Z</time>
      </trkpt>
      <trkpt lat="43.21146" lon="5.68781">
        <ele>255</ele>
        <time>2019-11-13T13:17:41Z</time>
      </trkpt>
      <trkpt lat="43.21142" lon="5.68785">
        <ele>254</ele>
        <time>2019-11-13T13:17:47Z</time>
      </trkpt>
      <trkpt lat="43.21138" lon="5.6879">
        <ele>253</ele>
        <time>2019-11-13T13:17:53Z</time>
      </trkpt>
      <trkpt lat="43.21133" lon="5.68795">
        <ele>251</ele>
        <time>2019-11-13T13:17:59Z</time>
      </trkpt>
      <trkpt lat="43.21129" lon="5.68799">
        <ele>252</ele>
        <time>2019-11-13T13:18:03Z</time>
      </trkpt>
      <trkpt lat="43.21126" lon="5.68805">
        <ele>251</ele>
        <time>2019-11-13T13:18:09Z</time>
      </trkpt>
      <trkpt lat="43.21123" lon="5.68811">
        <ele>248</ele>
        <time>2019-11-13T13:18:17Z</time>
      </trkpt>
      <trkpt lat="43.2112" lon="5.68817">
        <ele>250</ele>
        <time>2019-11-13T13:18:21Z</time>
      </trkpt>
      <trkpt lat="43.21117" lon="5.68822">
        <ele>250</ele>
        <time>2019-11-13T13:18:25Z</time>
      </trkpt>
      <trkpt lat="43.21113" lon="5.68828">
        <ele>248</ele>
        <time>2019-11-13T13:18:31Z</time>
      </trkpt>
      <trkpt lat="43.21109" lon="5.68835">
        <ele>248</ele>
        <time>2019-11-13T13:18:37Z</time>
      </trkpt>
      <trkpt lat="43.21105" lon="5.68841">
        <ele>246</ele>
        <time>2019-11-13T13:18:43Z</time>
      </trkpt>
      <trkpt lat="43.21101" lon="5.68846">
        <ele>246</ele>
        <time>2019-11-13T13:18:49Z</time>
      </trkpt>
      <trkpt lat="43.21097" lon="5.6885">
        <ele>247</ele>
        <time>2019-11-13T13:18:53Z</time>
      </trkpt>
      <trkpt lat="43.21091" lon="5.68854">
        <ele>246</ele>
        <time>2019-11-13T13:18:59Z</time>
      </trkpt>
      <trkpt lat="43.21086" lon="5.68858">
        <ele>247</ele>
        <time>2019-11-13T13:19:05Z</time>
      </trkpt>
      <trkpt lat="43.21081" lon="5.68863">
        <ele>246</ele>
        <time>2019-11-13T13:19:11Z</time>
      </trkpt>
      <trkpt lat="43.21076" lon="5.68869">
        <ele>246</ele>
        <time>2019-11-13T13:19:17Z</time>
      </trkpt>
      <trkpt lat="43.21072" lon="5.68873">
        <ele>246</ele>
        <time>2019-11-13T13:19:21Z</time>
      </trkpt>
      <trkpt lat="43.21067" lon="5.68877">
        <ele>244</ele>
        <time>2019-11-13T13:19:27Z</time>
      </trkpt>
      <trkpt lat="43.21062" lon="5.68882">
        <ele>243</ele>
        <time>2019-11-13T13:19:33Z</time>
      </trkpt>
      <trkpt lat="43.21057" lon="5.68886">
        <ele>240</ele>
        <time>2019-11-13T13:19:39Z</time>
      </trkpt>
      <trkpt lat="43.21053" lon="5.68889">
        <ele>241</ele>
        <time>2019-11-13T13:19:43Z</time>
      </trkpt>
      <trkpt lat="43.21048" lon="5.68893">
        <ele>241</ele>
        <time>2019-11-13T13:19:47Z</time>
      </trkpt>
      <trkpt lat="43.21044" lon="5.68896">
        <ele>241</ele>
        <time>2019-11-13T13:19:51Z</time>
      </trkpt>
      <trkpt lat="43.21038" lon="5.68899">
        <ele>240</ele>
        <time>2019-11-13T13:19:57Z</time>
      </trkpt>
      <trkpt lat="43.21033" lon="5.68903">
        <ele>239</ele>
        <time>2019-11-13T13:20:03Z</time>
      </trkpt>
      <trkpt lat="43.21027" lon="5.68907">
        <ele>240</ele>
        <time>2019-11-13T13:20:09Z</time>
      </trkpt>
      <trkpt lat="43.21022" lon="5.68912">
        <ele>240</ele>
        <time>2019-11-13T13:20:15Z</time>
      </trkpt>
      <trkpt lat="43.21017" lon="5.68915">
        <ele>239</ele>
        <time>2019-11-13T13:20:19Z</time>
      </trkpt>
      <trkpt lat="43.21013" lon="5.68918">
        <ele>240</ele>
        <time>2019-11-13T13:20:23Z</time>
      </trkpt>
      <trkpt lat="43.21007" lon="5.68921">
        <ele>238</ele>
        <time>2019-11-13T13:20:29Z</time>
      </trkpt>
      <trkpt lat="43.21001" lon="5.68924">
        <ele>240</ele>
        <time>2019-11-13T13:20:35Z</time>
      </trkpt>
      <trkpt lat="43.20997" lon="5.6892">
        <ele>240</ele>
        <time>2019-11-13T13:22:17Z</time>
      </trkpt>
      <trkpt lat="43.20997" lon="5.68912">
        <ele>240</ele>
        <time>2019-11-13T13:22:25Z</time>
      </trkpt>
      <trkpt lat="43.20997" lon="5.68905">
        <ele>240</ele>
        <time>2019-11-13T13:22:33Z</time>
      </trkpt>
      <trkpt lat="43.20997" lon="5.68898">
        <ele>240</ele>
        <time>2019-11-13T13:22:39Z</time>
      </trkpt>
      <trkpt lat="43.20996" lon="5.68891">
        <ele>240</ele>
        <time>2019-11-13T13:22:47Z</time>
      </trkpt>
      <trkpt lat="43.20996" lon="5.68884">
        <ele>240</ele>
        <time>2019-11-13T13:22:53Z</time>
      </trkpt>
      <trkpt lat="43.20993" lon="5.68876">
        <ele>238</ele>
        <time>2019-11-13T13:22:59Z</time>
      </trkpt>
      <trkpt lat="43.20989" lon="5.68869">
        <ele>238</ele>
        <time>2019-11-13T13:23:05Z</time>
      </trkpt>
      <trkpt lat="43.20986" lon="5.68865">
        <ele>239</ele>
        <time>2019-11-13T13:23:09Z</time>
      </trkpt>
      <trkpt lat="43.20984" lon="5.68858">
        <ele>239</ele>
        <time>2019-11-13T13:23:15Z</time>
      </trkpt>
      <trkpt lat="43.20984" lon="5.68852">
        <ele>239</ele>
        <time>2019-11-13T13:23:21Z</time>
      </trkpt>
      <trkpt lat="43.20985" lon="5.68843">
        <ele>239</ele>
        <time>2019-11-13T13:23:27Z</time>
      </trkpt>
      <trkpt lat="43.20988" lon="5.68836">
        <ele>240</ele>
        <time>2019-11-13T13:23:33Z</time>
      </trkpt>
      <trkpt lat="43.2099" lon="5.68827">
        <ele>241</ele>
        <time>2019-11-13T13:23:39Z</time>
      </trkpt>
      <trkpt lat="43.20991" lon="5.68819">
        <ele>241</ele>
        <time>2019-11-13T13:23:45Z</time>
      </trkpt>
      <trkpt lat="43.20993" lon="5.68812">
        <ele>241</ele>
        <time>2019-11-13T13:23:51Z</time>
      </trkpt>
      <trkpt lat="43.20995" lon="5.68804">
        <ele>241</ele>
        <time>2019-11-13T13:23:57Z</time>
      </trkpt>
      <trkpt lat="43.20999" lon="5.68798">
        <ele>240</ele>
        <time>2019-11-13T13:24:03Z</time>
      </trkpt>
      <trkpt lat="43.21002" lon="5.68793">
        <ele>240</ele>
        <time>2019-11-13T13:24:11Z</time>
      </trkpt>
      <trkpt lat="43.21003" lon="5.68786">
        <ele>241</ele>
        <time>2019-11-13T13:24:17Z</time>
      </trkpt>
      <trkpt lat="43.21006" lon="5.6878">
        <ele>238</ele>
        <time>2019-11-13T13:24:23Z</time>
      </trkpt>
      <trkpt lat="43.21009" lon="5.68774">
        <ele>238</ele>
        <time>2019-11-13T13:24:29Z</time>
      </trkpt>
      <trkpt lat="43.21011" lon="5.68768">
        <ele>238</ele>
        <time>2019-11-13T13:24:35Z</time>
      </trkpt>
      <trkpt lat="43.21013" lon="5.68762">
        <ele>239</ele>
        <time>2019-11-13T13:24:41Z</time>
      </trkpt>
      <trkpt lat="43.21016" lon="5.68755">
        <ele>240</ele>
        <time>2019-11-13T13:24:47Z</time>
      </trkpt>
      <trkpt lat="43.21011" lon="5.68759">
        <ele>243</ele>
        <time>2019-11-13T13:25:13Z</time>
      </trkpt>
      <trkpt lat="43.21009" lon="5.68765">
        <ele>239</ele>
        <time>2019-11-13T13:25:25Z</time>
      </trkpt>
      <trkpt lat="43.21006" lon="5.68772">
        <ele>240</ele>
        <time>2019-11-13T13:25:31Z</time>
      </trkpt>
      <trkpt lat="43.21003" lon="5.68779">
        <ele>242</ele>
        <time>2019-11-13T13:25:37Z</time>
      </trkpt>
      <trkpt lat="43.21" lon="5.68785">
        <ele>240</ele>
        <time>2019-11-13T13:25:45Z</time>
      </trkpt>
      <trkpt lat="43.21001" lon="5.68791">
        <ele>237</ele>
        <time>2019-11-13T13:26:09Z</time>
      </trkpt>
      <trkpt lat="43.20999" lon="5.68797">
        <ele>239</ele>
        <time>2019-11-13T13:26:15Z</time>
      </trkpt>
      <trkpt lat="43.20995" lon="5.68803">
        <ele>239</ele>
        <time>2019-11-13T13:26:21Z</time>
      </trkpt>
      <trkpt lat="43.20991" lon="5.68808">
        <ele>240</ele>
        <time>2019-11-13T13:26:27Z</time>
      </trkpt>
      <trkpt lat="43.20987" lon="5.68808">
        <ele>240</ele>
        <time>2019-11-13T13:26:35Z</time>
      </trkpt>
      <trkpt lat="43.20981" lon="5.68805">
        <ele>240</ele>
        <time>2019-11-13T13:26:43Z</time>
      </trkpt>
      <trkpt lat="43.20977" lon="5.68803">
        <ele>239</ele>
        <time>2019-11-13T13:26:49Z</time>
      </trkpt>
      <trkpt lat="43.20972" lon="5.68801">
        <ele>238</ele>
        <time>2019-11-13T13:26:57Z</time>
      </trkpt>
      <trkpt lat="43.20966" lon="5.68802">
        <ele>238</ele>
        <time>2019-11-13T13:27:05Z</time>
      </trkpt>
      <trkpt lat="43.20962" lon="5.68805">
        <ele>238</ele>
        <time>2019-11-13T13:27:11Z</time>
      </trkpt>
      <trkpt lat="43.20956" lon="5.68807">
        <ele>238</ele>
        <time>2019-11-13T13:27:17Z</time>
      </trkpt>
      <trkpt lat="43.20952" lon="5.68802">
        <ele>237</ele>
        <time>2019-11-13T13:27:31Z</time>
      </trkpt>
      <trkpt lat="43.20949" lon="5.68797">
        <ele>237</ele>
        <time>2019-11-13T13:27:37Z</time>
      </trkpt>
      <trkpt lat="43.20945" lon="5.68792">
        <ele>236</ele>
        <time>2019-11-13T13:27:45Z</time>
      </trkpt>
      <trkpt lat="43.20941" lon="5.68788">
        <ele>235</ele>
        <time>2019-11-13T13:27:51Z</time>
      </trkpt>
      <trkpt lat="43.20938" lon="5.68784">
        <ele>234</ele>
        <time>2019-11-13T13:27:59Z</time>
      </trkpt>
      <trkpt lat="43.20943" lon="5.6879">
        <ele>233</ele>
        <time>2019-11-13T13:28:15Z</time>
      </trkpt>
      <trkpt lat="43.20947" lon="5.68791">
        <ele>232</ele>
        <time>2019-11-13T13:28:21Z</time>
      </trkpt>
      <trkpt lat="43.20952" lon="5.68786">
        <ele>232</ele>
        <time>2019-11-13T13:28:29Z</time>
      </trkpt>
      <trkpt lat="43.20955" lon="5.6878">
        <ele>231</ele>
        <time>2019-11-13T13:28:35Z</time>
      </trkpt>
      <trkpt lat="43.20957" lon="5.68774">
        <ele>232</ele>
        <time>2019-11-13T13:28:53Z</time>
      </trkpt>
      <trkpt lat="43.20952" lon="5.68774">
        <ele>232</ele>
        <time>2019-11-13T13:29:35Z</time>
      </trkpt>
      <trkpt lat="43.20948" lon="5.6877">
        <ele>232</ele>
        <time>2019-11-13T13:29:41Z</time>
      </trkpt>
      <trkpt lat="43.20945" lon="5.68766">
        <ele>231</ele>
        <time>2019-11-13T13:29:49Z</time>
      </trkpt>
      <trkpt lat="43.20941" lon="5.68761">
        <ele>231</ele>
        <time>2019-11-13T13:29:57Z</time>
      </trkpt>
      <trkpt lat="43.20938" lon="5.68756">
        <ele>228</ele>
        <time>2019-11-13T13:30:07Z</time>
      </trkpt>
      <trkpt lat="43.20935" lon="5.68751">
        <ele>227</ele>
        <time>2019-11-13T13:30:19Z</time>
      </trkpt>
      <trkpt lat="43.2093" lon="5.6875">
        <ele>224</ele>
        <time>2019-11-13T13:30:29Z</time>
      </trkpt>
      <trkpt lat="43.20926" lon="5.68748">
        <ele>222</ele>
        <time>2019-11-13T13:31:07Z</time>
      </trkpt>
      <trkpt lat="43.20921" lon="5.68746">
        <ele>220</ele>
        <time>2019-11-13T13:31:31Z</time>
      </trkpt>
      <trkpt lat="43.20918" lon="5.68752">
        <ele>219</ele>
        <time>2019-11-13T13:31:37Z</time>
      </trkpt>
      <trkpt lat="43.20922" lon="5.68747">
        <ele>217</ele>
        <time>2019-11-13T13:32:07Z</time>
      </trkpt>
      <trkpt lat="43.20925" lon="5.68741">
        <ele>218</ele>
        <time>2019-11-13T13:32:15Z</time>
      </trkpt>
      <trkpt lat="43.20929" lon="5.68741">
        <ele>223</ele>
        <time>2019-11-13T13:34:05Z</time>
      </trkpt>
      <trkpt lat="43.20934" lon="5.68739">
        <ele>229</ele>
        <time>2019-11-13T13:34:41Z</time>
      </trkpt>
      <trkpt lat="43.20929" lon="5.6874">
        <ele>226</ele>
        <time>2019-11-13T13:35:03Z</time>
      </trkpt>
      <trkpt lat="43.20933" lon="5.68736">
        <ele>220</ele>
        <time>2019-11-13T13:36:37Z</time>
      </trkpt>
      <trkpt lat="43.20936" lon="5.6873">
        <ele>216</ele>
        <time>2019-11-13T13:36:47Z</time>
      </trkpt>
      <trkpt lat="43.20939" lon="5.68724">
        <ele>215</ele>
        <time>2019-11-13T13:36:53Z</time>
      </trkpt>
      <trkpt lat="43.20942" lon="5.68719">
        <ele>215</ele>
        <time>2019-11-13T13:36:59Z</time>
      </trkpt>
      <trkpt lat="43.20945" lon="5.68714">
        <ele>216</ele>
        <time>2019-11-13T13:37:05Z</time>
      </trkpt>
      <trkpt lat="43.20949" lon="5.68706">
        <ele>219</ele>
        <time>2019-11-13T13:37:11Z</time>
      </trkpt>
      <trkpt lat="43.20953" lon="5.687">
        <ele>223</ele>
        <time>2019-11-13T13:37:17Z</time>
      </trkpt>
      <trkpt lat="43.20955" lon="5.68693">
        <ele>227</ele>
        <time>2019-11-13T13:37:23Z</time>
      </trkpt>
      <trkpt lat="43.20956" lon="5.68684">
        <ele>225</ele>
        <time>2019-11-13T13:37:29Z</time>
      </trkpt>
      <trkpt lat="43.20957" lon="5.68678">
        <ele>223</ele>
        <time>2019-11-13T13:37:33Z</time>
      </trkpt>
      <trkpt lat="43.20958" lon="5.68669">
        <ele>222</ele>
        <time>2019-11-13T13:37:37Z</time>
      </trkpt>
      <trkpt lat="43.20958" lon="5.6866">
        <ele>222</ele>
        <time>2019-11-13T13:37:41Z</time>
      </trkpt>
      <trkpt lat="43.20961" lon="5.68655">
        <ele>222</ele>
        <time>2019-11-13T13:37:45Z</time>
      </trkpt>
      <trkpt lat="43.20965" lon="5.6865">
        <ele>225</ele>
        <time>2019-11-13T13:37:51Z</time>
      </trkpt>
      <trkpt lat="43.20967" lon="5.68645">
        <ele>224</ele>
        <time>2019-11-13T13:37:57Z</time>
      </trkpt>
      <trkpt lat="43.2097" lon="5.68639">
        <ele>223</ele>
        <time>2019-11-13T13:38:03Z</time>
      </trkpt>
      <trkpt lat="43.20969" lon="5.68632">
        <ele>223</ele>
        <time>2019-11-13T13:38:11Z</time>
      </trkpt>
      <trkpt lat="43.20968" lon="5.68625">
        <ele>225</ele>
        <time>2019-11-13T13:38:17Z</time>
      </trkpt>
      <trkpt lat="43.20967" lon="5.68617">
        <ele>225</ele>
        <time>2019-11-13T13:38:23Z</time>
      </trkpt>
      <trkpt lat="43.20967" lon="5.6861">
        <ele>226</ele>
        <time>2019-11-13T13:38:29Z</time>
      </trkpt>
      <trkpt lat="43.20966" lon="5.68603">
        <ele>226</ele>
        <time>2019-11-13T13:38:35Z</time>
      </trkpt>
      <trkpt lat="43.20965" lon="5.68596">
        <ele>224</ele>
        <time>2019-11-13T13:38:45Z</time>
      </trkpt>
      <trkpt lat="43.20966" lon="5.6859">
        <ele>224</ele>
        <time>2019-11-13T13:38:53Z</time>
      </trkpt>
      <trkpt lat="43.20968" lon="5.68581">
        <ele>224</ele>
        <time>2019-11-13T13:39:01Z</time>
      </trkpt>
      <trkpt lat="43.20972" lon="5.68574">
        <ele>227</ele>
        <time>2019-11-13T13:39:07Z</time>
      </trkpt>
      <trkpt lat="43.20975" lon="5.68567">
        <ele>227</ele>
        <time>2019-11-13T13:39:15Z</time>
      </trkpt>
      <trkpt lat="43.20978" lon="5.6856">
        <ele>229</ele>
        <time>2019-11-13T13:39:21Z</time>
      </trkpt>
      <trkpt lat="43.2098" lon="5.68553">
        <ele>227</ele>
        <time>2019-11-13T13:39:27Z</time>
      </trkpt>
      <trkpt lat="43.20981" lon="5.68545">
        <ele>223</ele>
        <time>2019-11-13T13:39:33Z</time>
      </trkpt>
      <trkpt lat="43.20977" lon="5.68539">
        <ele>221</ele>
        <time>2019-11-13T13:39:39Z</time>
      </trkpt>
      <trkpt lat="43.20972" lon="5.68537">
        <ele>219</ele>
        <time>2019-11-13T13:39:43Z</time>
      </trkpt>
      <trkpt lat="43.20967" lon="5.68535">
        <ele>221</ele>
        <time>2019-11-13T13:39:47Z</time>
      </trkpt>
      <trkpt lat="43.20962" lon="5.68536">
        <ele>223</ele>
        <time>2019-11-13T13:39:53Z</time>
      </trkpt>
      <trkpt lat="43.20957" lon="5.68537">
        <ele>223</ele>
        <time>2019-11-13T13:39:59Z</time>
      </trkpt>
      <trkpt lat="43.20952" lon="5.68541">
        <ele>220</ele>
        <time>2019-11-13T13:40:07Z</time>
      </trkpt>
      <trkpt lat="43.20948" lon="5.68543">
        <ele>218</ele>
        <time>2019-11-13T13:40:13Z</time>
      </trkpt>
      <trkpt lat="43.20943" lon="5.68547">
        <ele>221</ele>
        <time>2019-11-13T13:40:21Z</time>
      </trkpt>
      <trkpt lat="43.20939" lon="5.68552">
        <ele>222</ele>
        <time>2019-11-13T13:40:27Z</time>
      </trkpt>
      <trkpt lat="43.20935" lon="5.68556">
        <ele>222</ele>
        <time>2019-11-13T13:40:33Z</time>
      </trkpt>
      <trkpt lat="43.20931" lon="5.68558">
        <ele>220</ele>
        <time>2019-11-13T13:40:39Z</time>
      </trkpt>
      <trkpt lat="43.20926" lon="5.68563">
        <ele>223</ele>
        <time>2019-11-13T13:40:45Z</time>
      </trkpt>
      <trkpt lat="43.20921" lon="5.68567">
        <ele>224</ele>
        <time>2019-11-13T13:40:51Z</time>
      </trkpt>
      <trkpt lat="43.20917" lon="5.68569">
        <ele>224</ele>
        <time>2019-11-13T13:40:57Z</time>
      </trkpt>
      <trkpt lat="43.2091" lon="5.68571">
        <ele>228</ele>
        <time>2019-11-13T13:41:03Z</time>
      </trkpt>
      <trkpt lat="43.20905" lon="5.68572">
        <ele>230</ele>
        <time>2019-11-13T13:41:09Z</time>
      </trkpt>
      <trkpt lat="43.209" lon="5.68572">
        <ele>233</ele>
        <time>2019-11-13T13:41:29Z</time>
      </trkpt>
      <trkpt lat="43.20895" lon="5.68569">
        <ele>234</ele>
        <time>2019-11-13T13:41:35Z</time>
      </trkpt>
      <trkpt lat="43.20892" lon="5.68565">
        <ele>233</ele>
        <time>2019-11-13T13:41:45Z</time>
      </trkpt>
      <trkpt lat="43.20888" lon="5.68561">
        <ele>234</ele>
        <time>2019-11-13T13:41:51Z</time>
      </trkpt>
      <trkpt lat="43.20885" lon="5.68556">
        <ele>234</ele>
        <time>2019-11-13T13:41:57Z</time>
      </trkpt>
      <trkpt lat="43.20882" lon="5.68551">
        <ele>234</ele>
        <time>2019-11-13T13:42:03Z</time>
      </trkpt>
      <trkpt lat="43.20879" lon="5.68544">
        <ele>235</ele>
        <time>2019-11-13T13:42:15Z</time>
      </trkpt>
      <trkpt lat="43.2088" lon="5.68537">
        <ele>234</ele>
        <time>2019-11-13T13:42:23Z</time>
      </trkpt>
      <trkpt lat="43.20877" lon="5.68531">
        <ele>234</ele>
        <time>2019-11-13T13:42:51Z</time>
      </trkpt>
      <trkpt lat="43.20871" lon="5.68531">
        <ele>235</ele>
        <time>2019-11-13T13:42:59Z</time>
      </trkpt>
      <trkpt lat="43.20867" lon="5.68529">
        <ele>235</ele>
        <time>2019-11-13T13:43:05Z</time>
      </trkpt>
      <trkpt lat="43.20861" lon="5.68529">
        <ele>235</ele>
        <time>2019-11-13T13:43:11Z</time>
      </trkpt>
      <trkpt lat="43.20855" lon="5.68531">
        <ele>235</ele>
        <time>2019-11-13T13:43:17Z</time>
      </trkpt>
      <trkpt lat="43.20851" lon="5.68532">
        <ele>235</ele>
        <time>2019-11-13T13:43:23Z</time>
      </trkpt>
      <trkpt lat="43.20845" lon="5.68538">
        <ele>235</ele>
        <time>2019-11-13T13:43:27Z</time>
      </trkpt>
      <trkpt lat="43.20842" lon="5.68532">
        <ele>233</ele>
        <time>2019-11-13T13:44:07Z</time>
      </trkpt>
      <trkpt lat="43.20837" lon="5.68529">
        <ele>233</ele>
        <time>2019-11-13T13:44:13Z</time>
      </trkpt>
      <trkpt lat="43.20834" lon="5.68525">
        <ele>232</ele>
        <time>2019-11-13T13:44:19Z</time>
      </trkpt>
      <trkpt lat="43.20831" lon="5.6852">
        <ele>230</ele>
        <time>2019-11-13T13:44:25Z</time>
      </trkpt>
      <trkpt lat="43.20826" lon="5.68518">
        <ele>228</ele>
        <time>2019-11-13T13:44:31Z</time>
      </trkpt>
      <trkpt lat="43.20822" lon="5.68514">
        <ele>228</ele>
        <time>2019-11-13T13:44:37Z</time>
      </trkpt>
      <trkpt lat="43.20818" lon="5.68511">
        <ele>226</ele>
        <time>2019-11-13T13:44:43Z</time>
      </trkpt>
      <trkpt lat="43.20813" lon="5.68506">
        <ele>225</ele>
        <time>2019-11-13T13:44:51Z</time>
      </trkpt>
      <trkpt lat="43.20809" lon="5.68503">
        <ele>222</ele>
        <time>2019-11-13T13:44:59Z</time>
      </trkpt>
      <trkpt lat="43.20804" lon="5.685">
        <ele>220</ele>
        <time>2019-11-13T13:45:11Z</time>
      </trkpt>
      <trkpt lat="43.208" lon="5.68495">
        <ele>222</ele>
        <time>2019-11-13T13:45:19Z</time>
      </trkpt>
      <trkpt lat="43.20796" lon="5.6849">
        <ele>221</ele>
        <time>2019-11-13T13:45:25Z</time>
      </trkpt>
      <trkpt lat="43.20791" lon="5.68486">
        <ele>220</ele>
        <time>2019-11-13T13:45:31Z</time>
      </trkpt>
      <trkpt lat="43.20786" lon="5.68483">
        <ele>220</ele>
        <time>2019-11-13T13:45:37Z</time>
      </trkpt>
      <trkpt lat="43.20786" lon="5.68476">
        <ele>222</ele>
        <time>2019-11-13T13:45:47Z</time>
      </trkpt>
      <trkpt lat="43.20784" lon="5.68469">
        <ele>224</ele>
        <time>2019-11-13T13:45:53Z</time>
      </trkpt>
      <trkpt lat="43.2078" lon="5.68465">
        <ele>225</ele>
        <time>2019-11-13T13:45:59Z</time>
      </trkpt>
      <trkpt lat="43.20775" lon="5.68461">
        <ele>225</ele>
        <time>2019-11-13T13:46:05Z</time>
      </trkpt>
      <trkpt lat="43.2077" lon="5.68458">
        <ele>224</ele>
        <time>2019-11-13T13:46:11Z</time>
      </trkpt>
      <trkpt lat="43.20765" lon="5.68453">
        <ele>224</ele>
        <time>2019-11-13T13:46:17Z</time>
      </trkpt>
      <trkpt lat="43.20763" lon="5.68448">
        <ele>224</ele>
        <time>2019-11-13T13:46:23Z</time>
      </trkpt>
      <trkpt lat="43.2076" lon="5.68441">
        <ele>225</ele>
        <time>2019-11-13T13:46:29Z</time>
      </trkpt>
      <trkpt lat="43.20757" lon="5.68434">
        <ele>226</ele>
        <time>2019-11-13T13:46:35Z</time>
      </trkpt>
      <trkpt lat="43.20754" lon="5.68428">
        <ele>226</ele>
        <time>2019-11-13T13:46:41Z</time>
      </trkpt>
      <trkpt lat="43.20752" lon="5.6842">
        <ele>226</ele>
        <time>2019-11-13T13:46:47Z</time>
      </trkpt>
      <trkpt lat="43.2075" lon="5.68413">
        <ele>225</ele>
        <time>2019-11-13T13:46:53Z</time>
      </trkpt>
      <trkpt lat="43.20749" lon="5.68406">
        <ele>225</ele>
        <time>2019-11-13T13:46:59Z</time>
      </trkpt>
      <trkpt lat="43.20747" lon="5.68399">
        <ele>224</ele>
        <time>2019-11-13T13:47:05Z</time>
      </trkpt>
      <trkpt lat="43.20744" lon="5.68393">
        <ele>227</ele>
        <time>2019-11-13T13:47:11Z</time>
      </trkpt>
      <trkpt lat="43.20742" lon="5.68388">
        <ele>228</ele>
        <time>2019-11-13T13:47:17Z</time>
      </trkpt>
      <trkpt lat="43.20739" lon="5.68381">
        <ele>226</ele>
        <time>2019-11-13T13:47:23Z</time>
      </trkpt>
      <trkpt lat="43.20739" lon="5.68374">
        <ele>227</ele>
        <time>2019-11-13T13:47:29Z</time>
      </trkpt>
      <trkpt lat="43.20739" lon="5.68368">
        <ele>222</ele>
        <time>2019-11-13T13:47:35Z</time>
      </trkpt>
      <trkpt lat="43.2074" lon="5.6836">
        <ele>223</ele>
        <time>2019-11-13T13:47:43Z</time>
      </trkpt>
      <trkpt lat="43.20739" lon="5.68353">
        <ele>224</ele>
        <time>2019-11-13T13:47:51Z</time>
      </trkpt>
      <trkpt lat="43.20737" lon="5.68347">
        <ele>222</ele>
        <time>2019-11-13T13:47:59Z</time>
      </trkpt>
      <trkpt lat="43.20736" lon="5.68339">
        <ele>221</ele>
        <time>2019-11-13T13:48:09Z</time>
      </trkpt>
      <trkpt lat="43.20737" lon="5.68332">
        <ele>221</ele>
        <time>2019-11-13T13:48:15Z</time>
      </trkpt>
      <trkpt lat="43.20738" lon="5.68325">
        <ele>220</ele>
        <time>2019-11-13T13:48:21Z</time>
      </trkpt>
      <trkpt lat="43.20741" lon="5.68318">
        <ele>220</ele>
        <time>2019-11-13T13:48:27Z</time>
      </trkpt>
      <trkpt lat="43.20743" lon="5.68312">
        <ele>220</ele>
        <time>2019-11-13T13:48:33Z</time>
      </trkpt>
      <trkpt lat="43.20746" lon="5.68306">
        <ele>217</ele>
        <time>2019-11-13T13:48:41Z</time>
      </trkpt>
      <trkpt lat="43.2075" lon="5.683">
        <ele>217</ele>
        <time>2019-11-13T13:48:49Z</time>
      </trkpt>
      <trkpt lat="43.20752" lon="5.68294">
        <ele>217</ele>
        <time>2019-11-13T13:48:57Z</time>
      </trkpt>
      <trkpt lat="43.20755" lon="5.68288">
        <ele>216</ele>
        <time>2019-11-13T13:49:05Z</time>
      </trkpt>
      <trkpt lat="43.20758" lon="5.68284">
        <ele>216</ele>
        <time>2019-11-13T13:49:49Z</time>
      </trkpt>
      <trkpt lat="43.20764" lon="5.68281">
        <ele>214</ele>
        <time>2019-11-13T13:50:03Z</time>
      </trkpt>
      <trkpt lat="43.20769" lon="5.68276">
        <ele>213</ele>
        <time>2019-11-13T13:50:09Z</time>
      </trkpt>
      <trkpt lat="43.20774" lon="5.68273">
        <ele>213</ele>
        <time>2019-11-13T13:50:15Z</time>
      </trkpt>
      <trkpt lat="43.20778" lon="5.6827">
        <ele>212</ele>
        <time>2019-11-13T13:50:21Z</time>
      </trkpt>
      <trkpt lat="43.20783" lon="5.68266">
        <ele>211</ele>
        <time>2019-11-13T13:50:29Z</time>
      </trkpt>
      <trkpt lat="43.20787" lon="5.68261">
        <ele>212</ele>
        <time>2019-11-13T13:50:35Z</time>
      </trkpt>
      <trkpt lat="43.20791" lon="5.68255">
        <ele>214</ele>
        <time>2019-11-13T13:50:43Z</time>
      </trkpt>
      <trkpt lat="43.20794" lon="5.6825">
        <ele>213</ele>
        <time>2019-11-13T13:50:51Z</time>
      </trkpt>
      <trkpt lat="43.208" lon="5.68247">
        <ele>212</ele>
        <time>2019-11-13T13:50:59Z</time>
      </trkpt>
      <trkpt lat="43.208" lon="5.6824">
        <ele>214</ele>
        <time>2019-11-13T13:51:05Z</time>
      </trkpt>
      <trkpt lat="43.20795" lon="5.68236">
        <ele>216</ele>
        <time>2019-11-13T13:51:09Z</time>
      </trkpt>
      <trkpt lat="43.2079" lon="5.68232">
        <ele>215</ele>
        <time>2019-11-13T13:51:13Z</time>
      </trkpt>
      <trkpt lat="43.20786" lon="5.6823">
        <ele>216</ele>
        <time>2019-11-13T13:51:17Z</time>
      </trkpt>
      <trkpt lat="43.20782" lon="5.68225">
        <ele>216</ele>
        <time>2019-11-13T13:51:23Z</time>
      </trkpt>
      <trkpt lat="43.20776" lon="5.68224">
        <ele>219</ele>
        <time>2019-11-13T13:51:29Z</time>
      </trkpt>
      <trkpt lat="43.20772" lon="5.68224">
        <ele>218</ele>
        <time>2019-11-13T13:51:35Z</time>
      </trkpt>
      <trkpt lat="43.20767" lon="5.68221">
        <ele>218</ele>
        <time>2019-11-13T13:51:43Z</time>
      </trkpt>
      <trkpt lat="43.20767" lon="5.68215">
        <ele>222</ele>
        <time>2019-11-13T13:52:55Z</time>
      </trkpt>
      <trkpt lat="43.20761" lon="5.68213">
        <ele>219</ele>
        <time>2019-11-13T13:53:05Z</time>
      </trkpt>
      <trkpt lat="43.20757" lon="5.68207">
        <ele>219</ele>
        <time>2019-11-13T13:53:13Z</time>
      </trkpt>
      <trkpt lat="43.20751" lon="5.68204">
        <ele>219</ele>
        <time>2019-11-13T13:53:19Z</time>
      </trkpt>
      <trkpt lat="43.20745" lon="5.68201">
        <ele>218</ele>
        <time>2019-11-13T13:53:25Z</time>
      </trkpt>
      <trkpt lat="43.2074" lon="5.68196">
        <ele>220</ele>
        <time>2019-11-13T13:53:31Z</time>
      </trkpt>
      <trkpt lat="43.20733" lon="5.68194">
        <ele>220</ele>
        <time>2019-11-13T13:53:37Z</time>
      </trkpt>
      <trkpt lat="43.20728" lon="5.68189">
        <ele>219</ele>
        <time>2019-11-13T13:53:43Z</time>
      </trkpt>
      <trkpt lat="43.20723" lon="5.68184">
        <ele>219</ele>
        <time>2019-11-13T13:53:49Z</time>
      </trkpt>
      <trkpt lat="43.2072" lon="5.68178">
        <ele>221</ele>
        <time>2019-11-13T13:53:55Z</time>
      </trkpt>
      <trkpt lat="43.20716" lon="5.68172">
        <ele>222</ele>
        <time>2019-11-13T13:54:03Z</time>
      </trkpt>
      <trkpt lat="43.20712" lon="5.68167">
        <ele>223</ele>
        <time>2019-11-13T13:54:09Z</time>
      </trkpt>
      <trkpt lat="43.20709" lon="5.68161">
        <ele>222</ele>
        <time>2019-11-13T13:54:15Z</time>
      </trkpt>
      <trkpt lat="43.20707" lon="5.68155">
        <ele>222</ele>
        <time>2019-11-13T13:54:21Z</time>
      </trkpt>
      <trkpt lat="43.20705" lon="5.68149">
        <ele>220</ele>
        <time>2019-11-13T13:54:27Z</time>
      </trkpt>
      <trkpt lat="43.20703" lon="5.68142">
        <ele>222</ele>
        <time>2019-11-13T13:54:33Z</time>
      </trkpt>
      <trkpt lat="43.20701" lon="5.68135">
        <ele>221</ele>
        <time>2019-11-13T13:54:39Z</time>
      </trkpt>
      <trkpt lat="43.20701" lon="5.68128">
        <ele>222</ele>
        <time>2019-11-13T13:54:45Z</time>
      </trkpt>
      <trkpt lat="43.20701" lon="5.6812">
        <ele>223</ele>
        <time>2019-11-13T13:54:51Z</time>
      </trkpt>
      <trkpt lat="43.20701" lon="5.68112">
        <ele>222</ele>
        <time>2019-11-13T13:54:59Z</time>
      </trkpt>
      <trkpt lat="43.20704" lon="5.68107">
        <ele>222</ele>
        <time>2019-11-13T13:55:05Z</time>
      </trkpt>
      <trkpt lat="43.20704" lon="5.681">
        <ele>221</ele>
        <time>2019-11-13T13:55:13Z</time>
      </trkpt>
      <trkpt lat="43.20699" lon="5.68096">
        <ele>220</ele>
        <time>2019-11-13T13:55:19Z</time>
      </trkpt>
      <trkpt lat="43.20693" lon="5.68094">
        <ele>221</ele>
        <time>2019-11-13T13:55:25Z</time>
      </trkpt>
      <trkpt lat="43.20688" lon="5.68092">
        <ele>219</ele>
        <time>2019-11-13T13:55:31Z</time>
      </trkpt>
      <trkpt lat="43.20683" lon="5.68091">
        <ele>219</ele>
        <time>2019-11-13T13:55:37Z</time>
      </trkpt>
      <trkpt lat="43.2068" lon="5.68086">
        <ele>218</ele>
        <time>2019-11-13T13:55:45Z</time>
      </trkpt>
      <trkpt lat="43.20681" lon="5.6808">
        <ele>218</ele>
        <time>2019-11-13T13:55:57Z</time>
      </trkpt>
      <trkpt lat="43.20682" lon="5.68072">
        <ele>217</ele>
        <time>2019-11-13T13:56:09Z</time>
      </trkpt>
      <trkpt lat="43.20684" lon="5.68066">
        <ele>218</ele>
        <time>2019-11-13T13:56:21Z</time>
      </trkpt>
      <trkpt lat="43.20686" lon="5.6806">
        <ele>218</ele>
        <time>2019-11-13T13:56:27Z</time>
      </trkpt>
      <trkpt lat="43.20688" lon="5.68054">
        <ele>216</ele>
        <time>2019-11-13T13:56:33Z</time>
      </trkpt>
      <trkpt lat="43.20689" lon="5.68048">
        <ele>214</ele>
        <time>2019-11-13T13:56:39Z</time>
      </trkpt>
      <trkpt lat="43.20691" lon="5.68042">
        <ele>215</ele>
        <time>2019-11-13T13:56:45Z</time>
      </trkpt>
      <trkpt lat="43.20692" lon="5.68034">
        <ele>215</ele>
        <time>2019-11-13T13:56:51Z</time>
      </trkpt>
      <trkpt lat="43.20693" lon="5.68027">
        <ele>212</ele>
        <time>2019-11-13T13:56:59Z</time>
      </trkpt>
      <trkpt lat="43.20694" lon="5.6802">
        <ele>210</ele>
        <time>2019-11-13T13:57:05Z</time>
      </trkpt>
      <trkpt lat="43.20696" lon="5.68014">
        <ele>210</ele>
        <time>2019-11-13T13:57:11Z</time>
      </trkpt>
      <trkpt lat="43.20698" lon="5.68008">
        <ele>210</ele>
        <time>2019-11-13T13:57:17Z</time>
      </trkpt>
      <trkpt lat="43.207" lon="5.68001">
        <ele>211</ele>
        <time>2019-11-13T13:57:23Z</time>
      </trkpt>
      <trkpt lat="43.20701" lon="5.67995">
        <ele>210</ele>
        <time>2019-11-13T13:57:29Z</time>
      </trkpt>
      <trkpt lat="43.207" lon="5.67988">
        <ele>213</ele>
        <time>2019-11-13T13:57:37Z</time>
      </trkpt>
      <trkpt lat="43.20695" lon="5.67986">
        <ele>220</ele>
        <time>2019-11-13T13:59:05Z</time>
      </trkpt>
      <trkpt lat="43.2069" lon="5.67985">
        <ele>219</ele>
        <time>2019-11-13T13:59:13Z</time>
      </trkpt>
      <trkpt lat="43.20685" lon="5.67986">
        <ele>219</ele>
        <time>2019-11-13T13:59:21Z</time>
      </trkpt>
      <trkpt lat="43.20681" lon="5.6799">
        <ele>217</ele>
        <time>2019-11-13T13:59:27Z</time>
      </trkpt>
      <trkpt lat="43.20676" lon="5.67993">
        <ele>219</ele>
        <time>2019-11-13T13:59:33Z</time>
      </trkpt>
      <trkpt lat="43.2067" lon="5.67997">
        <ele>218</ele>
        <time>2019-11-13T13:59:39Z</time>
      </trkpt>
      <trkpt lat="43.20664" lon="5.68001">
        <ele>218</ele>
        <time>2019-11-13T13:59:45Z</time>
      </trkpt>
      <trkpt lat="43.2066" lon="5.68003">
        <ele>218</ele>
        <time>2019-11-13T13:59:49Z</time>
      </trkpt>
      <trkpt lat="43.20654" lon="5.68008">
        <ele>219</ele>
        <time>2019-11-13T13:59:55Z</time>
      </trkpt>
      <trkpt lat="43.20648" lon="5.68011">
        <ele>220</ele>
        <time>2019-11-13T14:00:01Z</time>
      </trkpt>
      <trkpt lat="43.20642" lon="5.68014">
        <ele>221</ele>
        <time>2019-11-13T14:00:07Z</time>
      </trkpt>
      <trkpt lat="43.20637" lon="5.68016">
        <ele>221</ele>
        <time>2019-11-13T14:00:13Z</time>
      </trkpt>
      <trkpt lat="43.20633" lon="5.6802">
        <ele>221</ele>
        <time>2019-11-13T14:00:19Z</time>
      </trkpt>
      <trkpt lat="43.20629" lon="5.68024">
        <ele>221</ele>
        <time>2019-11-13T14:00:23Z</time>
      </trkpt>
      <trkpt lat="43.20625" lon="5.68028">
        <ele>222</ele>
        <time>2019-11-13T14:00:27Z</time>
      </trkpt>
      <trkpt lat="43.20621" lon="5.68031">
        <ele>223</ele>
        <time>2019-11-13T14:00:31Z</time>
      </trkpt>
      <trkpt lat="43.20616" lon="5.68036">
        <ele>224</ele>
        <time>2019-11-13T14:00:37Z</time>
      </trkpt>
      <trkpt lat="43.20611" lon="5.6804">
        <ele>223</ele>
        <time>2019-11-13T14:00:43Z</time>
      </trkpt>
      <trkpt lat="43.20606" lon="5.68044">
        <ele>222</ele>
        <time>2019-11-13T14:00:49Z</time>
      </trkpt>
      <trkpt lat="43.20601" lon="5.68049">
        <ele>221</ele>
        <time>2019-11-13T14:00:55Z</time>
      </trkpt>
      <trkpt lat="43.20597" lon="5.68055">
        <ele>221</ele>
        <time>2019-11-13T14:01:01Z</time>
      </trkpt>
      <trkpt lat="43.20593" lon="5.68059">
        <ele>219</ele>
        <time>2019-11-13T14:01:07Z</time>
      </trkpt>
      <trkpt lat="43.20588" lon="5.68065">
        <ele>219</ele>
        <time>2019-11-13T14:01:13Z</time>
      </trkpt>
      <trkpt lat="43.20583" lon="5.68071">
        <ele>219</ele>
        <time>2019-11-13T14:01:19Z</time>
      </trkpt>
      <trkpt lat="43.20579" lon="5.68074">
        <ele>219</ele>
        <time>2019-11-13T14:01:25Z</time>
      </trkpt>
      <trkpt lat="43.20575" lon="5.68079">
        <ele>220</ele>
        <time>2019-11-13T14:01:29Z</time>
      </trkpt>
      <trkpt lat="43.20569" lon="5.68084">
        <ele>220</ele>
        <time>2019-11-13T14:01:35Z</time>
      </trkpt>
      <trkpt lat="43.20565" lon="5.68088">
        <ele>220</ele>
        <time>2019-11-13T14:01:39Z</time>
      </trkpt>
      <trkpt lat="43.2056" lon="5.68093">
        <ele>222</ele>
        <time>2019-11-13T14:01:45Z</time>
      </trkpt>
      <trkpt lat="43.20554" lon="5.68097">
        <ele>223</ele>
        <time>2019-11-13T14:01:51Z</time>
      </trkpt>
      <trkpt lat="43.20549" lon="5.68099">
        <ele>222</ele>
        <time>2019-11-13T14:01:57Z</time>
      </trkpt>
      <trkpt lat="43.20544" lon="5.68101">
        <ele>222</ele>
        <time>2019-11-13T14:02:03Z</time>
      </trkpt>
      <trkpt lat="43.20538" lon="5.68105">
        <ele>221</ele>
        <time>2019-11-13T14:02:09Z</time>
      </trkpt>
      <trkpt lat="43.20533" lon="5.6811">
        <ele>221</ele>
        <time>2019-11-13T14:02:15Z</time>
      </trkpt>
      <trkpt lat="43.20529" lon="5.68114">
        <ele>221</ele>
        <time>2019-11-13T14:02:21Z</time>
      </trkpt>
      <trkpt lat="43.20524" lon="5.68117">
        <ele>223</ele>
        <time>2019-11-13T14:02:27Z</time>
      </trkpt>
      <trkpt lat="43.20519" lon="5.6812">
        <ele>223</ele>
        <time>2019-11-13T14:02:33Z</time>
      </trkpt>
      <trkpt lat="43.20515" lon="5.68124">
        <ele>222</ele>
        <time>2019-11-13T14:02:41Z</time>
      </trkpt>
      <trkpt lat="43.2051" lon="5.68125">
        <ele>221</ele>
        <time>2019-11-13T14:03:05Z</time>
      </trkpt>
      <trkpt lat="43.2051" lon="5.68118">
        <ele>221</ele>
        <time>2019-11-13T14:06:15Z</time>
      </trkpt>
      <trkpt lat="43.20509" lon="5.68111">
        <ele>219</ele>
        <time>2019-11-13T14:06:23Z</time>
      </trkpt>
      <trkpt lat="43.20507" lon="5.68102">
        <ele>221</ele>
        <time>2019-11-13T14:06:29Z</time>
      </trkpt>
      <trkpt lat="43.20504" lon="5.68096">
        <ele>220</ele>
        <time>2019-11-13T14:06:35Z</time>
      </trkpt>
      <trkpt lat="43.20503" lon="5.68089">
        <ele>218</ele>
        <time>2019-11-13T14:06:43Z</time>
      </trkpt>
      <trkpt lat="43.205" lon="5.68084">
        <ele>221</ele>
        <time>2019-11-13T14:06:49Z</time>
      </trkpt>
      <trkpt lat="43.20495" lon="5.68079">
        <ele>225</ele>
        <time>2019-11-13T14:06:55Z</time>
      </trkpt>
      <trkpt lat="43.2049" lon="5.68075">
        <ele>223</ele>
        <time>2019-11-13T14:07:01Z</time>
      </trkpt>
      <trkpt lat="43.20486" lon="5.6807">
        <ele>225</ele>
        <time>2019-11-13T14:07:05Z</time>
      </trkpt>
      <trkpt lat="43.20484" lon="5.68064">
        <ele>222</ele>
        <time>2019-11-13T14:07:11Z</time>
      </trkpt>
      <trkpt lat="43.20481" lon="5.68059">
        <ele>224</ele>
        <time>2019-11-13T14:07:15Z</time>
      </trkpt>
      <trkpt lat="43.20479" lon="5.68053">
        <ele>225</ele>
        <time>2019-11-13T14:07:19Z</time>
      </trkpt>
      <trkpt lat="43.20476" lon="5.68048">
        <ele>225</ele>
        <time>2019-11-13T14:07:23Z</time>
      </trkpt>
      <trkpt lat="43.20472" lon="5.68045">
        <ele>223</ele>
        <time>2019-11-13T14:07:27Z</time>
      </trkpt>
      <trkpt lat="43.20466" lon="5.68043">
        <ele>222</ele>
        <time>2019-11-13T14:07:33Z</time>
      </trkpt>
      <trkpt lat="43.2046" lon="5.6804">
        <ele>224</ele>
        <time>2019-11-13T14:07:39Z</time>
      </trkpt>
      <trkpt lat="43.20453" lon="5.6804">
        <ele>225</ele>
        <time>2019-11-13T14:07:45Z</time>
      </trkpt>
      <trkpt lat="43.20448" lon="5.68044">
        <ele>225</ele>
        <time>2019-11-13T14:07:51Z</time>
      </trkpt>
      <trkpt lat="43.20443" lon="5.68049">
        <ele>225</ele>
        <time>2019-11-13T14:07:57Z</time>
      </trkpt>
      <trkpt lat="43.20438" lon="5.68053">
        <ele>224</ele>
        <time>2019-11-13T14:08:03Z</time>
      </trkpt>
      <trkpt lat="43.20434" lon="5.68057">
        <ele>223</ele>
        <time>2019-11-13T14:08:09Z</time>
      </trkpt>
      <trkpt lat="43.2043" lon="5.6806">
        <ele>223</ele>
        <time>2019-11-13T14:08:13Z</time>
      </trkpt>
      <trkpt lat="43.20426" lon="5.68067">
        <ele>222</ele>
        <time>2019-11-13T14:08:19Z</time>
      </trkpt>
      <trkpt lat="43.20427" lon="5.68075">
        <ele>220</ele>
        <time>2019-11-13T14:08:27Z</time>
      </trkpt>
      <trkpt lat="43.20426" lon="5.68083">
        <ele>219</ele>
        <time>2019-11-13T14:08:33Z</time>
      </trkpt>
      <trkpt lat="43.20425" lon="5.6809">
        <ele>218</ele>
        <time>2019-11-13T14:08:37Z</time>
      </trkpt>
      <trkpt lat="43.20423" lon="5.68098">
        <ele>216</ele>
        <time>2019-11-13T14:08:43Z</time>
      </trkpt>
      <trkpt lat="43.20421" lon="5.68105">
        <ele>215</ele>
        <time>2019-11-13T14:08:51Z</time>
      </trkpt>
      <trkpt lat="43.2042" lon="5.68112">
        <ele>216</ele>
        <time>2019-11-13T14:08:55Z</time>
      </trkpt>
      <trkpt lat="43.20418" lon="5.68118">
        <ele>218</ele>
        <time>2019-11-13T14:09:01Z</time>
      </trkpt>
      <trkpt lat="43.20416" lon="5.68125">
        <ele>219</ele>
        <time>2019-11-13T14:09:13Z</time>
      </trkpt>
      <trkpt lat="43.20411" lon="5.68128">
        <ele>219</ele>
        <time>2019-11-13T14:09:21Z</time>
      </trkpt>
      <trkpt lat="43.20406" lon="5.6813">
        <ele>219</ele>
        <time>2019-11-13T14:09:27Z</time>
      </trkpt>
      <trkpt lat="43.20401" lon="5.68135">
        <ele>218</ele>
        <time>2019-11-13T14:09:33Z</time>
      </trkpt>
      <trkpt lat="43.20397" lon="5.68138">
        <ele>217</ele>
        <time>2019-11-13T14:09:39Z</time>
      </trkpt>
      <trkpt lat="43.20392" lon="5.68141">
        <ele>218</ele>
        <time>2019-11-13T14:09:47Z</time>
      </trkpt>
      <trkpt lat="43.20387" lon="5.68144">
        <ele>217</ele>
        <time>2019-11-13T14:09:53Z</time>
      </trkpt>
      <trkpt lat="43.20382" lon="5.68149">
        <ele>218</ele>
        <time>2019-11-13T14:09:59Z</time>
      </trkpt>
      <trkpt lat="43.20377" lon="5.68151">
        <ele>216</ele>
        <time>2019-11-13T14:10:05Z</time>
      </trkpt>
      <trkpt lat="43.20371" lon="5.68153">
        <ele>215</ele>
        <time>2019-11-13T14:10:11Z</time>
      </trkpt>
      <trkpt lat="43.20365" lon="5.68154">
        <ele>215</ele>
        <time>2019-11-13T14:10:17Z</time>
      </trkpt>
      <trkpt lat="43.20359" lon="5.68155">
        <ele>214</ele>
        <time>2019-11-13T14:10:23Z</time>
      </trkpt>
      <trkpt lat="43.20354" lon="5.68156">
        <ele>212</ele>
        <time>2019-11-13T14:10:29Z</time>
      </trkpt>
      <trkpt lat="43.20348" lon="5.68158">
        <ele>212</ele>
        <time>2019-11-13T14:10:39Z</time>
      </trkpt>
      <trkpt lat="43.20343" lon="5.68161">
        <ele>210</ele>
        <time>2019-11-13T14:10:49Z</time>
      </trkpt>
      <trkpt lat="43.20338" lon="5.68163">
        <ele>211</ele>
        <time>2019-11-13T14:10:55Z</time>
      </trkpt>
      <trkpt lat="43.20333" lon="5.68165">
        <ele>210</ele>
        <time>2019-11-13T14:10:59Z</time>
      </trkpt>
      <trkpt lat="43.20328" lon="5.68169">
        <ele>207</ele>
        <time>2019-11-13T14:11:05Z</time>
      </trkpt>
      <trkpt lat="43.20324" lon="5.68172">
        <ele>207</ele>
        <time>2019-11-13T14:11:11Z</time>
      </trkpt>
      <trkpt lat="43.20319" lon="5.68175">
        <ele>205</ele>
        <time>2019-11-13T14:11:19Z</time>
      </trkpt>
      <trkpt lat="43.20313" lon="5.68178">
        <ele>204</ele>
        <time>2019-11-13T14:11:27Z</time>
      </trkpt>
      <trkpt lat="43.20308" lon="5.68182">
        <ele>205</ele>
        <time>2019-11-13T14:11:33Z</time>
      </trkpt>
      <trkpt lat="43.20303" lon="5.68182">
        <ele>202</ele>
        <time>2019-11-13T14:11:39Z</time>
      </trkpt>
      <trkpt lat="43.20298" lon="5.68186">
        <ele>204</ele>
        <time>2019-11-13T14:11:47Z</time>
      </trkpt>
      <trkpt lat="43.20293" lon="5.68188">
        <ele>204</ele>
        <time>2019-11-13T14:11:51Z</time>
      </trkpt>
      <trkpt lat="43.20289" lon="5.6819">
        <ele>204</ele>
        <time>2019-11-13T14:11:55Z</time>
      </trkpt>
      <trkpt lat="43.20285" lon="5.68191">
        <ele>200</ele>
        <time>2019-11-13T14:12:01Z</time>
      </trkpt>
      <trkpt lat="43.20278" lon="5.6819">
        <ele>203</ele>
        <time>2019-11-13T14:12:11Z</time>
      </trkpt>
      <trkpt lat="43.20273" lon="5.68189">
        <ele>204</ele>
        <time>2019-11-13T14:12:17Z</time>
      </trkpt>
      <trkpt lat="43.20267" lon="5.68185">
        <ele>201</ele>
        <time>2019-11-13T14:12:25Z</time>
      </trkpt>
      <trkpt lat="43.20261" lon="5.6818">
        <ele>203</ele>
        <time>2019-11-13T14:12:31Z</time>
      </trkpt>
      <trkpt lat="43.20256" lon="5.68176">
        <ele>202</ele>
        <time>2019-11-13T14:12:37Z</time>
      </trkpt>
      <trkpt lat="43.20253" lon="5.68169">
        <ele>198</ele>
        <time>2019-11-13T14:12:43Z</time>
      </trkpt>
      <trkpt lat="43.20249" lon="5.68167">
        <ele>198</ele>
        <time>2019-11-13T14:12:49Z</time>
      </trkpt>
      <trkpt lat="43.20246" lon="5.68161">
        <ele>195</ele>
        <time>2019-11-13T14:14:35Z</time>
      </trkpt>
      <trkpt lat="43.20248" lon="5.68156">
        <ele>197</ele>
        <time>2019-11-13T14:14:41Z</time>
      </trkpt>
      <trkpt lat="43.2025" lon="5.6815">
        <ele>195</ele>
        <time>2019-11-13T14:14:47Z</time>
      </trkpt>
      <trkpt lat="43.20252" lon="5.68143">
        <ele>193</ele>
        <time>2019-11-13T14:14:53Z</time>
      </trkpt>
      <trkpt lat="43.20255" lon="5.68135">
        <ele>192</ele>
        <time>2019-11-13T14:14:59Z</time>
      </trkpt>
      <trkpt lat="43.20259" lon="5.68131">
        <ele>190</ele>
        <time>2019-11-13T14:15:05Z</time>
      </trkpt>
      <trkpt lat="43.20263" lon="5.68127">
        <ele>191</ele>
        <time>2019-11-13T14:15:11Z</time>
      </trkpt>
      <trkpt lat="43.20267" lon="5.68121">
        <ele>190</ele>
        <time>2019-11-13T14:15:17Z</time>
      </trkpt>
      <trkpt lat="43.2027" lon="5.68117">
        <ele>190</ele>
        <time>2019-11-13T14:15:23Z</time>
      </trkpt>
      <trkpt lat="43.20274" lon="5.68111">
        <ele>188</ele>
        <time>2019-11-13T14:15:29Z</time>
      </trkpt>
      <trkpt lat="43.20276" lon="5.68103">
        <ele>187</ele>
        <time>2019-11-13T14:15:35Z</time>
      </trkpt>
      <trkpt lat="43.20279" lon="5.68095">
        <ele>188</ele>
        <time>2019-11-13T14:15:41Z</time>
      </trkpt>
      <trkpt lat="43.20282" lon="5.68088">
        <ele>187</ele>
        <time>2019-11-13T14:15:47Z</time>
      </trkpt>
      <trkpt lat="43.20286" lon="5.68083">
        <ele>187</ele>
        <time>2019-11-13T14:15:53Z</time>
      </trkpt>
      <trkpt lat="43.20289" lon="5.68076">
        <ele>188</ele>
        <time>2019-11-13T14:15:59Z</time>
      </trkpt>
      <trkpt lat="43.20291" lon="5.68068">
        <ele>188</ele>
        <time>2019-11-13T14:16:05Z</time>
      </trkpt>
      <trkpt lat="43.20294" lon="5.68063">
        <ele>186</ele>
        <time>2019-11-13T14:16:13Z</time>
      </trkpt>
      <trkpt lat="43.20297" lon="5.68056">
        <ele>185</ele>
        <time>2019-11-13T14:16:19Z</time>
      </trkpt>
      <trkpt lat="43.20298" lon="5.68049">
        <ele>184</ele>
        <time>2019-11-13T14:16:23Z</time>
      </trkpt>
      <trkpt lat="43.20299" lon="5.68041">
        <ele>184</ele>
        <time>2019-11-13T14:16:29Z</time>
      </trkpt>
      <trkpt lat="43.20299" lon="5.68033">
        <ele>182</ele>
        <time>2019-11-13T14:16:37Z</time>
      </trkpt>
      <trkpt lat="43.20297" lon="5.68026">
        <ele>182</ele>
        <time>2019-11-13T14:16:41Z</time>
      </trkpt>
      <trkpt lat="43.20295" lon="5.68021">
        <ele>183</ele>
        <time>2019-11-13T14:16:45Z</time>
      </trkpt>
      <trkpt lat="43.20292" lon="5.68015">
        <ele>183</ele>
        <time>2019-11-13T14:16:49Z</time>
      </trkpt>
      <trkpt lat="43.20289" lon="5.68008">
        <ele>182</ele>
        <time>2019-11-13T14:16:53Z</time>
      </trkpt>
      <trkpt lat="43.20286" lon="5.68001">
        <ele>184</ele>
        <time>2019-11-13T14:16:57Z</time>
      </trkpt>
      <trkpt lat="43.20284" lon="5.67993">
        <ele>187</ele>
        <time>2019-11-13T14:17:03Z</time>
      </trkpt>
      <trkpt lat="43.20282" lon="5.67987">
        <ele>186</ele>
        <time>2019-11-13T14:17:07Z</time>
      </trkpt>
      <trkpt lat="43.2028" lon="5.6798">
        <ele>187</ele>
        <time>2019-11-13T14:17:13Z</time>
      </trkpt>
      <trkpt lat="43.20277" lon="5.67973">
        <ele>187</ele>
        <time>2019-11-13T14:17:19Z</time>
      </trkpt>
      <trkpt lat="43.20275" lon="5.67966">
        <ele>187</ele>
        <time>2019-11-13T14:17:27Z</time>
      </trkpt>
      <trkpt lat="43.20275" lon="5.6796">
        <ele>187</ele>
        <time>2019-11-13T14:17:33Z</time>
      </trkpt>
      <trkpt lat="43.20275" lon="5.67952">
        <ele>187</ele>
        <time>2019-11-13T14:17:39Z</time>
      </trkpt>
      <trkpt lat="43.20274" lon="5.67944">
        <ele>186</ele>
        <time>2019-11-13T14:17:47Z</time>
      </trkpt>
      <trkpt lat="43.20273" lon="5.67937">
        <ele>186</ele>
        <time>2019-11-13T14:17:53Z</time>
      </trkpt>
      <trkpt lat="43.20272" lon="5.67931">
        <ele>185</ele>
        <time>2019-11-13T14:18:01Z</time>
      </trkpt>
      <trkpt lat="43.20272" lon="5.67924">
        <ele>186</ele>
        <time>2019-11-13T14:18:11Z</time>
      </trkpt>
      <trkpt lat="43.20271" lon="5.67918">
        <ele>189</ele>
        <time>2019-11-13T14:18:27Z</time>
      </trkpt>
      <trkpt lat="43.20273" lon="5.67911">
        <ele>190</ele>
        <time>2019-11-13T14:18:37Z</time>
      </trkpt>
      <trkpt lat="43.20276" lon="5.67905">
        <ele>190</ele>
        <time>2019-11-13T14:18:43Z</time>
      </trkpt>
      <trkpt lat="43.20277" lon="5.67898">
        <ele>190</ele>
        <time>2019-11-13T14:18:51Z</time>
      </trkpt>
      <trkpt lat="43.2028" lon="5.67891">
        <ele>192</ele>
        <time>2019-11-13T14:18:57Z</time>
      </trkpt>
      <trkpt lat="43.20283" lon="5.67885">
        <ele>191</ele>
        <time>2019-11-13T14:19:03Z</time>
      </trkpt>
      <trkpt lat="43.20286" lon="5.67878">
        <ele>193</ele>
        <time>2019-11-13T14:19:09Z</time>
      </trkpt>
      <trkpt lat="43.20289" lon="5.67871">
        <ele>192</ele>
        <time>2019-11-13T14:19:15Z</time>
      </trkpt>
      <trkpt lat="43.20291" lon="5.67863">
        <ele>193</ele>
        <time>2019-11-13T14:19:21Z</time>
      </trkpt>
      <trkpt lat="43.20293" lon="5.67857">
        <ele>194</ele>
        <time>2019-11-13T14:19:27Z</time>
      </trkpt>
      <trkpt lat="43.20296" lon="5.67851">
        <ele>194</ele>
        <time>2019-11-13T14:19:33Z</time>
      </trkpt>
      <trkpt lat="43.203" lon="5.67846">
        <ele>194</ele>
        <time>2019-11-13T14:19:39Z</time>
      </trkpt>
      <trkpt lat="43.20304" lon="5.6784">
        <ele>192</ele>
        <time>2019-11-13T14:19:45Z</time>
      </trkpt>
      <trkpt lat="43.20307" lon="5.67835">
        <ele>193</ele>
        <time>2019-11-13T14:19:51Z</time>
      </trkpt>
      <trkpt lat="43.20312" lon="5.67831">
        <ele>194</ele>
        <time>2019-11-13T14:19:57Z</time>
      </trkpt>
      <trkpt lat="43.20317" lon="5.67828">
        <ele>194</ele>
        <time>2019-11-13T14:20:03Z</time>
      </trkpt>
      <trkpt lat="43.2032" lon="5.67822">
        <ele>194</ele>
        <time>2019-11-13T14:20:09Z</time>
      </trkpt>
      <trkpt lat="43.20323" lon="5.67814">
        <ele>194</ele>
        <time>2019-11-13T14:20:15Z</time>
      </trkpt>
      <trkpt lat="43.20326" lon="5.67808">
        <ele>194</ele>
        <time>2019-11-13T14:20:21Z</time>
      </trkpt>
      <trkpt lat="43.2033" lon="5.67803">
        <ele>195</ele>
        <time>2019-11-13T14:20:27Z</time>
      </trkpt>
      <trkpt lat="43.20334" lon="5.67797">
        <ele>195</ele>
        <time>2019-11-13T14:20:33Z</time>
      </trkpt>
      <trkpt lat="43.20338" lon="5.67792">
        <ele>195</ele>
        <time>2019-11-13T14:20:39Z</time>
      </trkpt>
      <trkpt lat="43.20342" lon="5.67788">
        <ele>196</ele>
        <time>2019-11-13T14:20:45Z</time>
      </trkpt>
      <trkpt lat="43.20346" lon="5.67784">
        <ele>196</ele>
        <time>2019-11-13T14:20:51Z</time>
      </trkpt>
      <trkpt lat="43.20349" lon="5.67778">
        <ele>194</ele>
        <time>2019-11-13T14:20:57Z</time>
      </trkpt>
      <trkpt lat="43.20353" lon="5.67772">
        <ele>193</ele>
        <time>2019-11-13T14:21:03Z</time>
      </trkpt>
      <trkpt lat="43.20357" lon="5.67765">
        <ele>194</ele>
        <time>2019-11-13T14:21:09Z</time>
      </trkpt>
      <trkpt lat="43.20361" lon="5.67759">
        <ele>194</ele>
        <time>2019-11-13T14:21:15Z</time>
      </trkpt>
      <trkpt lat="43.20363" lon="5.67751">
        <ele>192</ele>
        <time>2019-11-13T14:21:21Z</time>
      </trkpt>
      <trkpt lat="43.20366" lon="5.67744">
        <ele>196</ele>
        <time>2019-11-13T14:21:27Z</time>
      </trkpt>
      <trkpt lat="43.20367" lon="5.67736">
        <ele>195</ele>
        <time>2019-11-13T14:21:33Z</time>
      </trkpt>
      <trkpt lat="43.20367" lon="5.67728">
        <ele>194</ele>
        <time>2019-11-13T14:21:39Z</time>
      </trkpt>
      <trkpt lat="43.20368" lon="5.67722">
        <ele>194</ele>
        <time>2019-11-13T14:21:45Z</time>
      </trkpt>
      <trkpt lat="43.20369" lon="5.67714">
        <ele>192</ele>
        <time>2019-11-13T14:21:52Z</time>
      </trkpt>
      <trkpt lat="43.2037" lon="5.67707">
        <ele>189</ele>
        <time>2019-11-13T14:21:58Z</time>
      </trkpt>
      <trkpt lat="43.20374" lon="5.677">
        <ele>189</ele>
        <time>2019-11-13T14:22:06Z</time>
      </trkpt>
      <trkpt lat="43.20376" lon="5.67693">
        <ele>187</ele>
        <time>2019-11-13T14:22:12Z</time>
      </trkpt>
      <trkpt lat="43.20373" lon="5.67685">
        <ele>186</ele>
        <time>2019-11-13T14:22:18Z</time>
      </trkpt>
      <trkpt lat="43.20368" lon="5.6768">
        <ele>185</ele>
        <time>2019-11-13T14:22:22Z</time>
      </trkpt>
      <trkpt lat="43.20361" lon="5.67678">
        <ele>193</ele>
        <time>2019-11-13T14:22:28Z</time>
      </trkpt>
      <trkpt lat="43.20355" lon="5.67676">
        <ele>192</ele>
        <time>2019-11-13T14:22:34Z</time>
      </trkpt>
      <trkpt lat="43.20348" lon="5.67674">
        <ele>193</ele>
        <time>2019-11-13T14:22:40Z</time>
      </trkpt>
      <trkpt lat="43.20343" lon="5.67673">
        <ele>194</ele>
        <time>2019-11-13T14:22:44Z</time>
      </trkpt>
      <trkpt lat="43.20338" lon="5.67673">
        <ele>195</ele>
        <time>2019-11-13T14:22:48Z</time>
      </trkpt>
      <trkpt lat="43.20333" lon="5.67673">
        <ele>195</ele>
        <time>2019-11-13T14:22:52Z</time>
      </trkpt>
      <trkpt lat="43.20328" lon="5.67672">
        <ele>193</ele>
        <time>2019-11-13T14:22:58Z</time>
      </trkpt>
      <trkpt lat="43.20321" lon="5.67672">
        <ele>192</ele>
        <time>2019-11-13T14:23:04Z</time>
      </trkpt>
      <trkpt lat="43.20316" lon="5.67672">
        <ele>191</ele>
        <time>2019-11-13T14:23:08Z</time>
      </trkpt>
      <trkpt lat="43.20311" lon="5.67673">
        <ele>192</ele>
        <time>2019-11-13T14:23:12Z</time>
      </trkpt>
      <trkpt lat="43.20307" lon="5.6767">
        <ele>191</ele>
        <time>2019-11-13T14:23:18Z</time>
      </trkpt>
      <trkpt lat="43.20307" lon="5.67663">
        <ele>193</ele>
        <time>2019-11-13T14:23:30Z</time>
      </trkpt>
      <trkpt lat="43.20302" lon="5.67662">
        <ele>192</ele>
        <time>2019-11-13T14:23:38Z</time>
      </trkpt>
      <trkpt lat="43.20296" lon="5.67662">
        <ele>190</ele>
        <time>2019-11-13T14:23:44Z</time>
      </trkpt>
      <trkpt lat="43.2029" lon="5.6766">
        <ele>189</ele>
        <time>2019-11-13T14:23:52Z</time>
      </trkpt>
      <trkpt lat="43.20284" lon="5.67659">
        <ele>187</ele>
        <time>2019-11-13T14:23:58Z</time>
      </trkpt>
      <trkpt lat="43.20278" lon="5.67658">
        <ele>187</ele>
        <time>2019-11-13T14:24:04Z</time>
      </trkpt>
      <trkpt lat="43.20272" lon="5.67658">
        <ele>188</ele>
        <time>2019-11-13T14:24:10Z</time>
      </trkpt>
      <trkpt lat="43.20266" lon="5.6766">
        <ele>188</ele>
        <time>2019-11-13T14:24:14Z</time>
      </trkpt>
      <trkpt lat="43.20261" lon="5.6766">
        <ele>185</ele>
        <time>2019-11-13T14:24:22Z</time>
      </trkpt>
      <trkpt lat="43.20256" lon="5.67662">
        <ele>185</ele>
        <time>2019-11-13T14:24:28Z</time>
      </trkpt>
      <trkpt lat="43.2025" lon="5.67663">
        <ele>184</ele>
        <time>2019-11-13T14:24:34Z</time>
      </trkpt>
      <trkpt lat="43.20244" lon="5.67664">
        <ele>184</ele>
        <time>2019-11-13T14:24:40Z</time>
      </trkpt>
      <trkpt lat="43.20239" lon="5.67665">
        <ele>183</ele>
        <time>2019-11-13T14:24:44Z</time>
      </trkpt>
      <trkpt lat="43.20233" lon="5.67665">
        <ele>182</ele>
        <time>2019-11-13T14:24:50Z</time>
      </trkpt>
      <trkpt lat="43.20227" lon="5.67663">
        <ele>181</ele>
        <time>2019-11-13T14:24:56Z</time>
      </trkpt>
      <trkpt lat="43.20221" lon="5.67661">
        <ele>182</ele>
        <time>2019-11-13T14:25:02Z</time>
      </trkpt>
      <trkpt lat="43.20216" lon="5.67659">
        <ele>182</ele>
        <time>2019-11-13T14:25:08Z</time>
      </trkpt>
      <trkpt lat="43.2021" lon="5.67658">
        <ele>182</ele>
        <time>2019-11-13T14:25:14Z</time>
      </trkpt>
      <trkpt lat="43.20205" lon="5.67655">
        <ele>180</ele>
        <time>2019-11-13T14:25:20Z</time>
      </trkpt>
      <trkpt lat="43.20199" lon="5.67653">
        <ele>180</ele>
        <time>2019-11-13T14:25:26Z</time>
      </trkpt>
      <trkpt lat="43.20194" lon="5.67654">
        <ele>182</ele>
        <time>2019-11-13T14:25:30Z</time>
      </trkpt>
      <trkpt lat="43.20189" lon="5.67654">
        <ele>182</ele>
        <time>2019-11-13T14:25:34Z</time>
      </trkpt>
      <trkpt lat="43.20183" lon="5.67653">
        <ele>182</ele>
        <time>2019-11-13T14:25:40Z</time>
      </trkpt>
      <trkpt lat="43.20178" lon="5.67649">
        <ele>182</ele>
        <time>2019-11-13T14:25:46Z</time>
      </trkpt>
      <trkpt lat="43.20174" lon="5.67646">
        <ele>180</ele>
        <time>2019-11-13T14:25:52Z</time>
      </trkpt>
      <trkpt lat="43.2017" lon="5.67641">
        <ele>179</ele>
        <time>2019-11-13T14:25:58Z</time>
      </trkpt>
      <trkpt lat="43.20166" lon="5.67636">
        <ele>178</ele>
        <time>2019-11-13T14:26:04Z</time>
      </trkpt>
      <trkpt lat="43.20161" lon="5.67631">
        <ele>175</ele>
        <time>2019-11-13T14:26:10Z</time>
      </trkpt>
      <trkpt lat="43.20158" lon="5.67625">
        <ele>175</ele>
        <time>2019-11-13T14:26:16Z</time>
      </trkpt>
      <trkpt lat="43.20155" lon="5.67619">
        <ele>175</ele>
        <time>2019-11-13T14:26:20Z</time>
      </trkpt>
      <trkpt lat="43.20152" lon="5.67612">
        <ele>174</ele>
        <time>2019-11-13T14:26:26Z</time>
      </trkpt>
      <trkpt lat="43.20147" lon="5.67606">
        <ele>174</ele>
        <time>2019-11-13T14:26:32Z</time>
      </trkpt>
      <trkpt lat="43.20143" lon="5.67602">
        <ele>175</ele>
        <time>2019-11-13T14:26:36Z</time>
      </trkpt>
      <trkpt lat="43.20139" lon="5.676">
        <ele>174</ele>
        <time>2019-11-13T14:26:42Z</time>
      </trkpt>
      <trkpt lat="43.20133" lon="5.67599">
        <ele>176</ele>
        <time>2019-11-13T14:26:48Z</time>
      </trkpt>
      <trkpt lat="43.20127" lon="5.67597">
        <ele>179</ele>
        <time>2019-11-13T14:26:54Z</time>
      </trkpt>
      <trkpt lat="43.20122" lon="5.67595">
        <ele>180</ele>
        <time>2019-11-13T14:27:00Z</time>
      </trkpt>
      <trkpt lat="43.20116" lon="5.67594">
        <ele>180</ele>
        <time>2019-11-13T14:27:08Z</time>
      </trkpt>
      <trkpt lat="43.20111" lon="5.67594">
        <ele>180</ele>
        <time>2019-11-13T14:27:14Z</time>
      </trkpt>
      <trkpt lat="43.20104" lon="5.67593">
        <ele>178</ele>
        <time>2019-11-13T14:27:20Z</time>
      </trkpt>
      <trkpt lat="43.20102" lon="5.67586">
        <ele>174</ele>
        <time>2019-11-13T14:27:28Z</time>
      </trkpt>
      <trkpt lat="43.20103" lon="5.67579">
        <ele>179</ele>
        <time>2019-11-13T14:27:46Z</time>
      </trkpt>
      <trkpt lat="43.20104" lon="5.67572">
        <ele>180</ele>
        <time>2019-11-13T14:28:14Z</time>
      </trkpt>
      <trkpt lat="43.20102" lon="5.67567">
        <ele>180</ele>
        <time>2019-11-13T14:30:28Z</time>
      </trkpt>
      <trkpt lat="43.20101" lon="5.6756">
        <ele>181</ele>
        <time>2019-11-13T14:30:36Z</time>
      </trkpt>
      <trkpt lat="43.20102" lon="5.67552">
        <ele>180</ele>
        <time>2019-11-13T14:30:44Z</time>
      </trkpt>
      <trkpt lat="43.20103" lon="5.67544">
        <ele>178</ele>
        <time>2019-11-13T14:30:50Z</time>
      </trkpt>
      <trkpt lat="43.20102" lon="5.67536">
        <ele>176</ele>
        <time>2019-11-13T14:30:56Z</time>
      </trkpt>
      <trkpt lat="43.20101" lon="5.67528">
        <ele>176</ele>
        <time>2019-11-13T14:31:02Z</time>
      </trkpt>
      <trkpt lat="43.20101" lon="5.67521">
        <ele>175</ele>
        <time>2019-11-13T14:31:08Z</time>
      </trkpt>
      <trkpt lat="43.20099" lon="5.67512">
        <ele>175</ele>
        <time>2019-11-13T14:31:14Z</time>
      </trkpt>
      <trkpt lat="43.20099" lon="5.67505">
        <ele>174</ele>
        <time>2019-11-13T14:31:20Z</time>
      </trkpt>
      <trkpt lat="43.20098" lon="5.67498">
        <ele>171</ele>
        <time>2019-11-13T14:31:26Z</time>
      </trkpt>
      <trkpt lat="43.20098" lon="5.67491">
        <ele>170</ele>
        <time>2019-11-13T14:31:34Z</time>
      </trkpt>
      <trkpt lat="43.20097" lon="5.67484">
        <ele>168</ele>
        <time>2019-11-13T14:31:42Z</time>
      </trkpt>
      <trkpt lat="43.20096" lon="5.67476">
        <ele>166</ele>
        <time>2019-11-13T14:31:52Z</time>
      </trkpt>
      <trkpt lat="43.20096" lon="5.67469">
        <ele>164</ele>
        <time>2019-11-13T14:32:00Z</time>
      </trkpt>
      <trkpt lat="43.20096" lon="5.67461">
        <ele>164</ele>
        <time>2019-11-13T14:32:08Z</time>
      </trkpt>
      <trkpt lat="43.20094" lon="5.67453">
        <ele>163</ele>
        <time>2019-11-13T14:32:14Z</time>
      </trkpt>
      <trkpt lat="43.20094" lon="5.67447">
        <ele>164</ele>
        <time>2019-11-13T14:32:20Z</time>
      </trkpt>
      <trkpt lat="43.20092" lon="5.67439">
        <ele>170</ele>
        <time>2019-11-13T14:32:28Z</time>
      </trkpt>
      <trkpt lat="43.20091" lon="5.67432">
        <ele>172</ele>
        <time>2019-11-13T14:32:36Z</time>
      </trkpt>
      <trkpt lat="43.2009" lon="5.67425">
        <ele>174</ele>
        <time>2019-11-13T14:32:46Z</time>
      </trkpt>
      <trkpt lat="43.20089" lon="5.67417">
        <ele>175</ele>
        <time>2019-11-13T14:32:54Z</time>
      </trkpt>
      <trkpt lat="43.20088" lon="5.67409">
        <ele>176</ele>
        <time>2019-11-13T14:33:02Z</time>
      </trkpt>
      <trkpt lat="43.20088" lon="5.67403">
        <ele>176</ele>
        <time>2019-11-13T14:33:10Z</time>
      </trkpt>
      <trkpt lat="43.20087" lon="5.67396">
        <ele>177</ele>
        <time>2019-11-13T14:33:18Z</time>
      </trkpt>
      <trkpt lat="43.20086" lon="5.6739">
        <ele>178</ele>
        <time>2019-11-13T14:33:26Z</time>
      </trkpt>
      <trkpt lat="43.20086" lon="5.67384">
        <ele>176</ele>
        <time>2019-11-13T14:33:34Z</time>
      </trkpt>
      <trkpt lat="43.20087" lon="5.67377">
        <ele>178</ele>
        <time>2019-11-13T14:33:40Z</time>
      </trkpt>
      <trkpt lat="43.20087" lon="5.67369">
        <ele>179</ele>
        <time>2019-11-13T14:33:48Z</time>
      </trkpt>
      <trkpt lat="43.20087" lon="5.67363">
        <ele>180</ele>
        <time>2019-11-13T14:33:56Z</time>
      </trkpt>
      <trkpt lat="43.20085" lon="5.67355">
        <ele>182</ele>
        <time>2019-11-13T14:34:04Z</time>
      </trkpt>
      <trkpt lat="43.20084" lon="5.67348">
        <ele>186</ele>
        <time>2019-11-13T14:34:10Z</time>
      </trkpt>
      <trkpt lat="43.20083" lon="5.67342">
        <ele>187</ele>
        <time>2019-11-13T14:34:16Z</time>
      </trkpt>
      <trkpt lat="43.20081" lon="5.67335">
        <ele>190</ele>
        <time>2019-11-13T14:34:22Z</time>
      </trkpt>
      <trkpt lat="43.20081" lon="5.67328">
        <ele>189</ele>
        <time>2019-11-13T14:34:30Z</time>
      </trkpt>
      <trkpt lat="43.2008" lon="5.67321">
        <ele>188</ele>
        <time>2019-11-13T14:34:38Z</time>
      </trkpt>
      <trkpt lat="43.20079" lon="5.67314">
        <ele>189</ele>
        <time>2019-11-13T14:34:44Z</time>
      </trkpt>
      <trkpt lat="43.20076" lon="5.67308">
        <ele>189</ele>
        <time>2019-11-13T14:34:50Z</time>
      </trkpt>
      <trkpt lat="43.20073" lon="5.67303">
        <ele>190</ele>
        <time>2019-11-13T14:34:56Z</time>
      </trkpt>
      <trkpt lat="43.20071" lon="5.67297">
        <ele>192</ele>
        <time>2019-11-13T14:35:02Z</time>
      </trkpt>
      <trkpt lat="43.20069" lon="5.6729">
        <ele>195</ele>
        <time>2019-11-13T14:35:10Z</time>
      </trkpt>
      <trkpt lat="43.20067" lon="5.67284">
        <ele>197</ele>
        <time>2019-11-13T14:35:18Z</time>
      </trkpt>
      <trkpt lat="43.20063" lon="5.67279">
        <ele>197</ele>
        <time>2019-11-13T14:35:26Z</time>
      </trkpt>
      <trkpt lat="43.2006" lon="5.67275">
        <ele>196</ele>
        <time>2019-11-13T14:35:32Z</time>
      </trkpt>
      <trkpt lat="43.20055" lon="5.6727">
        <ele>195</ele>
        <time>2019-11-13T14:35:38Z</time>
      </trkpt>
      <trkpt lat="43.20052" lon="5.67262">
        <ele>195</ele>
        <time>2019-11-13T14:35:44Z</time>
      </trkpt>
      <trkpt lat="43.20053" lon="5.67254">
        <ele>193</ele>
        <time>2019-11-13T14:35:50Z</time>
      </trkpt>
      <trkpt lat="43.20054" lon="5.67247">
        <ele>193</ele>
        <time>2019-11-13T14:35:56Z</time>
      </trkpt>
      <trkpt lat="43.20054" lon="5.67239">
        <ele>194</ele>
        <time>2019-11-13T14:36:02Z</time>
      </trkpt>
      <trkpt lat="43.20055" lon="5.67231">
        <ele>191</ele>
        <time>2019-11-13T14:36:10Z</time>
      </trkpt>
      <trkpt lat="43.20057" lon="5.67224">
        <ele>184</ele>
        <time>2019-11-13T14:36:20Z</time>
      </trkpt>
      <trkpt lat="43.20057" lon="5.67218">
        <ele>184</ele>
        <time>2019-11-13T14:36:26Z</time>
      </trkpt>
      <trkpt lat="43.20057" lon="5.67211">
        <ele>192</ele>
        <time>2019-11-13T14:36:40Z</time>
      </trkpt>
      <trkpt lat="43.20059" lon="5.67205">
        <ele>193</ele>
        <time>2019-11-13T14:37:12Z</time>
      </trkpt>
      <trkpt lat="43.20063" lon="5.67201">
        <ele>192</ele>
        <time>2019-11-13T14:37:22Z</time>
      </trkpt>
      <trkpt lat="43.20068" lon="5.67201">
        <ele>194</ele>
        <time>2019-11-13T14:37:28Z</time>
      </trkpt>
      <trkpt lat="43.20072" lon="5.672">
        <ele>198</ele>
        <time>2019-11-13T14:37:40Z</time>
      </trkpt>
      <trkpt lat="43.20073" lon="5.67193">
        <ele>194</ele>
        <time>2019-11-13T14:38:04Z</time>
      </trkpt>
      <trkpt lat="43.20078" lon="5.67189">
        <ele>193</ele>
        <time>2019-11-13T14:38:10Z</time>
      </trkpt>
      <trkpt lat="43.20082" lon="5.67187">
        <ele>194</ele>
        <time>2019-11-13T14:38:16Z</time>
      </trkpt>
      <trkpt lat="43.20088" lon="5.67188">
        <ele>196</ele>
        <time>2019-11-13T14:38:22Z</time>
      </trkpt>
      <trkpt lat="43.20094" lon="5.67187">
        <ele>196</ele>
        <time>2019-11-13T14:38:28Z</time>
      </trkpt>
      <trkpt lat="43.20099" lon="5.67187">
        <ele>196</ele>
        <time>2019-11-13T14:38:34Z</time>
      </trkpt>
      <trkpt lat="43.20104" lon="5.67185">
        <ele>200</ele>
        <time>2019-11-13T14:38:40Z</time>
      </trkpt>
      <trkpt lat="43.2011" lon="5.67182">
        <ele>198</ele>
        <time>2019-11-13T14:38:46Z</time>
      </trkpt>
      <trkpt lat="43.20116" lon="5.67179">
        <ele>200</ele>
        <time>2019-11-13T14:38:52Z</time>
      </trkpt>
      <trkpt lat="43.20121" lon="5.67178">
        <ele>199</ele>
        <time>2019-11-13T14:38:58Z</time>
      </trkpt>
      <trkpt lat="43.20126" lon="5.67176">
        <ele>197</ele>
        <time>2019-11-13T14:39:04Z</time>
      </trkpt>
      <trkpt lat="43.20131" lon="5.67174">
        <ele>197</ele>
        <time>2019-11-13T14:39:10Z</time>
      </trkpt>
      <trkpt lat="43.20137" lon="5.67171">
        <ele>197</ele>
        <time>2019-11-13T14:39:18Z</time>
      </trkpt>
      <trkpt lat="43.20142" lon="5.67169">
        <ele>198</ele>
        <time>2019-11-13T14:39:32Z</time>
      </trkpt>
      <trkpt lat="43.20147" lon="5.67167">
        <ele>200</ele>
        <time>2019-11-13T14:39:40Z</time>
      </trkpt>
      <trkpt lat="43.20151" lon="5.67171">
        <ele>201</ele>
        <time>2019-11-13T14:39:46Z</time>
      </trkpt>
      <trkpt lat="43.20156" lon="5.67177">
        <ele>202</ele>
        <time>2019-11-13T14:39:52Z</time>
      </trkpt>
      <trkpt lat="43.20161" lon="5.67182">
        <ele>203</ele>
        <time>2019-11-13T14:39:58Z</time>
      </trkpt>
      <trkpt lat="43.20165" lon="5.67187">
        <ele>203</ele>
        <time>2019-11-13T14:40:04Z</time>
      </trkpt>
      <trkpt lat="43.2017" lon="5.67191">
        <ele>201</ele>
        <time>2019-11-13T14:40:18Z</time>
      </trkpt>
      <trkpt lat="43.20176" lon="5.67193">
        <ele>204</ele>
        <time>2019-11-13T14:40:24Z</time>
      </trkpt>
      <trkpt lat="43.20181" lon="5.67195">
        <ele>203</ele>
        <time>2019-11-13T14:40:30Z</time>
      </trkpt>
      <trkpt lat="43.20185" lon="5.67198">
        <ele>204</ele>
        <time>2019-11-13T14:40:38Z</time>
      </trkpt>
      <trkpt lat="43.20191" lon="5.672">
        <ele>206</ele>
        <time>2019-11-13T14:40:46Z</time>
      </trkpt>
      <trkpt lat="43.20197" lon="5.67201">
        <ele>205</ele>
        <time>2019-11-13T14:40:52Z</time>
      </trkpt>
      <trkpt lat="43.20202" lon="5.67201">
        <ele>205</ele>
        <time>2019-11-13T14:40:58Z</time>
      </trkpt>
      <trkpt lat="43.20209" lon="5.67201">
        <ele>204</ele>
        <time>2019-11-13T14:41:04Z</time>
      </trkpt>
      <trkpt lat="43.20214" lon="5.672">
        <ele>203</ele>
        <time>2019-11-13T14:41:08Z</time>
      </trkpt>
      <trkpt lat="43.2022" lon="5.67199">
        <ele>202</ele>
        <time>2019-11-13T14:41:14Z</time>
      </trkpt>
      <trkpt lat="43.20225" lon="5.67197">
        <ele>201</ele>
        <time>2019-11-13T14:41:20Z</time>
      </trkpt>
      <trkpt lat="43.2023" lon="5.67194">
        <ele>202</ele>
        <time>2019-11-13T14:41:26Z</time>
      </trkpt>
      <trkpt lat="43.20235" lon="5.67194">
        <ele>204</ele>
        <time>2019-11-13T14:41:30Z</time>
      </trkpt>
      <trkpt lat="43.20239" lon="5.67191">
        <ele>204</ele>
        <time>2019-11-13T14:41:36Z</time>
      </trkpt>
      <trkpt lat="43.20245" lon="5.6719">
        <ele>206</ele>
        <time>2019-11-13T14:41:42Z</time>
      </trkpt>
      <trkpt lat="43.20251" lon="5.67187">
        <ele>205</ele>
        <time>2019-11-13T14:41:48Z</time>
      </trkpt>
      <trkpt lat="43.20257" lon="5.67186">
        <ele>206</ele>
        <time>2019-11-13T14:41:54Z</time>
      </trkpt>
      <trkpt lat="43.20262" lon="5.67184">
        <ele>205</ele>
        <time>2019-11-13T14:42:00Z</time>
      </trkpt>
      <trkpt lat="43.20266" lon="5.67183">
        <ele>204</ele>
        <time>2019-11-13T14:42:06Z</time>
      </trkpt>
      <trkpt lat="43.20271" lon="5.67181">
        <ele>203</ele>
        <time>2019-11-13T14:42:12Z</time>
      </trkpt>
      <trkpt lat="43.20276" lon="5.67179">
        <ele>203</ele>
        <time>2019-11-13T14:42:18Z</time>
      </trkpt>
      <trkpt lat="43.20281" lon="5.67177">
        <ele>202</ele>
        <time>2019-11-13T14:42:24Z</time>
      </trkpt>
      <trkpt lat="43.20286" lon="5.67173">
        <ele>204</ele>
        <time>2019-11-13T14:42:30Z</time>
      </trkpt>
      <trkpt lat="43.20291" lon="5.6717">
        <ele>208</ele>
        <time>2019-11-13T14:42:34Z</time>
      </trkpt>
      <trkpt lat="43.20295" lon="5.67169">
        <ele>208</ele>
        <time>2019-11-13T14:42:38Z</time>
      </trkpt>
      <trkpt lat="43.20301" lon="5.67167">
        <ele>210</ele>
        <time>2019-11-13T14:42:44Z</time>
      </trkpt>
      <trkpt lat="43.20308" lon="5.67164">
        <ele>212</ele>
        <time>2019-11-13T14:42:50Z</time>
      </trkpt>
      <trkpt lat="43.20313" lon="5.67161">
        <ele>212</ele>
        <time>2019-11-13T14:42:56Z</time>
      </trkpt>
      <trkpt lat="43.20319" lon="5.67159">
        <ele>213</ele>
        <time>2019-11-13T14:43:02Z</time>
      </trkpt>
      <trkpt lat="43.20325" lon="5.67157">
        <ele>212</ele>
        <time>2019-11-13T14:43:08Z</time>
      </trkpt>
      <trkpt lat="43.2033" lon="5.67157">
        <ele>213</ele>
        <time>2019-11-13T14:43:14Z</time>
      </trkpt>
      <trkpt lat="43.20335" lon="5.67155">
        <ele>215</ele>
        <time>2019-11-13T14:43:20Z</time>
      </trkpt>
      <trkpt lat="43.20341" lon="5.67154">
        <ele>211</ele>
        <time>2019-11-13T14:43:26Z</time>
      </trkpt>
      <trkpt lat="43.20346" lon="5.67155">
        <ele>213</ele>
        <time>2019-11-13T14:43:30Z</time>
      </trkpt>
      <trkpt lat="43.20352" lon="5.67154">
        <ele>215</ele>
        <time>2019-11-13T14:43:36Z</time>
      </trkpt>
      <trkpt lat="43.20356" lon="5.67155">
        <ele>215</ele>
        <time>2019-11-13T14:43:44Z</time>
      </trkpt>
      <trkpt lat="43.20362" lon="5.67157">
        <ele>217</ele>
        <time>2019-11-13T14:43:50Z</time>
      </trkpt>
      <trkpt lat="43.20366" lon="5.67161">
        <ele>215</ele>
        <time>2019-11-13T14:43:56Z</time>
      </trkpt>
      <trkpt lat="43.20371" lon="5.67163">
        <ele>217</ele>
        <time>2019-11-13T14:44:04Z</time>
      </trkpt>
      <trkpt lat="43.20378" lon="5.67164">
        <ele>219</ele>
        <time>2019-11-13T14:44:10Z</time>
      </trkpt>
      <trkpt lat="43.20384" lon="5.67166">
        <ele>218</ele>
        <time>2019-11-13T14:44:16Z</time>
      </trkpt>
      <trkpt lat="43.20389" lon="5.67168">
        <ele>217</ele>
        <time>2019-11-13T14:44:20Z</time>
      </trkpt>
      <trkpt lat="43.20394" lon="5.6717">
        <ele>218</ele>
        <time>2019-11-13T14:44:24Z</time>
      </trkpt>
      <trkpt lat="43.20399" lon="5.67172">
        <ele>219</ele>
        <time>2019-11-13T14:44:30Z</time>
      </trkpt>
      <trkpt lat="43.20404" lon="5.67174">
        <ele>221</ele>
        <time>2019-11-13T14:44:36Z</time>
      </trkpt>
      <trkpt lat="43.20409" lon="5.67176">
        <ele>222</ele>
        <time>2019-11-13T14:44:44Z</time>
      </trkpt>
      <trkpt lat="43.20415" lon="5.67177">
        <ele>225</ele>
        <time>2019-11-13T14:44:52Z</time>
      </trkpt>
      <trkpt lat="43.2042" lon="5.67179">
        <ele>224</ele>
        <time>2019-11-13T14:44:58Z</time>
      </trkpt>
      <trkpt lat="43.20426" lon="5.67181">
        <ele>228</ele>
        <time>2019-11-13T14:45:04Z</time>
      </trkpt>
      <trkpt lat="43.20431" lon="5.67184">
        <ele>229</ele>
        <time>2019-11-13T14:45:10Z</time>
      </trkpt>
      <trkpt lat="43.20436" lon="5.67186">
        <ele>226</ele>
        <time>2019-11-13T14:45:16Z</time>
      </trkpt>
      <trkpt lat="43.20442" lon="5.67188">
        <ele>229</ele>
        <time>2019-11-13T14:45:22Z</time>
      </trkpt>
      <trkpt lat="43.20448" lon="5.67186">
        <ele>227</ele>
        <time>2019-11-13T14:45:28Z</time>
      </trkpt>
      <trkpt lat="43.20452" lon="5.67184">
        <ele>228</ele>
        <time>2019-11-13T14:45:32Z</time>
      </trkpt>
      <trkpt lat="43.20458" lon="5.67182">
        <ele>226</ele>
        <time>2019-11-13T14:45:38Z</time>
      </trkpt>
      <trkpt lat="43.20463" lon="5.67177">
        <ele>227</ele>
        <time>2019-11-13T14:45:44Z</time>
      </trkpt>
      <trkpt lat="43.20467" lon="5.67171">
        <ele>228</ele>
        <time>2019-11-13T14:45:50Z</time>
      </trkpt>
      <trkpt lat="43.20471" lon="5.67165">
        <ele>229</ele>
        <time>2019-11-13T14:45:56Z</time>
      </trkpt>
      <trkpt lat="43.20474" lon="5.67161">
        <ele>225</ele>
        <time>2019-11-13T14:46:02Z</time>
      </trkpt>
      <trkpt lat="43.2048" lon="5.67157">
        <ele>226</ele>
        <time>2019-11-13T14:46:08Z</time>
      </trkpt>
      <trkpt lat="43.20485" lon="5.67153">
        <ele>225</ele>
        <time>2019-11-13T14:46:14Z</time>
      </trkpt>
      <trkpt lat="43.20489" lon="5.6715">
        <ele>225</ele>
        <time>2019-11-13T14:46:18Z</time>
      </trkpt>
      <trkpt lat="43.20494" lon="5.67147">
        <ele>222</ele>
        <time>2019-11-13T14:46:24Z</time>
      </trkpt>
      <trkpt lat="43.20498" lon="5.67141">
        <ele>220</ele>
        <time>2019-11-13T14:46:30Z</time>
      </trkpt>
      <trkpt lat="43.20501" lon="5.67134">
        <ele>224</ele>
        <time>2019-11-13T14:46:36Z</time>
      </trkpt>
      <trkpt lat="43.20505" lon="5.67129">
        <ele>222</ele>
        <time>2019-11-13T14:46:42Z</time>
      </trkpt>
      <trkpt lat="43.2051" lon="5.67124">
        <ele>223</ele>
        <time>2019-11-13T14:46:48Z</time>
      </trkpt>
      <trkpt lat="43.20515" lon="5.67119">
        <ele>220</ele>
        <time>2019-11-13T14:46:54Z</time>
      </trkpt>
      <trkpt lat="43.20519" lon="5.67114">
        <ele>221</ele>
        <time>2019-11-13T14:47:00Z</time>
      </trkpt>
      <trkpt lat="43.20521" lon="5.67107">
        <ele>223</ele>
        <time>2019-11-13T14:47:06Z</time>
      </trkpt>
      <trkpt lat="43.20523" lon="5.67101">
        <ele>224</ele>
        <time>2019-11-13T14:47:10Z</time>
      </trkpt>
      <trkpt lat="43.20524" lon="5.67095">
        <ele>223</ele>
        <time>2019-11-13T14:47:14Z</time>
      </trkpt>
      <trkpt lat="43.20524" lon="5.67087">
        <ele>224</ele>
        <time>2019-11-13T14:47:18Z</time>
      </trkpt>
      <trkpt lat="43.20523" lon="5.67078">
        <ele>224</ele>
        <time>2019-11-13T14:47:22Z</time>
      </trkpt>
      <trkpt lat="43.2052" lon="5.67071">
        <ele>224</ele>
        <time>2019-11-13T14:47:26Z</time>
      </trkpt>
      <trkpt lat="43.20517" lon="5.67065">
        <ele>225</ele>
        <time>2019-11-13T14:47:30Z</time>
      </trkpt>
      <trkpt lat="43.20513" lon="5.6706">
        <ele>224</ele>
        <time>2019-11-13T14:47:34Z</time>
      </trkpt>
      <trkpt lat="43.20507" lon="5.67056">
        <ele>224</ele>
        <time>2019-11-13T14:47:40Z</time>
      </trkpt>
      <trkpt lat="43.20502" lon="5.67051">
        <ele>223</ele>
        <time>2019-11-13T14:47:46Z</time>
      </trkpt>
      <trkpt lat="43.20501" lon="5.67045">
        <ele>224</ele>
        <time>2019-11-13T14:47:50Z</time>
      </trkpt>
      <trkpt lat="43.205" lon="5.67039">
        <ele>226</ele>
        <time>2019-11-13T14:47:54Z</time>
      </trkpt>
      <trkpt lat="43.20501" lon="5.67031">
        <ele>223</ele>
        <time>2019-11-13T14:48:00Z</time>
      </trkpt>
      <trkpt lat="43.20502" lon="5.67022">
        <ele>228</ele>
        <time>2019-11-13T14:48:06Z</time>
      </trkpt>
      <trkpt lat="43.20503" lon="5.67015">
        <ele>229</ele>
        <time>2019-11-13T14:48:10Z</time>
      </trkpt>
      <trkpt lat="43.20504" lon="5.67009">
        <ele>229</ele>
        <time>2019-11-13T14:48:14Z</time>
      </trkpt>
      <trkpt lat="43.20505" lon="5.67003">
        <ele>229</ele>
        <time>2019-11-13T14:48:18Z</time>
      </trkpt>
      <trkpt lat="43.20505" lon="5.66995">
        <ele>229</ele>
        <time>2019-11-13T14:48:22Z</time>
      </trkpt>
      <trkpt lat="43.20505" lon="5.66989">
        <ele>227</ele>
        <time>2019-11-13T14:48:26Z</time>
      </trkpt>
      <trkpt lat="43.20505" lon="5.66982">
        <ele>227</ele>
        <time>2019-11-13T14:48:30Z</time>
      </trkpt>
      <trkpt lat="43.20506" lon="5.66973">
        <ele>227</ele>
        <time>2019-11-13T14:48:36Z</time>
      </trkpt>
      <trkpt lat="43.20506" lon="5.66965">
        <ele>227</ele>
        <time>2019-11-13T14:48:42Z</time>
      </trkpt>
      <trkpt lat="43.20507" lon="5.66957">
        <ele>227</ele>
        <time>2019-11-13T14:48:48Z</time>
      </trkpt>
      <trkpt lat="43.20508" lon="5.66949">
        <ele>228</ele>
        <time>2019-11-13T14:48:54Z</time>
      </trkpt>
      <trkpt lat="43.20507" lon="5.66942">
        <ele>229</ele>
        <time>2019-11-13T14:48:58Z</time>
      </trkpt>
      <trkpt lat="43.20507" lon="5.66934">
        <ele>229</ele>
        <time>2019-11-13T14:49:04Z</time>
      </trkpt>
      <trkpt lat="43.20507" lon="5.66927">
        <ele>230</ele>
        <time>2019-11-13T14:49:10Z</time>
      </trkpt>
      <trkpt lat="43.20507" lon="5.66919">
        <ele>229</ele>
        <time>2019-11-13T14:49:16Z</time>
      </trkpt>
      <trkpt lat="43.20506" lon="5.66911">
        <ele>228</ele>
        <time>2019-11-13T14:49:22Z</time>
      </trkpt>
      <trkpt lat="43.20506" lon="5.66904">
        <ele>227</ele>
        <time>2019-11-13T14:49:26Z</time>
      </trkpt>
      <trkpt lat="43.20505" lon="5.66897">
        <ele>226</ele>
        <time>2019-11-13T14:49:30Z</time>
      </trkpt>
      <trkpt lat="43.20505" lon="5.6689">
        <ele>222</ele>
        <time>2019-11-13T14:49:36Z</time>
      </trkpt>
      <trkpt lat="43.20506" lon="5.66883">
        <ele>223</ele>
        <time>2019-11-13T14:49:40Z</time>
      </trkpt>
      <trkpt lat="43.20506" lon="5.66877">
        <ele>224</ele>
        <time>2019-11-13T14:49:44Z</time>
      </trkpt>
      <trkpt lat="43.20507" lon="5.6687">
        <ele>223</ele>
        <time>2019-11-13T14:49:48Z</time>
      </trkpt>
      <trkpt lat="43.20507" lon="5.66864">
        <ele>222</ele>
        <time>2019-11-13T14:49:52Z</time>
      </trkpt>
      <trkpt lat="43.20507" lon="5.66855">
        <ele>221</ele>
        <time>2019-11-13T14:49:58Z</time>
      </trkpt>
      <trkpt lat="43.20504" lon="5.66849">
        <ele>222</ele>
        <time>2019-11-13T14:50:02Z</time>
      </trkpt>
      <trkpt lat="43.20501" lon="5.66844">
        <ele>222</ele>
        <time>2019-11-13T14:50:06Z</time>
      </trkpt>
      <trkpt lat="43.20497" lon="5.66839">
        <ele>222</ele>
        <time>2019-11-13T14:50:12Z</time>
      </trkpt>
      <trkpt lat="43.20493" lon="5.66835">
        <ele>223</ele>
        <time>2019-11-13T14:50:16Z</time>
      </trkpt>
      <trkpt lat="43.20486" lon="5.66831">
        <ele>224</ele>
        <time>2019-11-13T14:50:22Z</time>
      </trkpt>
      <trkpt lat="43.20481" lon="5.66829">
        <ele>223</ele>
        <time>2019-11-13T14:50:28Z</time>
      </trkpt>
      <trkpt lat="43.20476" lon="5.66827">
        <ele>221</ele>
        <time>2019-11-13T14:50:34Z</time>
      </trkpt>
      <trkpt lat="43.20471" lon="5.66825">
        <ele>222</ele>
        <time>2019-11-13T14:50:38Z</time>
      </trkpt>
      <trkpt lat="43.20466" lon="5.66823">
        <ele>222</ele>
        <time>2019-11-13T14:50:42Z</time>
      </trkpt>
      <trkpt lat="43.2046" lon="5.66819">
        <ele>224</ele>
        <time>2019-11-13T14:50:48Z</time>
      </trkpt>
      <trkpt lat="43.20455" lon="5.66819">
        <ele>223</ele>
        <time>2019-11-13T14:50:52Z</time>
      </trkpt>
      <trkpt lat="43.20451" lon="5.66819">
        <ele>225</ele>
        <time>2019-11-13T14:50:56Z</time>
      </trkpt>
      <trkpt lat="43.20445" lon="5.66818">
        <ele>224</ele>
        <time>2019-11-13T14:51:00Z</time>
      </trkpt>
      <trkpt lat="43.20439" lon="5.66816">
        <ele>223</ele>
        <time>2019-11-13T14:51:06Z</time>
      </trkpt>
      <trkpt lat="43.20435" lon="5.66814">
        <ele>223</ele>
        <time>2019-11-13T14:51:10Z</time>
      </trkpt>
      <trkpt lat="43.20429" lon="5.66811">
        <ele>222</ele>
        <time>2019-11-13T14:51:16Z</time>
      </trkpt>
      <trkpt lat="43.20424" lon="5.66809">
        <ele>221</ele>
        <time>2019-11-13T14:51:22Z</time>
      </trkpt>
      <trkpt lat="43.20418" lon="5.66805">
        <ele>221</ele>
        <time>2019-11-13T14:51:28Z</time>
      </trkpt>
      <trkpt lat="43.20414" lon="5.66802">
        <ele>220</ele>
        <time>2019-11-13T14:51:32Z</time>
      </trkpt>
      <trkpt lat="43.20407" lon="5.66798">
        <ele>222</ele>
        <time>2019-11-13T14:51:36Z</time>
      </trkpt>
      <trkpt lat="43.20404" lon="5.66792">
        <ele>222</ele>
        <time>2019-11-13T14:51:40Z</time>
      </trkpt>
      <trkpt lat="43.204" lon="5.66787">
        <ele>221</ele>
        <time>2019-11-13T14:51:44Z</time>
      </trkpt>
      <trkpt lat="43.20396" lon="5.66783">
        <ele>222</ele>
        <time>2019-11-13T14:51:48Z</time>
      </trkpt>
      <trkpt lat="43.20392" lon="5.66779">
        <ele>224</ele>
        <time>2019-11-13T14:51:52Z</time>
      </trkpt>
      <trkpt lat="43.20387" lon="5.66774">
        <ele>226</ele>
        <time>2019-11-13T14:51:56Z</time>
      </trkpt>
      <trkpt lat="43.20383" lon="5.6677">
        <ele>227</ele>
        <time>2019-11-13T14:52:00Z</time>
      </trkpt>
      <trkpt lat="43.20378" lon="5.66764">
        <ele>226</ele>
        <time>2019-11-13T14:52:06Z</time>
      </trkpt>
      <trkpt lat="43.20372" lon="5.66761">
        <ele>224</ele>
        <time>2019-11-13T14:52:12Z</time>
      </trkpt>
      <trkpt lat="43.20368" lon="5.66759">
        <ele>224</ele>
        <time>2019-11-13T14:52:16Z</time>
      </trkpt>
      <trkpt lat="43.20362" lon="5.66755">
        <ele>223</ele>
        <time>2019-11-13T14:52:22Z</time>
      </trkpt>
      <trkpt lat="43.20357" lon="5.66751">
        <ele>222</ele>
        <time>2019-11-13T14:52:28Z</time>
      </trkpt>
      <trkpt lat="43.20352" lon="5.66748">
        <ele>223</ele>
        <time>2019-11-13T14:52:32Z</time>
      </trkpt>
      <trkpt lat="43.20349" lon="5.66743">
        <ele>224</ele>
        <time>2019-11-13T14:52:36Z</time>
      </trkpt>
      <trkpt lat="43.20344" lon="5.66738">
        <ele>226</ele>
        <time>2019-11-13T14:52:42Z</time>
      </trkpt>
      <trkpt lat="43.20341" lon="5.66733">
        <ele>225</ele>
        <time>2019-11-13T14:52:48Z</time>
      </trkpt>
      <trkpt lat="43.2034" lon="5.66726">
        <ele>224</ele>
        <time>2019-11-13T14:52:54Z</time>
      </trkpt>
      <trkpt lat="43.20338" lon="5.66717">
        <ele>224</ele>
        <time>2019-11-13T14:53:00Z</time>
      </trkpt>
      <trkpt lat="43.20338" lon="5.66709">
        <ele>224</ele>
        <time>2019-11-13T14:53:04Z</time>
      </trkpt>
      <trkpt lat="43.20337" lon="5.66702">
        <ele>222</ele>
        <time>2019-11-13T14:53:08Z</time>
      </trkpt>
      <trkpt lat="43.20336" lon="5.66695">
        <ele>220</ele>
        <time>2019-11-13T14:53:14Z</time>
      </trkpt>
      <trkpt lat="43.20335" lon="5.66688">
        <ele>221</ele>
        <time>2019-11-13T14:53:18Z</time>
      </trkpt>
      <trkpt lat="43.20333" lon="5.6668">
        <ele>223</ele>
        <time>2019-11-13T14:53:22Z</time>
      </trkpt>
      <trkpt lat="43.20333" lon="5.66674">
        <ele>221</ele>
        <time>2019-11-13T14:53:26Z</time>
      </trkpt>
      <trkpt lat="43.20332" lon="5.66667">
        <ele>219</ele>
        <time>2019-11-13T14:53:32Z</time>
      </trkpt>
      <trkpt lat="43.2033" lon="5.66661">
        <ele>220</ele>
        <time>2019-11-13T14:53:36Z</time>
      </trkpt>
      <trkpt lat="43.20329" lon="5.66652">
        <ele>221</ele>
        <time>2019-11-13T14:53:42Z</time>
      </trkpt>
      <trkpt lat="43.20328" lon="5.66644">
        <ele>220</ele>
        <time>2019-11-13T14:53:48Z</time>
      </trkpt>
      <trkpt lat="43.20329" lon="5.66636">
        <ele>218</ele>
        <time>2019-11-13T14:53:54Z</time>
      </trkpt>
      <trkpt lat="43.20329" lon="5.66629">
        <ele>216</ele>
        <time>2019-11-13T14:54:00Z</time>
      </trkpt>
      <trkpt lat="43.2033" lon="5.66622">
        <ele>213</ele>
        <time>2019-11-13T14:54:06Z</time>
      </trkpt>
      <trkpt lat="43.20329" lon="5.66613">
        <ele>214</ele>
        <time>2019-11-13T14:54:12Z</time>
      </trkpt>
      <trkpt lat="43.20329" lon="5.66607">
        <ele>214</ele>
        <time>2019-11-13T14:54:16Z</time>
      </trkpt>
      <trkpt lat="43.20329" lon="5.666">
        <ele>217</ele>
        <time>2019-11-13T14:54:20Z</time>
      </trkpt>
      <trkpt lat="43.2033" lon="5.66593">
        <ele>218</ele>
        <time>2019-11-13T14:54:24Z</time>
      </trkpt>
      <trkpt lat="43.20331" lon="5.66586">
        <ele>219</ele>
        <time>2019-11-13T14:54:28Z</time>
      </trkpt>
      <trkpt lat="43.20332" lon="5.66578">
        <ele>216</ele>
        <time>2019-11-13T14:54:34Z</time>
      </trkpt>
      <trkpt lat="43.20335" lon="5.66571">
        <ele>215</ele>
        <time>2019-11-13T14:54:40Z</time>
      </trkpt>
      <trkpt lat="43.20337" lon="5.66564">
        <ele>215</ele>
        <time>2019-11-13T14:54:46Z</time>
      </trkpt>
      <trkpt lat="43.20336" lon="5.66555">
        <ele>214</ele>
        <time>2019-11-13T14:54:52Z</time>
      </trkpt>
      <trkpt lat="43.20335" lon="5.66548">
        <ele>215</ele>
        <time>2019-11-13T14:54:56Z</time>
      </trkpt>
      <trkpt lat="43.20335" lon="5.66542">
        <ele>215</ele>
        <time>2019-11-13T14:55:00Z</time>
      </trkpt>
      <trkpt lat="43.20335" lon="5.66533">
        <ele>215</ele>
        <time>2019-11-13T14:55:06Z</time>
      </trkpt>
      <trkpt lat="43.20334" lon="5.66527">
        <ele>215</ele>
        <time>2019-11-13T14:55:10Z</time>
      </trkpt>
      <trkpt lat="43.20334" lon="5.6652">
        <ele>217</ele>
        <time>2019-11-13T14:55:14Z</time>
      </trkpt>
      <trkpt lat="43.20333" lon="5.66514">
        <ele>217</ele>
        <time>2019-11-13T14:55:18Z</time>
      </trkpt>
      <trkpt lat="43.20333" lon="5.66508">
        <ele>218</ele>
        <time>2019-11-13T14:55:22Z</time>
      </trkpt>
      <trkpt lat="43.20335" lon="5.665">
        <ele>217</ele>
        <time>2019-11-13T14:55:28Z</time>
      </trkpt>
      <trkpt lat="43.20338" lon="5.66493">
        <ele>218</ele>
        <time>2019-11-13T14:55:34Z</time>
      </trkpt>
      <trkpt lat="43.20342" lon="5.66485">
        <ele>219</ele>
        <time>2019-11-13T14:55:40Z</time>
      </trkpt>
      <trkpt lat="43.20346" lon="5.66479">
        <ele>221</ele>
        <time>2019-11-13T14:55:46Z</time>
      </trkpt>
      <trkpt lat="43.20351" lon="5.66474">
        <ele>221</ele>
        <time>2019-11-13T14:55:52Z</time>
      </trkpt>
      <trkpt lat="43.20354" lon="5.66468">
        <ele>223</ele>
        <time>2019-11-13T14:55:58Z</time>
      </trkpt>
      <trkpt lat="43.20354" lon="5.66462">
        <ele>224</ele>
        <time>2019-11-13T14:56:04Z</time>
      </trkpt>
      <trkpt lat="43.20353" lon="5.66454">
        <ele>223</ele>
        <time>2019-11-13T14:56:10Z</time>
      </trkpt>
      <trkpt lat="43.20351" lon="5.66446">
        <ele>223</ele>
        <time>2019-11-13T14:56:16Z</time>
      </trkpt>
      <trkpt lat="43.20347" lon="5.66441">
        <ele>223</ele>
        <time>2019-11-13T14:56:22Z</time>
      </trkpt>
      <trkpt lat="43.20344" lon="5.66435">
        <ele>223</ele>
        <time>2019-11-13T14:56:28Z</time>
      </trkpt>
      <trkpt lat="43.20342" lon="5.66429">
        <ele>222</ele>
        <time>2019-11-13T14:56:34Z</time>
      </trkpt>
      <trkpt lat="43.20339" lon="5.66423">
        <ele>220</ele>
        <time>2019-11-13T14:56:40Z</time>
      </trkpt>
      <trkpt lat="43.20336" lon="5.66417">
        <ele>219</ele>
        <time>2019-11-13T14:56:46Z</time>
      </trkpt>
      <trkpt lat="43.20332" lon="5.66413">
        <ele>216</ele>
        <time>2019-11-13T14:56:52Z</time>
      </trkpt>
      <trkpt lat="43.20327" lon="5.66411">
        <ele>216</ele>
        <time>2019-11-13T14:56:56Z</time>
      </trkpt>
      <trkpt lat="43.20322" lon="5.66408">
        <ele>215</ele>
        <time>2019-11-13T14:57:02Z</time>
      </trkpt>
      <trkpt lat="43.20317" lon="5.664">
        <ele>215</ele>
        <time>2019-11-13T14:57:08Z</time>
      </trkpt>
      <trkpt lat="43.20312" lon="5.66395">
        <ele>216</ele>
        <time>2019-11-13T14:57:12Z</time>
      </trkpt>
      <trkpt lat="43.20307" lon="5.66391">
        <ele>217</ele>
        <time>2019-11-13T14:57:16Z</time>
      </trkpt>
      <trkpt lat="43.20304" lon="5.66387">
        <ele>219</ele>
        <time>2019-11-13T14:57:20Z</time>
      </trkpt>
      <trkpt lat="43.20299" lon="5.66385">
        <ele>220</ele>
        <time>2019-11-13T14:57:24Z</time>
      </trkpt>
      <trkpt lat="43.20295" lon="5.66382">
        <ele>221</ele>
        <time>2019-11-13T14:57:28Z</time>
      </trkpt>
      <trkpt lat="43.2029" lon="5.66381">
        <ele>222</ele>
        <time>2019-11-13T14:57:32Z</time>
      </trkpt>
      <trkpt lat="43.20284" lon="5.66379">
        <ele>222</ele>
        <time>2019-11-13T14:57:38Z</time>
      </trkpt>
      <trkpt lat="43.20278" lon="5.66374">
        <ele>222</ele>
        <time>2019-11-13T14:57:44Z</time>
      </trkpt>
      <trkpt lat="43.20274" lon="5.66371">
        <ele>221</ele>
        <time>2019-11-13T14:57:48Z</time>
      </trkpt>
      <trkpt lat="43.20268" lon="5.66367">
        <ele>221</ele>
        <time>2019-11-13T14:57:54Z</time>
      </trkpt>
      <trkpt lat="43.20262" lon="5.66364">
        <ele>220</ele>
        <time>2019-11-13T14:58:00Z</time>
      </trkpt>
      <trkpt lat="43.20256" lon="5.66362">
        <ele>218</ele>
        <time>2019-11-13T14:58:06Z</time>
      </trkpt>
      <trkpt lat="43.20251" lon="5.6636">
        <ele>217</ele>
        <time>2019-11-13T14:58:12Z</time>
      </trkpt>
      <trkpt lat="43.20246" lon="5.66358">
        <ele>215</ele>
        <time>2019-11-13T14:58:18Z</time>
      </trkpt>
      <trkpt lat="43.20242" lon="5.66355">
        <ele>214</ele>
        <time>2019-11-13T14:58:24Z</time>
      </trkpt>
      <trkpt lat="43.20236" lon="5.66357">
        <ele>214</ele>
        <time>2019-11-13T14:58:28Z</time>
      </trkpt>
      <trkpt lat="43.2023" lon="5.66356">
        <ele>214</ele>
        <time>2019-11-13T14:58:32Z</time>
      </trkpt>
      <trkpt lat="43.20226" lon="5.66353">
        <ele>213</ele>
        <time>2019-11-13T14:58:36Z</time>
      </trkpt>
      <trkpt lat="43.20221" lon="5.66348">
        <ele>213</ele>
        <time>2019-11-13T14:58:42Z</time>
      </trkpt>
      <trkpt lat="43.20216" lon="5.66343">
        <ele>213</ele>
        <time>2019-11-13T14:58:48Z</time>
      </trkpt>
      <trkpt lat="43.2021" lon="5.66342">
        <ele>212</ele>
        <time>2019-11-13T14:58:54Z</time>
      </trkpt>
      <trkpt lat="43.20204" lon="5.66339">
        <ele>210</ele>
        <time>2019-11-13T14:59:02Z</time>
      </trkpt>
      <trkpt lat="43.20197" lon="5.66337">
        <ele>210</ele>
        <time>2019-11-13T14:59:08Z</time>
      </trkpt>
      <trkpt lat="43.20192" lon="5.66337">
        <ele>211</ele>
        <time>2019-11-13T14:59:12Z</time>
      </trkpt>
      <trkpt lat="43.20187" lon="5.66337">
        <ele>210</ele>
        <time>2019-11-13T14:59:16Z</time>
      </trkpt>
      <trkpt lat="43.20182" lon="5.66336">
        <ele>210</ele>
        <time>2019-11-13T14:59:20Z</time>
      </trkpt>
      <trkpt lat="43.20176" lon="5.66335">
        <ele>210</ele>
        <time>2019-11-13T14:59:24Z</time>
      </trkpt>
      <trkpt lat="43.20171" lon="5.66333">
        <ele>208</ele>
        <time>2019-11-13T14:59:30Z</time>
      </trkpt>
      <trkpt lat="43.20165" lon="5.66331">
        <ele>207</ele>
        <time>2019-11-13T14:59:36Z</time>
      </trkpt>
      <trkpt lat="43.2016" lon="5.66329">
        <ele>208</ele>
        <time>2019-11-13T14:59:40Z</time>
      </trkpt>
      <trkpt lat="43.20155" lon="5.66328">
        <ele>208</ele>
        <time>2019-11-13T14:59:44Z</time>
      </trkpt>
      <trkpt lat="43.2015" lon="5.66327">
        <ele>208</ele>
        <time>2019-11-13T14:59:48Z</time>
      </trkpt>
      <trkpt lat="43.20146" lon="5.66324">
        <ele>207</ele>
        <time>2019-11-13T14:59:52Z</time>
      </trkpt>
      <trkpt lat="43.2014" lon="5.66324">
        <ele>207</ele>
        <time>2019-11-13T14:59:56Z</time>
      </trkpt>
      <trkpt lat="43.20136" lon="5.66323">
        <ele>207</ele>
        <time>2019-11-13T15:00:00Z</time>
      </trkpt>
      <trkpt lat="43.2013" lon="5.6632">
        <ele>205</ele>
        <time>2019-11-13T15:00:06Z</time>
      </trkpt>
      <trkpt lat="43.20124" lon="5.66319">
        <ele>205</ele>
        <time>2019-11-13T15:00:12Z</time>
      </trkpt>
      <trkpt lat="43.20118" lon="5.6632">
        <ele>205</ele>
        <time>2019-11-13T15:00:16Z</time>
      </trkpt>
      <trkpt lat="43.20111" lon="5.66319">
        <ele>205</ele>
        <time>2019-11-13T15:00:22Z</time>
      </trkpt>
      <trkpt lat="43.20106" lon="5.66318">
        <ele>204</ele>
        <time>2019-11-13T15:00:26Z</time>
      </trkpt>
      <trkpt lat="43.20102" lon="5.66319">
        <ele>203</ele>
        <time>2019-11-13T15:00:30Z</time>
      </trkpt>
      <trkpt lat="43.20096" lon="5.66318">
        <ele>201</ele>
        <time>2019-11-13T15:00:36Z</time>
      </trkpt>
      <trkpt lat="43.20092" lon="5.66316">
        <ele>201</ele>
        <time>2019-11-13T15:00:42Z</time>
      </trkpt>
      <trkpt lat="43.20087" lon="5.66315">
        <ele>200</ele>
        <time>2019-11-13T15:00:48Z</time>
      </trkpt>
      <trkpt lat="43.20082" lon="5.66315">
        <ele>199</ele>
        <time>2019-11-13T15:00:52Z</time>
      </trkpt>
      <trkpt lat="43.20076" lon="5.66315">
        <ele>199</ele>
        <time>2019-11-13T15:00:56Z</time>
      </trkpt>
      <trkpt lat="43.2007" lon="5.66316">
        <ele>199</ele>
        <time>2019-11-13T15:01:00Z</time>
      </trkpt>
      <trkpt lat="43.20065" lon="5.66315">
        <ele>199</ele>
        <time>2019-11-13T15:01:04Z</time>
      </trkpt>
      <trkpt lat="43.2006" lon="5.66314">
        <ele>199</ele>
        <time>2019-11-13T15:01:08Z</time>
      </trkpt>
      <trkpt lat="43.20054" lon="5.66313">
        <ele>200</ele>
        <time>2019-11-13T15:01:12Z</time>
      </trkpt>
      <trkpt lat="43.2005" lon="5.66311">
        <ele>201</ele>
        <time>2019-11-13T15:01:16Z</time>
      </trkpt>
      <trkpt lat="43.20044" lon="5.66307">
        <ele>200</ele>
        <time>2019-11-13T15:01:22Z</time>
      </trkpt>
      <trkpt lat="43.20039" lon="5.66301">
        <ele>198</ele>
        <time>2019-11-13T15:01:28Z</time>
      </trkpt>
      <trkpt lat="43.20034" lon="5.66297">
        <ele>198</ele>
        <time>2019-11-13T15:01:34Z</time>
      </trkpt>
      <trkpt lat="43.20029" lon="5.66295">
        <ele>197</ele>
        <time>2019-11-13T15:01:38Z</time>
      </trkpt>
      <trkpt lat="43.20024" lon="5.66294">
        <ele>196</ele>
        <time>2019-11-13T15:01:42Z</time>
      </trkpt>
      <trkpt lat="43.20019" lon="5.6629">
        <ele>194</ele>
        <time>2019-11-13T15:01:48Z</time>
      </trkpt>
      <trkpt lat="43.20013" lon="5.66287">
        <ele>195</ele>
        <time>2019-11-13T15:01:54Z</time>
      </trkpt>
      <trkpt lat="43.20007" lon="5.66284">
        <ele>193</ele>
        <time>2019-11-13T15:02:00Z</time>
      </trkpt>
      <trkpt lat="43.20002" lon="5.66279">
        <ele>193</ele>
        <time>2019-11-13T15:02:06Z</time>
      </trkpt>
      <trkpt lat="43.19996" lon="5.66276">
        <ele>191</ele>
        <time>2019-11-13T15:02:12Z</time>
      </trkpt>
      <trkpt lat="43.19991" lon="5.66274">
        <ele>191</ele>
        <time>2019-11-13T15:02:16Z</time>
      </trkpt>
      <trkpt lat="43.19986" lon="5.66273">
        <ele>191</ele>
        <time>2019-11-13T15:02:20Z</time>
      </trkpt>
      <trkpt lat="43.1998" lon="5.66272">
        <ele>192</ele>
        <time>2019-11-13T15:02:24Z</time>
      </trkpt>
      <trkpt lat="43.19975" lon="5.6627">
        <ele>190</ele>
        <time>2019-11-13T15:02:28Z</time>
      </trkpt>
      <trkpt lat="43.1997" lon="5.66269">
        <ele>189</ele>
        <time>2019-11-13T15:02:32Z</time>
      </trkpt>
      <trkpt lat="43.19965" lon="5.66267">
        <ele>189</ele>
        <time>2019-11-13T15:02:36Z</time>
      </trkpt>
      <trkpt lat="43.19961" lon="5.66262">
        <ele>189</ele>
        <time>2019-11-13T15:02:40Z</time>
      </trkpt>
      <trkpt lat="43.19957" lon="5.66257">
        <ele>188</ele>
        <time>2019-11-13T15:02:44Z</time>
      </trkpt>
      <trkpt lat="43.19953" lon="5.66254">
        <ele>188</ele>
        <time>2019-11-13T15:02:48Z</time>
      </trkpt>
      <trkpt lat="43.19949" lon="5.66252">
        <ele>188</ele>
        <time>2019-11-13T15:02:52Z</time>
      </trkpt>
      <trkpt lat="43.19944" lon="5.6625">
        <ele>188</ele>
        <time>2019-11-13T15:02:56Z</time>
      </trkpt>
      <trkpt lat="43.19939" lon="5.66249">
        <ele>187</ele>
        <time>2019-11-13T15:03:00Z</time>
      </trkpt>
      <trkpt lat="43.19934" lon="5.66247">
        <ele>187</ele>
        <time>2019-11-13T15:03:04Z</time>
      </trkpt>
      <trkpt lat="43.19929" lon="5.66246">
        <ele>186</ele>
        <time>2019-11-13T15:03:08Z</time>
      </trkpt>
      <trkpt lat="43.19923" lon="5.66245">
        <ele>184</ele>
        <time>2019-11-13T15:03:14Z</time>
      </trkpt>
      <trkpt lat="43.19917" lon="5.66246">
        <ele>185</ele>
        <time>2019-11-13T15:03:20Z</time>
      </trkpt>
      <trkpt lat="43.19911" lon="5.66245">
        <ele>183</ele>
        <time>2019-11-13T15:03:26Z</time>
      </trkpt>
      <trkpt lat="43.19905" lon="5.66245">
        <ele>181</ele>
        <time>2019-11-13T15:03:32Z</time>
      </trkpt>
      <trkpt lat="43.199" lon="5.66245">
        <ele>180</ele>
        <time>2019-11-13T15:03:36Z</time>
      </trkpt>
      <trkpt lat="43.19895" lon="5.66246">
        <ele>180</ele>
        <time>2019-11-13T15:03:40Z</time>
      </trkpt>
      <trkpt lat="43.1989" lon="5.66246">
        <ele>179</ele>
        <time>2019-11-13T15:03:44Z</time>
      </trkpt>
      <trkpt lat="43.19884" lon="5.66246">
        <ele>177</ele>
        <time>2019-11-13T15:03:50Z</time>
      </trkpt>
      <trkpt lat="43.19877" lon="5.66246">
        <ele>176</ele>
        <time>2019-11-13T15:03:56Z</time>
      </trkpt>
      <trkpt lat="43.1987" lon="5.66246">
        <ele>176</ele>
        <time>2019-11-13T15:04:02Z</time>
      </trkpt>
      <trkpt lat="43.19865" lon="5.66246">
        <ele>175</ele>
        <time>2019-11-13T15:04:06Z</time>
      </trkpt>
      <trkpt lat="43.19859" lon="5.66244">
        <ele>175</ele>
        <time>2019-11-13T15:04:12Z</time>
      </trkpt>
      <trkpt lat="43.19854" lon="5.66241">
        <ele>173</ele>
        <time>2019-11-13T15:04:18Z</time>
      </trkpt>
      <trkpt lat="43.19848" lon="5.66239">
        <ele>172</ele>
        <time>2019-11-13T15:04:24Z</time>
      </trkpt>
      <trkpt lat="43.19842" lon="5.66239">
        <ele>173</ele>
        <time>2019-11-13T15:04:28Z</time>
      </trkpt>
      <trkpt lat="43.19836" lon="5.66241">
        <ele>174</ele>
        <time>2019-11-13T15:04:32Z</time>
      </trkpt>
      <trkpt lat="43.19831" lon="5.66243">
        <ele>174</ele>
        <time>2019-11-13T15:04:36Z</time>
      </trkpt>
      <trkpt lat="43.19826" lon="5.66243">
        <ele>174</ele>
        <time>2019-11-13T15:04:40Z</time>
      </trkpt>
      <trkpt lat="43.19819" lon="5.66241">
        <ele>174</ele>
        <time>2019-11-13T15:04:46Z</time>
      </trkpt>
      <trkpt lat="43.19815" lon="5.66239">
        <ele>174</ele>
        <time>2019-11-13T15:04:50Z</time>
      </trkpt>
      <trkpt lat="43.1981" lon="5.66237">
        <ele>173</ele>
        <time>2019-11-13T15:04:54Z</time>
      </trkpt>
      <trkpt lat="43.19806" lon="5.66236">
        <ele>172</ele>
        <time>2019-11-13T15:04:58Z</time>
      </trkpt>
      <trkpt lat="43.19799" lon="5.66236">
        <ele>172</ele>
        <time>2019-11-13T15:05:04Z</time>
      </trkpt>
      <trkpt lat="43.19793" lon="5.66237">
        <ele>171</ele>
        <time>2019-11-13T15:05:10Z</time>
      </trkpt>
      <trkpt lat="43.19786" lon="5.66235">
        <ele>170</ele>
        <time>2019-11-13T15:05:16Z</time>
      </trkpt>
      <trkpt lat="43.19781" lon="5.66235">
        <ele>170</ele>
        <time>2019-11-13T15:05:20Z</time>
      </trkpt>
      <trkpt lat="43.19775" lon="5.66232">
        <ele>169</ele>
        <time>2019-11-13T15:05:26Z</time>
      </trkpt>
      <trkpt lat="43.19771" lon="5.6623">
        <ele>169</ele>
        <time>2019-11-13T15:05:30Z</time>
      </trkpt>
      <trkpt lat="43.19766" lon="5.66228">
        <ele>169</ele>
        <time>2019-11-13T15:05:34Z</time>
      </trkpt>
      <trkpt lat="43.19762" lon="5.66226">
        <ele>167</ele>
        <time>2019-11-13T15:05:38Z</time>
      </trkpt>
      <trkpt lat="43.19756" lon="5.66222">
        <ele>166</ele>
        <time>2019-11-13T15:05:44Z</time>
      </trkpt>
      <trkpt lat="43.1975" lon="5.66219">
        <ele>166</ele>
        <time>2019-11-13T15:05:50Z</time>
      </trkpt>
      <trkpt lat="43.19744" lon="5.66217">
        <ele>165</ele>
        <time>2019-11-13T15:05:56Z</time>
      </trkpt>
      <trkpt lat="43.1974" lon="5.66214">
        <ele>165</ele>
        <time>2019-11-13T15:06:00Z</time>
      </trkpt>
      <trkpt lat="43.19736" lon="5.66211">
        <ele>164</ele>
        <time>2019-11-13T15:06:04Z</time>
      </trkpt>
      <trkpt lat="43.1973" lon="5.66207">
        <ele>163</ele>
        <time>2019-11-13T15:06:10Z</time>
      </trkpt>
      <trkpt lat="43.19726" lon="5.66203">
        <ele>162</ele>
        <time>2019-11-13T15:06:14Z</time>
      </trkpt>
      <trkpt lat="43.19722" lon="5.66197">
        <ele>161</ele>
        <time>2019-11-13T15:06:20Z</time>
      </trkpt>
      <trkpt lat="43.19717" lon="5.66191">
        <ele>160</ele>
        <time>2019-11-13T15:06:26Z</time>
      </trkpt>
      <trkpt lat="43.19712" lon="5.66186">
        <ele>159</ele>
        <time>2019-11-13T15:06:32Z</time>
      </trkpt>
      <trkpt lat="43.19706" lon="5.66184">
        <ele>158</ele>
        <time>2019-11-13T15:06:38Z</time>
      </trkpt>
      <trkpt lat="43.197" lon="5.66183">
        <ele>156</ele>
        <time>2019-11-13T15:06:44Z</time>
      </trkpt>
      <trkpt lat="43.19695" lon="5.66184">
        <ele>156</ele>
        <time>2019-11-13T15:06:48Z</time>
      </trkpt>
      <trkpt lat="43.19689" lon="5.66183">
        <ele>154</ele>
        <time>2019-11-13T15:06:54Z</time>
      </trkpt>
      <trkpt lat="43.19683" lon="5.66183">
        <ele>155</ele>
        <time>2019-11-13T15:06:58Z</time>
      </trkpt>
      <trkpt lat="43.19678" lon="5.66182">
        <ele>153</ele>
        <time>2019-11-13T15:07:04Z</time>
      </trkpt>
      <trkpt lat="43.19672" lon="5.66181">
        <ele>151</ele>
        <time>2019-11-13T15:07:10Z</time>
      </trkpt>
      <trkpt lat="43.19665" lon="5.66181">
        <ele>151</ele>
        <time>2019-11-13T15:07:16Z</time>
      </trkpt>
      <trkpt lat="43.19659" lon="5.66182">
        <ele>151</ele>
        <time>2019-11-13T15:07:20Z</time>
      </trkpt>
      <trkpt lat="43.19654" lon="5.66183">
        <ele>151</ele>
        <time>2019-11-13T15:07:24Z</time>
      </trkpt>
      <trkpt lat="43.19648" lon="5.66183">
        <ele>150</ele>
        <time>2019-11-13T15:07:30Z</time>
      </trkpt>
      <trkpt lat="43.19642" lon="5.66184">
        <ele>150</ele>
        <time>2019-11-13T15:07:34Z</time>
      </trkpt>
      <trkpt lat="43.19635" lon="5.66186">
        <ele>151</ele>
        <time>2019-11-13T15:07:38Z</time>
      </trkpt>
      <trkpt lat="43.19629" lon="5.66183">
        <ele>151</ele>
        <time>2019-11-13T15:07:42Z</time>
      </trkpt>
      <trkpt lat="43.19626" lon="5.66178">
        <ele>150</ele>
        <time>2019-11-13T15:07:46Z</time>
      </trkpt>
      <trkpt lat="43.19623" lon="5.6617">
        <ele>150</ele>
        <time>2019-11-13T15:07:52Z</time>
      </trkpt>
      <trkpt lat="43.19619" lon="5.66165">
        <ele>148</ele>
        <time>2019-11-13T15:07:58Z</time>
      </trkpt>
      <trkpt lat="43.19612" lon="5.66162">
        <ele>147</ele>
        <time>2019-11-13T15:08:04Z</time>
      </trkpt>
      <trkpt lat="43.19608" lon="5.6616">
        <ele>147</ele>
        <time>2019-11-13T15:08:08Z</time>
      </trkpt>
      <trkpt lat="43.19603" lon="5.66158">
        <ele>147</ele>
        <time>2019-11-13T15:08:12Z</time>
      </trkpt>
      <trkpt lat="43.19599" lon="5.66155">
        <ele>147</ele>
        <time>2019-11-13T15:08:16Z</time>
      </trkpt>
      <trkpt lat="43.19593" lon="5.66152">
        <ele>146</ele>
        <time>2019-11-13T15:08:22Z</time>
      </trkpt>
      <trkpt lat="43.19587" lon="5.66149">
        <ele>145</ele>
        <time>2019-11-13T15:08:28Z</time>
      </trkpt>
      <trkpt lat="43.19582" lon="5.66146">
        <ele>143</ele>
        <time>2019-11-13T15:08:34Z</time>
      </trkpt>
      <trkpt lat="43.19576" lon="5.66144">
        <ele>143</ele>
        <time>2019-11-13T15:08:40Z</time>
      </trkpt>
      <trkpt lat="43.1957" lon="5.66141">
        <ele>142</ele>
        <time>2019-11-13T15:08:46Z</time>
      </trkpt>
      <trkpt lat="43.19565" lon="5.6614">
        <ele>142</ele>
        <time>2019-11-13T15:08:50Z</time>
      </trkpt>
      <trkpt lat="43.19559" lon="5.6614">
        <ele>141</ele>
        <time>2019-11-13T15:08:54Z</time>
      </trkpt>
      <trkpt lat="43.19555" lon="5.6614">
        <ele>141</ele>
        <time>2019-11-13T15:08:58Z</time>
      </trkpt>
      <trkpt lat="43.1955" lon="5.66139">
        <ele>141</ele>
        <time>2019-11-13T15:09:02Z</time>
      </trkpt>
      <trkpt lat="43.19546" lon="5.66136">
        <ele>141</ele>
        <time>2019-11-13T15:09:06Z</time>
      </trkpt>
      <trkpt lat="43.19541" lon="5.66135">
        <ele>140</ele>
        <time>2019-11-13T15:09:10Z</time>
      </trkpt>
      <trkpt lat="43.19535" lon="5.66134">
        <ele>138</ele>
        <time>2019-11-13T15:09:16Z</time>
      </trkpt>
      <trkpt lat="43.1953" lon="5.66132">
        <ele>138</ele>
        <time>2019-11-13T15:09:22Z</time>
      </trkpt>
      <trkpt lat="43.19523" lon="5.6613">
        <ele>138</ele>
        <time>2019-11-13T15:09:28Z</time>
      </trkpt>
      <trkpt lat="43.19518" lon="5.66129">
        <ele>135</ele>
        <time>2019-11-13T15:09:32Z</time>
      </trkpt>
      <trkpt lat="43.19514" lon="5.66126">
        <ele>133</ele>
        <time>2019-11-13T15:09:38Z</time>
      </trkpt>
      <trkpt lat="43.19508" lon="5.66123">
        <ele>131</ele>
        <time>2019-11-13T15:09:44Z</time>
      </trkpt>
      <trkpt lat="43.19504" lon="5.66123">
        <ele>132</ele>
        <time>2019-11-13T15:09:48Z</time>
      </trkpt>
      <trkpt lat="43.19498" lon="5.66122">
        <ele>133</ele>
        <time>2019-11-13T15:09:52Z</time>
      </trkpt>
      <trkpt lat="43.19494" lon="5.66121">
        <ele>132</ele>
        <time>2019-11-13T15:09:56Z</time>
      </trkpt>
      <trkpt lat="43.19489" lon="5.66121">
        <ele>131</ele>
        <time>2019-11-13T15:10:00Z</time>
      </trkpt>
      <trkpt lat="43.19485" lon="5.66119">
        <ele>128</ele>
        <time>2019-11-13T15:10:06Z</time>
      </trkpt>
      <trkpt lat="43.1948" lon="5.66118">
        <ele>128</ele>
        <time>2019-11-13T15:10:12Z</time>
      </trkpt>
      <trkpt lat="43.19474" lon="5.66118">
        <ele>129</ele>
        <time>2019-11-13T15:10:18Z</time>
      </trkpt>
      <trkpt lat="43.19468" lon="5.66119">
        <ele>129</ele>
        <time>2019-11-13T15:10:22Z</time>
      </trkpt>
      <trkpt lat="43.19462" lon="5.6612">
        <ele>129</ele>
        <time>2019-11-13T15:10:26Z</time>
      </trkpt>
      <trkpt lat="43.19456" lon="5.66122">
        <ele>129</ele>
        <time>2019-11-13T15:10:30Z</time>
      </trkpt>
      <trkpt lat="43.19451" lon="5.66123">
        <ele>128</ele>
        <time>2019-11-13T15:10:34Z</time>
      </trkpt>
      <trkpt lat="43.19445" lon="5.66122">
        <ele>126</ele>
        <time>2019-11-13T15:10:40Z</time>
      </trkpt>
      <trkpt lat="43.1944" lon="5.6612">
        <ele>126</ele>
        <time>2019-11-13T15:10:46Z</time>
      </trkpt>
      <trkpt lat="43.19434" lon="5.66118">
        <ele>124</ele>
        <time>2019-11-13T15:10:54Z</time>
      </trkpt>
      <trkpt lat="43.19429" lon="5.6612">
        <ele>124</ele>
        <time>2019-11-13T15:11:00Z</time>
      </trkpt>
      <trkpt lat="43.19423" lon="5.66119">
        <ele>124</ele>
        <time>2019-11-13T15:11:06Z</time>
      </trkpt>
      <trkpt lat="43.19418" lon="5.66118">
        <ele>123</ele>
        <time>2019-11-13T15:11:10Z</time>
      </trkpt>
      <trkpt lat="43.19414" lon="5.66116">
        <ele>124</ele>
        <time>2019-11-13T15:11:14Z</time>
      </trkpt>
      <trkpt lat="43.19409" lon="5.66116">
        <ele>123</ele>
        <time>2019-11-13T15:11:18Z</time>
      </trkpt>
      <trkpt lat="43.19404" lon="5.66115">
        <ele>123</ele>
        <time>2019-11-13T15:11:22Z</time>
      </trkpt>
      <trkpt lat="43.19398" lon="5.66113">
        <ele>126</ele>
        <time>2019-11-13T15:11:26Z</time>
      </trkpt>
      <trkpt lat="43.19392" lon="5.66111">
        <ele>127</ele>
        <time>2019-11-13T15:11:30Z</time>
      </trkpt>
      <trkpt lat="43.19387" lon="5.66108">
        <ele>126</ele>
        <time>2019-11-13T15:11:36Z</time>
      </trkpt>
      <trkpt lat="43.19382" lon="5.66105">
        <ele>125</ele>
        <time>2019-11-13T15:11:42Z</time>
      </trkpt>
      <trkpt lat="43.19378" lon="5.66104">
        <ele>125</ele>
        <time>2019-11-13T15:11:46Z</time>
      </trkpt>
      <trkpt lat="43.19373" lon="5.66104">
        <ele>125</ele>
        <time>2019-11-13T15:11:50Z</time>
      </trkpt>
      <trkpt lat="43.19367" lon="5.66101">
        <ele>122</ele>
        <time>2019-11-13T15:11:58Z</time>
      </trkpt>
      <trkpt lat="43.19362" lon="5.66102">
        <ele>122</ele>
        <time>2019-11-13T15:12:02Z</time>
      </trkpt>
      <trkpt lat="43.19358" lon="5.66103">
        <ele>118</ele>
        <time>2019-11-13T15:12:06Z</time>
      </trkpt>
      <trkpt lat="43.19352" lon="5.66104">
        <ele>119</ele>
        <time>2019-11-13T15:12:10Z</time>
      </trkpt>
      <trkpt lat="43.19347" lon="5.66105">
        <ele>118</ele>
        <time>2019-11-13T15:12:14Z</time>
      </trkpt>
      <trkpt lat="43.19341" lon="5.66105">
        <ele>113</ele>
        <time>2019-11-13T15:12:20Z</time>
      </trkpt>
      <trkpt lat="43.19336" lon="5.66104">
        <ele>114</ele>
        <time>2019-11-13T15:12:24Z</time>
      </trkpt>
      <trkpt lat="43.1933" lon="5.66104">
        <ele>114</ele>
        <time>2019-11-13T15:12:28Z</time>
      </trkpt>
      <trkpt lat="43.19324" lon="5.66106">
        <ele>116</ele>
        <time>2019-11-13T15:12:32Z</time>
      </trkpt>
      <trkpt lat="43.19317" lon="5.66105">
        <ele>114</ele>
        <time>2019-11-13T15:12:38Z</time>
      </trkpt>
      <trkpt lat="43.19313" lon="5.66105">
        <ele>114</ele>
        <time>2019-11-13T15:12:42Z</time>
      </trkpt>
      <trkpt lat="43.19307" lon="5.66101">
        <ele>114</ele>
        <time>2019-11-13T15:12:48Z</time>
      </trkpt>
      <trkpt lat="43.19302" lon="5.66099">
        <ele>113</ele>
        <time>2019-11-13T15:12:54Z</time>
      </trkpt>
      <trkpt lat="43.19296" lon="5.66095">
        <ele>113</ele>
        <time>2019-11-13T15:13:00Z</time>
      </trkpt>
      <trkpt lat="43.19289" lon="5.66093">
        <ele>115</ele>
        <time>2019-11-13T15:13:04Z</time>
      </trkpt>
      <trkpt lat="43.19284" lon="5.6609">
        <ele>114</ele>
        <time>2019-11-13T15:13:08Z</time>
      </trkpt>
      <trkpt lat="43.1928" lon="5.66086">
        <ele>114</ele>
        <time>2019-11-13T15:13:12Z</time>
      </trkpt>
      <trkpt lat="43.19275" lon="5.66083">
        <ele>113</ele>
        <time>2019-11-13T15:13:18Z</time>
      </trkpt>
      <trkpt lat="43.19271" lon="5.66077">
        <ele>113</ele>
        <time>2019-11-13T15:13:24Z</time>
      </trkpt>
      <trkpt lat="43.19265" lon="5.66074">
        <ele>113</ele>
        <time>2019-11-13T15:13:30Z</time>
      </trkpt>
      <trkpt lat="43.19259" lon="5.66072">
        <ele>112</ele>
        <time>2019-11-13T15:13:36Z</time>
      </trkpt>
      <trkpt lat="43.19254" lon="5.6607">
        <ele>114</ele>
        <time>2019-11-13T15:13:40Z</time>
      </trkpt>
      <trkpt lat="43.19249" lon="5.66068">
        <ele>114</ele>
        <time>2019-11-13T15:13:44Z</time>
      </trkpt>
      <trkpt lat="43.19246" lon="5.66062">
        <ele>112</ele>
        <time>2019-11-13T15:13:50Z</time>
      </trkpt>
      <trkpt lat="43.19243" lon="5.66058">
        <ele>114</ele>
        <time>2019-11-13T15:13:54Z</time>
      </trkpt>
      <trkpt lat="43.19239" lon="5.66053">
        <ele>113</ele>
        <time>2019-11-13T15:13:58Z</time>
      </trkpt>
      <trkpt lat="43.19236" lon="5.66048">
        <ele>112</ele>
        <time>2019-11-13T15:14:02Z</time>
      </trkpt>
      <trkpt lat="43.19234" lon="5.6604">
        <ele>110</ele>
        <time>2019-11-13T15:14:08Z</time>
      </trkpt>
      <trkpt lat="43.19234" lon="5.66034">
        <ele>109</ele>
        <time>2019-11-13T15:14:12Z</time>
      </trkpt>
      <trkpt lat="43.19233" lon="5.66027">
        <ele>108</ele>
        <time>2019-11-13T15:14:16Z</time>
      </trkpt>
      <trkpt lat="43.19232" lon="5.66019">
        <ele>106</ele>
        <time>2019-11-13T15:14:22Z</time>
      </trkpt>
      <trkpt lat="43.19231" lon="5.66012">
        <ele>105</ele>
        <time>2019-11-13T15:14:28Z</time>
      </trkpt>
      <trkpt lat="43.1923" lon="5.66006">
        <ele>105</ele>
        <time>2019-11-13T15:14:34Z</time>
      </trkpt>
      <trkpt lat="43.19229" lon="5.65998">
        <ele>102</ele>
        <time>2019-11-13T15:14:40Z</time>
      </trkpt>
      <trkpt lat="43.19227" lon="5.65992">
        <ele>102</ele>
        <time>2019-11-13T15:14:46Z</time>
      </trkpt>
      <trkpt lat="43.19225" lon="5.65985">
        <ele>100</ele>
        <time>2019-11-13T15:14:54Z</time>
      </trkpt>
      <trkpt lat="43.19223" lon="5.65977">
        <ele>100</ele>
        <time>2019-11-13T15:15:02Z</time>
      </trkpt>
      <trkpt lat="43.19222" lon="5.6597">
        <ele>100</ele>
        <time>2019-11-13T15:15:08Z</time>
      </trkpt>
      <trkpt lat="43.19221" lon="5.65961">
        <ele>100</ele>
        <time>2019-11-13T15:15:14Z</time>
      </trkpt>
      <trkpt lat="43.19219" lon="5.65953">
        <ele>101</ele>
        <time>2019-11-13T15:15:20Z</time>
      </trkpt>
      <trkpt lat="43.19218" lon="5.65946">
        <ele>99</ele>
        <time>2019-11-13T15:15:26Z</time>
      </trkpt>
      <trkpt lat="43.19217" lon="5.65939">
        <ele>98</ele>
        <time>2019-11-13T15:15:32Z</time>
      </trkpt>
      <trkpt lat="43.19216" lon="5.65932">
        <ele>97</ele>
        <time>2019-11-13T15:15:38Z</time>
      </trkpt>
      <trkpt lat="43.19215" lon="5.65926">
        <ele>98</ele>
        <time>2019-11-13T15:15:42Z</time>
      </trkpt>
      <trkpt lat="43.19214" lon="5.65919">
        <ele>99</ele>
        <time>2019-11-13T15:15:46Z</time>
      </trkpt>
      <trkpt lat="43.19212" lon="5.6591">
        <ele>99</ele>
        <time>2019-11-13T15:15:52Z</time>
      </trkpt>
      <trkpt lat="43.19211" lon="5.65904">
        <ele>99</ele>
        <time>2019-11-13T15:15:56Z</time>
      </trkpt>
      <trkpt lat="43.1921" lon="5.65897">
        <ele>100</ele>
        <time>2019-11-13T15:16:00Z</time>
      </trkpt>
      <trkpt lat="43.19209" lon="5.65889">
        <ele>102</ele>
        <time>2019-11-13T15:16:06Z</time>
      </trkpt>
      <trkpt lat="43.19207" lon="5.6588">
        <ele>103</ele>
        <time>2019-11-13T15:16:12Z</time>
      </trkpt>
      <trkpt lat="43.19206" lon="5.65871">
        <ele>103</ele>
        <time>2019-11-13T15:16:18Z</time>
      </trkpt>
      <trkpt lat="43.19204" lon="5.65862">
        <ele>103</ele>
        <time>2019-11-13T15:16:24Z</time>
      </trkpt>
      <trkpt lat="43.19204" lon="5.65853">
        <ele>103</ele>
        <time>2019-11-13T15:16:30Z</time>
      </trkpt>
      <trkpt lat="43.19203" lon="5.65847">
        <ele>101</ele>
        <time>2019-11-13T15:16:36Z</time>
      </trkpt>
      <trkpt lat="43.19202" lon="5.6584">
        <ele>100</ele>
        <time>2019-11-13T15:16:42Z</time>
      </trkpt>
      <trkpt lat="43.19201" lon="5.65831">
        <ele>101</ele>
        <time>2019-11-13T15:16:48Z</time>
      </trkpt>
      <trkpt lat="43.192" lon="5.65823">
        <ele>102</ele>
        <time>2019-11-13T15:16:54Z</time>
      </trkpt>
      <trkpt lat="43.19199" lon="5.65815">
        <ele>101</ele>
        <time>2019-11-13T15:17:00Z</time>
      </trkpt>
      <trkpt lat="43.19199" lon="5.65808">
        <ele>101</ele>
        <time>2019-11-13T15:17:06Z</time>
      </trkpt>
      <trkpt lat="43.19199" lon="5.65801">
        <ele>102</ele>
        <time>2019-11-13T15:17:12Z</time>
      </trkpt>
      <trkpt lat="43.19199" lon="5.65794">
        <ele>104</ele>
        <time>2019-11-13T15:17:18Z</time>
      </trkpt>
      <trkpt lat="43.19197" lon="5.65789">
        <ele>110</ele>
        <time>2019-11-13T15:17:28Z</time>
      </trkpt>
    </trkseg>
  </trk>
</gpx>